<?xml version='1.0' encoding='UTF-8'?><gpx version="1.1" creator="JPX - https://github.com/jenetics/jpx" xmlns="http://www.topografix.com/GPX/1/1"><trk><trkseg><trkpt lat="43.5442422" lon="11.3126361"><ele>448.0</ele><time>2026-04-18T10:33:40.407Z</time></trkpt><trkpt lat="43.5442126" lon="11.312393"><ele>448.0</ele><time>2026-04-18T10:33:41.403Z</time></trkpt><trkpt lat="43.5442181" lon="11.3122327"><ele>448.0</ele><time>2026-04-18T10:33:42.411Z</time></trkpt><trkpt lat="43.5442954" lon="11.3121793"><ele>448.0</ele><time>2026-04-18T10:33:44.424Z</time></trkpt><trkpt lat="43.544392" lon="11.3121414"><ele>448.00000000000006</ele><time>2026-04-18T10:33:46.435Z</time></trkpt><trkpt lat="43.5444748" lon="11.3120925"><ele>448.0</ele><time>2026-04-18T10:33:48.442Z</time></trkpt><trkpt lat="43.5445546" lon="11.3120554"><ele>448.0</ele><time>2026-04-18T10:33:50.437Z</time></trkpt><trkpt lat="43.5446111" lon="11.312001"><ele>448.0</ele><time>2026-04-18T10:33:52.459Z</time></trkpt><trkpt lat="43.5446256" lon="11.3121021"><ele>448.00000000000006</ele><time>2026-04-18T10:33:57.428Z</time></trkpt><trkpt lat="43.5445472" lon="11.3122207"><ele>448.0</ele><time>2026-04-18T10:33:59.423Z</time></trkpt><trkpt lat="43.5444693" lon="11.3123271"><ele>448.0</ele><time>2026-04-18T10:34:01.322Z</time></trkpt><trkpt lat="43.5443695" lon="11.312429"><ele>448.0</ele><time>2026-04-18T10:34:03.124Z</time></trkpt><trkpt lat="43.54424" lon="11.3125426"><ele>448.0</ele><time>2026-04-18T10:34:04.921Z</time></trkpt><trkpt lat="43.5440912" lon="11.3127025"><ele>448.0</ele><time>2026-04-18T10:34:06.808Z</time></trkpt><trkpt lat="43.5440053" lon="11.3127707"><ele>447.99999999999994</ele><time>2026-04-18T10:34:07.836Z</time></trkpt><trkpt lat="43.5439159" lon="11.3128556"><ele>447.99999999999994</ele><time>2026-04-18T10:34:08.813Z</time></trkpt><trkpt lat="43.5438428" lon="11.3129524"><ele>448.0</ele><time>2026-04-18T10:34:09.809Z</time></trkpt><trkpt lat="43.5437858" lon="11.3130611"><ele>448.0</ele><time>2026-04-18T10:34:10.817Z</time></trkpt><trkpt lat="43.5437502" lon="11.3131592"><ele>449.0</ele><time>2026-04-18T10:34:11.806Z</time></trkpt><trkpt lat="43.5437495" lon="11.3132819"><ele>449.99999999999994</ele><time>2026-04-18T10:34:12.801Z</time></trkpt><trkpt lat="43.5437778" lon="11.3134133"><ele>450.99999999999994</ele><time>2026-04-18T10:34:13.809Z</time></trkpt><trkpt lat="43.5438258" lon="11.3135457"><ele>452.0</ele><time>2026-04-18T10:34:14.823Z</time></trkpt><trkpt lat="43.5438776" lon="11.3136548"><ele>453.0</ele><time>2026-04-18T10:34:15.811Z</time></trkpt><trkpt lat="43.5439269" lon="11.3137766"><ele>453.4</ele><time>2026-04-18T10:34:16.812Z</time></trkpt><trkpt lat="43.5439652" lon="11.3139076"><ele>453.79999999999995</ele><time>2026-04-18T10:34:17.819Z</time></trkpt><trkpt lat="43.5439881" lon="11.314049"><ele>454.2</ele><time>2026-04-18T10:34:18.818Z</time></trkpt><trkpt lat="43.5439981" lon="11.3141876"><ele>454.6</ele><time>2026-04-18T10:34:19.811Z</time></trkpt><trkpt lat="43.5439842" lon="11.3143167"><ele>455.0</ele><time>2026-04-18T10:34:20.815Z</time></trkpt><trkpt lat="43.5439484" lon="11.3144378"><ele>455.0</ele><time>2026-04-18T10:34:21.8Z</time></trkpt><trkpt lat="43.5438901" lon="11.3145591"><ele>455.0</ele><time>2026-04-18T10:34:22.809Z</time></trkpt><trkpt lat="43.5438157" lon="11.314671"><ele>455.0</ele><time>2026-04-18T10:34:23.818Z</time></trkpt><trkpt lat="43.5437277" lon="11.314759"><ele>455.0</ele><time>2026-04-18T10:34:24.803Z</time></trkpt><trkpt lat="43.5436306" lon="11.3148472"><ele>455.0</ele><time>2026-04-18T10:34:25.81Z</time></trkpt><trkpt lat="43.5435345" lon="11.3149339"><ele>453.5</ele><time>2026-04-18T10:34:26.811Z</time></trkpt><trkpt lat="43.5434381" lon="11.3150184"><ele>452.0</ele><time>2026-04-18T10:34:27.811Z</time></trkpt><trkpt lat="43.5433426" lon="11.3151118"><ele>450.5</ele><time>2026-04-18T10:34:28.808Z</time></trkpt><trkpt lat="43.5432338" lon="11.3151869"><ele>449.0</ele><time>2026-04-18T10:34:29.814Z</time></trkpt><trkpt lat="43.5431121" lon="11.3152576"><ele>449.0</ele><time>2026-04-18T10:34:30.818Z</time></trkpt><trkpt lat="43.5429925" lon="11.3153191"><ele>449.0</ele><time>2026-04-18T10:34:31.815Z</time></trkpt><trkpt lat="43.542871" lon="11.3153794"><ele>449.0</ele><time>2026-04-18T10:34:32.81Z</time></trkpt><trkpt lat="43.5427411" lon="11.3154289"><ele>449.0</ele><time>2026-04-18T10:34:33.808Z</time></trkpt><trkpt lat="43.5426199" lon="11.3154727"><ele>450.0</ele><time>2026-04-18T10:34:34.802Z</time></trkpt><trkpt lat="43.5424976" lon="11.3155255"><ele>451.0</ele><time>2026-04-18T10:34:35.803Z</time></trkpt><trkpt lat="43.5423693" lon="11.31559"><ele>452.0</ele><time>2026-04-18T10:34:36.799Z</time></trkpt><trkpt lat="43.5422342" lon="11.3156417"><ele>453.0</ele><time>2026-04-18T10:34:37.81Z</time></trkpt><trkpt lat="43.5420994" lon="11.3157011"><ele>449.5</ele><time>2026-04-18T10:34:38.817Z</time></trkpt><trkpt lat="43.5419666" lon="11.3157632"><ele>446.0</ele><time>2026-04-18T10:34:39.799Z</time></trkpt><trkpt lat="43.5418375" lon="11.3158047"><ele>442.5</ele><time>2026-04-18T10:34:40.789Z</time></trkpt><trkpt lat="43.5417135" lon="11.3158184"><ele>439.0</ele><time>2026-04-18T10:34:41.794Z</time></trkpt><trkpt lat="43.5415752" lon="11.3158034"><ele>439.0</ele><time>2026-04-18T10:34:42.794Z</time></trkpt><trkpt lat="43.5414387" lon="11.3157554"><ele>439.0</ele><time>2026-04-18T10:34:43.792Z</time></trkpt><trkpt lat="43.5413094" lon="11.3157013"><ele>439.0</ele><time>2026-04-18T10:34:44.794Z</time></trkpt><trkpt lat="43.5411817" lon="11.3156676"><ele>439.0</ele><time>2026-04-18T10:34:45.797Z</time></trkpt><trkpt lat="43.5410705" lon="11.3156572"><ele>438.79999999999995</ele><time>2026-04-18T10:34:46.805Z</time></trkpt><trkpt lat="43.5409654" lon="11.315668"><ele>438.59999999999997</ele><time>2026-04-18T10:34:47.798Z</time></trkpt><trkpt lat="43.540868" lon="11.3157031"><ele>438.4</ele><time>2026-04-18T10:34:48.802Z</time></trkpt><trkpt lat="43.5407753" lon="11.3157562"><ele>438.2</ele><time>2026-04-18T10:34:49.809Z</time></trkpt><trkpt lat="43.5406724" lon="11.3158269"><ele>438.0</ele><time>2026-04-18T10:34:50.807Z</time></trkpt><trkpt lat="43.5405772" lon="11.3159076"><ele>438.0</ele><time>2026-04-18T10:34:51.807Z</time></trkpt><trkpt lat="43.5404853" lon="11.3160131"><ele>438.0</ele><time>2026-04-18T10:34:52.805Z</time></trkpt><trkpt lat="43.5403984" lon="11.3161403"><ele>438.0</ele><time>2026-04-18T10:34:53.799Z</time></trkpt><trkpt lat="43.5403203" lon="11.3162909"><ele>438.0</ele><time>2026-04-18T10:34:54.798Z</time></trkpt><trkpt lat="43.5402439" lon="11.3164515"><ele>440.0</ele><time>2026-04-18T10:34:55.813Z</time></trkpt><trkpt lat="43.5401562" lon="11.3165903"><ele>442.0</ele><time>2026-04-18T10:34:56.804Z</time></trkpt><trkpt lat="43.5400478" lon="11.3166809"><ele>444.0</ele><time>2026-04-18T10:34:57.805Z</time></trkpt><trkpt lat="43.5399355" lon="11.3167483"><ele>446.0</ele><time>2026-04-18T10:34:58.798Z</time></trkpt><trkpt lat="43.5398082" lon="11.3167929"><ele>446.0</ele><time>2026-04-18T10:34:59.808Z</time></trkpt><trkpt lat="43.5396872" lon="11.3168224"><ele>446.0</ele><time>2026-04-18T10:35:00.816Z</time></trkpt><trkpt lat="43.5395649" lon="11.3168462"><ele>446.0</ele><time>2026-04-18T10:35:01.808Z</time></trkpt><trkpt lat="43.5394582" lon="11.3168807"><ele>446.0</ele><time>2026-04-18T10:35:02.813Z</time></trkpt><trkpt lat="43.5393713" lon="11.3169226"><ele>446.0</ele><time>2026-04-18T10:35:03.823Z</time></trkpt><trkpt lat="43.5393005" lon="11.3169549"><ele>445.49999999999994</ele><time>2026-04-18T10:35:04.821Z</time></trkpt><trkpt lat="43.5392474" lon="11.3170021"><ele>445.0</ele><time>2026-04-18T10:35:05.817Z</time></trkpt><trkpt lat="43.5392251" lon="11.317093"><ele>444.5</ele><time>2026-04-18T10:35:07.836Z</time></trkpt><trkpt lat="43.5392258" lon="11.317197"><ele>444.0</ele><time>2026-04-18T10:35:39.825Z</time></trkpt><trkpt lat="43.5392943" lon="11.3172556"><ele>443.49999999999994</ele><time>2026-04-18T10:35:41.793Z</time></trkpt><trkpt lat="43.5393782" lon="11.3172807"><ele>443.0</ele><time>2026-04-18T10:35:42.804Z</time></trkpt><trkpt lat="43.5394869" lon="11.3173043"><ele>446.4</ele><time>2026-04-18T10:35:43.811Z</time></trkpt><trkpt lat="43.5395859" lon="11.3173361"><ele>449.79999999999995</ele><time>2026-04-18T10:35:44.827Z</time></trkpt><trkpt lat="43.5396669" lon="11.3173666"><ele>453.2</ele><time>2026-04-18T10:35:45.823Z</time></trkpt><trkpt lat="43.53976" lon="11.317393"><ele>456.6</ele><time>2026-04-18T10:35:46.824Z</time></trkpt><trkpt lat="43.5398649" lon="11.3174005"><ele>460.0</ele><time>2026-04-18T10:35:47.819Z</time></trkpt><trkpt lat="43.5399758" lon="11.3174053"><ele>460.0</ele><time>2026-04-18T10:35:48.819Z</time></trkpt><trkpt lat="43.5400841" lon="11.3174298"><ele>460.0</ele><time>2026-04-18T10:35:49.823Z</time></trkpt><trkpt lat="43.5401919" lon="11.3174692"><ele>460.0</ele><time>2026-04-18T10:35:50.823Z</time></trkpt><trkpt lat="43.5402936" lon="11.3175268"><ele>460.0</ele><time>2026-04-18T10:35:51.823Z</time></trkpt><trkpt lat="43.540384" lon="11.3175915"><ele>460.0</ele><time>2026-04-18T10:35:52.821Z</time></trkpt><trkpt lat="43.5404752" lon="11.3176373"><ele>461.8</ele><time>2026-04-18T10:35:53.814Z</time></trkpt><trkpt lat="43.5405746" lon="11.3176644"><ele>463.6</ele><time>2026-04-18T10:35:54.809Z</time></trkpt><trkpt lat="43.5406775" lon="11.317671"><ele>465.4</ele><time>2026-04-18T10:35:55.813Z</time></trkpt><trkpt lat="43.5407828" lon="11.3176755"><ele>467.2</ele><time>2026-04-18T10:35:56.807Z</time></trkpt><trkpt lat="43.540887" lon="11.3176822"><ele>469.0</ele><time>2026-04-18T10:35:57.811Z</time></trkpt><trkpt lat="43.5409912" lon="11.3176901"><ele>469.0</ele><time>2026-04-18T10:35:58.816Z</time></trkpt><trkpt lat="43.5410911" lon="11.3176935"><ele>469.0</ele><time>2026-04-18T10:35:59.812Z</time></trkpt><trkpt lat="43.5411964" lon="11.3177026"><ele>469.0</ele><time>2026-04-18T10:36:00.807Z</time></trkpt><trkpt lat="43.5413076" lon="11.3177088"><ele>469.0</ele><time>2026-04-18T10:36:01.804Z</time></trkpt><trkpt lat="43.5414188" lon="11.3177244"><ele>469.0</ele><time>2026-04-18T10:36:02.815Z</time></trkpt><trkpt lat="43.5415314" lon="11.3177571"><ele>470.25</ele><time>2026-04-18T10:36:03.814Z</time></trkpt><trkpt lat="43.541639" lon="11.317807"><ele>471.5</ele><time>2026-04-18T10:36:04.81Z</time></trkpt><trkpt lat="43.5417455" lon="11.3178778"><ele>472.75</ele><time>2026-04-18T10:36:05.816Z</time></trkpt><trkpt lat="43.5418497" lon="11.3179524"><ele>474.0</ele><time>2026-04-18T10:36:06.817Z</time></trkpt><trkpt lat="43.5419567" lon="11.3180277"><ele>476.79999999999995</ele><time>2026-04-18T10:36:07.829Z</time></trkpt><trkpt lat="43.5420583" lon="11.3181009"><ele>479.59999999999997</ele><time>2026-04-18T10:36:08.824Z</time></trkpt><trkpt lat="43.5421565" lon="11.3181623"><ele>482.4</ele><time>2026-04-18T10:36:09.816Z</time></trkpt><trkpt lat="43.5422563" lon="11.3181993"><ele>485.2</ele><time>2026-04-18T10:36:10.822Z</time></trkpt><trkpt lat="43.5423506" lon="11.3181892"><ele>488.0</ele><time>2026-04-18T10:36:11.838Z</time></trkpt><trkpt lat="43.5424501" lon="11.3181284"><ele>486.0</ele><time>2026-04-18T10:36:12.816Z</time></trkpt><trkpt lat="43.5425511" lon="11.3180348"><ele>484.0</ele><time>2026-04-18T10:36:13.807Z</time></trkpt><trkpt lat="43.5426491" lon="11.3179121"><ele>482.0</ele><time>2026-04-18T10:36:14.805Z</time></trkpt><trkpt lat="43.5427336" lon="11.3177834"><ele>480.0</ele><time>2026-04-18T10:36:15.803Z</time></trkpt><trkpt lat="43.54282" lon="11.3176838"><ele>481.6666666666667</ele><time>2026-04-18T10:36:16.817Z</time></trkpt><trkpt lat="43.5429023" lon="11.3176389"><ele>483.33333333333337</ele><time>2026-04-18T10:36:17.809Z</time></trkpt><trkpt lat="43.5429892" lon="11.3176383"><ele>485.0</ele><time>2026-04-18T10:36:18.8Z</time></trkpt><trkpt lat="43.5430797" lon="11.3176681"><ele>486.6666666666667</ele><time>2026-04-18T10:36:19.807Z</time></trkpt><trkpt lat="43.5431642" lon="11.3177084"><ele>488.33333333333337</ele><time>2026-04-18T10:36:20.814Z</time></trkpt><trkpt lat="43.5432195" lon="11.3177666"><ele>490.0</ele><time>2026-04-18T10:36:21.822Z</time></trkpt><trkpt lat="43.5432428" lon="11.3179197"><ele>490.0</ele><time>2026-04-18T10:36:23.819Z</time></trkpt><trkpt lat="43.54322" lon="11.3180145"><ele>490.0</ele><time>2026-04-18T10:36:24.815Z</time></trkpt><trkpt lat="43.5431716" lon="11.3181166"><ele>490.0</ele><time>2026-04-18T10:36:25.812Z</time></trkpt><trkpt lat="43.5431061" lon="11.3182255"><ele>490.0</ele><time>2026-04-18T10:36:26.82Z</time></trkpt><trkpt lat="43.5430303" lon="11.3183401"><ele>490.0</ele><time>2026-04-18T10:36:27.825Z</time></trkpt><trkpt lat="43.5429491" lon="11.3184512"><ele>490.0</ele><time>2026-04-18T10:36:28.828Z</time></trkpt><trkpt lat="43.5428663" lon="11.3185426"><ele>490.0</ele><time>2026-04-18T10:36:29.822Z</time></trkpt><trkpt lat="43.5427839" lon="11.3186349"><ele>490.0</ele><time>2026-04-18T10:36:30.83Z</time></trkpt><trkpt lat="43.5427018" lon="11.3187288"><ele>490.0</ele><time>2026-04-18T10:36:31.827Z</time></trkpt><trkpt lat="43.5426186" lon="11.3188205"><ele>490.0</ele><time>2026-04-18T10:36:32.827Z</time></trkpt><trkpt lat="43.5425331" lon="11.318913"><ele>490.0</ele><time>2026-04-18T10:36:33.826Z</time></trkpt><trkpt lat="43.5424395" lon="11.3189892"><ele>490.0</ele><time>2026-04-18T10:36:34.829Z</time></trkpt><trkpt lat="43.5423416" lon="11.3190654"><ele>490.0</ele><time>2026-04-18T10:36:35.833Z</time></trkpt><trkpt lat="43.5422538" lon="11.3191528"><ele>490.0</ele><time>2026-04-18T10:36:36.834Z</time></trkpt><trkpt lat="43.5421723" lon="11.3192414"><ele>490.0</ele><time>2026-04-18T10:36:37.839Z</time></trkpt><trkpt lat="43.5420978" lon="11.3193281"><ele>490.6</ele><time>2026-04-18T10:36:38.837Z</time></trkpt><trkpt lat="43.5420172" lon="11.319416"><ele>491.2</ele><time>2026-04-18T10:36:39.837Z</time></trkpt><trkpt lat="43.5419377" lon="11.3194993"><ele>491.79999999999995</ele><time>2026-04-18T10:36:40.836Z</time></trkpt><trkpt lat="43.5418625" lon="11.319586"><ele>492.4</ele><time>2026-04-18T10:36:41.839Z</time></trkpt><trkpt lat="43.5417857" lon="11.3196653"><ele>493.0</ele><time>2026-04-18T10:36:42.855Z</time></trkpt><trkpt lat="43.5417161" lon="11.3197313"><ele>493.33333333333337</ele><time>2026-04-18T10:36:43.836Z</time></trkpt><trkpt lat="43.541652" lon="11.3197932"><ele>493.6666666666667</ele><time>2026-04-18T10:36:44.83Z</time></trkpt><trkpt lat="43.5415951" lon="11.3198442"><ele>494.0</ele><time>2026-04-18T10:36:45.837Z</time></trkpt><trkpt lat="43.5415141" lon="11.3199262"><ele>494.33333333333337</ele><time>2026-04-18T10:36:47.829Z</time></trkpt><trkpt lat="43.5414484" lon="11.3200007"><ele>494.6666666666667</ele><time>2026-04-18T10:37:23.832Z</time></trkpt><trkpt lat="43.5413616" lon="11.3200839"><ele>495.0</ele><time>2026-04-18T10:37:25.845Z</time></trkpt><trkpt lat="43.5412938" lon="11.3201459"><ele>495.0</ele><time>2026-04-18T10:37:26.825Z</time></trkpt><trkpt lat="43.5412277" lon="11.3202249"><ele>495.0</ele><time>2026-04-18T10:37:27.831Z</time></trkpt><trkpt lat="43.541148" lon="11.3203017"><ele>495.0</ele><time>2026-04-18T10:37:28.837Z</time></trkpt><trkpt lat="43.5410679" lon="11.3203745"><ele>495.0</ele><time>2026-04-18T10:37:29.83Z</time></trkpt><trkpt lat="43.5410113" lon="11.320444"><ele>495.0</ele><time>2026-04-18T10:37:30.833Z</time></trkpt><trkpt lat="43.540935" lon="11.3205786"><ele>496.6666666666667</ele><time>2026-04-18T10:37:32.832Z</time></trkpt><trkpt lat="43.5408984" lon="11.3206688"><ele>498.33333333333337</ele><time>2026-04-18T10:37:33.833Z</time></trkpt><trkpt lat="43.540862" lon="11.3207704"><ele>500.0</ele><time>2026-04-18T10:37:34.835Z</time></trkpt><trkpt lat="43.5408167" lon="11.3208787"><ele>501.6666666666667</ele><time>2026-04-18T10:37:35.839Z</time></trkpt><trkpt lat="43.5407664" lon="11.3209896"><ele>503.33333333333337</ele><time>2026-04-18T10:37:36.908Z</time></trkpt><trkpt lat="43.5407124" lon="11.3211031"><ele>505.0</ele><time>2026-04-18T10:37:37.911Z</time></trkpt><trkpt lat="43.5406486" lon="11.3212313"><ele>505.0</ele><time>2026-04-18T10:37:38.909Z</time></trkpt><trkpt lat="43.5405916" lon="11.3213629"><ele>505.0</ele><time>2026-04-18T10:37:39.914Z</time></trkpt><trkpt lat="43.5405353" lon="11.3214892"><ele>505.0</ele><time>2026-04-18T10:37:40.914Z</time></trkpt><trkpt lat="43.540483" lon="11.3216078"><ele>505.0</ele><time>2026-04-18T10:37:41.911Z</time></trkpt><trkpt lat="43.5404354" lon="11.3217221"><ele>505.0</ele><time>2026-04-18T10:37:42.907Z</time></trkpt><trkpt lat="43.5403782" lon="11.3218375"><ele>506.8</ele><time>2026-04-18T10:37:43.926Z</time></trkpt><trkpt lat="43.5403224" lon="11.3219514"><ele>508.6</ele><time>2026-04-18T10:37:44.903Z</time></trkpt><trkpt lat="43.5402755" lon="11.3220766"><ele>510.4</ele><time>2026-04-18T10:37:45.908Z</time></trkpt><trkpt lat="43.5402361" lon="11.3222075"><ele>512.2</ele><time>2026-04-18T10:37:46.906Z</time></trkpt><trkpt lat="43.5402065" lon="11.3223299"><ele>514.0</ele><time>2026-04-18T10:37:47.89Z</time></trkpt><trkpt lat="43.5401795" lon="11.3224356"><ele>514.0</ele><time>2026-04-18T10:37:48.887Z</time></trkpt><trkpt lat="43.5401623" lon="11.3225363"><ele>514.0</ele><time>2026-04-18T10:37:49.886Z</time></trkpt><trkpt lat="43.5401309" lon="11.3226222"><ele>514.0</ele><time>2026-04-18T10:37:50.889Z</time></trkpt><trkpt lat="43.5400382" lon="11.3227514"><ele>514.0</ele><time>2026-04-18T10:37:52.901Z</time></trkpt><trkpt lat="43.5399684" lon="11.3228286"><ele>514.0</ele><time>2026-04-18T10:37:53.884Z</time></trkpt><trkpt lat="43.5398894" lon="11.3229133"><ele>514.0</ele><time>2026-04-18T10:37:54.889Z</time></trkpt><trkpt lat="43.5398105" lon="11.3230126"><ele>514.0</ele><time>2026-04-18T10:37:55.893Z</time></trkpt><trkpt lat="43.539744" lon="11.3231288"><ele>514.0</ele><time>2026-04-18T10:37:56.886Z</time></trkpt><trkpt lat="43.5396652" lon="11.323259"><ele>514.0</ele><time>2026-04-18T10:37:57.91Z</time></trkpt><trkpt lat="43.5395823" lon="11.3233857"><ele>511.75</ele><time>2026-04-18T10:37:58.906Z</time></trkpt><trkpt lat="43.539509" lon="11.3235189"><ele>509.5</ele><time>2026-04-18T10:37:59.887Z</time></trkpt><trkpt lat="43.539439" lon="11.3236572"><ele>507.25</ele><time>2026-04-18T10:38:00.888Z</time></trkpt><trkpt lat="43.5393714" lon="11.3238001"><ele>505.0</ele><time>2026-04-18T10:38:01.892Z</time></trkpt><trkpt lat="43.5393055" lon="11.3239387"><ele>505.0</ele><time>2026-04-18T10:38:02.888Z</time></trkpt><trkpt lat="43.5392421" lon="11.3240744"><ele>505.0</ele><time>2026-04-18T10:38:03.905Z</time></trkpt><trkpt lat="43.539183" lon="11.3242062"><ele>505.0</ele><time>2026-04-18T10:38:04.909Z</time></trkpt><trkpt lat="43.5391287" lon="11.3243395"><ele>505.0</ele><time>2026-04-18T10:38:05.901Z</time></trkpt><trkpt lat="43.5390803" lon="11.3244777"><ele>505.0</ele><time>2026-04-18T10:38:06.901Z</time></trkpt><trkpt lat="43.5390374" lon="11.3246191"><ele>505.0</ele><time>2026-04-18T10:38:07.905Z</time></trkpt><trkpt lat="43.538994" lon="11.3247614"><ele>505.0</ele><time>2026-04-18T10:38:08.885Z</time></trkpt><trkpt lat="43.5389454" lon="11.3249066"><ele>505.0</ele><time>2026-04-18T10:38:09.885Z</time></trkpt><trkpt lat="43.5388993" lon="11.3250358"><ele>505.0</ele><time>2026-04-18T10:38:10.886Z</time></trkpt><trkpt lat="43.53885" lon="11.3251548"><ele>504.6</ele><time>2026-04-18T10:38:11.886Z</time></trkpt><trkpt lat="43.5388029" lon="11.3252597"><ele>504.2</ele><time>2026-04-18T10:38:12.912Z</time></trkpt><trkpt lat="43.5387633" lon="11.3253779"><ele>503.79999999999995</ele><time>2026-04-18T10:38:13.906Z</time></trkpt><trkpt lat="43.5387319" lon="11.3254828"><ele>503.4</ele><time>2026-04-18T10:38:14.923Z</time></trkpt><trkpt lat="43.5386982" lon="11.3255954"><ele>503.0</ele><time>2026-04-18T10:38:15.898Z</time></trkpt><trkpt lat="43.5386683" lon="11.3257312"><ele>503.0</ele><time>2026-04-18T10:38:16.899Z</time></trkpt><trkpt lat="43.5386504" lon="11.3258703"><ele>502.99999999999994</ele><time>2026-04-18T10:38:17.901Z</time></trkpt><trkpt lat="43.5386419" lon="11.3259954"><ele>502.99999999999994</ele><time>2026-04-18T10:38:18.896Z</time></trkpt><trkpt lat="43.5386431" lon="11.3261295"><ele>503.0</ele><time>2026-04-18T10:38:19.882Z</time></trkpt><trkpt lat="43.5386558" lon="11.3262688"><ele>503.0</ele><time>2026-04-18T10:38:20.873Z</time></trkpt><trkpt lat="43.5386847" lon="11.3264147"><ele>506.4</ele><time>2026-04-18T10:38:21.874Z</time></trkpt><trkpt lat="43.5387222" lon="11.3265645"><ele>509.79999999999995</ele><time>2026-04-18T10:38:22.884Z</time></trkpt><trkpt lat="43.5387595" lon="11.3266999"><ele>513.2</ele><time>2026-04-18T10:38:23.9Z</time></trkpt><trkpt lat="43.5387928" lon="11.3268216"><ele>516.6</ele><time>2026-04-18T10:38:24.906Z</time></trkpt><trkpt lat="43.5388135" lon="11.3269474"><ele>520.0</ele><time>2026-04-18T10:38:25.91Z</time></trkpt><trkpt lat="43.5388065" lon="11.327221"><ele>521.25</ele><time>2026-04-18T10:38:27.796Z</time></trkpt><trkpt lat="43.5387628" lon="11.3273649"><ele>522.5</ele><time>2026-04-18T10:38:28.796Z</time></trkpt><trkpt lat="43.5387106" lon="11.3275139"><ele>523.75</ele><time>2026-04-18T10:38:29.8Z</time></trkpt><trkpt lat="43.5386421" lon="11.3276582"><ele>525.0</ele><time>2026-04-18T10:38:30.817Z</time></trkpt><trkpt lat="43.5385691" lon="11.3277976"><ele>524.4</ele><time>2026-04-18T10:38:31.812Z</time></trkpt><trkpt lat="43.5384949" lon="11.3279178"><ele>523.8</ele><time>2026-04-18T10:38:32.807Z</time></trkpt><trkpt lat="43.5384247" lon="11.3280112"><ele>523.2</ele><time>2026-04-18T10:38:33.805Z</time></trkpt><trkpt lat="43.5383621" lon="11.3280766"><ele>522.6</ele><time>2026-04-18T10:38:34.816Z</time></trkpt><trkpt lat="43.5382783" lon="11.3281874"><ele>522.0</ele><time>2026-04-18T10:38:36.812Z</time></trkpt><trkpt lat="43.5382357" lon="11.328255"><ele>522.0</ele><time>2026-04-18T10:38:37.82Z</time></trkpt><trkpt lat="43.5381916" lon="11.3283308"><ele>522.0</ele><time>2026-04-18T10:38:38.816Z</time></trkpt><trkpt lat="43.5381392" lon="11.3284115"><ele>522.0</ele><time>2026-04-18T10:38:39.822Z</time></trkpt><trkpt lat="43.5380905" lon="11.3284994"><ele>522.0</ele><time>2026-04-18T10:38:40.816Z</time></trkpt><trkpt lat="43.5380542" lon="11.3285864"><ele>522.0</ele><time>2026-04-18T10:38:41.812Z</time></trkpt><trkpt lat="43.5380287" lon="11.3286751"><ele>522.0</ele><time>2026-04-18T10:38:42.815Z</time></trkpt><trkpt lat="43.538015" lon="11.3287736"><ele>522.0</ele><time>2026-04-18T10:38:43.811Z</time></trkpt><trkpt lat="43.5380073" lon="11.3288772"><ele>523.2</ele><time>2026-04-18T10:38:44.817Z</time></trkpt><trkpt lat="43.5380007" lon="11.3289761"><ele>524.4000000000001</ele><time>2026-04-18T10:38:45.837Z</time></trkpt><trkpt lat="43.5379944" lon="11.3290875"><ele>525.5999999999999</ele><time>2026-04-18T10:38:46.815Z</time></trkpt><trkpt lat="43.5379954" lon="11.329224"><ele>526.8</ele><time>2026-04-18T10:38:47.814Z</time></trkpt><trkpt lat="43.5380002" lon="11.3293733"><ele>528.0</ele><time>2026-04-18T10:38:48.815Z</time></trkpt><trkpt lat="43.5380063" lon="11.3295252"><ele>528.0</ele><time>2026-04-18T10:38:49.819Z</time></trkpt><trkpt lat="43.538017" lon="11.3296881"><ele>528.0</ele><time>2026-04-18T10:38:50.814Z</time></trkpt><trkpt lat="43.5380325" lon="11.3298552"><ele>528.0</ele><time>2026-04-18T10:38:51.818Z</time></trkpt><trkpt lat="43.5380476" lon="11.3300243"><ele>528.0</ele><time>2026-04-18T10:38:52.822Z</time></trkpt><trkpt lat="43.53806" lon="11.3301936"><ele>527.25</ele><time>2026-04-18T10:38:53.823Z</time></trkpt><trkpt lat="43.5380691" lon="11.3303601"><ele>526.5</ele><time>2026-04-18T10:38:54.819Z</time></trkpt><trkpt lat="43.5380794" lon="11.3305221"><ele>525.75</ele><time>2026-04-18T10:38:55.821Z</time></trkpt><trkpt lat="43.5380892" lon="11.3306872"><ele>525.0</ele><time>2026-04-18T10:38:56.822Z</time></trkpt><trkpt lat="43.5381016" lon="11.3308463"><ele>523.25</ele><time>2026-04-18T10:38:57.82Z</time></trkpt><trkpt lat="43.5381173" lon="11.3310178"><ele>521.5</ele><time>2026-04-18T10:38:58.821Z</time></trkpt><trkpt lat="43.5381354" lon="11.3311825"><ele>519.75</ele><time>2026-04-18T10:38:59.812Z</time></trkpt><trkpt lat="43.5381411" lon="11.3313331"><ele>518.0</ele><time>2026-04-18T10:39:00.83Z</time></trkpt><trkpt lat="43.5381212" lon="11.3314759"><ele>517.1999999999999</ele><time>2026-04-18T10:39:01.818Z</time></trkpt><trkpt lat="43.5380942" lon="11.3316146"><ele>516.4</ele><time>2026-04-18T10:39:02.829Z</time></trkpt><trkpt lat="43.5380513" lon="11.3317368"><ele>515.5999999999999</ele><time>2026-04-18T10:39:03.821Z</time></trkpt><trkpt lat="43.5380037" lon="11.3318528"><ele>514.8</ele><time>2026-04-18T10:39:04.816Z</time></trkpt><trkpt lat="43.5379441" lon="11.3319618"><ele>514.0</ele><time>2026-04-18T10:39:05.813Z</time></trkpt><trkpt lat="43.5378742" lon="11.3320699"><ele>512.75</ele><time>2026-04-18T10:39:06.821Z</time></trkpt><trkpt lat="43.5377958" lon="11.3321722"><ele>511.5</ele><time>2026-04-18T10:39:07.824Z</time></trkpt><trkpt lat="43.5377076" lon="11.3322884"><ele>510.25</ele><time>2026-04-18T10:39:08.826Z</time></trkpt><trkpt lat="43.5376264" lon="11.3324257"><ele>509.0</ele><time>2026-04-18T10:39:09.824Z</time></trkpt><trkpt lat="43.5375604" lon="11.332589"><ele>509.0</ele><time>2026-04-18T10:39:10.829Z</time></trkpt><trkpt lat="43.5375078" lon="11.3327662"><ele>509.0</ele><time>2026-04-18T10:39:11.821Z</time></trkpt><trkpt lat="43.5374702" lon="11.3329346"><ele>509.0</ele><time>2026-04-18T10:39:12.83Z</time></trkpt><trkpt lat="43.5374387" lon="11.3330936"><ele>509.0</ele><time>2026-04-18T10:39:13.824Z</time></trkpt><trkpt lat="43.5374183" lon="11.3332334"><ele>508.79999999999995</ele><time>2026-04-18T10:39:14.814Z</time></trkpt><trkpt lat="43.5373909" lon="11.3333699"><ele>508.59999999999997</ele><time>2026-04-18T10:39:15.824Z</time></trkpt><trkpt lat="43.5373784" lon="11.3335105"><ele>508.4</ele><time>2026-04-18T10:39:16.845Z</time></trkpt><trkpt lat="43.5373898" lon="11.3336487"><ele>508.2</ele><time>2026-04-18T10:39:17.828Z</time></trkpt><trkpt lat="43.5374246" lon="11.333797"><ele>508.0</ele><time>2026-04-18T10:39:18.826Z</time></trkpt><trkpt lat="43.5374524" lon="11.3339318"><ele>508.4</ele><time>2026-04-18T10:39:19.823Z</time></trkpt><trkpt lat="43.5374599" lon="11.3340673"><ele>508.79999999999995</ele><time>2026-04-18T10:39:20.81Z</time></trkpt><trkpt lat="43.5374556" lon="11.3342098"><ele>509.2</ele><time>2026-04-18T10:39:21.828Z</time></trkpt><trkpt lat="43.5374338" lon="11.3343588"><ele>509.6</ele><time>2026-04-18T10:39:22.815Z</time></trkpt><trkpt lat="43.537402" lon="11.3345074"><ele>510.0</ele><time>2026-04-18T10:39:23.814Z</time></trkpt><trkpt lat="43.5373724" lon="11.3346459"><ele>511.2</ele><time>2026-04-18T10:39:24.813Z</time></trkpt><trkpt lat="43.5373432" lon="11.3347837"><ele>512.4</ele><time>2026-04-18T10:39:25.822Z</time></trkpt><trkpt lat="43.5373094" lon="11.3349173"><ele>513.6</ele><time>2026-04-18T10:39:26.817Z</time></trkpt><trkpt lat="43.5372698" lon="11.3350517"><ele>514.8</ele><time>2026-04-18T10:39:27.823Z</time></trkpt><trkpt lat="43.5372281" lon="11.3351793"><ele>516.0</ele><time>2026-04-18T10:39:28.82Z</time></trkpt><trkpt lat="43.5371875" lon="11.3353191"><ele>516.0</ele><time>2026-04-18T10:39:29.816Z</time></trkpt><trkpt lat="43.5371447" lon="11.3354637"><ele>516.0</ele><time>2026-04-18T10:39:30.821Z</time></trkpt><trkpt lat="43.5370898" lon="11.3356017"><ele>516.0</ele><time>2026-04-18T10:39:31.818Z</time></trkpt><trkpt lat="43.5370323" lon="11.3357177"><ele>516.0</ele><time>2026-04-18T10:39:32.821Z</time></trkpt><trkpt lat="43.536975" lon="11.3358059"><ele>516.0</ele><time>2026-04-18T10:39:33.823Z</time></trkpt><trkpt lat="43.536899" lon="11.335871"><ele>518.4</ele><time>2026-04-18T10:39:34.807Z</time></trkpt><trkpt lat="43.536816" lon="11.335925"><ele>520.8</ele><time>2026-04-18T10:39:35.817Z</time></trkpt><trkpt lat="43.5367216" lon="11.335971"><ele>523.1999999999999</ele><time>2026-04-18T10:39:36.809Z</time></trkpt><trkpt lat="43.5366135" lon="11.3360075"><ele>525.6</ele><time>2026-04-18T10:39:37.815Z</time></trkpt><trkpt lat="43.5365088" lon="11.3360462"><ele>528.0</ele><time>2026-04-18T10:39:38.813Z</time></trkpt><trkpt lat="43.5364021" lon="11.3360781"><ele>528.0</ele><time>2026-04-18T10:39:39.809Z</time></trkpt><trkpt lat="43.5362956" lon="11.336107"><ele>528.0</ele><time>2026-04-18T10:39:40.794Z</time></trkpt><trkpt lat="43.5362028" lon="11.3361148"><ele>528.0</ele><time>2026-04-18T10:39:41.796Z</time></trkpt><trkpt lat="43.5361203" lon="11.336103"><ele>528.0</ele><time>2026-04-18T10:39:42.807Z</time></trkpt><trkpt lat="43.5360408" lon="11.3360765"><ele>528.0</ele><time>2026-04-18T10:39:43.814Z</time></trkpt><trkpt lat="43.5359682" lon="11.3360385"><ele>528.0</ele><time>2026-04-18T10:39:44.809Z</time></trkpt><trkpt lat="43.5358537" lon="11.3360449"><ele>528.1999999999999</ele><time>2026-04-18T10:39:46.818Z</time></trkpt><trkpt lat="43.5357587" lon="11.3361362"><ele>528.4</ele><time>2026-04-18T10:39:48.815Z</time></trkpt><trkpt lat="43.5357203" lon="11.3362953"><ele>528.5999999999999</ele><time>2026-04-18T10:39:50.811Z</time></trkpt><trkpt lat="43.5357162" lon="11.3363967"><ele>528.8</ele><time>2026-04-18T10:39:51.803Z</time></trkpt><trkpt lat="43.5357298" lon="11.336522"><ele>529.0</ele><time>2026-04-18T10:39:52.814Z</time></trkpt><trkpt lat="43.5357267" lon="11.3366319"><ele>530.0</ele><time>2026-04-18T10:39:53.809Z</time></trkpt><trkpt lat="43.5357045" lon="11.3367162"><ele>531.0</ele><time>2026-04-18T10:39:54.811Z</time></trkpt><trkpt lat="43.5356626" lon="11.3367907"><ele>532.0</ele><time>2026-04-18T10:39:55.821Z</time></trkpt><trkpt lat="43.5356043" lon="11.3368446"><ele>533.0</ele><time>2026-04-18T10:39:56.804Z</time></trkpt><trkpt lat="43.5355313" lon="11.3369072"><ele>534.0</ele><time>2026-04-18T10:39:57.802Z</time></trkpt><trkpt lat="43.5354461" lon="11.3369732"><ele>535.0</ele><time>2026-04-18T10:39:58.804Z</time></trkpt><trkpt lat="43.5353499" lon="11.3370355"><ele>535.0</ele><time>2026-04-18T10:39:59.805Z</time></trkpt><trkpt lat="43.5352493" lon="11.3370995"><ele>535.0</ele><time>2026-04-18T10:40:00.803Z</time></trkpt><trkpt lat="43.5351534" lon="11.3371773"><ele>535.0</ele><time>2026-04-18T10:40:01.802Z</time></trkpt><trkpt lat="43.5350578" lon="11.3372603"><ele>535.0</ele><time>2026-04-18T10:40:02.803Z</time></trkpt><trkpt lat="43.5349648" lon="11.3373429"><ele>535.0</ele><time>2026-04-18T10:40:03.807Z</time></trkpt><trkpt lat="43.534873" lon="11.3374127"><ele>537.2</ele><time>2026-04-18T10:40:04.805Z</time></trkpt><trkpt lat="43.5347834" lon="11.3374776"><ele>539.4</ele><time>2026-04-18T10:40:05.822Z</time></trkpt><trkpt lat="43.5346926" lon="11.3375545"><ele>541.6</ele><time>2026-04-18T10:40:06.811Z</time></trkpt><trkpt lat="43.5346011" lon="11.3376444"><ele>543.8</ele><time>2026-04-18T10:40:07.809Z</time></trkpt><trkpt lat="43.5345172" lon="11.3377332"><ele>546.0</ele><time>2026-04-18T10:40:08.806Z</time></trkpt><trkpt lat="43.5344432" lon="11.3378053"><ele>546.0</ele><time>2026-04-18T10:40:09.813Z</time></trkpt><trkpt lat="43.5343831" lon="11.337868"><ele>546.0</ele><time>2026-04-18T10:40:10.813Z</time></trkpt><trkpt lat="43.5343009" lon="11.3379858"><ele>546.0</ele><time>2026-04-18T10:40:12.811Z</time></trkpt><trkpt lat="43.5342901" lon="11.3381463"><ele>546.0</ele><time>2026-04-18T10:40:14.812Z</time></trkpt><trkpt lat="43.5343045" lon="11.3382353"><ele>546.0</ele><time>2026-04-18T10:40:15.823Z</time></trkpt><trkpt lat="43.53433" lon="11.3383216"><ele>546.0</ele><time>2026-04-18T10:40:16.817Z</time></trkpt><trkpt lat="43.5344078" lon="11.3384617"><ele>547.6666666666666</ele><time>2026-04-18T10:40:18.841Z</time></trkpt><trkpt lat="43.5344609" lon="11.3385419"><ele>549.3333333333334</ele><time>2026-04-18T10:40:19.82Z</time></trkpt><trkpt lat="43.5345075" lon="11.3386273"><ele>551.0</ele><time>2026-04-18T10:40:20.825Z</time></trkpt><trkpt lat="43.5345539" lon="11.3387192"><ele>552.6666666666667</ele><time>2026-04-18T10:40:21.823Z</time></trkpt><trkpt lat="43.5346043" lon="11.3388168"><ele>554.3333333333334</ele><time>2026-04-18T10:40:22.823Z</time></trkpt><trkpt lat="43.5346526" lon="11.3389144"><ele>556.0</ele><time>2026-04-18T10:40:23.819Z</time></trkpt><trkpt lat="43.5347016" lon="11.3390169"><ele>563.0</ele><time>2026-04-18T10:40:24.817Z</time></trkpt><trkpt lat="43.5347553" lon="11.3391352"><ele>570.0</ele><time>2026-04-18T10:40:25.823Z</time></trkpt><trkpt lat="43.5348136" lon="11.3392681"><ele>577.0</ele><time>2026-04-18T10:40:26.821Z</time></trkpt><trkpt lat="43.5348831" lon="11.3394184"><ele>584.0</ele><time>2026-04-18T10:40:27.811Z</time></trkpt><trkpt lat="43.5349583" lon="11.3395759"><ele>582.4</ele><time>2026-04-18T10:40:28.817Z</time></trkpt><trkpt lat="43.5350323" lon="11.3397274"><ele>580.8</ele><time>2026-04-18T10:40:29.81Z</time></trkpt><trkpt lat="43.5350919" lon="11.339859"><ele>579.2</ele><time>2026-04-18T10:40:30.808Z</time></trkpt><trkpt lat="43.5351515" lon="11.3399712"><ele>577.6</ele><time>2026-04-18T10:40:31.813Z</time></trkpt><trkpt lat="43.5352141" lon="11.3400779"><ele>576.0</ele><time>2026-04-18T10:40:32.811Z</time></trkpt><trkpt lat="43.535299" lon="11.3401791"><ele>581.8</ele><time>2026-04-18T10:40:33.81Z</time></trkpt><trkpt lat="43.5353895" lon="11.3402628"><ele>587.6</ele><time>2026-04-18T10:40:34.818Z</time></trkpt><trkpt lat="43.535475" lon="11.3403331"><ele>593.4</ele><time>2026-04-18T10:40:35.808Z</time></trkpt><trkpt lat="43.5355557" lon="11.3403969"><ele>599.2</ele><time>2026-04-18T10:40:36.818Z</time></trkpt><trkpt lat="43.5356444" lon="11.3404612"><ele>605.0</ele><time>2026-04-18T10:40:37.808Z</time></trkpt><trkpt lat="43.5357407" lon="11.3405247"><ele>601.4</ele><time>2026-04-18T10:40:38.807Z</time></trkpt><trkpt lat="43.535839" lon="11.3405832"><ele>597.8</ele><time>2026-04-18T10:40:39.804Z</time></trkpt><trkpt lat="43.5359272" lon="11.3406362"><ele>594.2</ele><time>2026-04-18T10:40:40.804Z</time></trkpt><trkpt lat="43.53601" lon="11.3406943"><ele>590.6</ele><time>2026-04-18T10:40:41.805Z</time></trkpt><trkpt lat="43.5360892" lon="11.3407516"><ele>587.0</ele><time>2026-04-18T10:40:42.803Z</time></trkpt><trkpt lat="43.5361708" lon="11.3408075"><ele>591.8000000000001</ele><time>2026-04-18T10:40:43.806Z</time></trkpt><trkpt lat="43.5362542" lon="11.3408681"><ele>596.6</ele><time>2026-04-18T10:40:44.804Z</time></trkpt><trkpt lat="43.5363358" lon="11.3409389"><ele>601.4000000000001</ele><time>2026-04-18T10:40:45.805Z</time></trkpt><trkpt lat="43.536408" lon="11.3410171"><ele>606.2</ele><time>2026-04-18T10:40:46.817Z</time></trkpt><trkpt lat="43.5364812" lon="11.3410891"><ele>611.0</ele><time>2026-04-18T10:40:47.802Z</time></trkpt><trkpt lat="43.5365654" lon="11.3411451"><ele>611.0</ele><time>2026-04-18T10:40:48.8Z</time></trkpt><trkpt lat="43.5366607" lon="11.3411925"><ele>611.0</ele><time>2026-04-18T10:40:49.824Z</time></trkpt><trkpt lat="43.5367575" lon="11.34124"><ele>611.0</ele><time>2026-04-18T10:40:50.806Z</time></trkpt><trkpt lat="43.536848" lon="11.341287"><ele>611.0</ele><time>2026-04-18T10:40:51.808Z</time></trkpt><trkpt lat="43.5369176" lon="11.3413352"><ele>611.0</ele><time>2026-04-18T10:40:52.804Z</time></trkpt><trkpt lat="43.5369694" lon="11.3413887"><ele>611.0</ele><time>2026-04-18T10:40:53.799Z</time></trkpt><trkpt lat="43.5370297" lon="11.3415286"><ele>609.2</ele><time>2026-04-18T10:40:55.806Z</time></trkpt><trkpt lat="43.537026" lon="11.3417005"><ele>607.4000000000001</ele><time>2026-04-18T10:40:57.811Z</time></trkpt><trkpt lat="43.5370124" lon="11.3418009"><ele>605.6</ele><time>2026-04-18T10:40:58.811Z</time></trkpt><trkpt lat="43.5369958" lon="11.3419059"><ele>603.8000000000001</ele><time>2026-04-18T10:40:59.809Z</time></trkpt><trkpt lat="43.5369825" lon="11.342024"><ele>602.0</ele><time>2026-04-18T10:41:00.817Z</time></trkpt><trkpt lat="43.53698" lon="11.3421509"><ele>604.0</ele><time>2026-04-18T10:41:01.817Z</time></trkpt><trkpt lat="43.536985" lon="11.3422953"><ele>606.0</ele><time>2026-04-18T10:41:02.817Z</time></trkpt><trkpt lat="43.5369865" lon="11.3424444"><ele>608.0</ele><time>2026-04-18T10:41:03.817Z</time></trkpt><trkpt lat="43.5369901" lon="11.3425902"><ele>610.0</ele><time>2026-04-18T10:41:04.818Z</time></trkpt><trkpt lat="43.5369887" lon="11.3427271"><ele>612.0</ele><time>2026-04-18T10:41:05.817Z</time></trkpt><trkpt lat="43.5369882" lon="11.3428727"><ele>612.0</ele><time>2026-04-18T10:41:06.82Z</time></trkpt><trkpt lat="43.5369887" lon="11.3430221"><ele>612.0</ele><time>2026-04-18T10:41:07.817Z</time></trkpt><trkpt lat="43.5369853" lon="11.343159"><ele>612.0</ele><time>2026-04-18T10:41:08.81Z</time></trkpt><trkpt lat="43.5369822" lon="11.3432793"><ele>612.0</ele><time>2026-04-18T10:41:09.819Z</time></trkpt><trkpt lat="43.5369804" lon="11.3433808"><ele>612.0</ele><time>2026-04-18T10:41:10.821Z</time></trkpt><trkpt lat="43.536976" lon="11.3434752"><ele>612.0</ele><time>2026-04-18T10:41:11.821Z</time></trkpt><trkpt lat="43.536959" lon="11.343568"><ele>614.1666666666666</ele><time>2026-04-18T10:41:12.818Z</time></trkpt><trkpt lat="43.5369303" lon="11.3436649"><ele>616.3333333333334</ele><time>2026-04-18T10:41:13.822Z</time></trkpt><trkpt lat="43.5368948" lon="11.3437709"><ele>618.5</ele><time>2026-04-18T10:41:14.82Z</time></trkpt><trkpt lat="43.5368637" lon="11.3438929"><ele>620.6666666666667</ele><time>2026-04-18T10:41:15.819Z</time></trkpt><trkpt lat="43.5368284" lon="11.3440145"><ele>622.8333333333334</ele><time>2026-04-18T10:41:16.82Z</time></trkpt><trkpt lat="43.5367949" lon="11.3441245"><ele>625.0</ele><time>2026-04-18T10:41:17.816Z</time></trkpt><trkpt lat="43.5367644" lon="11.3442231"><ele>626.3333333333334</ele><time>2026-04-18T10:41:18.818Z</time></trkpt><trkpt lat="43.536732" lon="11.3443174"><ele>627.6666666666667</ele><time>2026-04-18T10:41:19.82Z</time></trkpt><trkpt lat="43.536703" lon="11.3444143"><ele>629.0</ele><time>2026-04-18T10:41:20.842Z</time></trkpt><trkpt lat="43.5366698" lon="11.3445257"><ele>630.3333333333334</ele><time>2026-04-18T10:41:21.829Z</time></trkpt><trkpt lat="43.5366335" lon="11.3446445"><ele>631.6666666666666</ele><time>2026-04-18T10:41:22.823Z</time></trkpt><trkpt lat="43.5365911" lon="11.3447701"><ele>633.0</ele><time>2026-04-18T10:41:23.828Z</time></trkpt><trkpt lat="43.5365508" lon="11.3448933"><ele>634.0</ele><time>2026-04-18T10:41:24.826Z</time></trkpt><trkpt lat="43.5365093" lon="11.3450188"><ele>635.0</ele><time>2026-04-18T10:41:25.827Z</time></trkpt><trkpt lat="43.5364682" lon="11.345144"><ele>636.0</ele><time>2026-04-18T10:41:26.825Z</time></trkpt><trkpt lat="43.5364233" lon="11.3452659"><ele>637.0</ele><time>2026-04-18T10:41:27.826Z</time></trkpt><trkpt lat="43.536384" lon="11.3453871"><ele>638.0</ele><time>2026-04-18T10:41:28.827Z</time></trkpt><trkpt lat="43.5363513" lon="11.3455099"><ele>637.6</ele><time>2026-04-18T10:41:29.825Z</time></trkpt><trkpt lat="43.5363136" lon="11.3456329"><ele>637.1999999999999</ele><time>2026-04-18T10:41:30.826Z</time></trkpt><trkpt lat="43.5362706" lon="11.3457549"><ele>636.8</ele><time>2026-04-18T10:41:31.828Z</time></trkpt><trkpt lat="43.5362321" lon="11.3458809"><ele>636.4</ele><time>2026-04-18T10:41:32.824Z</time></trkpt><trkpt lat="43.5361915" lon="11.346014"><ele>636.0</ele><time>2026-04-18T10:41:33.822Z</time></trkpt><trkpt lat="43.5361554" lon="11.3461427"><ele>637.6</ele><time>2026-04-18T10:41:34.824Z</time></trkpt><trkpt lat="43.5361173" lon="11.3462729"><ele>639.2</ele><time>2026-04-18T10:41:35.821Z</time></trkpt><trkpt lat="43.536078" lon="11.3464001"><ele>640.8000000000001</ele><time>2026-04-18T10:41:36.816Z</time></trkpt><trkpt lat="43.5360378" lon="11.3465189"><ele>642.4000000000001</ele><time>2026-04-18T10:41:37.816Z</time></trkpt><trkpt lat="43.5359934" lon="11.3466355"><ele>644.0</ele><time>2026-04-18T10:41:38.808Z</time></trkpt><trkpt lat="43.5359504" lon="11.3467424"><ele>644.6</ele><time>2026-04-18T10:41:39.815Z</time></trkpt><trkpt lat="43.5358989" lon="11.3468399"><ele>645.2</ele><time>2026-04-18T10:41:40.813Z</time></trkpt><trkpt lat="43.5358313" lon="11.346925"><ele>645.8000000000001</ele><time>2026-04-18T10:41:41.808Z</time></trkpt><trkpt lat="43.5357528" lon="11.3469989"><ele>646.4000000000001</ele><time>2026-04-18T10:41:42.812Z</time></trkpt><trkpt lat="43.5356649" lon="11.3470744"><ele>647.0</ele><time>2026-04-18T10:41:43.821Z</time></trkpt><trkpt lat="43.5355689" lon="11.3471454"><ele>646.0</ele><time>2026-04-18T10:41:44.822Z</time></trkpt><trkpt lat="43.5354734" lon="11.3472159"><ele>645.0</ele><time>2026-04-18T10:41:45.82Z</time></trkpt><trkpt lat="43.5353832" lon="11.3472876"><ele>644.0</ele><time>2026-04-18T10:41:46.824Z</time></trkpt><trkpt lat="43.5352955" lon="11.3473635"><ele>643.0</ele><time>2026-04-18T10:41:47.816Z</time></trkpt><trkpt lat="43.5352033" lon="11.3474439"><ele>642.0</ele><time>2026-04-18T10:41:48.815Z</time></trkpt><trkpt lat="43.5351125" lon="11.347531"><ele>644.6</ele><time>2026-04-18T10:41:49.822Z</time></trkpt><trkpt lat="43.5350228" lon="11.3476139"><ele>647.2</ele><time>2026-04-18T10:41:50.82Z</time></trkpt><trkpt lat="43.5349283" lon="11.3476941"><ele>649.8</ele><time>2026-04-18T10:41:51.861Z</time></trkpt><trkpt lat="43.5348328" lon="11.3477645"><ele>652.4</ele><time>2026-04-18T10:41:52.825Z</time></trkpt><trkpt lat="43.5347411" lon="11.3478413"><ele>655.0</ele><time>2026-04-18T10:41:53.822Z</time></trkpt><trkpt lat="43.5346491" lon="11.3479161"><ele>655.0</ele><time>2026-04-18T10:41:54.822Z</time></trkpt><trkpt lat="43.5345592" lon="11.3479949"><ele>655.0</ele><time>2026-04-18T10:41:55.83Z</time></trkpt><trkpt lat="43.5344644" lon="11.3480712"><ele>655.0</ele><time>2026-04-18T10:41:56.825Z</time></trkpt><trkpt lat="43.5343704" lon="11.34816"><ele>655.0</ele><time>2026-04-18T10:41:57.822Z</time></trkpt><trkpt lat="43.5342689" lon="11.3482424"><ele>655.0</ele><time>2026-04-18T10:41:58.823Z</time></trkpt><trkpt lat="43.5341593" lon="11.3483229"><ele>654.25</ele><time>2026-04-18T10:41:59.826Z</time></trkpt><trkpt lat="43.5340557" lon="11.3484124"><ele>653.5</ele><time>2026-04-18T10:42:00.828Z</time></trkpt><trkpt lat="43.5339548" lon="11.3484997"><ele>652.75</ele><time>2026-04-18T10:42:01.821Z</time></trkpt><trkpt lat="43.5338513" lon="11.3485874"><ele>652.0</ele><time>2026-04-18T10:42:02.82Z</time></trkpt><trkpt lat="43.5337436" lon="11.3486755"><ele>653.75</ele><time>2026-04-18T10:42:03.819Z</time></trkpt><trkpt lat="43.5336345" lon="11.3487659"><ele>655.5</ele><time>2026-04-18T10:42:04.82Z</time></trkpt><trkpt lat="43.5335265" lon="11.3488606"><ele>657.25</ele><time>2026-04-18T10:42:05.821Z</time></trkpt><trkpt lat="43.5334247" lon="11.3489535"><ele>659.0</ele><time>2026-04-18T10:42:06.821Z</time></trkpt><trkpt lat="43.5333225" lon="11.349044"><ele>659.0</ele><time>2026-04-18T10:42:07.826Z</time></trkpt><trkpt lat="43.5332193" lon="11.3491292"><ele>659.0</ele><time>2026-04-18T10:42:08.823Z</time></trkpt><trkpt lat="43.5331153" lon="11.3492121"><ele>659.0</ele><time>2026-04-18T10:42:09.817Z</time></trkpt><trkpt lat="43.5330094" lon="11.3492929"><ele>659.0</ele><time>2026-04-18T10:42:10.824Z</time></trkpt><trkpt lat="43.5329072" lon="11.3493748"><ele>657.5</ele><time>2026-04-18T10:42:11.824Z</time></trkpt><trkpt lat="43.532804" lon="11.3494664"><ele>656.0</ele><time>2026-04-18T10:42:12.819Z</time></trkpt><trkpt lat="43.5326998" lon="11.3495616"><ele>654.5</ele><time>2026-04-18T10:42:13.819Z</time></trkpt><trkpt lat="43.5325896" lon="11.3496601"><ele>653.0</ele><time>2026-04-18T10:42:14.819Z</time></trkpt><trkpt lat="43.5324816" lon="11.3497561"><ele>656.25</ele><time>2026-04-18T10:42:15.816Z</time></trkpt><trkpt lat="43.5323763" lon="11.3498429"><ele>659.5</ele><time>2026-04-18T10:42:16.819Z</time></trkpt><trkpt lat="43.5322745" lon="11.3499242"><ele>662.75</ele><time>2026-04-18T10:42:17.811Z</time></trkpt><trkpt lat="43.5321824" lon="11.3499884"><ele>666.0</ele><time>2026-04-18T10:42:18.822Z</time></trkpt><trkpt lat="43.5320934" lon="11.3500682"><ele>665.0</ele><time>2026-04-18T10:42:19.822Z</time></trkpt><trkpt lat="43.5320079" lon="11.3501681"><ele>664.0</ele><time>2026-04-18T10:42:20.82Z</time></trkpt><trkpt lat="43.5319316" lon="11.3502858"><ele>663.0</ele><time>2026-04-18T10:42:21.841Z</time></trkpt><trkpt lat="43.5318703" lon="11.3504148"><ele>662.0</ele><time>2026-04-18T10:42:22.811Z</time></trkpt><trkpt lat="43.5318192" lon="11.3505549"><ele>662.0</ele><time>2026-04-18T10:42:23.812Z</time></trkpt><trkpt lat="43.5317764" lon="11.3507009"><ele>662.0</ele><time>2026-04-18T10:42:24.819Z</time></trkpt><trkpt lat="43.531749" lon="11.3508389"><ele>662.0</ele><time>2026-04-18T10:42:25.827Z</time></trkpt><trkpt lat="43.5317344" lon="11.3509943"><ele>662.0</ele><time>2026-04-18T10:42:26.806Z</time></trkpt><trkpt lat="43.5317264" lon="11.3511648"><ele>662.0</ele><time>2026-04-18T10:42:27.808Z</time></trkpt><trkpt lat="43.5317156" lon="11.3513453"><ele>662.0</ele><time>2026-04-18T10:42:28.824Z</time></trkpt><trkpt lat="43.5316953" lon="11.351536"><ele>662.0</ele><time>2026-04-18T10:42:29.819Z</time></trkpt><trkpt lat="43.5316662" lon="11.3517326"><ele>662.0</ele><time>2026-04-18T10:42:30.821Z</time></trkpt><trkpt lat="43.5316447" lon="11.3519157"><ele>663.25</ele><time>2026-04-18T10:42:31.817Z</time></trkpt><trkpt lat="43.5316344" lon="11.3520924"><ele>664.5</ele><time>2026-04-18T10:42:32.82Z</time></trkpt><trkpt lat="43.5316276" lon="11.3522779"><ele>665.75</ele><time>2026-04-18T10:42:33.82Z</time></trkpt><trkpt lat="43.5316095" lon="11.352456"><ele>667.0</ele><time>2026-04-18T10:42:34.818Z</time></trkpt><trkpt lat="43.5315895" lon="11.3526339"><ele>667.25</ele><time>2026-04-18T10:42:35.823Z</time></trkpt><trkpt lat="43.5315677" lon="11.3528155"><ele>667.5</ele><time>2026-04-18T10:42:36.823Z</time></trkpt><trkpt lat="43.5315475" lon="11.3529958"><ele>667.75</ele><time>2026-04-18T10:42:37.822Z</time></trkpt><trkpt lat="43.5315314" lon="11.3531593"><ele>668.0</ele><time>2026-04-18T10:42:38.821Z</time></trkpt><trkpt lat="43.5315132" lon="11.3533096"><ele>667.25</ele><time>2026-04-18T10:42:39.825Z</time></trkpt><trkpt lat="43.5314928" lon="11.3534604"><ele>666.5</ele><time>2026-04-18T10:42:40.826Z</time></trkpt><trkpt lat="43.5314712" lon="11.3536186"><ele>665.75</ele><time>2026-04-18T10:42:41.823Z</time></trkpt><trkpt lat="43.5314538" lon="11.3537697"><ele>665.0</ele><time>2026-04-18T10:42:42.82Z</time></trkpt><trkpt lat="43.5314337" lon="11.3539204"><ele>664.25</ele><time>2026-04-18T10:42:43.83Z</time></trkpt><trkpt lat="43.5314095" lon="11.3540731"><ele>663.5</ele><time>2026-04-18T10:42:44.823Z</time></trkpt><trkpt lat="43.5313725" lon="11.3542357"><ele>662.75</ele><time>2026-04-18T10:42:45.822Z</time></trkpt><trkpt lat="43.5313267" lon="11.3544027"><ele>662.0</ele><time>2026-04-18T10:42:46.831Z</time></trkpt><trkpt lat="43.5312742" lon="11.3545856"><ele>662.0</ele><time>2026-04-18T10:42:47.824Z</time></trkpt><trkpt lat="43.531217" lon="11.3547641"><ele>662.0</ele><time>2026-04-18T10:42:48.825Z</time></trkpt><trkpt lat="43.5311608" lon="11.3549388"><ele>662.0</ele><time>2026-04-18T10:42:49.829Z</time></trkpt><trkpt lat="43.5311165" lon="11.3550986"><ele>662.0</ele><time>2026-04-18T10:42:50.818Z</time></trkpt><trkpt lat="43.5310633" lon="11.3552362"><ele>662.0</ele><time>2026-04-18T10:42:51.818Z</time></trkpt><trkpt lat="43.53101" lon="11.3553602"><ele>662.0</ele><time>2026-04-18T10:42:52.85Z</time></trkpt><trkpt lat="43.5309672" lon="11.355475"><ele>662.0</ele><time>2026-04-18T10:42:53.825Z</time></trkpt><trkpt lat="43.5309213" lon="11.3555836"><ele>662.0</ele><time>2026-04-18T10:42:54.82Z</time></trkpt><trkpt lat="43.5308695" lon="11.3556888"><ele>662.0</ele><time>2026-04-18T10:42:55.834Z</time></trkpt><trkpt lat="43.5308017" lon="11.3557809"><ele>662.4000000000001</ele><time>2026-04-18T10:42:56.837Z</time></trkpt><trkpt lat="43.5307323" lon="11.3558417"><ele>662.8000000000001</ele><time>2026-04-18T10:42:57.817Z</time></trkpt><trkpt lat="43.5306734" lon="11.3558882"><ele>663.2</ele><time>2026-04-18T10:42:58.83Z</time></trkpt><trkpt lat="43.5306106" lon="11.3559707"><ele>663.6</ele><time>2026-04-18T10:43:00.816Z</time></trkpt><trkpt lat="43.5306091" lon="11.3561089"><ele>664.0</ele><time>2026-04-18T10:43:02.824Z</time></trkpt><trkpt lat="43.5307028" lon="11.3562512"><ele>664.0</ele><time>2026-04-18T10:43:04.811Z</time></trkpt><trkpt lat="43.5307711" lon="11.3563254"><ele>664.0</ele><time>2026-04-18T10:43:05.809Z</time></trkpt><trkpt lat="43.5308491" lon="11.3564009"><ele>664.0</ele><time>2026-04-18T10:43:06.831Z</time></trkpt><trkpt lat="43.5309238" lon="11.35649"><ele>664.0</ele><time>2026-04-18T10:43:07.824Z</time></trkpt><trkpt lat="43.5309965" lon="11.3565858"><ele>664.0</ele><time>2026-04-18T10:43:08.827Z</time></trkpt><trkpt lat="43.5310688" lon="11.3566804"><ele>663.6</ele><time>2026-04-18T10:43:09.826Z</time></trkpt><trkpt lat="43.5311478" lon="11.3567643"><ele>663.2</ele><time>2026-04-18T10:43:10.826Z</time></trkpt><trkpt lat="43.5312267" lon="11.3568618"><ele>662.8000000000001</ele><time>2026-04-18T10:43:11.823Z</time></trkpt><trkpt lat="43.531308" lon="11.3569692"><ele>662.4000000000001</ele><time>2026-04-18T10:43:12.825Z</time></trkpt><trkpt lat="43.5313764" lon="11.3570767"><ele>662.0</ele><time>2026-04-18T10:43:13.825Z</time></trkpt><trkpt lat="43.5314323" lon="11.3571945"><ele>660.6666666666666</ele><time>2026-04-18T10:43:14.824Z</time></trkpt><trkpt lat="43.5314899" lon="11.3573017"><ele>659.3333333333333</ele><time>2026-04-18T10:43:15.818Z</time></trkpt><trkpt lat="43.5315439" lon="11.3573982"><ele>658.0</ele><time>2026-04-18T10:43:16.824Z</time></trkpt><trkpt lat="43.5315861" lon="11.3574819"><ele>656.6666666666666</ele><time>2026-04-18T10:43:17.809Z</time></trkpt><trkpt lat="43.5316353" lon="11.3575449"><ele>655.3333333333334</ele><time>2026-04-18T10:43:18.811Z</time></trkpt><trkpt lat="43.5317301" lon="11.3576251"><ele>654.0</ele><time>2026-04-18T10:43:20.811Z</time></trkpt><trkpt lat="43.5318603" lon="11.3576227"><ele>654.0</ele><time>2026-04-18T10:43:22.815Z</time></trkpt><trkpt lat="43.5319364" lon="11.3576063"><ele>654.0</ele><time>2026-04-18T10:43:23.844Z</time></trkpt><trkpt lat="43.5320394" lon="11.357538"><ele>654.0</ele><time>2026-04-18T10:43:24.841Z</time></trkpt><trkpt lat="43.5321556" lon="11.3574525"><ele>654.0</ele><time>2026-04-18T10:43:25.832Z</time></trkpt><trkpt lat="43.5322547" lon="11.3573742"><ele>654.0</ele><time>2026-04-18T10:43:26.917Z</time></trkpt><trkpt lat="43.5323369" lon="11.357298"><ele>653.1666666666666</ele><time>2026-04-18T10:43:27.906Z</time></trkpt><trkpt lat="43.5324028" lon="11.3572308"><ele>652.3333333333334</ele><time>2026-04-18T10:43:28.908Z</time></trkpt><trkpt lat="43.5324639" lon="11.3571738"><ele>651.5</ele><time>2026-04-18T10:43:29.891Z</time></trkpt><trkpt lat="43.5325239" lon="11.3571388"><ele>650.6666666666667</ele><time>2026-04-18T10:43:30.902Z</time></trkpt><trkpt lat="43.5326348" lon="11.3571239"><ele>649.8333333333334</ele><time>2026-04-18T10:43:32.876Z</time></trkpt><trkpt lat="43.5327428" lon="11.3571822"><ele>649.0</ele><time>2026-04-18T10:43:34.876Z</time></trkpt><trkpt lat="43.5328534" lon="11.3573067"><ele>647.4000000000001</ele><time>2026-04-18T10:43:36.913Z</time></trkpt><trkpt lat="43.5328806" lon="11.3574489"><ele>645.8</ele><time>2026-04-18T10:43:37.9Z</time></trkpt><trkpt lat="43.5330062" lon="11.3575018"><ele>644.2</ele><time>2026-04-18T10:43:39.903Z</time></trkpt><trkpt lat="43.5330952" lon="11.3574849"><ele>642.5999999999999</ele><time>2026-04-18T10:43:40.903Z</time></trkpt><trkpt lat="43.533177" lon="11.3574321"><ele>641.0</ele><time>2026-04-18T10:43:41.879Z</time></trkpt><trkpt lat="43.5331987" lon="11.3575431"><ele>639.0</ele><time>2026-04-18T10:43:42.875Z</time></trkpt><trkpt lat="43.533324" lon="11.357516"><ele>637.0</ele><time>2026-04-18T10:43:44.876Z</time></trkpt><trkpt lat="43.5333871" lon="11.3574484"><ele>635.0</ele><time>2026-04-18T10:43:45.898Z</time></trkpt><trkpt lat="43.5334575" lon="11.3573887"><ele>633.0</ele><time>2026-04-18T10:43:46.925Z</time></trkpt><trkpt lat="43.5335341" lon="11.3573366"><ele>631.0</ele><time>2026-04-18T10:43:47.885Z</time></trkpt><trkpt lat="43.533615" lon="11.3572605"><ele>631.25</ele><time>2026-04-18T10:43:48.89Z</time></trkpt><trkpt lat="43.5336501" lon="11.3571796"><ele>631.5</ele><time>2026-04-18T10:43:49.892Z</time></trkpt><trkpt lat="43.5337215" lon="11.3571696"><ele>631.75</ele><time>2026-04-18T10:43:50.884Z</time></trkpt><trkpt lat="43.5338036" lon="11.3571193"><ele>632.0</ele><time>2026-04-18T10:43:52.9Z</time></trkpt><trkpt lat="43.5339802" lon="11.3573612"><ele>630.0</ele><time>2026-04-18T10:43:54.92Z</time></trkpt><trkpt lat="43.534045" lon="11.3574891"><ele>628.0</ele><time>2026-04-18T10:43:55.885Z</time></trkpt><trkpt lat="43.5340825" lon="11.357616"><ele>626.0</ele><time>2026-04-18T10:43:56.888Z</time></trkpt><trkpt lat="43.5341321" lon="11.3577365"><ele>624.0</ele><time>2026-04-18T10:43:57.878Z</time></trkpt><trkpt lat="43.5342066" lon="11.35785"><ele>622.0</ele><time>2026-04-18T10:43:58.879Z</time></trkpt><trkpt lat="43.5342114" lon="11.3579948"><ele>619.75</ele><time>2026-04-18T10:43:59.895Z</time></trkpt><trkpt lat="43.534265" lon="11.358088"><ele>617.5</ele><time>2026-04-18T10:44:00.895Z</time></trkpt><trkpt lat="43.5341492" lon="11.3583292"><ele>615.25</ele><time>2026-04-18T10:44:01.896Z</time></trkpt><trkpt lat="43.5341609" lon="11.3584381"><ele>613.0</ele><time>2026-04-18T10:44:02.897Z</time></trkpt><trkpt lat="43.5341265" lon="11.3585762"><ele>613.0</ele><time>2026-04-18T10:44:03.873Z</time></trkpt><trkpt lat="43.5341186" lon="11.3586818"><ele>613.0</ele><time>2026-04-18T10:44:04.875Z</time></trkpt><trkpt lat="43.5327428" lon="11.3571822"><ele>617.5</ele><time>2026-04-18T10:43:34.876Z</time></trkpt><trkpt lat="43.5328534" lon="11.3573067"><ele>622.0</ele><time>2026-04-18T10:43:36.913Z</time></trkpt><trkpt lat="43.5328806" lon="11.3574489"><ele>626.5</ele><time>2026-04-18T10:43:37.9Z</time></trkpt><trkpt lat="43.5330062" lon="11.3575018"><ele>631.0</ele><time>2026-04-18T10:43:39.903Z</time></trkpt><trkpt lat="43.5330952" lon="11.3574849"><ele>631.0</ele><time>2026-04-18T10:43:40.903Z</time></trkpt><trkpt lat="43.533177" lon="11.3574321"><ele>631.0</ele><time>2026-04-18T10:43:41.879Z</time></trkpt><trkpt lat="43.5331987" lon="11.3575431"><ele>631.0</ele><time>2026-04-18T10:43:42.875Z</time></trkpt><trkpt lat="43.533324" lon="11.357516"><ele>631.0</ele><time>2026-04-18T10:43:44.876Z</time></trkpt><trkpt lat="43.5333871" lon="11.3574484"><ele>631.0</ele><time>2026-04-18T10:43:45.898Z</time></trkpt><trkpt lat="43.5334575" lon="11.3573887"><ele>631.0</ele><time>2026-04-18T10:43:46.925Z</time></trkpt><trkpt lat="43.5335341" lon="11.3573366"><ele>631.0</ele><time>2026-04-18T10:43:47.885Z</time></trkpt><trkpt lat="43.533615" lon="11.3572605"><ele>631.0</ele><time>2026-04-18T10:43:48.89Z</time></trkpt><trkpt lat="43.5336501" lon="11.3571796"><ele>631.0</ele><time>2026-04-18T10:43:49.892Z</time></trkpt><trkpt lat="43.5337215" lon="11.3571696"><ele>631.0</ele><time>2026-04-18T10:43:50.884Z</time></trkpt><trkpt lat="43.5338036" lon="11.3571193"><ele>631.0</ele><time>2026-04-18T10:43:52.9Z</time></trkpt><trkpt lat="43.5339802" lon="11.3573612"><ele>629.2</ele><time>2026-04-18T10:43:54.92Z</time></trkpt><trkpt lat="43.534045" lon="11.3574891"><ele>627.4000000000001</ele><time>2026-04-18T10:43:55.885Z</time></trkpt><trkpt lat="43.5340825" lon="11.357616"><ele>625.6</ele><time>2026-04-18T10:43:56.888Z</time></trkpt><trkpt lat="43.5341321" lon="11.3577365"><ele>623.8000000000001</ele><time>2026-04-18T10:43:57.878Z</time></trkpt><trkpt lat="43.5342066" lon="11.35785"><ele>622.0</ele><time>2026-04-18T10:43:58.879Z</time></trkpt><trkpt lat="43.5342114" lon="11.3579948"><ele>619.75</ele><time>2026-04-18T10:43:59.895Z</time></trkpt><trkpt lat="43.534265" lon="11.358088"><ele>617.5</ele><time>2026-04-18T10:44:00.895Z</time></trkpt><trkpt lat="43.5341492" lon="11.3583292"><ele>615.25</ele><time>2026-04-18T10:44:01.896Z</time></trkpt><trkpt lat="43.5341609" lon="11.3584381"><ele>613.0</ele><time>2026-04-18T10:44:02.897Z</time></trkpt><trkpt lat="43.5341265" lon="11.3585762"><ele>613.0</ele><time>2026-04-18T10:44:03.873Z</time></trkpt><trkpt lat="43.5341186" lon="11.3586818"><ele>613.0</ele><time>2026-04-18T10:44:04.875Z</time></trkpt><trkpt lat="43.5340841" lon="11.3587669"><ele>613.0</ele><time>2026-04-18T10:44:05.87Z</time></trkpt><trkpt lat="43.5339333" lon="11.3588768"><ele>613.0</ele><time>2026-04-18T10:44:06.882Z</time></trkpt><trkpt lat="43.5338355" lon="11.3589222"><ele>613.0</ele><time>2026-04-18T10:44:07.895Z</time></trkpt><trkpt lat="43.5337424" lon="11.3589255"><ele>611.4</ele><time>2026-04-18T10:44:08.896Z</time></trkpt><trkpt lat="43.5336499" lon="11.3589163"><ele>609.8</ele><time>2026-04-18T10:44:09.862Z</time></trkpt><trkpt lat="43.5335736" lon="11.358903"><ele>608.2</ele><time>2026-04-18T10:44:10.862Z</time></trkpt><trkpt lat="43.5334403" lon="11.358957"><ele>606.6</ele><time>2026-04-18T10:44:12.853Z</time></trkpt><trkpt lat="43.5333908" lon="11.3590159"><ele>605.0</ele><time>2026-04-18T10:44:13.862Z</time></trkpt><trkpt lat="43.53321" lon="11.358857"><ele>605.0</ele><time>2026-04-18T10:44:14.828Z</time></trkpt><trkpt lat="43.5331156" lon="11.3589049"><ele>605.0</ele><time>2026-04-18T10:44:15.764Z</time></trkpt><trkpt lat="43.533007" lon="11.358957"><ele>605.0</ele><time>2026-04-18T10:44:16.767Z</time></trkpt><trkpt lat="43.5329111" lon="11.3590086"><ele>605.0</ele><time>2026-04-18T10:44:17.762Z</time></trkpt><trkpt lat="43.5328376" lon="11.3590778"><ele>605.0</ele><time>2026-04-18T10:44:18.756Z</time></trkpt><trkpt lat="43.5327652" lon="11.3591535"><ele>605.6</ele><time>2026-04-18T10:44:19.769Z</time></trkpt><trkpt lat="43.5326934" lon="11.3591998"><ele>606.2</ele><time>2026-04-18T10:44:20.765Z</time></trkpt><trkpt lat="43.5325882" lon="11.359282"><ele>606.8</ele><time>2026-04-18T10:44:22.768Z</time></trkpt><trkpt lat="43.5325296" lon="11.35942"><ele>607.4</ele><time>2026-04-18T10:44:24.767Z</time></trkpt><trkpt lat="43.53256" lon="11.3595537"><ele>608.0</ele><time>2026-04-18T10:44:26.769Z</time></trkpt><trkpt lat="43.5326873" lon="11.3596098"><ele>608.0</ele><time>2026-04-18T10:44:28.776Z</time></trkpt><trkpt lat="43.5327609" lon="11.3596111"><ele>608.0</ele><time>2026-04-18T10:44:29.767Z</time></trkpt><trkpt lat="43.5328599" lon="11.3595948"><ele>608.0</ele><time>2026-04-18T10:44:30.771Z</time></trkpt><trkpt lat="43.5329669" lon="11.3595604"><ele>608.0</ele><time>2026-04-18T10:44:31.767Z</time></trkpt><trkpt lat="43.5330783" lon="11.3595394"><ele>608.0</ele><time>2026-04-18T10:44:32.767Z</time></trkpt><trkpt lat="43.5331973" lon="11.3595153"><ele>607.25</ele><time>2026-04-18T10:44:33.767Z</time></trkpt><trkpt lat="43.5333163" lon="11.359504"><ele>606.5</ele><time>2026-04-18T10:44:34.761Z</time></trkpt><trkpt lat="43.5334335" lon="11.3595009"><ele>605.75</ele><time>2026-04-18T10:44:35.765Z</time></trkpt><trkpt lat="43.5335499" lon="11.3594929"><ele>605.0</ele><time>2026-04-18T10:44:36.769Z</time></trkpt><trkpt lat="43.5336563" lon="11.3594834"><ele>604.2</ele><time>2026-04-18T10:44:37.766Z</time></trkpt><trkpt lat="43.5337581" lon="11.3595083"><ele>603.4</ele><time>2026-04-18T10:44:38.769Z</time></trkpt><trkpt lat="43.5338496" lon="11.3595399"><ele>602.6</ele><time>2026-04-18T10:44:39.769Z</time></trkpt><trkpt lat="43.533946" lon="11.3595498"><ele>601.8</ele><time>2026-04-18T10:44:40.77Z</time></trkpt><trkpt lat="43.5340474" lon="11.3595288"><ele>601.0</ele><time>2026-04-18T10:44:41.766Z</time></trkpt><trkpt lat="43.5341468" lon="11.3594862"><ele>601.0</ele><time>2026-04-18T10:44:42.769Z</time></trkpt><trkpt lat="43.5342548" lon="11.3594349"><ele>601.0</ele><time>2026-04-18T10:44:43.771Z</time></trkpt><trkpt lat="43.5343727" lon="11.3594035"><ele>601.0</ele><time>2026-04-18T10:44:44.775Z</time></trkpt><trkpt lat="43.5344866" lon="11.359393"><ele>601.0</ele><time>2026-04-18T10:44:45.771Z</time></trkpt><trkpt lat="43.5346209" lon="11.3594003"><ele>599.0</ele><time>2026-04-18T10:44:46.773Z</time></trkpt><trkpt lat="43.5347519" lon="11.3594321"><ele>597.0</ele><time>2026-04-18T10:44:47.773Z</time></trkpt><trkpt lat="43.5348685" lon="11.3594709"><ele>595.0</ele><time>2026-04-18T10:44:48.78Z</time></trkpt><trkpt lat="43.5349606" lon="11.3594959"><ele>593.0</ele><time>2026-04-18T10:44:49.783Z</time></trkpt><trkpt lat="43.5350411" lon="11.359508"><ele>591.0</ele><time>2026-04-18T10:44:50.781Z</time></trkpt><trkpt lat="43.5351352" lon="11.3594436"><ele>591.0</ele><time>2026-04-18T10:44:52.774Z</time></trkpt><trkpt lat="43.5351535" lon="11.3593021"><ele>591.0</ele><time>2026-04-18T10:44:54.773Z</time></trkpt><trkpt lat="43.5351459" lon="11.359209"><ele>591.0</ele><time>2026-04-18T10:44:55.778Z</time></trkpt><trkpt lat="43.5351287" lon="11.3591032"><ele>591.0</ele><time>2026-04-18T10:44:56.791Z</time></trkpt><trkpt lat="43.5351272" lon="11.3589711"><ele>591.0</ele><time>2026-04-18T10:44:57.769Z</time></trkpt><trkpt lat="43.5351364" lon="11.3588365"><ele>591.0</ele><time>2026-04-18T10:44:58.775Z</time></trkpt><trkpt lat="43.5351825" lon="11.3587164"><ele>590.4</ele><time>2026-04-18T10:44:59.78Z</time></trkpt><trkpt lat="43.5352427" lon="11.3586098"><ele>589.8</ele><time>2026-04-18T10:45:00.782Z</time></trkpt><trkpt lat="43.5353214" lon="11.3585197"><ele>589.1999999999999</ele><time>2026-04-18T10:45:01.778Z</time></trkpt><trkpt lat="43.5354122" lon="11.3584805"><ele>588.6</ele><time>2026-04-18T10:45:02.782Z</time></trkpt><trkpt lat="43.5355093" lon="11.3584534"><ele>588.0</ele><time>2026-04-18T10:45:03.783Z</time></trkpt><trkpt lat="43.5356239" lon="11.3584335"><ele>588.0</ele><time>2026-04-18T10:45:04.78Z</time></trkpt><trkpt lat="43.5357342" lon="11.3584356"><ele>588.0</ele><time>2026-04-18T10:45:05.783Z</time></trkpt><trkpt lat="43.5358306" lon="11.3584738"><ele>588.0</ele><time>2026-04-18T10:45:06.786Z</time></trkpt><trkpt lat="43.5359226" lon="11.3585349"><ele>588.0</ele><time>2026-04-18T10:45:07.787Z</time></trkpt><trkpt lat="43.5360264" lon="11.3586026"><ele>588.0</ele><time>2026-04-18T10:45:08.791Z</time></trkpt><trkpt lat="43.5361241" lon="11.3586721"><ele>588.0</ele><time>2026-04-18T10:45:09.79Z</time></trkpt><trkpt lat="43.5362193" lon="11.3587246"><ele>588.0</ele><time>2026-04-18T10:45:10.799Z</time></trkpt><trkpt lat="43.5363208" lon="11.3587751"><ele>588.0</ele><time>2026-04-18T10:45:11.796Z</time></trkpt><trkpt lat="43.5364177" lon="11.3588234"><ele>588.0</ele><time>2026-04-18T10:45:12.793Z</time></trkpt><trkpt lat="43.5365133" lon="11.3588609"><ele>588.0</ele><time>2026-04-18T10:45:13.798Z</time></trkpt><trkpt lat="43.5366065" lon="11.3588925"><ele>590.0</ele><time>2026-04-18T10:45:14.797Z</time></trkpt><trkpt lat="43.5366919" lon="11.3589141"><ele>592.0</ele><time>2026-04-18T10:45:15.794Z</time></trkpt><trkpt lat="43.5367883" lon="11.358928"><ele>594.0</ele><time>2026-04-18T10:45:16.803Z</time></trkpt><trkpt lat="43.536894" lon="11.3589325"><ele>596.0</ele><time>2026-04-18T10:45:17.803Z</time></trkpt><trkpt lat="43.5370053" lon="11.3589336"><ele>598.0</ele><time>2026-04-18T10:45:18.802Z</time></trkpt><trkpt lat="43.5371338" lon="11.3589423"><ele>598.0</ele><time>2026-04-18T10:45:19.807Z</time></trkpt><trkpt lat="43.5372689" lon="11.3589547"><ele>598.0</ele><time>2026-04-18T10:45:20.806Z</time></trkpt><trkpt lat="43.5373929" lon="11.3589633"><ele>598.0</ele><time>2026-04-18T10:45:21.806Z</time></trkpt><trkpt lat="43.5375067" lon="11.3589694"><ele>598.0</ele><time>2026-04-18T10:45:22.807Z</time></trkpt><trkpt lat="43.5376153" lon="11.3589696"><ele>598.0</ele><time>2026-04-18T10:45:23.802Z</time></trkpt><trkpt lat="43.5377225" lon="11.3589634"><ele>598.0</ele><time>2026-04-18T10:45:24.804Z</time></trkpt><trkpt lat="43.5378272" lon="11.3589449"><ele>598.0</ele><time>2026-04-18T10:45:25.806Z</time></trkpt><trkpt lat="43.537933" lon="11.3589051"><ele>598.0</ele><time>2026-04-18T10:45:26.802Z</time></trkpt><trkpt lat="43.5380276" lon="11.3588669"><ele>598.0</ele><time>2026-04-18T10:45:27.817Z</time></trkpt><trkpt lat="43.5381113" lon="11.3588312"><ele>594.1999999999999</ele><time>2026-04-18T10:45:28.803Z</time></trkpt><trkpt lat="43.5381932" lon="11.3587947"><ele>590.4</ele><time>2026-04-18T10:45:29.8Z</time></trkpt><trkpt lat="43.5382768" lon="11.3587614"><ele>586.5999999999999</ele><time>2026-04-18T10:45:30.801Z</time></trkpt><trkpt lat="43.5383622" lon="11.3587242"><ele>582.8</ele><time>2026-04-18T10:45:31.796Z</time></trkpt><trkpt lat="43.5384516" lon="11.3586653"><ele>579.0</ele><time>2026-04-18T10:45:32.801Z</time></trkpt><trkpt lat="43.5385369" lon="11.3586007"><ele>579.0</ele><time>2026-04-18T10:45:33.799Z</time></trkpt><trkpt lat="43.5386066" lon="11.3585559"><ele>579.0</ele><time>2026-04-18T10:45:34.801Z</time></trkpt><trkpt lat="43.5386664" lon="11.3585188"><ele>579.0</ele><time>2026-04-18T10:45:35.806Z</time></trkpt><trkpt lat="43.5387534" lon="11.3584297"><ele>579.0</ele><time>2026-04-18T10:45:37.808Z</time></trkpt><trkpt lat="43.5388361" lon="11.3583679"><ele>579.0</ele><time>2026-04-18T10:45:39.808Z</time></trkpt><trkpt lat="43.5389494" lon="11.3583178"><ele>580.0</ele><time>2026-04-18T10:45:41.808Z</time></trkpt><trkpt lat="43.5390222" lon="11.3583035"><ele>581.0</ele><time>2026-04-18T10:45:42.808Z</time></trkpt><trkpt lat="43.5390993" lon="11.358298"><ele>582.0</ele><time>2026-04-18T10:45:43.81Z</time></trkpt><trkpt lat="43.5391735" lon="11.3583082"><ele>583.0</ele><time>2026-04-18T10:45:44.809Z</time></trkpt><trkpt lat="43.5392475" lon="11.3583125"><ele>584.0</ele><time>2026-04-18T10:45:45.808Z</time></trkpt><trkpt lat="43.5393233" lon="11.3583196"><ele>585.0</ele><time>2026-04-18T10:45:46.813Z</time></trkpt><trkpt lat="43.5393985" lon="11.3583045"><ele>585.0</ele><time>2026-04-18T10:45:47.806Z</time></trkpt><trkpt lat="43.5394711" lon="11.3582689"><ele>585.0</ele><time>2026-04-18T10:45:48.803Z</time></trkpt><trkpt lat="43.5395418" lon="11.3582241"><ele>585.0</ele><time>2026-04-18T10:45:49.806Z</time></trkpt><trkpt lat="43.5396063" lon="11.3581778"><ele>585.0</ele><time>2026-04-18T10:45:50.806Z</time></trkpt><trkpt lat="43.5396665" lon="11.3581299"><ele>585.0</ele><time>2026-04-18T10:45:51.807Z</time></trkpt><trkpt lat="43.5397425" lon="11.3581026"><ele>585.0</ele><time>2026-04-18T10:45:52.81Z</time></trkpt><trkpt lat="43.5398179" lon="11.3580927"><ele>585.0</ele><time>2026-04-18T10:45:53.81Z</time></trkpt><trkpt lat="43.5399054" lon="11.3580952"><ele>585.0</ele><time>2026-04-18T10:45:54.808Z</time></trkpt><trkpt lat="43.5399855" lon="11.3581002"><ele>585.0</ele><time>2026-04-18T10:45:55.811Z</time></trkpt><trkpt lat="43.5400773" lon="11.3581164"><ele>585.0</ele><time>2026-04-18T10:45:56.805Z</time></trkpt><trkpt lat="43.5401798" lon="11.358133"><ele>585.0</ele><time>2026-04-18T10:45:57.814Z</time></trkpt><trkpt lat="43.5402759" lon="11.3581356"><ele>585.0</ele><time>2026-04-18T10:45:58.833Z</time></trkpt><trkpt lat="43.540363" lon="11.3581457"><ele>585.0</ele><time>2026-04-18T10:45:59.812Z</time></trkpt><trkpt lat="43.5404463" lon="11.3581639"><ele>585.0</ele><time>2026-04-18T10:46:00.818Z</time></trkpt><trkpt lat="43.5405239" lon="11.3581845"><ele>585.0</ele><time>2026-04-18T10:46:01.814Z</time></trkpt><trkpt lat="43.5406008" lon="11.3582161"><ele>585.0</ele><time>2026-04-18T10:46:02.81Z</time></trkpt><trkpt lat="43.5406682" lon="11.3582583"><ele>585.0</ele><time>2026-04-18T10:46:03.804Z</time></trkpt><trkpt lat="43.5407343" lon="11.3583072"><ele>584.0</ele><time>2026-04-18T10:46:04.809Z</time></trkpt><trkpt lat="43.540797" lon="11.3583627"><ele>583.0</ele><time>2026-04-18T10:46:05.814Z</time></trkpt><trkpt lat="43.5408907" lon="11.3584563"><ele>582.0</ele><time>2026-04-18T10:46:07.807Z</time></trkpt><trkpt lat="43.5409584" lon="11.3585333"><ele>581.0</ele><time>2026-04-18T10:46:09.8Z</time></trkpt><trkpt lat="43.5410131" lon="11.3585966"><ele>580.0</ele><time>2026-04-18T10:46:13.82Z</time></trkpt><trkpt lat="43.5410783" lon="11.3586662"><ele>579.0</ele><time>2026-04-18T10:46:16.823Z</time></trkpt><trkpt lat="43.5411884" lon="11.3587513"><ele>577.6</ele><time>2026-04-18T10:46:18.807Z</time></trkpt><trkpt lat="43.5412566" lon="11.3588031"><ele>576.2</ele><time>2026-04-18T10:46:19.811Z</time></trkpt><trkpt lat="43.541323" lon="11.3588544"><ele>574.8000000000001</ele><time>2026-04-18T10:46:20.806Z</time></trkpt><trkpt lat="43.5414279" lon="11.3589481"><ele>573.4</ele><time>2026-04-18T10:46:22.811Z</time></trkpt><trkpt lat="43.541543" lon="11.3590394"><ele>572.0</ele><time>2026-04-18T10:46:24.794Z</time></trkpt><trkpt lat="43.5416081" lon="11.3590916"><ele>574.0</ele><time>2026-04-18T10:46:25.803Z</time></trkpt><trkpt lat="43.5416783" lon="11.359134"><ele>576.0</ele><time>2026-04-18T10:46:26.802Z</time></trkpt><trkpt lat="43.5417682" lon="11.3591698"><ele>578.0</ele><time>2026-04-18T10:46:27.802Z</time></trkpt><trkpt lat="43.5418574" lon="11.3592012"><ele>580.0</ele><time>2026-04-18T10:46:28.803Z</time></trkpt><trkpt lat="43.5419386" lon="11.3592588"><ele>582.0</ele><time>2026-04-18T10:46:29.838Z</time></trkpt><trkpt lat="43.5420044" lon="11.3593115"><ele>584.0</ele><time>2026-04-18T10:46:30.807Z</time></trkpt><trkpt lat="43.5420764" lon="11.3593584"><ele>584.0</ele><time>2026-04-18T10:46:31.803Z</time></trkpt><trkpt lat="43.5421563" lon="11.3594021"><ele>584.0</ele><time>2026-04-18T10:46:32.805Z</time></trkpt><trkpt lat="43.5422383" lon="11.3594543"><ele>584.0</ele><time>2026-04-18T10:46:33.802Z</time></trkpt><trkpt lat="43.5423182" lon="11.3595139"><ele>584.0</ele><time>2026-04-18T10:46:34.803Z</time></trkpt><trkpt lat="43.5423899" lon="11.3595685"><ele>584.0</ele><time>2026-04-18T10:46:35.801Z</time></trkpt><trkpt lat="43.542453" lon="11.3596091"><ele>584.0</ele><time>2026-04-18T10:46:36.805Z</time></trkpt><trkpt lat="43.5425149" lon="11.3596416"><ele>584.0</ele><time>2026-04-18T10:46:37.807Z</time></trkpt><trkpt lat="43.5426426" lon="11.3596972"><ele>584.0</ele><time>2026-04-18T10:46:39.796Z</time></trkpt><trkpt lat="43.54273" lon="11.3597186"><ele>584.0</ele><time>2026-04-18T10:46:40.794Z</time></trkpt><trkpt lat="43.5428377" lon="11.3597201"><ele>584.0</ele><time>2026-04-18T10:46:41.794Z</time></trkpt><trkpt lat="43.5429463" lon="11.3597069"><ele>584.0</ele><time>2026-04-18T10:46:42.794Z</time></trkpt><trkpt lat="43.5430394" lon="11.3597086"><ele>583.8333333333333</ele><time>2026-04-18T10:46:43.798Z</time></trkpt><trkpt lat="43.5431213" lon="11.3596978"><ele>583.6666666666666</ele><time>2026-04-18T10:46:44.802Z</time></trkpt><trkpt lat="43.5431929" lon="11.3596859"><ele>583.5</ele><time>2026-04-18T10:46:45.803Z</time></trkpt><trkpt lat="43.5433154" lon="11.3596673"><ele>583.3333333333334</ele><time>2026-04-18T10:46:47.805Z</time></trkpt><trkpt lat="43.543394" lon="11.359682"><ele>583.1666666666667</ele><time>2026-04-18T10:46:48.802Z</time></trkpt><trkpt lat="43.5434694" lon="11.3597123"><ele>583.0</ele><time>2026-04-18T10:46:49.803Z</time></trkpt><trkpt lat="43.543542" lon="11.3597553"><ele>586.0</ele><time>2026-04-18T10:46:50.803Z</time></trkpt><trkpt lat="43.5436085" lon="11.3597956"><ele>589.0</ele><time>2026-04-18T10:46:51.817Z</time></trkpt><trkpt lat="43.5437178" lon="11.3598444"><ele>592.0</ele><time>2026-04-18T10:46:53.803Z</time></trkpt><trkpt lat="43.5437884" lon="11.3598241"><ele>595.0</ele><time>2026-04-18T10:46:54.802Z</time></trkpt><trkpt lat="43.5438731" lon="11.3597776"><ele>598.0</ele><time>2026-04-18T10:46:55.811Z</time></trkpt><trkpt lat="43.5439755" lon="11.3597379"><ele>598.0</ele><time>2026-04-18T10:46:56.874Z</time></trkpt><trkpt lat="43.5440952" lon="11.3597296"><ele>598.0</ele><time>2026-04-18T10:46:57.883Z</time></trkpt><trkpt lat="43.5442092" lon="11.359734"><ele>598.0</ele><time>2026-04-18T10:46:58.887Z</time></trkpt><trkpt lat="43.5443144" lon="11.3597507"><ele>598.0</ele><time>2026-04-18T10:46:59.901Z</time></trkpt><trkpt lat="43.5444034" lon="11.3597611"><ele>598.0</ele><time>2026-04-18T10:47:00.881Z</time></trkpt><trkpt lat="43.5444822" lon="11.3597452"><ele>598.1666666666667</ele><time>2026-04-18T10:47:01.876Z</time></trkpt><trkpt lat="43.5445975" lon="11.3597439"><ele>598.3333333333334</ele><time>2026-04-18T10:47:02.799Z</time></trkpt><trkpt lat="43.544672" lon="11.3597397"><ele>598.5</ele><time>2026-04-18T10:47:03.792Z</time></trkpt><trkpt lat="43.5447433" lon="11.3597602"><ele>598.6666666666666</ele><time>2026-04-18T10:47:04.787Z</time></trkpt><trkpt lat="43.5448178" lon="11.3598158"><ele>598.8333333333333</ele><time>2026-04-18T10:47:05.795Z</time></trkpt><trkpt lat="43.5448951" lon="11.3598977"><ele>599.0</ele><time>2026-04-18T10:47:06.794Z</time></trkpt><trkpt lat="43.5449669" lon="11.3599716"><ele>599.0</ele><time>2026-04-18T10:47:07.79Z</time></trkpt><trkpt lat="43.545064" lon="11.3599916"><ele>599.0</ele><time>2026-04-18T10:47:08.796Z</time></trkpt><trkpt lat="43.5451664" lon="11.3599715"><ele>599.0</ele><time>2026-04-18T10:47:09.785Z</time></trkpt><trkpt lat="43.5452735" lon="11.3599068"><ele>599.0</ele><time>2026-04-18T10:47:10.792Z</time></trkpt><trkpt lat="43.5453993" lon="11.3598426"><ele>599.0</ele><time>2026-04-18T10:47:11.791Z</time></trkpt><trkpt lat="43.5455243" lon="11.3597608"><ele>599.0</ele><time>2026-04-18T10:47:12.787Z</time></trkpt><trkpt lat="43.5456413" lon="11.3596479"><ele>599.0</ele><time>2026-04-18T10:47:13.786Z</time></trkpt><trkpt lat="43.5457461" lon="11.3594988"><ele>599.0</ele><time>2026-04-18T10:47:14.782Z</time></trkpt><trkpt lat="43.5458301" lon="11.3593512"><ele>599.0</ele><time>2026-04-18T10:47:15.794Z</time></trkpt><trkpt lat="43.5458988" lon="11.3592183"><ele>599.0</ele><time>2026-04-18T10:47:16.799Z</time></trkpt><trkpt lat="43.5459865" lon="11.359107"><ele>599.0</ele><time>2026-04-18T10:47:17.792Z</time></trkpt><trkpt lat="43.5461014" lon="11.3590133"><ele>599.0</ele><time>2026-04-18T10:47:18.801Z</time></trkpt><trkpt lat="43.5462192" lon="11.3589167"><ele>599.5</ele><time>2026-04-18T10:47:19.806Z</time></trkpt><trkpt lat="43.5463261" lon="11.3587988"><ele>600.0</ele><time>2026-04-18T10:47:20.809Z</time></trkpt><trkpt lat="43.5464363" lon="11.3586681"><ele>600.5</ele><time>2026-04-18T10:47:21.806Z</time></trkpt><trkpt lat="43.546536" lon="11.3585309"><ele>601.0</ele><time>2026-04-18T10:47:22.814Z</time></trkpt><trkpt lat="43.5466366" lon="11.3584154"><ele>601.0</ele><time>2026-04-18T10:47:23.801Z</time></trkpt><trkpt lat="43.5467138" lon="11.3582939"><ele>601.0</ele><time>2026-04-18T10:47:24.802Z</time></trkpt><trkpt lat="43.5467948" lon="11.3581894"><ele>601.0</ele><time>2026-04-18T10:47:25.804Z</time></trkpt><trkpt lat="43.5468704" lon="11.3581191"><ele>601.0</ele><time>2026-04-18T10:47:26.79Z</time></trkpt><trkpt lat="43.5469321" lon="11.3580462"><ele>601.0</ele><time>2026-04-18T10:47:27.793Z</time></trkpt><trkpt lat="43.5470077" lon="11.358009"><ele>601.2</ele><time>2026-04-18T10:47:28.794Z</time></trkpt><trkpt lat="43.547093" lon="11.3579396"><ele>601.4000000000001</ele><time>2026-04-18T10:47:29.785Z</time></trkpt><trkpt lat="43.5471835" lon="11.3578544"><ele>601.6</ele><time>2026-04-18T10:47:30.812Z</time></trkpt><trkpt lat="43.5472734" lon="11.3577657"><ele>601.8000000000001</ele><time>2026-04-18T10:47:31.789Z</time></trkpt><trkpt lat="43.5473554" lon="11.3576451"><ele>602.0</ele><time>2026-04-18T10:47:32.8Z</time></trkpt><trkpt lat="43.5474151" lon="11.3575172"><ele>602.0</ele><time>2026-04-18T10:47:33.801Z</time></trkpt><trkpt lat="43.5474752" lon="11.3574312"><ele>602.0</ele><time>2026-04-18T10:47:34.793Z</time></trkpt><trkpt lat="43.5475417" lon="11.3573694"><ele>602.0</ele><time>2026-04-18T10:47:35.793Z</time></trkpt><trkpt lat="43.5476238" lon="11.3573175"><ele>602.0</ele><time>2026-04-18T10:47:36.8Z</time></trkpt><trkpt lat="43.5477119" lon="11.3572729"><ele>602.0</ele><time>2026-04-18T10:47:37.804Z</time></trkpt><trkpt lat="43.5478122" lon="11.3572081"><ele>601.4</ele><time>2026-04-18T10:47:38.8Z</time></trkpt><trkpt lat="43.5479006" lon="11.3571238"><ele>600.8000000000001</ele><time>2026-04-18T10:47:39.8Z</time></trkpt><trkpt lat="43.5479729" lon="11.3570337"><ele>600.2</ele><time>2026-04-18T10:47:40.807Z</time></trkpt><trkpt lat="43.5480349" lon="11.3569499"><ele>599.6</ele><time>2026-04-18T10:47:41.806Z</time></trkpt><trkpt lat="43.5480963" lon="11.3568611"><ele>599.0</ele><time>2026-04-18T10:47:42.809Z</time></trkpt><trkpt lat="43.5481434" lon="11.3567507"><ele>599.0</ele><time>2026-04-18T10:47:43.802Z</time></trkpt><trkpt lat="43.5481766" lon="11.3566453"><ele>599.0</ele><time>2026-04-18T10:47:44.806Z</time></trkpt><trkpt lat="43.5482257" lon="11.3565574"><ele>599.0</ele><time>2026-04-18T10:47:45.804Z</time></trkpt><trkpt lat="43.5482774" lon="11.3564781"><ele>599.0</ele><time>2026-04-18T10:47:46.808Z</time></trkpt><trkpt lat="43.5483349" lon="11.356406"><ele>599.0</ele><time>2026-04-18T10:47:47.806Z</time></trkpt><trkpt lat="43.5484066" lon="11.3563479"><ele>599.0</ele><time>2026-04-18T10:47:48.804Z</time></trkpt><trkpt lat="43.5484828" lon="11.3562988"><ele>596.8333333333333</ele><time>2026-04-18T10:47:49.809Z</time></trkpt><trkpt lat="43.5485599" lon="11.356251"><ele>594.6666666666666</ele><time>2026-04-18T10:47:50.81Z</time></trkpt><trkpt lat="43.5486304" lon="11.3562056"><ele>592.5</ele><time>2026-04-18T10:47:51.808Z</time></trkpt><trkpt lat="43.5487054" lon="11.356154"><ele>590.3333333333334</ele><time>2026-04-18T10:47:52.809Z</time></trkpt><trkpt lat="43.5487708" lon="11.3561037"><ele>588.1666666666667</ele><time>2026-04-18T10:47:53.806Z</time></trkpt><trkpt lat="43.5488331" lon="11.3560429"><ele>586.0</ele><time>2026-04-18T10:47:54.81Z</time></trkpt><trkpt lat="43.548892" lon="11.3559811"><ele>585.9999999999999</ele><time>2026-04-18T10:47:55.811Z</time></trkpt><trkpt lat="43.5489483" lon="11.3559184"><ele>586.0</ele><time>2026-04-18T10:47:56.809Z</time></trkpt><trkpt lat="43.549002" lon="11.3558665"><ele>586.0</ele><time>2026-04-18T10:47:57.81Z</time></trkpt><trkpt lat="43.549065" lon="11.3558155"><ele>586.0</ele><time>2026-04-18T10:47:58.803Z</time></trkpt><trkpt lat="43.5491256" lon="11.3557774"><ele>586.0</ele><time>2026-04-18T10:47:59.797Z</time></trkpt><trkpt lat="43.5491998" lon="11.3557468"><ele>585.9999999999999</ele><time>2026-04-18T10:48:00.814Z</time></trkpt><trkpt lat="43.549262" lon="11.3557251"><ele>586.0</ele><time>2026-04-18T10:48:01.82Z</time></trkpt><trkpt lat="43.5493315" lon="11.3557021"><ele>585.9999999999999</ele><time>2026-04-18T10:48:02.801Z</time></trkpt><trkpt lat="43.5493998" lon="11.3556871"><ele>586.0</ele><time>2026-04-18T10:48:03.806Z</time></trkpt><trkpt lat="43.549463" lon="11.3556806"><ele>586.0</ele><time>2026-04-18T10:48:04.803Z</time></trkpt><trkpt lat="43.5495122" lon="11.3556254"><ele>586.0</ele><time>2026-04-18T10:48:55.836Z</time></trkpt><trkpt lat="43.5495293" lon="11.3555376"><ele>586.0</ele><time>2026-04-18T10:48:59.815Z</time></trkpt><trkpt lat="43.5495888" lon="11.3554528"><ele>585.9999999999999</ele><time>2026-04-18T10:49:02.814Z</time></trkpt><trkpt lat="43.5496436" lon="11.3553931"><ele>586.0</ele><time>2026-04-18T10:49:04.812Z</time></trkpt><trkpt lat="43.549727" lon="11.3552664"><ele>584.3333333333334</ele><time>2026-04-18T10:49:06.806Z</time></trkpt><trkpt lat="43.5497846" lon="11.3551857"><ele>582.6666666666667</ele><time>2026-04-18T10:49:07.802Z</time></trkpt><trkpt lat="43.5498299" lon="11.3551053"><ele>581.0</ele><time>2026-04-18T10:49:08.796Z</time></trkpt><trkpt lat="43.5498842" lon="11.3550407"><ele>579.3333333333334</ele><time>2026-04-18T10:49:09.789Z</time></trkpt><trkpt lat="43.5499394" lon="11.35496"><ele>577.6666666666666</ele><time>2026-04-18T10:49:10.807Z</time></trkpt><trkpt lat="43.5500064" lon="11.3549016"><ele>576.0</ele><time>2026-04-18T10:49:11.805Z</time></trkpt><trkpt lat="43.5500724" lon="11.354855"><ele>576.0</ele><time>2026-04-18T10:49:12.809Z</time></trkpt><trkpt lat="43.5501368" lon="11.3548229"><ele>576.0</ele><time>2026-04-18T10:49:13.8Z</time></trkpt><trkpt lat="43.5502514" lon="11.3548287"><ele>576.0</ele><time>2026-04-18T10:49:15.806Z</time></trkpt><trkpt lat="43.5503664" lon="11.3548731"><ele>576.0</ele><time>2026-04-18T10:49:17.806Z</time></trkpt><trkpt lat="43.5504354" lon="11.354908"><ele>576.0</ele><time>2026-04-18T10:49:18.8Z</time></trkpt><trkpt lat="43.5505029" lon="11.3549662"><ele>574.8333333333334</ele><time>2026-04-18T10:49:19.809Z</time></trkpt><trkpt lat="43.5505583" lon="11.3550423"><ele>573.6666666666666</ele><time>2026-04-18T10:49:20.804Z</time></trkpt><trkpt lat="43.5506014" lon="11.3551102"><ele>572.5</ele><time>2026-04-18T10:49:21.801Z</time></trkpt><trkpt lat="43.5506312" lon="11.3551935"><ele>571.3333333333333</ele><time>2026-04-18T10:49:22.815Z</time></trkpt><trkpt lat="43.5506464" lon="11.3553703"><ele>570.1666666666666</ele><time>2026-04-18T10:49:24.81Z</time></trkpt><trkpt lat="43.5506442" lon="11.3554592"><ele>569.0</ele><time>2026-04-18T10:49:25.812Z</time></trkpt><trkpt lat="43.5506248" lon="11.3555542"><ele>567.5</ele><time>2026-04-18T10:49:26.816Z</time></trkpt><trkpt lat="43.550595" lon="11.3556461"><ele>566.0</ele><time>2026-04-18T10:49:27.813Z</time></trkpt><trkpt lat="43.5505639" lon="11.3557429"><ele>564.5</ele><time>2026-04-18T10:49:28.814Z</time></trkpt><trkpt lat="43.5505229" lon="11.3558356"><ele>563.0</ele><time>2026-04-18T10:49:29.806Z</time></trkpt><trkpt lat="43.5504831" lon="11.3559379"><ele>561.5</ele><time>2026-04-18T10:49:30.824Z</time></trkpt><trkpt lat="43.5504429" lon="11.3560335"><ele>560.0</ele><time>2026-04-18T10:49:31.809Z</time></trkpt><trkpt lat="43.550394" lon="11.3561239"><ele>563.8</ele><time>2026-04-18T10:49:32.805Z</time></trkpt><trkpt lat="43.5503446" lon="11.3562147"><ele>567.6</ele><time>2026-04-18T10:49:33.798Z</time></trkpt><trkpt lat="43.5503065" lon="11.3563083"><ele>571.4</ele><time>2026-04-18T10:49:34.821Z</time></trkpt><trkpt lat="43.5502737" lon="11.3563875"><ele>575.2</ele><time>2026-04-18T10:49:35.799Z</time></trkpt><trkpt lat="43.5502266" lon="11.3565347"><ele>579.0</ele><time>2026-04-18T10:49:37.797Z</time></trkpt><trkpt lat="43.5502055" lon="11.3566883"><ele>579.0</ele><time>2026-04-18T10:49:39.791Z</time></trkpt><trkpt lat="43.550208" lon="11.3567854"><ele>579.0</ele><time>2026-04-18T10:49:40.794Z</time></trkpt><trkpt lat="43.5502165" lon="11.3568906"><ele>579.0</ele><time>2026-04-18T10:49:41.79Z</time></trkpt><trkpt lat="43.5502335" lon="11.3570113"><ele>579.0</ele><time>2026-04-18T10:49:42.819Z</time></trkpt><trkpt lat="43.5502553" lon="11.3571323"><ele>579.0</ele><time>2026-04-18T10:49:43.806Z</time></trkpt><trkpt lat="43.5502786" lon="11.3572439"><ele>579.0</ele><time>2026-04-18T10:49:44.809Z</time></trkpt><trkpt lat="43.5502937" lon="11.3573523"><ele>578.5</ele><time>2026-04-18T10:49:45.81Z</time></trkpt><trkpt lat="43.5502966" lon="11.3574624"><ele>578.0</ele><time>2026-04-18T10:49:46.813Z</time></trkpt><trkpt lat="43.5502786" lon="11.3575698"><ele>577.5</ele><time>2026-04-18T10:49:47.798Z</time></trkpt><trkpt lat="43.5502491" lon="11.3576852"><ele>577.0</ele><time>2026-04-18T10:49:48.805Z</time></trkpt><trkpt lat="43.5502215" lon="11.3578127"><ele>576.5</ele><time>2026-04-18T10:49:49.878Z</time></trkpt><trkpt lat="43.5501926" lon="11.3579489"><ele>576.0</ele><time>2026-04-18T10:49:50.883Z</time></trkpt><trkpt lat="43.5501685" lon="11.3580897"><ele>575.8</ele><time>2026-04-18T10:49:51.881Z</time></trkpt><trkpt lat="43.5501468" lon="11.3582338"><ele>575.6</ele><time>2026-04-18T10:49:52.873Z</time></trkpt><trkpt lat="43.5501348" lon="11.3583843"><ele>575.4</ele><time>2026-04-18T10:49:53.857Z</time></trkpt><trkpt lat="43.5501575" lon="11.3585457"><ele>575.2</ele><time>2026-04-18T10:49:54.864Z</time></trkpt><trkpt lat="43.5501714" lon="11.3586932"><ele>575.0</ele><time>2026-04-18T10:49:55.866Z</time></trkpt><trkpt lat="43.5501877" lon="11.3588301"><ele>575.8333333333333</ele><time>2026-04-18T10:49:56.864Z</time></trkpt><trkpt lat="43.5502034" lon="11.3589583"><ele>576.6666666666666</ele><time>2026-04-18T10:49:57.876Z</time></trkpt><trkpt lat="43.550234" lon="11.3590607"><ele>577.5</ele><time>2026-04-18T10:49:58.866Z</time></trkpt><trkpt lat="43.5502805" lon="11.3591332"><ele>578.3333333333334</ele><time>2026-04-18T10:49:59.861Z</time></trkpt><trkpt lat="43.5503361" lon="11.3591781"><ele>579.1666666666667</ele><time>2026-04-18T10:50:00.856Z</time></trkpt><trkpt lat="43.5504092" lon="11.359276"><ele>580.0</ele><time>2026-04-18T10:50:01.856Z</time></trkpt><trkpt lat="43.550492" lon="11.3592543"><ele>574.0</ele><time>2026-04-18T10:50:02.851Z</time></trkpt><trkpt lat="43.5505668" lon="11.3592014"><ele>568.0</ele><time>2026-04-18T10:50:03.854Z</time></trkpt><trkpt lat="43.5506364" lon="11.3591266"><ele>562.0</ele><time>2026-04-18T10:50:04.872Z</time></trkpt><trkpt lat="43.5506862" lon="11.359035"><ele>556.0</ele><time>2026-04-18T10:50:05.887Z</time></trkpt><trkpt lat="43.5507024" lon="11.3589327"><ele>550.0</ele><time>2026-04-18T10:50:06.864Z</time></trkpt><trkpt lat="43.5507019" lon="11.3587977"><ele>544.0</ele><time>2026-04-18T10:50:07.852Z</time></trkpt><trkpt lat="43.5506838" lon="11.358657"><ele>544.0</ele><time>2026-04-18T10:50:08.862Z</time></trkpt><trkpt lat="43.5506482" lon="11.3585132"><ele>544.0</ele><time>2026-04-18T10:50:09.865Z</time></trkpt><trkpt lat="43.5506143" lon="11.3583599"><ele>544.0</ele><time>2026-04-18T10:50:10.887Z</time></trkpt><trkpt lat="43.5505807" lon="11.3582062"><ele>544.0</ele><time>2026-04-18T10:50:11.882Z</time></trkpt><trkpt lat="43.5505723" lon="11.3580551"><ele>544.1666666666667</ele><time>2026-04-18T10:50:12.867Z</time></trkpt><trkpt lat="43.550571" lon="11.3579098"><ele>544.3333333333334</ele><time>2026-04-18T10:50:13.867Z</time></trkpt><trkpt lat="43.5505801" lon="11.3577766"><ele>544.5</ele><time>2026-04-18T10:50:14.86Z</time></trkpt><trkpt lat="43.5506135" lon="11.3576818"><ele>544.6666666666666</ele><time>2026-04-18T10:50:15.868Z</time></trkpt><trkpt lat="43.5506666" lon="11.357625"><ele>544.8333333333333</ele><time>2026-04-18T10:50:16.878Z</time></trkpt><trkpt lat="43.550731" lon="11.3576038"><ele>545.0</ele><time>2026-04-18T10:50:17.868Z</time></trkpt><trkpt lat="43.5507976" lon="11.3576104"><ele>545.0</ele><time>2026-04-18T10:50:18.859Z</time></trkpt><trkpt lat="43.5508711" lon="11.3576459"><ele>545.0</ele><time>2026-04-18T10:50:19.863Z</time></trkpt><trkpt lat="43.5509472" lon="11.3577066"><ele>545.0</ele><time>2026-04-18T10:50:20.864Z</time></trkpt><trkpt lat="43.5510231" lon="11.3577846"><ele>545.0</ele><time>2026-04-18T10:50:21.869Z</time></trkpt><trkpt lat="43.5511059" lon="11.3578832"><ele>545.0</ele><time>2026-04-18T10:50:22.888Z</time></trkpt><trkpt lat="43.5511759" lon="11.3579972"><ele>543.2</ele><time>2026-04-18T10:50:23.885Z</time></trkpt><trkpt lat="43.5512413" lon="11.3581178"><ele>541.4</ele><time>2026-04-18T10:50:24.891Z</time></trkpt><trkpt lat="43.5513048" lon="11.358235"><ele>539.6</ele><time>2026-04-18T10:50:25.897Z</time></trkpt><trkpt lat="43.551366" lon="11.3583511"><ele>537.8</ele><time>2026-04-18T10:50:26.89Z</time></trkpt><trkpt lat="43.5514066" lon="11.358462"><ele>536.0</ele><time>2026-04-18T10:50:27.881Z</time></trkpt><trkpt lat="43.5514261" lon="11.3585728"><ele>536.0</ele><time>2026-04-18T10:50:28.876Z</time></trkpt><trkpt lat="43.5514187" lon="11.3586792"><ele>536.0</ele><time>2026-04-18T10:50:29.867Z</time></trkpt><trkpt lat="43.5513807" lon="11.3587619"><ele>536.0</ele><time>2026-04-18T10:50:30.866Z</time></trkpt><trkpt lat="43.5513229" lon="11.3588316"><ele>536.0</ele><time>2026-04-18T10:50:31.859Z</time></trkpt><trkpt lat="43.5512418" lon="11.3588933"><ele>536.0</ele><time>2026-04-18T10:50:32.861Z</time></trkpt><trkpt lat="43.5511582" lon="11.358959"><ele>536.0</ele><time>2026-04-18T10:50:33.878Z</time></trkpt><trkpt lat="43.5510688" lon="11.3590517"><ele>536.5</ele><time>2026-04-18T10:50:34.874Z</time></trkpt><trkpt lat="43.5509865" lon="11.3591626"><ele>537.0</ele><time>2026-04-18T10:50:35.883Z</time></trkpt><trkpt lat="43.5509171" lon="11.3593051"><ele>537.5</ele><time>2026-04-18T10:50:36.878Z</time></trkpt><trkpt lat="43.5508457" lon="11.3594645"><ele>538.0</ele><time>2026-04-18T10:50:37.862Z</time></trkpt><trkpt lat="43.5507848" lon="11.3596202"><ele>535.5</ele><time>2026-04-18T10:50:38.853Z</time></trkpt><trkpt lat="43.5507282" lon="11.3597738"><ele>533.0</ele><time>2026-04-18T10:50:39.847Z</time></trkpt><trkpt lat="43.5506726" lon="11.3599189"><ele>530.5</ele><time>2026-04-18T10:50:40.865Z</time></trkpt><trkpt lat="43.5506182" lon="11.3600611"><ele>528.0</ele><time>2026-04-18T10:50:41.865Z</time></trkpt><trkpt lat="43.5505692" lon="11.3601905"><ele>528.0</ele><time>2026-04-18T10:50:42.862Z</time></trkpt><trkpt lat="43.5505385" lon="11.3602942"><ele>528.0</ele><time>2026-04-18T10:50:43.866Z</time></trkpt><trkpt lat="43.5505585" lon="11.3604126"><ele>528.0</ele><time>2026-04-18T10:50:45.866Z</time></trkpt><trkpt lat="43.5506124" lon="11.3605332"><ele>528.0</ele><time>2026-04-18T10:50:47.851Z</time></trkpt><trkpt lat="43.5506819" lon="11.3605776"><ele>528.0</ele><time>2026-04-18T10:50:48.854Z</time></trkpt><trkpt lat="43.5507698" lon="11.3606086"><ele>528.0</ele><time>2026-04-18T10:50:49.854Z</time></trkpt><trkpt lat="43.5508684" lon="11.3606406"><ele>528.6</ele><time>2026-04-18T10:50:50.872Z</time></trkpt><trkpt lat="43.5509727" lon="11.3606633"><ele>529.1999999999999</ele><time>2026-04-18T10:50:51.875Z</time></trkpt><trkpt lat="43.5510806" lon="11.3606692"><ele>529.8</ele><time>2026-04-18T10:50:52.876Z</time></trkpt><trkpt lat="43.551187" lon="11.3606713"><ele>530.4</ele><time>2026-04-18T10:50:53.885Z</time></trkpt><trkpt lat="43.5512865" lon="11.3606771"><ele>531.0</ele><time>2026-04-18T10:50:54.861Z</time></trkpt><trkpt lat="43.5513757" lon="11.3606881"><ele>531.0</ele><time>2026-04-18T10:50:55.868Z</time></trkpt><trkpt lat="43.5514594" lon="11.3607015"><ele>531.0</ele><time>2026-04-18T10:50:56.865Z</time></trkpt><trkpt lat="43.5515494" lon="11.3607324"><ele>531.0</ele><time>2026-04-18T10:50:57.868Z</time></trkpt><trkpt lat="43.5516343" lon="11.3607876"><ele>531.0</ele><time>2026-04-18T10:50:58.877Z</time></trkpt><trkpt lat="43.5517208" lon="11.3608401"><ele>531.0</ele><time>2026-04-18T10:50:59.874Z</time></trkpt><trkpt lat="43.5518048" lon="11.3608461"><ele>531.0</ele><time>2026-04-18T10:51:00.867Z</time></trkpt><trkpt lat="43.5518802" lon="11.3608332"><ele>531.0</ele><time>2026-04-18T10:51:01.858Z</time></trkpt><trkpt lat="43.5519564" lon="11.3607558"><ele>531.0</ele><time>2026-04-18T10:51:02.852Z</time></trkpt><trkpt lat="43.5520536" lon="11.3606524"><ele>531.0</ele><time>2026-04-18T10:51:03.768Z</time></trkpt><trkpt lat="43.5521365" lon="11.3605317"><ele>531.0</ele><time>2026-04-18T10:51:04.786Z</time></trkpt><trkpt lat="43.5522339" lon="11.3604769"><ele>531.0</ele><time>2026-04-18T10:51:05.78Z</time></trkpt><trkpt lat="43.5523442" lon="11.360454"><ele>527.5</ele><time>2026-04-18T10:51:06.79Z</time></trkpt><trkpt lat="43.5524612" lon="11.3604498"><ele>524.0</ele><time>2026-04-18T10:51:07.804Z</time></trkpt><trkpt lat="43.5525873" lon="11.3604428"><ele>520.5</ele><time>2026-04-18T10:51:08.787Z</time></trkpt><trkpt lat="43.5527105" lon="11.3604363"><ele>517.0</ele><time>2026-04-18T10:51:09.781Z</time></trkpt><trkpt lat="43.5528391" lon="11.3604204"><ele>518.75</ele><time>2026-04-18T10:51:10.786Z</time></trkpt><trkpt lat="43.5529736" lon="11.3604019"><ele>520.5</ele><time>2026-04-18T10:51:11.79Z</time></trkpt><trkpt lat="43.5531093" lon="11.3603878"><ele>522.25</ele><time>2026-04-18T10:51:12.793Z</time></trkpt><trkpt lat="43.5532413" lon="11.3603646"><ele>524.0</ele><time>2026-04-18T10:51:13.791Z</time></trkpt><trkpt lat="43.5533741" lon="11.3603602"><ele>524.0</ele><time>2026-04-18T10:51:14.794Z</time></trkpt><trkpt lat="43.5535079" lon="11.3603368"><ele>524.0</ele><time>2026-04-18T10:51:15.798Z</time></trkpt><trkpt lat="43.5536371" lon="11.360314"><ele>524.0</ele><time>2026-04-18T10:51:16.798Z</time></trkpt><trkpt lat="43.5537739" lon="11.3602981"><ele>524.0</ele><time>2026-04-18T10:51:17.791Z</time></trkpt><trkpt lat="43.5538855" lon="11.3602783"><ele>524.4</ele><time>2026-04-18T10:51:18.793Z</time></trkpt><trkpt lat="43.5539855" lon="11.3602632"><ele>524.8</ele><time>2026-04-18T10:51:19.795Z</time></trkpt><trkpt lat="43.5540808" lon="11.3602899"><ele>525.2</ele><time>2026-04-18T10:51:20.79Z</time></trkpt><trkpt lat="43.5541829" lon="11.3603344"><ele>525.6</ele><time>2026-04-18T10:51:21.792Z</time></trkpt><trkpt lat="43.5542916" lon="11.360399"><ele>526.0</ele><time>2026-04-18T10:51:22.792Z</time></trkpt><trkpt lat="43.554396" lon="11.3604795"><ele>529.6</ele><time>2026-04-18T10:51:23.798Z</time></trkpt><trkpt lat="43.5544945" lon="11.360567"><ele>533.2</ele><time>2026-04-18T10:51:24.803Z</time></trkpt><trkpt lat="43.5545768" lon="11.3606685"><ele>536.8</ele><time>2026-04-18T10:51:25.801Z</time></trkpt><trkpt lat="43.5546381" lon="11.3607412"><ele>540.4</ele><time>2026-04-18T10:51:26.789Z</time></trkpt><trkpt lat="43.5547332" lon="11.3607521"><ele>544.0</ele><time>2026-04-18T10:51:28.787Z</time></trkpt><trkpt lat="43.5548122" lon="11.3606295"><ele>544.2</ele><time>2026-04-18T10:51:30.794Z</time></trkpt><trkpt lat="43.5548374" lon="11.3605495"><ele>544.4</ele><time>2026-04-18T10:51:31.792Z</time></trkpt><trkpt lat="43.5548823" lon="11.3604431"><ele>544.6</ele><time>2026-04-18T10:51:32.795Z</time></trkpt><trkpt lat="43.5549389" lon="11.3603252"><ele>544.8</ele><time>2026-04-18T10:51:33.801Z</time></trkpt><trkpt lat="43.5550349" lon="11.3602543"><ele>545.0</ele><time>2026-04-18T10:51:34.785Z</time></trkpt><trkpt lat="43.555138" lon="11.3602075"><ele>544.6666666666666</ele><time>2026-04-18T10:51:35.791Z</time></trkpt><trkpt lat="43.5552294" lon="11.3601708"><ele>544.3333333333333</ele><time>2026-04-18T10:51:36.788Z</time></trkpt><trkpt lat="43.5553029" lon="11.3601473"><ele>544.0</ele><time>2026-04-18T10:51:37.791Z</time></trkpt><trkpt lat="43.5553655" lon="11.3601567"><ele>543.6666666666666</ele><time>2026-04-18T10:51:38.809Z</time></trkpt><trkpt lat="43.5554288" lon="11.3601806"><ele>543.3333333333334</ele><time>2026-04-18T10:51:39.795Z</time></trkpt><trkpt lat="43.555522" lon="11.3602544"><ele>543.0</ele><time>2026-04-18T10:51:41.792Z</time></trkpt><trkpt lat="43.5555968" lon="11.3603614"><ele>543.0</ele><time>2026-04-18T10:51:43.799Z</time></trkpt><trkpt lat="43.5557087" lon="11.3604199"><ele>543.0</ele><time>2026-04-18T10:51:45.79Z</time></trkpt><trkpt lat="43.5557633" lon="11.3603624"><ele>543.0</ele><time>2026-04-18T10:51:46.792Z</time></trkpt><trkpt lat="43.5558193" lon="11.3602615"><ele>543.0</ele><time>2026-04-18T10:51:47.782Z</time></trkpt><trkpt lat="43.5558357" lon="11.3601446"><ele>543.0</ele><time>2026-04-18T10:51:48.792Z</time></trkpt><trkpt lat="43.5558444" lon="11.3600118"><ele>543.0</ele><time>2026-04-18T10:51:49.794Z</time></trkpt><trkpt lat="43.5558489" lon="11.3598654"><ele>543.0</ele><time>2026-04-18T10:51:50.792Z</time></trkpt><trkpt lat="43.5558652" lon="11.3597172"><ele>543.0</ele><time>2026-04-18T10:51:51.794Z</time></trkpt><trkpt lat="43.5558798" lon="11.3595639"><ele>543.0</ele><time>2026-04-18T10:51:52.795Z</time></trkpt><trkpt lat="43.5558902" lon="11.3594083"><ele>543.0</ele><time>2026-04-18T10:51:53.799Z</time></trkpt><trkpt lat="43.5559054" lon="11.3592568"><ele>541.1999999999999</ele><time>2026-04-18T10:51:54.8Z</time></trkpt><trkpt lat="43.5559202" lon="11.3591177"><ele>539.4</ele><time>2026-04-18T10:51:55.799Z</time></trkpt><trkpt lat="43.555931" lon="11.3589938"><ele>537.5999999999999</ele><time>2026-04-18T10:51:56.797Z</time></trkpt><trkpt lat="43.5559415" lon="11.3588715"><ele>535.8</ele><time>2026-04-18T10:51:57.797Z</time></trkpt><trkpt lat="43.555962" lon="11.3587591"><ele>534.0</ele><time>2026-04-18T10:51:58.8Z</time></trkpt><trkpt lat="43.5560198" lon="11.3586235"><ele>534.4</ele><time>2026-04-18T10:52:00.803Z</time></trkpt><trkpt lat="43.5561385" lon="11.3586092"><ele>534.8</ele><time>2026-04-18T10:52:02.798Z</time></trkpt><trkpt lat="43.5562028" lon="11.3586655"><ele>535.2</ele><time>2026-04-18T10:52:03.808Z</time></trkpt><trkpt lat="43.5562664" lon="11.3587389"><ele>535.6</ele><time>2026-04-18T10:52:04.811Z</time></trkpt><trkpt lat="43.5563485" lon="11.3588179"><ele>536.0</ele><time>2026-04-18T10:52:05.81Z</time></trkpt><trkpt lat="43.556441" lon="11.3589024"><ele>539.75</ele><time>2026-04-18T10:52:06.808Z</time></trkpt><trkpt lat="43.5565461" lon="11.3589687"><ele>543.5</ele><time>2026-04-18T10:52:07.808Z</time></trkpt><trkpt lat="43.5566615" lon="11.3589961"><ele>547.25</ele><time>2026-04-18T10:52:08.796Z</time></trkpt><trkpt lat="43.5567705" lon="11.3589805"><ele>551.0</ele><time>2026-04-18T10:52:09.826Z</time></trkpt><trkpt lat="43.5568767" lon="11.3589046"><ele>550.5</ele><time>2026-04-18T10:52:10.8Z</time></trkpt><trkpt lat="43.5569762" lon="11.3588026"><ele>550.0</ele><time>2026-04-18T10:52:11.803Z</time></trkpt><trkpt lat="43.5570654" lon="11.3586845"><ele>549.5</ele><time>2026-04-18T10:52:12.802Z</time></trkpt><trkpt lat="43.557145" lon="11.3585399"><ele>549.0</ele><time>2026-04-18T10:52:13.812Z</time></trkpt><trkpt lat="43.5572295" lon="11.3584062"><ele>549.0</ele><time>2026-04-18T10:52:14.81Z</time></trkpt><trkpt lat="43.5573114" lon="11.3582856"><ele>549.0</ele><time>2026-04-18T10:52:15.805Z</time></trkpt><trkpt lat="43.5573863" lon="11.3581789"><ele>549.0</ele><time>2026-04-18T10:52:16.801Z</time></trkpt><trkpt lat="43.557455" lon="11.3581059"><ele>549.0</ele><time>2026-04-18T10:52:17.806Z</time></trkpt><trkpt lat="43.557522" lon="11.3580455"><ele>549.0</ele><time>2026-04-18T10:52:18.81Z</time></trkpt><trkpt lat="43.5575979" lon="11.3580023"><ele>549.0</ele><time>2026-04-18T10:52:19.802Z</time></trkpt><trkpt lat="43.5576641" lon="11.3579839"><ele>549.0</ele><time>2026-04-18T10:52:20.812Z</time></trkpt><trkpt lat="43.5577862" lon="11.3580075"><ele>549.0</ele><time>2026-04-18T10:52:22.804Z</time></trkpt><trkpt lat="43.5578496" lon="11.3580502"><ele>549.0</ele><time>2026-04-18T10:52:23.805Z</time></trkpt><trkpt lat="43.5578903" lon="11.3581223"><ele>549.0</ele><time>2026-04-18T10:52:24.797Z</time></trkpt><trkpt lat="43.5579168" lon="11.3582038"><ele>549.0</ele><time>2026-04-18T10:52:25.812Z</time></trkpt><trkpt lat="43.5579181" lon="11.3583047"><ele>549.0</ele><time>2026-04-18T10:52:26.799Z</time></trkpt><trkpt lat="43.5579006" lon="11.3584017"><ele>549.0</ele><time>2026-04-18T10:52:27.799Z</time></trkpt><trkpt lat="43.5578706" lon="11.3584988"><ele>549.0</ele><time>2026-04-18T10:52:28.806Z</time></trkpt><trkpt lat="43.5578325" lon="11.3586153"><ele>549.0</ele><time>2026-04-18T10:52:29.808Z</time></trkpt><trkpt lat="43.5578113" lon="11.3587372"><ele>549.0</ele><time>2026-04-18T10:52:30.813Z</time></trkpt><trkpt lat="43.5577972" lon="11.3588587"><ele>549.0</ele><time>2026-04-18T10:52:31.807Z</time></trkpt><trkpt lat="43.5577783" lon="11.358965"><ele>550.2</ele><time>2026-04-18T10:52:32.802Z</time></trkpt><trkpt lat="43.5577504" lon="11.3590887"><ele>551.4</ele><time>2026-04-18T10:52:34.798Z</time></trkpt><trkpt lat="43.5578079" lon="11.3591756"><ele>552.6</ele><time>2026-04-18T10:54:12.831Z</time></trkpt><trkpt lat="43.5578661" lon="11.3592287"><ele>553.8</ele><time>2026-04-18T10:54:15.81Z</time></trkpt><trkpt lat="43.5579421" lon="11.3591702"><ele>555.0</ele><time>2026-04-18T10:54:17.809Z</time></trkpt><trkpt lat="43.5580393" lon="11.359014"><ele>555.0</ele><time>2026-04-18T10:54:19.823Z</time></trkpt><trkpt lat="43.5581137" lon="11.3589251"><ele>555.0</ele><time>2026-04-18T10:54:20.812Z</time></trkpt><trkpt lat="43.5581917" lon="11.3588468"><ele>555.0</ele><time>2026-04-18T10:54:21.817Z</time></trkpt><trkpt lat="43.558266" lon="11.3587898"><ele>555.0</ele><time>2026-04-18T10:54:22.82Z</time></trkpt><trkpt lat="43.5583326" lon="11.3587428"><ele>555.0</ele><time>2026-04-18T10:54:23.814Z</time></trkpt><trkpt lat="43.5583841" lon="11.3586795"><ele>555.0</ele><time>2026-04-18T10:54:24.801Z</time></trkpt><trkpt lat="43.5584182" lon="11.3585946"><ele>553.4</ele><time>2026-04-18T10:54:25.81Z</time></trkpt><trkpt lat="43.5584344" lon="11.3584676"><ele>551.8</ele><time>2026-04-18T10:54:26.816Z</time></trkpt><trkpt lat="43.5584554" lon="11.3583212"><ele>550.2</ele><time>2026-04-18T10:54:27.888Z</time></trkpt><trkpt lat="43.5584731" lon="11.3581675"><ele>548.6</ele><time>2026-04-18T10:54:28.883Z</time></trkpt><trkpt lat="43.5584731" lon="11.3580088"><ele>547.0</ele><time>2026-04-18T10:54:29.882Z</time></trkpt><trkpt lat="43.558437" lon="11.3578384"><ele>545.8000000000001</ele><time>2026-04-18T10:54:30.875Z</time></trkpt><trkpt lat="43.5583879" lon="11.3576671"><ele>544.6</ele><time>2026-04-18T10:54:31.786Z</time></trkpt><trkpt lat="43.5583377" lon="11.3575059"><ele>543.4000000000001</ele><time>2026-04-18T10:54:32.785Z</time></trkpt><trkpt lat="43.5583189" lon="11.3573705"><ele>542.2</ele><time>2026-04-18T10:54:33.783Z</time></trkpt><trkpt lat="43.5583279" lon="11.3572511"><ele>541.0</ele><time>2026-04-18T10:54:34.806Z</time></trkpt><trkpt lat="43.5583561" lon="11.3571355"><ele>540.0</ele><time>2026-04-18T10:54:35.804Z</time></trkpt><trkpt lat="43.5583863" lon="11.3570128"><ele>539.0</ele><time>2026-04-18T10:54:36.811Z</time></trkpt><trkpt lat="43.5584247" lon="11.3569046"><ele>538.0</ele><time>2026-04-18T10:54:37.803Z</time></trkpt><trkpt lat="43.5584657" lon="11.3568188"><ele>537.0</ele><time>2026-04-18T10:54:38.807Z</time></trkpt><trkpt lat="43.5585" lon="11.3567155"><ele>536.0</ele><time>2026-04-18T10:54:39.806Z</time></trkpt><trkpt lat="43.5585464" lon="11.3565957"><ele>535.0</ele><time>2026-04-18T10:54:40.815Z</time></trkpt><trkpt lat="43.5586078" lon="11.3564527"><ele>535.5</ele><time>2026-04-18T10:54:41.817Z</time></trkpt><trkpt lat="43.5586722" lon="11.3562942"><ele>536.0</ele><time>2026-04-18T10:54:42.807Z</time></trkpt><trkpt lat="43.5587305" lon="11.3561233"><ele>536.5</ele><time>2026-04-18T10:54:43.818Z</time></trkpt><trkpt lat="43.5587905" lon="11.3559513"><ele>537.0</ele><time>2026-04-18T10:54:44.85Z</time></trkpt><trkpt lat="43.5588508" lon="11.3557783"><ele>537.0</ele><time>2026-04-18T10:54:45.832Z</time></trkpt><trkpt lat="43.5588999" lon="11.3556128"><ele>537.0</ele><time>2026-04-18T10:54:46.834Z</time></trkpt><trkpt lat="43.5589559" lon="11.3554646"><ele>537.0</ele><time>2026-04-18T10:54:47.838Z</time></trkpt><trkpt lat="43.5590126" lon="11.3553242"><ele>537.0</ele><time>2026-04-18T10:54:48.833Z</time></trkpt><trkpt lat="43.5590802" lon="11.3552045"><ele>533.75</ele><time>2026-04-18T10:54:49.834Z</time></trkpt><trkpt lat="43.5591544" lon="11.3550779"><ele>530.5</ele><time>2026-04-18T10:54:50.832Z</time></trkpt><trkpt lat="43.5592486" lon="11.3549614"><ele>527.25</ele><time>2026-04-18T10:54:51.829Z</time></trkpt><trkpt lat="43.5593401" lon="11.3548542"><ele>524.0</ele><time>2026-04-18T10:54:52.833Z</time></trkpt><trkpt lat="43.5594106" lon="11.3547435"><ele>520.8</ele><time>2026-04-18T10:54:53.83Z</time></trkpt><trkpt lat="43.5594638" lon="11.35461"><ele>517.5999999999999</ele><time>2026-04-18T10:54:54.83Z</time></trkpt><trkpt lat="43.559503" lon="11.3544623"><ele>514.4</ele><time>2026-04-18T10:54:55.836Z</time></trkpt><trkpt lat="43.559526" lon="11.3543092"><ele>511.2</ele><time>2026-04-18T10:54:56.827Z</time></trkpt><trkpt lat="43.5595216" lon="11.3541599"><ele>508.0</ele><time>2026-04-18T10:54:57.838Z</time></trkpt><trkpt lat="43.5594789" lon="11.3540182"><ele>508.0</ele><time>2026-04-18T10:54:58.828Z</time></trkpt><trkpt lat="43.5594572" lon="11.3538785"><ele>507.99999999999994</ele><time>2026-04-18T10:54:59.829Z</time></trkpt><trkpt lat="43.5594565" lon="11.3537376"><ele>507.99999999999994</ele><time>2026-04-18T10:55:00.834Z</time></trkpt><trkpt lat="43.5594685" lon="11.3536052"><ele>508.0</ele><time>2026-04-18T10:55:01.831Z</time></trkpt><trkpt lat="43.5594986" lon="11.3534894"><ele>508.0</ele><time>2026-04-18T10:55:02.83Z</time></trkpt><trkpt lat="43.559532" lon="11.3533764"><ele>507.50000000000006</ele><time>2026-04-18T10:55:03.831Z</time></trkpt><trkpt lat="43.5595581" lon="11.3532754"><ele>507.0</ele><time>2026-04-18T10:55:04.831Z</time></trkpt><trkpt lat="43.5595927" lon="11.3531858"><ele>506.5</ele><time>2026-04-18T10:55:05.832Z</time></trkpt><trkpt lat="43.5596207" lon="11.3531011"><ele>506.0</ele><time>2026-04-18T10:55:06.83Z</time></trkpt><trkpt lat="43.559653" lon="11.3529863"><ele>505.50000000000006</ele><time>2026-04-18T10:55:07.821Z</time></trkpt><trkpt lat="43.5596991" lon="11.3528616"><ele>505.0</ele><time>2026-04-18T10:55:08.832Z</time></trkpt><trkpt lat="43.5597423" lon="11.3527279"><ele>505.0</ele><time>2026-04-18T10:55:09.83Z</time></trkpt><trkpt lat="43.5597956" lon="11.352594"><ele>505.0</ele><time>2026-04-18T10:55:10.825Z</time></trkpt><trkpt lat="43.5598437" lon="11.3524421"><ele>505.0</ele><time>2026-04-18T10:55:11.833Z</time></trkpt><trkpt lat="43.5598905" lon="11.3522915"><ele>505.0</ele><time>2026-04-18T10:55:12.839Z</time></trkpt><trkpt lat="43.559928" lon="11.3521168"><ele>506.75</ele><time>2026-04-18T10:55:13.834Z</time></trkpt><trkpt lat="43.5599563" lon="11.3519173"><ele>508.5</ele><time>2026-04-18T10:55:14.831Z</time></trkpt><trkpt lat="43.5599793" lon="11.3517291"><ele>510.25</ele><time>2026-04-18T10:55:15.847Z</time></trkpt><trkpt lat="43.5599844" lon="11.3515501"><ele>512.0</ele><time>2026-04-18T10:55:16.841Z</time></trkpt><trkpt lat="43.5599862" lon="11.3513862"><ele>511.40000000000003</ele><time>2026-04-18T10:55:17.832Z</time></trkpt><trkpt lat="43.5599784" lon="11.3512353"><ele>510.80000000000007</ele><time>2026-04-18T10:55:18.838Z</time></trkpt><trkpt lat="43.5599567" lon="11.351109"><ele>510.2</ele><time>2026-04-18T10:55:19.833Z</time></trkpt><trkpt lat="43.5599237" lon="11.3509849"><ele>509.6</ele><time>2026-04-18T10:55:20.834Z</time></trkpt><trkpt lat="43.5598556" lon="11.3508495"><ele>509.0</ele><time>2026-04-18T10:55:21.831Z</time></trkpt><trkpt lat="43.5597813" lon="11.3506795"><ele>504.66666666666663</ele><time>2026-04-18T10:55:22.834Z</time></trkpt><trkpt lat="43.5597048" lon="11.3504971"><ele>500.33333333333337</ele><time>2026-04-18T10:55:23.833Z</time></trkpt><trkpt lat="43.5596249" lon="11.3503053"><ele>496.0</ele><time>2026-04-18T10:55:24.82Z</time></trkpt><trkpt lat="43.559535" lon="11.3500933"><ele>496.0</ele><time>2026-04-18T10:55:25.826Z</time></trkpt><trkpt lat="43.5594386" lon="11.349889"><ele>496.0</ele><time>2026-04-18T10:55:26.829Z</time></trkpt><trkpt lat="43.5593499" lon="11.3496917"><ele>496.0</ele><time>2026-04-18T10:55:27.838Z</time></trkpt><trkpt lat="43.5592698" lon="11.3495111"><ele>496.75</ele><time>2026-04-18T10:55:28.837Z</time></trkpt><trkpt lat="43.5591956" lon="11.3493566"><ele>497.5</ele><time>2026-04-18T10:55:29.838Z</time></trkpt><trkpt lat="43.5591237" lon="11.3492213"><ele>498.25</ele><time>2026-04-18T10:55:30.845Z</time></trkpt><trkpt lat="43.5590568" lon="11.3490857"><ele>499.0</ele><time>2026-04-18T10:55:31.844Z</time></trkpt><trkpt lat="43.5589946" lon="11.3489624"><ele>499.75</ele><time>2026-04-18T10:55:32.832Z</time></trkpt><trkpt lat="43.5589393" lon="11.3488077"><ele>500.5</ele><time>2026-04-18T10:55:33.813Z</time></trkpt><trkpt lat="43.5588751" lon="11.348652"><ele>501.25</ele><time>2026-04-18T10:55:34.818Z</time></trkpt><trkpt lat="43.5588231" lon="11.3484683"><ele>502.0</ele><time>2026-04-18T10:55:35.815Z</time></trkpt><trkpt lat="43.5587824" lon="11.3482842"><ele>502.0</ele><time>2026-04-18T10:55:36.81Z</time></trkpt><trkpt lat="43.5587413" lon="11.3480949"><ele>502.0</ele><time>2026-04-18T10:55:37.822Z</time></trkpt><trkpt lat="43.5586784" lon="11.3479328"><ele>502.0</ele><time>2026-04-18T10:55:38.805Z</time></trkpt><trkpt lat="43.5586" lon="11.347802"><ele>502.0</ele><time>2026-04-18T10:55:39.806Z</time></trkpt><trkpt lat="43.558502" lon="11.3476879"><ele>498.6666666666667</ele><time>2026-04-18T10:55:40.813Z</time></trkpt><trkpt lat="43.5583802" lon="11.3475795"><ele>495.33333333333337</ele><time>2026-04-18T10:55:41.811Z</time></trkpt><trkpt lat="43.5582475" lon="11.3474671"><ele>492.0</ele><time>2026-04-18T10:55:42.814Z</time></trkpt><trkpt lat="43.558104" lon="11.3473584"><ele>492.0</ele><time>2026-04-18T10:55:43.813Z</time></trkpt><trkpt lat="43.5579424" lon="11.3472875"><ele>492.0</ele><time>2026-04-18T10:55:44.822Z</time></trkpt><trkpt lat="43.5578076" lon="11.3472046"><ele>492.0</ele><time>2026-04-18T10:55:45.809Z</time></trkpt><trkpt lat="43.5576932" lon="11.347107"><ele>490.0</ele><time>2026-04-18T10:55:46.844Z</time></trkpt><trkpt lat="43.5575912" lon="11.3470396"><ele>488.00000000000006</ele><time>2026-04-18T10:55:47.804Z</time></trkpt><trkpt lat="43.5575018" lon="11.3469673"><ele>486.00000000000006</ele><time>2026-04-18T10:55:48.824Z</time></trkpt><trkpt lat="43.5574338" lon="11.3468842"><ele>484.0</ele><time>2026-04-18T10:55:49.812Z</time></trkpt><trkpt lat="43.5573859" lon="11.3467672"><ele>482.0</ele><time>2026-04-18T10:55:50.807Z</time></trkpt><trkpt lat="43.557376" lon="11.3466311"><ele>482.0</ele><time>2026-04-18T10:55:51.821Z</time></trkpt><trkpt lat="43.557398" lon="11.3464889"><ele>482.0</ele><time>2026-04-18T10:55:52.835Z</time></trkpt><trkpt lat="43.5573905" lon="11.3463286"><ele>482.0</ele><time>2026-04-18T10:55:53.808Z</time></trkpt><trkpt lat="43.5573472" lon="11.3461697"><ele>482.0</ele><time>2026-04-18T10:55:54.831Z</time></trkpt><trkpt lat="43.5572631" lon="11.3460239"><ele>482.5</ele><time>2026-04-18T10:55:55.817Z</time></trkpt><trkpt lat="43.5571727" lon="11.3459047"><ele>483.0</ele><time>2026-04-18T10:55:56.817Z</time></trkpt><trkpt lat="43.5571223" lon="11.3457852"><ele>483.5</ele><time>2026-04-18T10:55:57.814Z</time></trkpt><trkpt lat="43.557099" lon="11.3456323"><ele>484.0</ele><time>2026-04-18T10:55:58.814Z</time></trkpt><trkpt lat="43.5570949" lon="11.3454541"><ele>484.0</ele><time>2026-04-18T10:55:59.825Z</time></trkpt><trkpt lat="43.5570877" lon="11.3452829"><ele>484.0</ele><time>2026-04-18T10:56:00.81Z</time></trkpt><trkpt lat="43.5570536" lon="11.3451392"><ele>484.0</ele><time>2026-04-18T10:56:01.816Z</time></trkpt><trkpt lat="43.5569816" lon="11.3450139"><ele>484.0</ele><time>2026-04-18T10:56:02.817Z</time></trkpt><trkpt lat="43.5568936" lon="11.3449119"><ele>479.4</ele><time>2026-04-18T10:56:03.822Z</time></trkpt><trkpt lat="43.5568203" lon="11.3448248"><ele>474.79999999999995</ele><time>2026-04-18T10:56:04.817Z</time></trkpt><trkpt lat="43.5567893" lon="11.3447295"><ele>470.20000000000005</ele><time>2026-04-18T10:56:05.821Z</time></trkpt><trkpt lat="43.5567877" lon="11.3446062"><ele>465.6</ele><time>2026-04-18T10:56:06.823Z</time></trkpt><trkpt lat="43.556805" lon="11.3444533"><ele>461.0</ele><time>2026-04-18T10:56:07.806Z</time></trkpt><trkpt lat="43.5568036" lon="11.3442809"><ele>461.0</ele><time>2026-04-18T10:56:08.807Z</time></trkpt><trkpt lat="43.5567606" lon="11.3440901"><ele>461.0</ele><time>2026-04-18T10:56:09.812Z</time></trkpt><trkpt lat="43.5567018" lon="11.3439283"><ele>461.0</ele><time>2026-04-18T10:56:10.823Z</time></trkpt><trkpt lat="43.5566415" lon="11.3438258"><ele>461.0</ele><time>2026-04-18T10:56:11.828Z</time></trkpt><trkpt lat="43.5565756" lon="11.3437575"><ele>460.20000000000005</ele><time>2026-04-18T10:56:12.826Z</time></trkpt><trkpt lat="43.5564827" lon="11.3437209"><ele>459.40000000000003</ele><time>2026-04-18T10:56:13.821Z</time></trkpt><trkpt lat="43.556383" lon="11.3436888"><ele>458.6</ele><time>2026-04-18T10:56:14.82Z</time></trkpt><trkpt lat="43.5562863" lon="11.3436433"><ele>457.8</ele><time>2026-04-18T10:56:15.814Z</time></trkpt><trkpt lat="43.55618" lon="11.343564"><ele>457.0</ele><time>2026-04-18T10:56:16.831Z</time></trkpt><trkpt lat="43.5560574" lon="11.3434547"><ele>456.25</ele><time>2026-04-18T10:56:17.83Z</time></trkpt><trkpt lat="43.5559343" lon="11.3433597"><ele>455.5</ele><time>2026-04-18T10:56:18.821Z</time></trkpt><trkpt lat="43.5558296" lon="11.3432917"><ele>454.75</ele><time>2026-04-18T10:56:19.822Z</time></trkpt><trkpt lat="43.5557178" lon="11.3432849"><ele>454.0</ele><time>2026-04-18T10:56:20.798Z</time></trkpt><trkpt lat="43.5555903" lon="11.3432993"><ele>454.0</ele><time>2026-04-18T10:56:21.802Z</time></trkpt><trkpt lat="43.5554616" lon="11.3432884"><ele>454.0</ele><time>2026-04-18T10:56:22.799Z</time></trkpt><trkpt lat="43.5553169" lon="11.3432567"><ele>454.0</ele><time>2026-04-18T10:56:23.801Z</time></trkpt><trkpt lat="43.5551565" lon="11.3431947"><ele>454.0</ele><time>2026-04-18T10:56:24.792Z</time></trkpt><trkpt lat="43.5550351" lon="11.3431864"><ele>453.6</ele><time>2026-04-18T10:56:25.794Z</time></trkpt><trkpt lat="43.5549604" lon="11.3431609"><ele>453.2</ele><time>2026-04-18T10:56:26.795Z</time></trkpt><trkpt lat="43.5548891" lon="11.3431033"><ele>452.80000000000007</ele><time>2026-04-18T10:56:27.782Z</time></trkpt><trkpt lat="43.5548399" lon="11.3430287"><ele>452.40000000000003</ele><time>2026-04-18T10:56:28.79Z</time></trkpt><trkpt lat="43.5547803" lon="11.34292"><ele>452.0</ele><time>2026-04-18T10:56:29.801Z</time></trkpt><trkpt lat="43.5546947" lon="11.3427865"><ele>452.0</ele><time>2026-04-18T10:56:30.808Z</time></trkpt><trkpt lat="43.5545677" lon="11.3426885"><ele>452.0</ele><time>2026-04-18T10:56:31.798Z</time></trkpt><trkpt lat="43.5544267" lon="11.3426266"><ele>452.0</ele><time>2026-04-18T10:56:32.79Z</time></trkpt><trkpt lat="43.554284" lon="11.342582"><ele>452.0</ele><time>2026-04-18T10:56:33.81Z</time></trkpt><trkpt lat="43.5541706" lon="11.3425649"><ele>449.8</ele><time>2026-04-18T10:56:34.804Z</time></trkpt><trkpt lat="43.5540948" lon="11.3425141"><ele>447.6</ele><time>2026-04-18T10:56:35.798Z</time></trkpt><trkpt lat="43.5540267" lon="11.3424281"><ele>445.40000000000003</ele><time>2026-04-18T10:56:36.813Z</time></trkpt><trkpt lat="43.5539408" lon="11.3422964"><ele>443.20000000000005</ele><time>2026-04-18T10:56:37.808Z</time></trkpt><trkpt lat="43.5538598" lon="11.3421486"><ele>441.0</ele><time>2026-04-18T10:56:38.814Z</time></trkpt><trkpt lat="43.5538048" lon="11.3420097"><ele>439.6666666666667</ele><time>2026-04-18T10:56:39.813Z</time></trkpt><trkpt lat="43.5537747" lon="11.3418786"><ele>438.33333333333337</ele><time>2026-04-18T10:56:40.839Z</time></trkpt><trkpt lat="43.5537749" lon="11.3417725"><ele>437.0</ele><time>2026-04-18T10:56:41.831Z</time></trkpt><trkpt lat="43.5537973" lon="11.34169"><ele>435.6666666666667</ele><time>2026-04-18T10:56:42.824Z</time></trkpt><trkpt lat="43.5538584" lon="11.3416387"><ele>434.33333333333337</ele><time>2026-04-18T10:56:43.831Z</time></trkpt><trkpt lat="43.5539354" lon="11.3416305"><ele>433.0</ele><time>2026-04-18T10:56:44.81Z</time></trkpt><trkpt lat="43.5540249" lon="11.3416621"><ele>433.0</ele><time>2026-04-18T10:56:45.82Z</time></trkpt><trkpt lat="43.5541308" lon="11.3417171"><ele>433.0</ele><time>2026-04-18T10:56:46.824Z</time></trkpt><trkpt lat="43.554244" lon="11.3417904"><ele>433.0</ele><time>2026-04-18T10:56:47.828Z</time></trkpt><trkpt lat="43.5543714" lon="11.3418563"><ele>433.0</ele><time>2026-04-18T10:56:48.795Z</time></trkpt><trkpt lat="43.5545254" lon="11.3418863"><ele>433.5</ele><time>2026-04-18T10:56:49.815Z</time></trkpt><trkpt lat="43.554687" lon="11.3418835"><ele>434.0</ele><time>2026-04-18T10:56:50.794Z</time></trkpt><trkpt lat="43.554833" lon="11.3418896"><ele>434.5</ele><time>2026-04-18T10:56:51.792Z</time></trkpt><trkpt lat="43.5549382" lon="11.3419344"><ele>435.0</ele><time>2026-04-18T10:56:52.786Z</time></trkpt><trkpt lat="43.5550192" lon="11.3419779"><ele>435.0</ele><time>2026-04-18T10:56:53.798Z</time></trkpt><trkpt lat="43.5550817" lon="11.3419402"><ele>435.0</ele><time>2026-04-18T10:56:54.791Z</time></trkpt><trkpt lat="43.5551502" lon="11.3418493"><ele>435.0</ele><time>2026-04-18T10:56:55.788Z</time></trkpt><trkpt lat="43.5551894" lon="11.3416877"><ele>435.0</ele><time>2026-04-18T10:56:56.795Z</time></trkpt><trkpt lat="43.5552075" lon="11.3415404"><ele>435.0</ele><time>2026-04-18T10:56:57.782Z</time></trkpt><trkpt lat="43.5552588" lon="11.3413879"><ele>431.2</ele><time>2026-04-18T10:56:58.79Z</time></trkpt><trkpt lat="43.5552915" lon="11.3412352"><ele>427.4</ele><time>2026-04-18T10:56:59.787Z</time></trkpt><trkpt lat="43.5552971" lon="11.3410902"><ele>423.6</ele><time>2026-04-18T10:57:00.785Z</time></trkpt><trkpt lat="43.5552808" lon="11.3409465"><ele>419.8</ele><time>2026-04-18T10:57:01.796Z</time></trkpt><trkpt lat="43.5552336" lon="11.3407976"><ele>416.0</ele><time>2026-04-18T10:57:02.803Z</time></trkpt><trkpt lat="43.5552034" lon="11.3406606"><ele>413.20000000000005</ele><time>2026-04-18T10:57:03.802Z</time></trkpt><trkpt lat="43.5551847" lon="11.3405435"><ele>410.40000000000003</ele><time>2026-04-18T10:57:04.822Z</time></trkpt><trkpt lat="43.5551867" lon="11.340423"><ele>407.6</ele><time>2026-04-18T10:57:05.816Z</time></trkpt><trkpt lat="43.555217" lon="11.3402944"><ele>404.8</ele><time>2026-04-18T10:57:06.819Z</time></trkpt><trkpt lat="43.5552465" lon="11.3401634"><ele>402.0</ele><time>2026-04-18T10:57:07.819Z</time></trkpt><trkpt lat="43.5552808" lon="11.3400467"><ele>402.0</ele><time>2026-04-18T10:57:08.816Z</time></trkpt><trkpt lat="43.5553091" lon="11.3399537"><ele>402.0</ele><time>2026-04-18T10:57:09.831Z</time></trkpt><trkpt lat="43.5554023" lon="11.3398362"><ele>402.0</ele><time>2026-04-18T10:57:11.815Z</time></trkpt><trkpt lat="43.5554778" lon="11.3398245"><ele>402.0</ele><time>2026-04-18T10:57:12.815Z</time></trkpt><trkpt lat="43.5555555" lon="11.3398531"><ele>402.0</ele><time>2026-04-18T10:57:13.822Z</time></trkpt><trkpt lat="43.5556327" lon="11.3398825"><ele>402.0</ele><time>2026-04-18T10:57:14.825Z</time></trkpt><trkpt lat="43.5557068" lon="11.3399043"><ele>401.0</ele><time>2026-04-18T10:57:15.83Z</time></trkpt><trkpt lat="43.5557769" lon="11.3399001"><ele>400.0</ele><time>2026-04-18T10:57:16.816Z</time></trkpt><trkpt lat="43.5558368" lon="11.3398573"><ele>399.0</ele><time>2026-04-18T10:57:17.809Z</time></trkpt><trkpt lat="43.5558889" lon="11.3397873"><ele>398.0</ele><time>2026-04-18T10:57:18.832Z</time></trkpt><trkpt lat="43.5559303" lon="11.3396991"><ele>397.0</ele><time>2026-04-18T10:57:19.82Z</time></trkpt><trkpt lat="43.5559613" lon="11.339591"><ele>396.0</ele><time>2026-04-18T10:57:20.831Z</time></trkpt><trkpt lat="43.5559946" lon="11.339473"><ele>396.0</ele><time>2026-04-18T10:57:21.826Z</time></trkpt><trkpt lat="43.5560037" lon="11.3393484"><ele>396.0</ele><time>2026-04-18T10:57:22.824Z</time></trkpt><trkpt lat="43.55599" lon="11.3392233"><ele>396.0</ele><time>2026-04-18T10:57:23.815Z</time></trkpt><trkpt lat="43.5559748" lon="11.3391016"><ele>396.0</ele><time>2026-04-18T10:57:24.892Z</time></trkpt><trkpt lat="43.5559686" lon="11.3389839"><ele>396.0</ele><time>2026-04-18T10:57:25.902Z</time></trkpt><trkpt lat="43.5559773" lon="11.338886"><ele>396.0</ele><time>2026-04-18T10:57:26.912Z</time></trkpt><trkpt lat="43.55603" lon="11.3387157"><ele>393.8333333333333</ele><time>2026-04-18T10:57:28.888Z</time></trkpt><trkpt lat="43.5560601" lon="11.3386145"><ele>391.6666666666667</ele><time>2026-04-18T10:57:29.879Z</time></trkpt><trkpt lat="43.5560847" lon="11.338495"><ele>389.5</ele><time>2026-04-18T10:57:30.882Z</time></trkpt><trkpt lat="43.5560988" lon="11.3383744"><ele>387.33333333333337</ele><time>2026-04-18T10:57:31.897Z</time></trkpt><trkpt lat="43.5561008" lon="11.3382536"><ele>385.1666666666667</ele><time>2026-04-18T10:57:32.898Z</time></trkpt><trkpt lat="43.5560934" lon="11.3381318"><ele>383.0</ele><time>2026-04-18T10:57:33.878Z</time></trkpt><trkpt lat="43.5560818" lon="11.3380323"><ele>388.0</ele><time>2026-04-18T10:57:34.877Z</time></trkpt><trkpt lat="43.5564276" lon="11.3381407"><ele>393.0</ele><time>2026-04-18T10:57:35.883Z</time></trkpt><trkpt lat="43.556719" lon="11.3381301"><ele>393.0</ele><time>2026-04-18T10:57:36.792Z</time></trkpt><trkpt lat="43.5568283" lon="11.3380857"><ele>393.0</ele><time>2026-04-18T10:57:37.827Z</time></trkpt><trkpt lat="43.5569581" lon="11.3380677"><ele>393.0</ele><time>2026-04-18T10:57:38.824Z</time></trkpt><trkpt lat="43.5570928" lon="11.3380608"><ele>393.0</ele><time>2026-04-18T10:57:39.831Z</time></trkpt><trkpt lat="43.5572184" lon="11.3380569"><ele>390.79999999999995</ele><time>2026-04-18T10:57:40.821Z</time></trkpt><trkpt lat="43.5573317" lon="11.338051"><ele>388.6</ele><time>2026-04-18T10:57:41.828Z</time></trkpt><trkpt lat="43.5574445" lon="11.3380262"><ele>386.4</ele><time>2026-04-18T10:57:42.829Z</time></trkpt><trkpt lat="43.5575509" lon="11.3379677"><ele>384.20000000000005</ele><time>2026-04-18T10:57:43.83Z</time></trkpt><trkpt lat="43.5576192" lon="11.3378752"><ele>382.0</ele><time>2026-04-18T10:57:44.835Z</time></trkpt><trkpt lat="43.5576637" lon="11.3377541"><ele>382.0</ele><time>2026-04-18T10:57:45.808Z</time></trkpt><trkpt lat="43.5576782" lon="11.3376214"><ele>382.0</ele><time>2026-04-18T10:57:46.828Z</time></trkpt><trkpt lat="43.5576414" lon="11.3374923"><ele>382.0</ele><time>2026-04-18T10:57:47.832Z</time></trkpt><trkpt lat="43.5575729" lon="11.3373563"><ele>382.0</ele><time>2026-04-18T10:57:48.818Z</time></trkpt><trkpt lat="43.5574946" lon="11.3372158"><ele>382.0</ele><time>2026-04-18T10:57:49.844Z</time></trkpt><trkpt lat="43.557423" lon="11.3370589"><ele>380.5</ele><time>2026-04-18T10:57:50.83Z</time></trkpt><trkpt lat="43.5573824" lon="11.3368966"><ele>379.0</ele><time>2026-04-18T10:57:51.823Z</time></trkpt><trkpt lat="43.5573719" lon="11.3367204"><ele>377.5</ele><time>2026-04-18T10:57:52.836Z</time></trkpt><trkpt lat="43.557382" lon="11.336545"><ele>376.0</ele><time>2026-04-18T10:57:53.829Z</time></trkpt><trkpt lat="43.557386" lon="11.3363815"><ele>373.8</ele><time>2026-04-18T10:57:54.83Z</time></trkpt><trkpt lat="43.5573665" lon="11.3362279"><ele>371.6</ele><time>2026-04-18T10:57:55.82Z</time></trkpt><trkpt lat="43.5573287" lon="11.3360833"><ele>369.4</ele><time>2026-04-18T10:57:56.818Z</time></trkpt><trkpt lat="43.5572733" lon="11.33596"><ele>367.2</ele><time>2026-04-18T10:57:57.826Z</time></trkpt><trkpt lat="43.5572001" lon="11.3358751"><ele>365.0</ele><time>2026-04-18T10:57:58.845Z</time></trkpt><trkpt lat="43.5571088" lon="11.3358181"><ele>366.5</ele><time>2026-04-18T10:57:59.833Z</time></trkpt><trkpt lat="43.5569955" lon="11.3357793"><ele>368.0</ele><time>2026-04-18T10:58:00.82Z</time></trkpt><trkpt lat="43.5568579" lon="11.3357467"><ele>369.5</ele><time>2026-04-18T10:58:01.831Z</time></trkpt><trkpt lat="43.5567084" lon="11.3357599"><ele>371.0</ele><time>2026-04-18T10:58:02.819Z</time></trkpt><trkpt lat="43.5565296" lon="11.3358243"><ele>371.0</ele><time>2026-04-18T10:58:03.826Z</time></trkpt><trkpt lat="43.5563546" lon="11.3358512"><ele>371.0</ele><time>2026-04-18T10:58:04.83Z</time></trkpt><trkpt lat="43.5561825" lon="11.3358745"><ele>371.0</ele><time>2026-04-18T10:58:05.826Z</time></trkpt><trkpt lat="43.5560224" lon="11.3358957"><ele>369.75</ele><time>2026-04-18T10:58:06.824Z</time></trkpt><trkpt lat="43.5559045" lon="11.3359117"><ele>368.5</ele><time>2026-04-18T10:58:07.832Z</time></trkpt><trkpt lat="43.5557984" lon="11.3359052"><ele>367.25</ele><time>2026-04-18T10:58:08.832Z</time></trkpt><trkpt lat="43.555678" lon="11.3358882"><ele>366.0</ele><time>2026-04-18T10:58:09.821Z</time></trkpt><trkpt lat="43.5555693" lon="11.3358557"><ele>366.0</ele><time>2026-04-18T10:58:10.806Z</time></trkpt><trkpt lat="43.5554615" lon="11.3357942"><ele>366.0</ele><time>2026-04-18T10:58:11.816Z</time></trkpt><trkpt lat="43.5553285" lon="11.3357341"><ele>366.0</ele><time>2026-04-18T10:58:12.817Z</time></trkpt><trkpt lat="43.5552088" lon="11.3356821"><ele>366.0</ele><time>2026-04-18T10:58:13.823Z</time></trkpt><trkpt lat="43.5550974" lon="11.3356119"><ele>363.4</ele><time>2026-04-18T10:58:14.814Z</time></trkpt><trkpt lat="43.555014" lon="11.3355349"><ele>360.8</ele><time>2026-04-18T10:58:15.822Z</time></trkpt><trkpt lat="43.5549687" lon="11.3354462"><ele>358.2</ele><time>2026-04-18T10:58:16.836Z</time></trkpt><trkpt lat="43.5549497" lon="11.3353323"><ele>355.59999999999997</ele><time>2026-04-18T10:58:17.833Z</time></trkpt><trkpt lat="43.5549637" lon="11.3352054"><ele>353.0</ele><time>2026-04-18T10:58:18.834Z</time></trkpt><trkpt lat="43.5549999" lon="11.3350747"><ele>353.0</ele><time>2026-04-18T10:58:19.825Z</time></trkpt><trkpt lat="43.5550618" lon="11.3349396"><ele>353.0</ele><time>2026-04-18T10:58:20.846Z</time></trkpt><trkpt lat="43.5551317" lon="11.3348143"><ele>353.0</ele><time>2026-04-18T10:58:21.826Z</time></trkpt><trkpt lat="43.5552172" lon="11.3347101"><ele>353.0</ele><time>2026-04-18T10:58:22.811Z</time></trkpt><trkpt lat="43.5553203" lon="11.3346483"><ele>349.5</ele><time>2026-04-18T10:58:23.829Z</time></trkpt><trkpt lat="43.5554328" lon="11.3345991"><ele>346.0</ele><time>2026-04-18T10:58:24.827Z</time></trkpt><trkpt lat="43.5555614" lon="11.3345858"><ele>342.5</ele><time>2026-04-18T10:58:25.827Z</time></trkpt><trkpt lat="43.5556912" lon="11.3346004"><ele>339.0</ele><time>2026-04-18T10:58:26.827Z</time></trkpt><trkpt lat="43.5558177" lon="11.334625"><ele>339.0</ele><time>2026-04-18T10:58:27.82Z</time></trkpt><trkpt lat="43.5559395" lon="11.3346805"><ele>339.0</ele><time>2026-04-18T10:58:28.821Z</time></trkpt><trkpt lat="43.5560683" lon="11.3347564"><ele>339.0</ele><time>2026-04-18T10:58:29.829Z</time></trkpt><trkpt lat="43.5561864" lon="11.3347991"><ele>339.0</ele><time>2026-04-18T10:58:30.825Z</time></trkpt><trkpt lat="43.5563102" lon="11.3348172"><ele>338.75</ele><time>2026-04-18T10:58:31.834Z</time></trkpt><trkpt lat="43.5564221" lon="11.3347646"><ele>338.5</ele><time>2026-04-18T10:58:32.825Z</time></trkpt><trkpt lat="43.55653" lon="11.334657"><ele>338.25</ele><time>2026-04-18T10:58:33.827Z</time></trkpt><trkpt lat="43.5566389" lon="11.3345015"><ele>338.0</ele><time>2026-04-18T10:58:34.821Z</time></trkpt><trkpt lat="43.5567618" lon="11.3343322"><ele>338.0</ele><time>2026-04-18T10:58:35.82Z</time></trkpt><trkpt lat="43.556892" lon="11.3341696"><ele>338.0</ele><time>2026-04-18T10:58:36.82Z</time></trkpt><trkpt lat="43.5570151" lon="11.3340112"><ele>338.0</ele><time>2026-04-18T10:58:37.823Z</time></trkpt><trkpt lat="43.5571237" lon="11.333887"><ele>338.25</ele><time>2026-04-18T10:58:38.821Z</time></trkpt><trkpt lat="43.557202" lon="11.3337605"><ele>338.5</ele><time>2026-04-18T10:58:39.819Z</time></trkpt><trkpt lat="43.5572519" lon="11.3336274"><ele>338.75</ele><time>2026-04-18T10:58:40.812Z</time></trkpt><trkpt lat="43.5572645" lon="11.3334884"><ele>339.0</ele><time>2026-04-18T10:58:41.813Z</time></trkpt><trkpt lat="43.5572358" lon="11.3333096"><ele>339.0</ele><time>2026-04-18T10:58:42.821Z</time></trkpt><trkpt lat="43.5571936" lon="11.3331314"><ele>339.0</ele><time>2026-04-18T10:58:43.821Z</time></trkpt><trkpt lat="43.5571797" lon="11.3329986"><ele>339.0</ele><time>2026-04-18T10:58:44.817Z</time></trkpt><trkpt lat="43.5572106" lon="11.332898"><ele>339.0</ele><time>2026-04-18T10:58:45.805Z</time></trkpt><trkpt lat="43.5572633" lon="11.3328014"><ele>339.0</ele><time>2026-04-18T10:58:46.821Z</time></trkpt><trkpt lat="43.5573489" lon="11.3327239"><ele>336.0</ele><time>2026-04-18T10:58:47.814Z</time></trkpt><trkpt lat="43.5574566" lon="11.3326605"><ele>333.0</ele><time>2026-04-18T10:58:48.82Z</time></trkpt><trkpt lat="43.5575765" lon="11.3325716"><ele>330.0</ele><time>2026-04-18T10:58:49.824Z</time></trkpt><trkpt lat="43.5576935" lon="11.3324578"><ele>327.0</ele><time>2026-04-18T10:58:50.807Z</time></trkpt><trkpt lat="43.5577806" lon="11.3323137"><ele>325.75</ele><time>2026-04-18T10:58:51.831Z</time></trkpt><trkpt lat="43.5578462" lon="11.3321351"><ele>324.5</ele><time>2026-04-18T10:58:52.807Z</time></trkpt><trkpt lat="43.5578954" lon="11.3319358"><ele>323.25</ele><time>2026-04-18T10:58:53.819Z</time></trkpt><trkpt lat="43.5579103" lon="11.3317476"><ele>322.0</ele><time>2026-04-18T10:58:54.829Z</time></trkpt><trkpt lat="43.5579258" lon="11.3316138"><ele>322.0</ele><time>2026-04-18T10:58:55.827Z</time></trkpt><trkpt lat="43.5579698" lon="11.3315132"><ele>322.0</ele><time>2026-04-18T10:58:56.828Z</time></trkpt><trkpt lat="43.5580374" lon="11.331447"><ele>322.0</ele><time>2026-04-18T10:58:57.821Z</time></trkpt><trkpt lat="43.5581297" lon="11.331437"><ele>322.0</ele><time>2026-04-18T10:58:58.82Z</time></trkpt><trkpt lat="43.5582327" lon="11.3314616"><ele>322.0</ele><time>2026-04-18T10:58:59.828Z</time></trkpt><trkpt lat="43.5583543" lon="11.3315125"><ele>322.0</ele><time>2026-04-18T10:59:00.828Z</time></trkpt><trkpt lat="43.5584846" lon="11.3315671"><ele>322.0</ele><time>2026-04-18T10:59:01.825Z</time></trkpt><trkpt lat="43.5586218" lon="11.3315826"><ele>322.0</ele><time>2026-04-18T10:59:02.833Z</time></trkpt><trkpt lat="43.5587497" lon="11.3315137"><ele>322.0</ele><time>2026-04-18T10:59:03.834Z</time></trkpt><trkpt lat="43.5588878" lon="11.3313806"><ele>317.75</ele><time>2026-04-18T10:59:04.83Z</time></trkpt><trkpt lat="43.5590007" lon="11.3312693"><ele>313.5</ele><time>2026-04-18T10:59:05.816Z</time></trkpt><trkpt lat="43.5591033" lon="11.3311748"><ele>309.25</ele><time>2026-04-18T10:59:06.835Z</time></trkpt><trkpt lat="43.5592156" lon="11.3311087"><ele>305.0</ele><time>2026-04-18T10:59:07.833Z</time></trkpt><trkpt lat="43.5593513" lon="11.3310538"><ele>305.0</ele><time>2026-04-18T10:59:08.826Z</time></trkpt><trkpt lat="43.5595007" lon="11.3309837"><ele>305.0</ele><time>2026-04-18T10:59:09.83Z</time></trkpt><trkpt lat="43.5596364" lon="11.330908"><ele>305.0</ele><time>2026-04-18T10:59:10.823Z</time></trkpt><trkpt lat="43.5597541" lon="11.3308403"><ele>305.0</ele><time>2026-04-18T10:59:11.839Z</time></trkpt><trkpt lat="43.5598501" lon="11.3307748"><ele>306.2</ele><time>2026-04-18T10:59:12.835Z</time></trkpt><trkpt lat="43.5599406" lon="11.3307069"><ele>307.4</ele><time>2026-04-18T10:59:13.835Z</time></trkpt><trkpt lat="43.5600467" lon="11.3306489"><ele>308.6</ele><time>2026-04-18T10:59:14.833Z</time></trkpt><trkpt lat="43.5601435" lon="11.3305973"><ele>309.8</ele><time>2026-04-18T10:59:15.825Z</time></trkpt><trkpt lat="43.5602442" lon="11.3305635"><ele>311.0</ele><time>2026-04-18T10:59:16.833Z</time></trkpt><trkpt lat="43.5603774" lon="11.3305875"><ele>311.0</ele><time>2026-04-18T10:59:17.824Z</time></trkpt><trkpt lat="43.5605138" lon="11.3306407"><ele>311.0</ele><time>2026-04-18T10:59:18.823Z</time></trkpt><trkpt lat="43.5606568" lon="11.3306734"><ele>311.0</ele><time>2026-04-18T10:59:19.819Z</time></trkpt><trkpt lat="43.5608153" lon="11.3306611"><ele>311.0</ele><time>2026-04-18T10:59:20.813Z</time></trkpt><trkpt lat="43.5609642" lon="11.3306344"><ele>311.0</ele><time>2026-04-18T10:59:21.791Z</time></trkpt><trkpt lat="43.5611039" lon="11.3305897"><ele>311.0</ele><time>2026-04-18T10:59:22.824Z</time></trkpt><trkpt lat="43.5612154" lon="11.3305482"><ele>311.0</ele><time>2026-04-18T10:59:23.811Z</time></trkpt><trkpt lat="43.5613182" lon="11.3305257"><ele>311.0</ele><time>2026-04-18T10:59:24.812Z</time></trkpt><trkpt lat="43.5614094" lon="11.3305074"><ele>306.6</ele><time>2026-04-18T10:59:25.807Z</time></trkpt><trkpt lat="43.5615126" lon="11.3304644"><ele>302.20000000000005</ele><time>2026-04-18T10:59:27.813Z</time></trkpt><trkpt lat="43.5615697" lon="11.3303943"><ele>297.79999999999995</ele><time>2026-04-18T10:59:29.852Z</time></trkpt><trkpt lat="43.5615806" lon="11.3302656"><ele>293.4</ele><time>2026-04-18T10:59:31.841Z</time></trkpt><trkpt lat="43.5614964" lon="11.3301413"><ele>289.0</ele><time>2026-04-18T10:59:33.847Z</time></trkpt><trkpt lat="43.5613903" lon="11.3301072"><ele>289.0</ele><time>2026-04-18T10:59:34.846Z</time></trkpt><trkpt lat="43.5612723" lon="11.3301271"><ele>289.0</ele><time>2026-04-18T10:59:35.839Z</time></trkpt><trkpt lat="43.5611582" lon="11.3301499"><ele>289.0</ele><time>2026-04-18T10:59:36.92Z</time></trkpt><trkpt lat="43.5610504" lon="11.3301643"><ele>289.0</ele><time>2026-04-18T10:59:37.924Z</time></trkpt><trkpt lat="43.5609597" lon="11.3301724"><ele>289.0</ele><time>2026-04-18T10:59:38.922Z</time></trkpt><trkpt lat="43.5608794" lon="11.3301839"><ele>289.66666666666663</ele><time>2026-04-18T10:59:39.924Z</time></trkpt><trkpt lat="43.5608058" lon="11.3302"><ele>290.3333333333333</ele><time>2026-04-18T10:59:40.922Z</time></trkpt><trkpt lat="43.5607336" lon="11.3302079"><ele>291.0</ele><time>2026-04-18T10:59:41.925Z</time></trkpt><trkpt lat="43.5606666" lon="11.3301911"><ele>291.6666666666667</ele><time>2026-04-18T10:59:42.903Z</time></trkpt><trkpt lat="43.5605754" lon="11.3300751"><ele>292.33333333333337</ele><time>2026-04-18T10:59:44.902Z</time></trkpt><trkpt lat="43.5605888" lon="11.3299627"><ele>293.0</ele><time>2026-04-18T10:59:45.806Z</time></trkpt><trkpt lat="43.5606249" lon="11.3298778"><ele>293.0</ele><time>2026-04-18T10:59:46.798Z</time></trkpt><trkpt lat="43.5606886" lon="11.3298074"><ele>293.0</ele><time>2026-04-18T10:59:47.811Z</time></trkpt><trkpt lat="43.5607708" lon="11.3297346"><ele>293.0</ele><time>2026-04-18T10:59:48.832Z</time></trkpt><trkpt lat="43.5608363" lon="11.3296403"><ele>293.0</ele><time>2026-04-18T10:59:49.829Z</time></trkpt><trkpt lat="43.5609233" lon="11.3295358"><ele>293.0</ele><time>2026-04-18T10:59:50.836Z</time></trkpt><trkpt lat="43.5610129" lon="11.3294363"><ele>289.6</ele><time>2026-04-18T10:59:51.833Z</time></trkpt><trkpt lat="43.5610976" lon="11.3293381"><ele>286.20000000000005</ele><time>2026-04-18T10:59:52.842Z</time></trkpt><trkpt lat="43.5611904" lon="11.3292627"><ele>282.8</ele><time>2026-04-18T10:59:53.853Z</time></trkpt><trkpt lat="43.5612856" lon="11.3292521"><ele>279.40000000000003</ele><time>2026-04-18T10:59:54.842Z</time></trkpt><trkpt lat="43.5613853" lon="11.3292873"><ele>276.0</ele><time>2026-04-18T10:59:55.844Z</time></trkpt><trkpt lat="43.5614914" lon="11.329342"><ele>275.75</ele><time>2026-04-18T10:59:56.846Z</time></trkpt><trkpt lat="43.561607" lon="11.3293721"><ele>275.5</ele><time>2026-04-18T10:59:57.832Z</time></trkpt><trkpt lat="43.5617397" lon="11.3293622"><ele>275.25</ele><time>2026-04-18T10:59:58.826Z</time></trkpt><trkpt lat="43.5618792" lon="11.3293173"><ele>275.0</ele><time>2026-04-18T10:59:59.838Z</time></trkpt><trkpt lat="43.5620061" lon="11.329278"><ele>273.4</ele><time>2026-04-18T11:00:00.838Z</time></trkpt><trkpt lat="43.5621174" lon="11.3292434"><ele>271.8</ele><time>2026-04-18T11:00:01.827Z</time></trkpt><trkpt lat="43.5622278" lon="11.329215"><ele>270.2</ele><time>2026-04-18T11:00:02.834Z</time></trkpt><trkpt lat="43.5623347" lon="11.3291942"><ele>268.6</ele><time>2026-04-18T11:00:03.834Z</time></trkpt><trkpt lat="43.5624498" lon="11.3291925"><ele>267.0</ele><time>2026-04-18T11:00:04.818Z</time></trkpt><trkpt lat="43.5625692" lon="11.3292206"><ele>267.0</ele><time>2026-04-18T11:00:05.825Z</time></trkpt><trkpt lat="43.5626811" lon="11.329273"><ele>267.0</ele><time>2026-04-18T11:00:06.834Z</time></trkpt><trkpt lat="43.5627699" lon="11.3293667"><ele>267.0</ele><time>2026-04-18T11:00:07.84Z</time></trkpt><trkpt lat="43.5628405" lon="11.3294861"><ele>267.0</ele><time>2026-04-18T11:00:08.864Z</time></trkpt><trkpt lat="43.562896" lon="11.3296409"><ele>266.75</ele><time>2026-04-18T11:00:09.838Z</time></trkpt><trkpt lat="43.562944" lon="11.3298252"><ele>266.5</ele><time>2026-04-18T11:00:10.835Z</time></trkpt><trkpt lat="43.5629945" lon="11.3300042"><ele>266.25</ele><time>2026-04-18T11:00:11.833Z</time></trkpt><trkpt lat="43.5630474" lon="11.3301666"><ele>266.0</ele><time>2026-04-18T11:00:12.839Z</time></trkpt><trkpt lat="43.5631086" lon="11.3303132"><ele>266.0</ele><time>2026-04-18T11:00:13.826Z</time></trkpt><trkpt lat="43.5631812" lon="11.3304265"><ele>266.0</ele><time>2026-04-18T11:00:14.836Z</time></trkpt><trkpt lat="43.5632803" lon="11.3304984"><ele>266.0</ele><time>2026-04-18T11:00:15.824Z</time></trkpt><trkpt lat="43.5633927" lon="11.3305159"><ele>266.0</ele><time>2026-04-18T11:00:16.843Z</time></trkpt><trkpt lat="43.5635024" lon="11.3304879"><ele>266.0</ele><time>2026-04-18T11:00:17.823Z</time></trkpt><trkpt lat="43.563605" lon="11.3304281"><ele>266.0</ele><time>2026-04-18T11:00:18.829Z</time></trkpt><trkpt lat="43.5636935" lon="11.3303579"><ele>266.0</ele><time>2026-04-18T11:00:19.828Z</time></trkpt><trkpt lat="43.5637686" lon="11.3303064"><ele>266.0</ele><time>2026-04-18T11:00:20.823Z</time></trkpt><trkpt lat="43.5638369" lon="11.3302452"><ele>266.0</ele><time>2026-04-18T11:00:21.819Z</time></trkpt><trkpt lat="43.5639024" lon="11.330164"><ele>266.0</ele><time>2026-04-18T11:00:22.831Z</time></trkpt><trkpt lat="43.5639663" lon="11.3300809"><ele>266.0</ele><time>2026-04-18T11:00:23.828Z</time></trkpt><trkpt lat="43.5640188" lon="11.3300062"><ele>267.1666666666667</ele><time>2026-04-18T11:00:24.87Z</time></trkpt><trkpt lat="43.5640887" lon="11.3299398"><ele>268.33333333333337</ele><time>2026-04-18T11:00:26.826Z</time></trkpt><trkpt lat="43.5641607" lon="11.329971"><ele>269.5</ele><time>2026-04-18T11:00:31.835Z</time></trkpt><trkpt lat="43.5641704" lon="11.3300803"><ele>270.6666666666667</ele><time>2026-04-18T11:00:50.839Z</time></trkpt><trkpt lat="43.564168" lon="11.3301863"><ele>271.8333333333333</ele><time>2026-04-18T11:01:14.832Z</time></trkpt><trkpt lat="43.5641665" lon="11.3302841"><ele>273.0</ele><time>2026-04-18T11:01:16.831Z</time></trkpt><trkpt lat="43.5641828" lon="11.3304494"><ele>272.5</ele><time>2026-04-18T11:01:18.81Z</time></trkpt><trkpt lat="43.564187" lon="11.330589"><ele>272.0</ele><time>2026-04-18T11:01:19.803Z</time></trkpt><trkpt lat="43.5641842" lon="11.3307234"><ele>271.5</ele><time>2026-04-18T11:01:20.821Z</time></trkpt><trkpt lat="43.5641755" lon="11.3308314"><ele>271.0</ele><time>2026-04-18T11:01:21.817Z</time></trkpt><trkpt lat="43.5641663" lon="11.3309369"><ele>270.5</ele><time>2026-04-18T11:01:22.819Z</time></trkpt><trkpt lat="43.5641624" lon="11.3310519"><ele>270.0</ele><time>2026-04-18T11:01:23.811Z</time></trkpt><trkpt lat="43.5641432" lon="11.3311928"><ele>270.0</ele><time>2026-04-18T11:01:24.817Z</time></trkpt><trkpt lat="43.5641266" lon="11.3313428"><ele>270.0</ele><time>2026-04-18T11:01:25.84Z</time></trkpt><trkpt lat="43.5641057" lon="11.3314965"><ele>270.0</ele><time>2026-04-18T11:01:26.818Z</time></trkpt><trkpt lat="43.5640863" lon="11.3316305"><ele>270.0</ele><time>2026-04-18T11:01:27.829Z</time></trkpt><trkpt lat="43.56406" lon="11.3317657"><ele>270.0</ele><time>2026-04-18T11:01:28.828Z</time></trkpt><trkpt lat="43.5640452" lon="11.3318894"><ele>270.0</ele><time>2026-04-18T11:01:29.824Z</time></trkpt><trkpt lat="43.5640344" lon="11.3320192"><ele>270.0</ele><time>2026-04-18T11:01:30.835Z</time></trkpt><trkpt lat="43.5640224" lon="11.3321525"><ele>270.0</ele><time>2026-04-18T11:01:31.831Z</time></trkpt><trkpt lat="43.564016" lon="11.3322803"><ele>270.0</ele><time>2026-04-18T11:01:32.837Z</time></trkpt><trkpt lat="43.5640137" lon="11.3324143"><ele>270.0</ele><time>2026-04-18T11:01:33.837Z</time></trkpt><trkpt lat="43.5640151" lon="11.3325422"><ele>270.0</ele><time>2026-04-18T11:01:34.835Z</time></trkpt><trkpt lat="43.564014" lon="11.3326582"><ele>270.0</ele><time>2026-04-18T11:01:35.835Z</time></trkpt><trkpt lat="43.5640129" lon="11.3327593"><ele>270.0</ele><time>2026-04-18T11:01:36.837Z</time></trkpt><trkpt lat="43.5640117" lon="11.3328545"><ele>270.0</ele><time>2026-04-18T11:01:37.832Z</time></trkpt><trkpt lat="43.5640091" lon="11.3329436"><ele>270.0</ele><time>2026-04-18T11:01:38.839Z</time></trkpt><trkpt lat="43.5640425" lon="11.3330991"><ele>270.0</ele><time>2026-04-18T11:01:40.835Z</time></trkpt><trkpt lat="43.5640933" lon="11.3331806"><ele>270.0</ele><time>2026-04-18T11:01:41.831Z</time></trkpt><trkpt lat="43.5641622" lon="11.3332577"><ele>270.0</ele><time>2026-04-18T11:01:42.829Z</time></trkpt><trkpt lat="43.5642391" lon="11.3333315"><ele>270.0</ele><time>2026-04-18T11:01:43.823Z</time></trkpt><trkpt lat="43.5642769" lon="11.3334245"><ele>270.0</ele><time>2026-04-18T11:01:44.813Z</time></trkpt><trkpt lat="43.5643" lon="11.3335408"><ele>270.0</ele><time>2026-04-18T11:01:45.821Z</time></trkpt><trkpt lat="43.5643134" lon="11.3336719"><ele>270.0</ele><time>2026-04-18T11:01:46.821Z</time></trkpt><trkpt lat="43.5643129" lon="11.3338048"><ele>270.3333333333333</ele><time>2026-04-18T11:01:47.823Z</time></trkpt><trkpt lat="43.5642946" lon="11.333933"><ele>270.6666666666667</ele><time>2026-04-18T11:01:48.816Z</time></trkpt><trkpt lat="43.5642644" lon="11.33404"><ele>271.0</ele><time>2026-04-18T11:01:49.826Z</time></trkpt><trkpt lat="43.5642185" lon="11.3341206"><ele>271.33333333333337</ele><time>2026-04-18T11:01:50.828Z</time></trkpt><trkpt lat="43.5641633" lon="11.3341925"><ele>271.6666666666667</ele><time>2026-04-18T11:01:51.82Z</time></trkpt><trkpt lat="43.564102" lon="11.334274"><ele>272.0</ele><time>2026-04-18T11:01:52.824Z</time></trkpt><trkpt lat="43.5640247" lon="11.3343513"><ele>272.0</ele><time>2026-04-18T11:01:53.818Z</time></trkpt><trkpt lat="43.5639448" lon="11.3344362"><ele>272.0</ele><time>2026-04-18T11:01:54.827Z</time></trkpt><trkpt lat="43.5638767" lon="11.3345429"><ele>272.0</ele><time>2026-04-18T11:01:55.831Z</time></trkpt><trkpt lat="43.5638306" lon="11.3346734"><ele>272.0</ele><time>2026-04-18T11:01:56.827Z</time></trkpt><trkpt lat="43.5638085" lon="11.3348275"><ele>272.0</ele><time>2026-04-18T11:01:57.83Z</time></trkpt><trkpt lat="43.5637846" lon="11.3349857"><ele>273.0</ele><time>2026-04-18T11:01:58.822Z</time></trkpt><trkpt lat="43.5637664" lon="11.3351328"><ele>274.0</ele><time>2026-04-18T11:01:59.823Z</time></trkpt><trkpt lat="43.563752" lon="11.335278"><ele>275.0</ele><time>2026-04-18T11:02:00.825Z</time></trkpt><trkpt lat="43.5637404" lon="11.3354219"><ele>276.0</ele><time>2026-04-18T11:02:01.814Z</time></trkpt><trkpt lat="43.5637266" lon="11.3355679"><ele>277.0</ele><time>2026-04-18T11:02:02.821Z</time></trkpt><trkpt lat="43.5637007" lon="11.3357126"><ele>278.0</ele><time>2026-04-18T11:02:03.825Z</time></trkpt><trkpt lat="43.5636528" lon="11.335849"><ele>279.0</ele><time>2026-04-18T11:02:04.812Z</time></trkpt><trkpt lat="43.5635844" lon="11.3359667"><ele>280.0</ele><time>2026-04-18T11:02:05.804Z</time></trkpt><trkpt lat="43.5635004" lon="11.3360737"><ele>281.0</ele><time>2026-04-18T11:02:06.806Z</time></trkpt><trkpt lat="43.563398" lon="11.3361599"><ele>281.0</ele><time>2026-04-18T11:02:07.804Z</time></trkpt><trkpt lat="43.5632881" lon="11.3362445"><ele>281.0</ele><time>2026-04-18T11:02:08.804Z</time></trkpt><trkpt lat="43.5631797" lon="11.336339"><ele>281.0</ele><time>2026-04-18T11:02:09.817Z</time></trkpt><trkpt lat="43.5630697" lon="11.3364408"><ele>281.0</ele><time>2026-04-18T11:02:10.813Z</time></trkpt><trkpt lat="43.5629684" lon="11.3365469"><ele>283.0</ele><time>2026-04-18T11:02:11.809Z</time></trkpt><trkpt lat="43.562869" lon="11.3366631"><ele>285.0</ele><time>2026-04-18T11:02:12.814Z</time></trkpt><trkpt lat="43.5627691" lon="11.3367809"><ele>287.0</ele><time>2026-04-18T11:02:13.819Z</time></trkpt><trkpt lat="43.5626734" lon="11.3368959"><ele>289.0</ele><time>2026-04-18T11:02:14.809Z</time></trkpt><trkpt lat="43.5625768" lon="11.3370076"><ele>289.0</ele><time>2026-04-18T11:02:15.807Z</time></trkpt><trkpt lat="43.5624939" lon="11.3371153"><ele>289.0</ele><time>2026-04-18T11:02:16.822Z</time></trkpt><trkpt lat="43.5624155" lon="11.3372181"><ele>289.0</ele><time>2026-04-18T11:02:17.816Z</time></trkpt><trkpt lat="43.5623429" lon="11.3373447"><ele>289.0</ele><time>2026-04-18T11:02:18.806Z</time></trkpt><trkpt lat="43.5622841" lon="11.3374944"><ele>292.8</ele><time>2026-04-18T11:02:19.811Z</time></trkpt><trkpt lat="43.5622391" lon="11.3376549"><ele>296.59999999999997</ele><time>2026-04-18T11:02:20.823Z</time></trkpt><trkpt lat="43.5622014" lon="11.337803"><ele>300.4</ele><time>2026-04-18T11:02:21.807Z</time></trkpt><trkpt lat="43.5621669" lon="11.3379436"><ele>304.2</ele><time>2026-04-18T11:02:22.821Z</time></trkpt><trkpt lat="43.5621513" lon="11.3380691"><ele>308.0</ele><time>2026-04-18T11:02:23.803Z</time></trkpt><trkpt lat="43.5621478" lon="11.3381864"><ele>309.6</ele><time>2026-04-18T11:02:24.799Z</time></trkpt><trkpt lat="43.5621601" lon="11.3382996"><ele>311.20000000000005</ele><time>2026-04-18T11:02:25.81Z</time></trkpt><trkpt lat="43.5622006" lon="11.3384046"><ele>312.8</ele><time>2026-04-18T11:02:26.813Z</time></trkpt><trkpt lat="43.5622689" lon="11.3385044"><ele>314.40000000000003</ele><time>2026-04-18T11:02:27.833Z</time></trkpt><trkpt lat="43.56235" lon="11.3385993"><ele>316.0</ele><time>2026-04-18T11:02:28.818Z</time></trkpt><trkpt lat="43.5624437" lon="11.3387025"><ele>316.0</ele><time>2026-04-18T11:02:29.806Z</time></trkpt><trkpt lat="43.5625459" lon="11.3388169"><ele>316.0</ele><time>2026-04-18T11:02:30.807Z</time></trkpt><trkpt lat="43.5626305" lon="11.3389162"><ele>316.0</ele><time>2026-04-18T11:02:31.804Z</time></trkpt><trkpt lat="43.5626911" lon="11.3390391"><ele>316.0</ele><time>2026-04-18T11:02:32.794Z</time></trkpt><trkpt lat="43.5627369" lon="11.3391739"><ele>315.25</ele><time>2026-04-18T11:02:33.806Z</time></trkpt><trkpt lat="43.5627797" lon="11.3393219"><ele>314.5</ele><time>2026-04-18T11:02:34.8Z</time></trkpt><trkpt lat="43.5628359" lon="11.3394757"><ele>313.75</ele><time>2026-04-18T11:02:35.809Z</time></trkpt><trkpt lat="43.5628856" lon="11.3396489"><ele>313.0</ele><time>2026-04-18T11:02:36.81Z</time></trkpt><trkpt lat="43.5629214" lon="11.3398218"><ele>320.25</ele><time>2026-04-18T11:02:37.815Z</time></trkpt><trkpt lat="43.5629533" lon="11.3400029"><ele>327.5</ele><time>2026-04-18T11:02:38.816Z</time></trkpt><trkpt lat="43.5629869" lon="11.3401724"><ele>334.75</ele><time>2026-04-18T11:02:39.808Z</time></trkpt><trkpt lat="43.5630151" lon="11.3403514"><ele>342.0</ele><time>2026-04-18T11:02:40.812Z</time></trkpt><trkpt lat="43.5630357" lon="11.3405369"><ele>342.0</ele><time>2026-04-18T11:02:41.82Z</time></trkpt><trkpt lat="43.5630474" lon="11.3407208"><ele>342.0</ele><time>2026-04-18T11:02:42.826Z</time></trkpt><trkpt lat="43.5630463" lon="11.3408942"><ele>342.0</ele><time>2026-04-18T11:02:43.819Z</time></trkpt><trkpt lat="43.5630338" lon="11.3410733"><ele>342.0</ele><time>2026-04-18T11:02:44.821Z</time></trkpt><trkpt lat="43.5630212" lon="11.3412474"><ele>341.75</ele><time>2026-04-18T11:02:45.815Z</time></trkpt><trkpt lat="43.563013" lon="11.3414328"><ele>341.5</ele><time>2026-04-18T11:02:46.823Z</time></trkpt><trkpt lat="43.5630062" lon="11.3416126"><ele>341.25</ele><time>2026-04-18T11:02:47.808Z</time></trkpt><trkpt lat="43.5630109" lon="11.3417571"><ele>341.0</ele><time>2026-04-18T11:02:48.823Z</time></trkpt><trkpt lat="43.5630305" lon="11.3418731"><ele>341.0</ele><time>2026-04-18T11:02:49.821Z</time></trkpt><trkpt lat="43.5630606" lon="11.3419865"><ele>341.0</ele><time>2026-04-18T11:02:50.819Z</time></trkpt><trkpt lat="43.5631046" lon="11.3421073"><ele>341.0</ele><time>2026-04-18T11:02:51.818Z</time></trkpt><trkpt lat="43.563171" lon="11.3422276"><ele>341.0</ele><time>2026-04-18T11:02:52.827Z</time></trkpt><trkpt lat="43.5632382" lon="11.3423583"><ele>341.0</ele><time>2026-04-18T11:02:53.82Z</time></trkpt><trkpt lat="43.5632916" lon="11.3425095"><ele>340.5</ele><time>2026-04-18T11:02:54.82Z</time></trkpt><trkpt lat="43.5633286" lon="11.3426811"><ele>340.0</ele><time>2026-04-18T11:02:55.82Z</time></trkpt><trkpt lat="43.5633631" lon="11.3428605"><ele>339.5</ele><time>2026-04-18T11:02:56.821Z</time></trkpt><trkpt lat="43.5633892" lon="11.3430456"><ele>339.0</ele><time>2026-04-18T11:02:57.823Z</time></trkpt><trkpt lat="43.5634013" lon="11.3432198"><ele>339.0</ele><time>2026-04-18T11:02:58.843Z</time></trkpt><trkpt lat="43.5633971" lon="11.343364"><ele>339.0</ele><time>2026-04-18T11:02:59.836Z</time></trkpt><trkpt lat="43.5633968" lon="11.3434793"><ele>339.0</ele><time>2026-04-18T11:03:00.826Z</time></trkpt><trkpt lat="43.563414" lon="11.3435765"><ele>339.0</ele><time>2026-04-18T11:03:01.818Z</time></trkpt><trkpt lat="43.5634502" lon="11.3436651"><ele>339.0</ele><time>2026-04-18T11:03:02.823Z</time></trkpt><trkpt lat="43.563503" lon="11.3437381"><ele>339.0</ele><time>2026-04-18T11:03:03.828Z</time></trkpt><trkpt lat="43.5635751" lon="11.3437828"><ele>339.0</ele><time>2026-04-18T11:03:04.817Z</time></trkpt><trkpt lat="43.563661" lon="11.3438173"><ele>339.0</ele><time>2026-04-18T11:03:05.817Z</time></trkpt><trkpt lat="43.5637741" lon="11.3438261"><ele>339.0</ele><time>2026-04-18T11:03:06.832Z</time></trkpt><trkpt lat="43.5639038" lon="11.3438307"><ele>339.0</ele><time>2026-04-18T11:03:07.826Z</time></trkpt><trkpt lat="43.564037" lon="11.343826"><ele>343.75</ele><time>2026-04-18T11:03:08.83Z</time></trkpt><trkpt lat="43.5641651" lon="11.3438152"><ele>348.5</ele><time>2026-04-18T11:03:09.824Z</time></trkpt><trkpt lat="43.5642922" lon="11.3437993"><ele>353.25</ele><time>2026-04-18T11:03:10.826Z</time></trkpt><trkpt lat="43.5644129" lon="11.3437988"><ele>358.0</ele><time>2026-04-18T11:03:11.825Z</time></trkpt><trkpt lat="43.5645198" lon="11.3438166"><ele>360.0</ele><time>2026-04-18T11:03:12.813Z</time></trkpt><trkpt lat="43.5646113" lon="11.3438557"><ele>362.0</ele><time>2026-04-18T11:03:13.811Z</time></trkpt><trkpt lat="43.5646901" lon="11.3439161"><ele>364.0</ele><time>2026-04-18T11:03:14.811Z</time></trkpt><trkpt lat="43.5647549" lon="11.3440081"><ele>366.0</ele><time>2026-04-18T11:03:15.812Z</time></trkpt><trkpt lat="43.5648004" lon="11.3441238"><ele>368.0</ele><time>2026-04-18T11:03:16.825Z</time></trkpt><trkpt lat="43.5648398" lon="11.3442561"><ele>368.0</ele><time>2026-04-18T11:03:17.804Z</time></trkpt><trkpt lat="43.564882" lon="11.344389"><ele>368.0</ele><time>2026-04-18T11:03:18.817Z</time></trkpt><trkpt lat="43.5649346" lon="11.3445033"><ele>368.0</ele><time>2026-04-18T11:03:19.817Z</time></trkpt><trkpt lat="43.5650022" lon="11.3445873"><ele>368.0</ele><time>2026-04-18T11:03:20.829Z</time></trkpt><trkpt lat="43.5650787" lon="11.3446388"><ele>368.0</ele><time>2026-04-18T11:03:21.828Z</time></trkpt><trkpt lat="43.565167" lon="11.3446808"><ele>370.4</ele><time>2026-04-18T11:03:22.834Z</time></trkpt><trkpt lat="43.5652582" lon="11.3447358"><ele>372.79999999999995</ele><time>2026-04-18T11:03:23.836Z</time></trkpt><trkpt lat="43.5653376" lon="11.3448173"><ele>375.2</ele><time>2026-04-18T11:03:24.816Z</time></trkpt><trkpt lat="43.5653984" lon="11.3449218"><ele>377.6</ele><time>2026-04-18T11:03:25.821Z</time></trkpt><trkpt lat="43.5654481" lon="11.3450473"><ele>380.0</ele><time>2026-04-18T11:03:26.829Z</time></trkpt><trkpt lat="43.5654941" lon="11.345178"><ele>380.0</ele><time>2026-04-18T11:03:27.831Z</time></trkpt><trkpt lat="43.5655372" lon="11.3453073"><ele>380.0</ele><time>2026-04-18T11:03:28.833Z</time></trkpt><trkpt lat="43.565582" lon="11.345449"><ele>380.0</ele><time>2026-04-18T11:03:29.855Z</time></trkpt><trkpt lat="43.5656325" lon="11.3455962"><ele>380.0</ele><time>2026-04-18T11:03:30.838Z</time></trkpt><trkpt lat="43.5656829" lon="11.3457442"><ele>379.2</ele><time>2026-04-18T11:03:31.835Z</time></trkpt><trkpt lat="43.5657273" lon="11.3458694"><ele>378.4</ele><time>2026-04-18T11:03:32.835Z</time></trkpt><trkpt lat="43.5657557" lon="11.3459914"><ele>377.6</ele><time>2026-04-18T11:03:33.818Z</time></trkpt><trkpt lat="43.5657569" lon="11.3461259"><ele>376.8</ele><time>2026-04-18T11:03:34.829Z</time></trkpt><trkpt lat="43.5657399" lon="11.3462632"><ele>376.0</ele><time>2026-04-18T11:03:35.827Z</time></trkpt><trkpt lat="43.5657263" lon="11.3464046"><ele>374.75</ele><time>2026-04-18T11:03:36.813Z</time></trkpt><trkpt lat="43.5657327" lon="11.346551"><ele>373.5</ele><time>2026-04-18T11:03:37.812Z</time></trkpt><trkpt lat="43.5657617" lon="11.3466978"><ele>372.25</ele><time>2026-04-18T11:03:38.805Z</time></trkpt><trkpt lat="43.5658089" lon="11.3468445"><ele>371.0</ele><time>2026-04-18T11:03:39.812Z</time></trkpt><trkpt lat="43.5658717" lon="11.3469985"><ele>371.0</ele><time>2026-04-18T11:03:40.811Z</time></trkpt><trkpt lat="43.5659514" lon="11.3471522"><ele>371.0</ele><time>2026-04-18T11:03:41.818Z</time></trkpt><trkpt lat="43.5660349" lon="11.3472985"><ele>371.0</ele><time>2026-04-18T11:03:42.819Z</time></trkpt><trkpt lat="43.5661216" lon="11.3474399"><ele>371.0</ele><time>2026-04-18T11:03:43.812Z</time></trkpt><trkpt lat="43.5662083" lon="11.3475768"><ele>373.4</ele><time>2026-04-18T11:03:44.81Z</time></trkpt><trkpt lat="43.5662892" lon="11.3477184"><ele>375.8</ele><time>2026-04-18T11:03:45.813Z</time></trkpt><trkpt lat="43.5663531" lon="11.3478533"><ele>378.2</ele><time>2026-04-18T11:03:46.81Z</time></trkpt><trkpt lat="43.5664027" lon="11.3479725"><ele>380.59999999999997</ele><time>2026-04-18T11:03:47.817Z</time></trkpt><trkpt lat="43.5664615" lon="11.3480812"><ele>383.0</ele><time>2026-04-18T11:03:48.824Z</time></trkpt><trkpt lat="43.566531" lon="11.3481893"><ele>383.0</ele><time>2026-04-18T11:03:49.827Z</time></trkpt><trkpt lat="43.5666112" lon="11.3482973"><ele>383.0</ele><time>2026-04-18T11:03:50.83Z</time></trkpt><trkpt lat="43.56669" lon="11.3484066"><ele>383.0</ele><time>2026-04-18T11:03:51.82Z</time></trkpt><trkpt lat="43.5667699" lon="11.3485266"><ele>383.0</ele><time>2026-04-18T11:03:52.818Z</time></trkpt><trkpt lat="43.5668486" lon="11.3486618"><ele>383.0</ele><time>2026-04-18T11:03:53.811Z</time></trkpt><trkpt lat="43.5669181" lon="11.3488087"><ele>383.0</ele><time>2026-04-18T11:03:54.821Z</time></trkpt><trkpt lat="43.5669776" lon="11.3489592"><ele>383.0</ele><time>2026-04-18T11:03:55.812Z</time></trkpt><trkpt lat="43.5670194" lon="11.3491134"><ele>383.0</ele><time>2026-04-18T11:03:56.814Z</time></trkpt><trkpt lat="43.5670535" lon="11.3492482"><ele>383.59999999999997</ele><time>2026-04-18T11:03:57.815Z</time></trkpt><trkpt lat="43.5670879" lon="11.34936"><ele>384.2</ele><time>2026-04-18T11:03:58.826Z</time></trkpt><trkpt lat="43.5671228" lon="11.3494597"><ele>384.8</ele><time>2026-04-18T11:03:59.821Z</time></trkpt><trkpt lat="43.5671807" lon="11.3495674"><ele>385.4</ele><time>2026-04-18T11:04:00.843Z</time></trkpt><trkpt lat="43.5672588" lon="11.3496729"><ele>386.0</ele><time>2026-04-18T11:04:01.815Z</time></trkpt><trkpt lat="43.567366" lon="11.3497712"><ele>386.0</ele><time>2026-04-18T11:04:02.824Z</time></trkpt><trkpt lat="43.5674839" lon="11.3498719"><ele>386.0</ele><time>2026-04-18T11:04:03.825Z</time></trkpt><trkpt lat="43.5675975" lon="11.3499798"><ele>386.0</ele><time>2026-04-18T11:04:04.825Z</time></trkpt><trkpt lat="43.5676923" lon="11.3500764"><ele>386.0</ele><time>2026-04-18T11:04:05.822Z</time></trkpt><trkpt lat="43.5677713" lon="11.3501673"><ele>386.0</ele><time>2026-04-18T11:04:06.834Z</time></trkpt><trkpt lat="43.5678383" lon="11.3502558"><ele>386.0</ele><time>2026-04-18T11:04:07.826Z</time></trkpt><trkpt lat="43.567896" lon="11.3503658"><ele>386.0</ele><time>2026-04-18T11:04:08.833Z</time></trkpt><trkpt lat="43.5679558" lon="11.350484"><ele>386.0</ele><time>2026-04-18T11:04:09.83Z</time></trkpt><trkpt lat="43.5680047" lon="11.350608"><ele>386.0</ele><time>2026-04-18T11:04:10.832Z</time></trkpt><trkpt lat="43.568051" lon="11.3507296"><ele>389.6</ele><time>2026-04-18T11:04:11.829Z</time></trkpt><trkpt lat="43.5681089" lon="11.3508299"><ele>393.20000000000005</ele><time>2026-04-18T11:04:12.831Z</time></trkpt><trkpt lat="43.5681825" lon="11.3509112"><ele>396.79999999999995</ele><time>2026-04-18T11:04:13.834Z</time></trkpt><trkpt lat="43.5682725" lon="11.3509914"><ele>400.4</ele><time>2026-04-18T11:04:14.818Z</time></trkpt><trkpt lat="43.568356" lon="11.3510828"><ele>404.0</ele><time>2026-04-18T11:04:15.815Z</time></trkpt><trkpt lat="43.56841" lon="11.3511755"><ele>404.0</ele><time>2026-04-18T11:04:16.817Z</time></trkpt><trkpt lat="43.5684422" lon="11.3512771"><ele>404.0</ele><time>2026-04-18T11:04:17.819Z</time></trkpt><trkpt lat="43.5684612" lon="11.3513928"><ele>404.0</ele><time>2026-04-18T11:04:18.826Z</time></trkpt><trkpt lat="43.5684652" lon="11.3515217"><ele>404.0</ele><time>2026-04-18T11:04:19.816Z</time></trkpt><trkpt lat="43.5684617" lon="11.3516665"><ele>404.0</ele><time>2026-04-18T11:04:20.822Z</time></trkpt><trkpt lat="43.5684541" lon="11.3518126"><ele>404.79999999999995</ele><time>2026-04-18T11:04:21.822Z</time></trkpt><trkpt lat="43.5684523" lon="11.3519628"><ele>405.59999999999997</ele><time>2026-04-18T11:04:22.814Z</time></trkpt><trkpt lat="43.568456" lon="11.3521141"><ele>406.4</ele><time>2026-04-18T11:04:23.817Z</time></trkpt><trkpt lat="43.5684448" lon="11.3522545"><ele>407.2</ele><time>2026-04-18T11:04:24.821Z</time></trkpt><trkpt lat="43.5684227" lon="11.3523926"><ele>408.0</ele><time>2026-04-18T11:04:25.818Z</time></trkpt><trkpt lat="43.5684065" lon="11.3525403"><ele>409.75</ele><time>2026-04-18T11:04:26.804Z</time></trkpt><trkpt lat="43.5684088" lon="11.3527146"><ele>411.5</ele><time>2026-04-18T11:04:27.815Z</time></trkpt><trkpt lat="43.5684172" lon="11.3529074"><ele>413.25</ele><time>2026-04-18T11:04:28.81Z</time></trkpt><trkpt lat="43.5684304" lon="11.3531108"><ele>415.0</ele><time>2026-04-18T11:04:29.805Z</time></trkpt><trkpt lat="43.5684572" lon="11.3533037"><ele>416.5</ele><time>2026-04-18T11:04:30.797Z</time></trkpt><trkpt lat="43.568487" lon="11.3534552"><ele>418.0</ele><time>2026-04-18T11:04:31.824Z</time></trkpt><trkpt lat="43.568514" lon="11.3536087"><ele>419.5</ele><time>2026-04-18T11:04:32.812Z</time></trkpt><trkpt lat="43.5685565" lon="11.3537666"><ele>421.0</ele><time>2026-04-18T11:04:33.801Z</time></trkpt><trkpt lat="43.5686179" lon="11.3539252"><ele>422.75</ele><time>2026-04-18T11:04:34.808Z</time></trkpt><trkpt lat="43.5686814" lon="11.3540832"><ele>424.5</ele><time>2026-04-18T11:04:35.799Z</time></trkpt><trkpt lat="43.5687434" lon="11.3542416"><ele>426.25</ele><time>2026-04-18T11:04:36.792Z</time></trkpt><trkpt lat="43.5688091" lon="11.3543888"><ele>428.0</ele><time>2026-04-18T11:04:37.81Z</time></trkpt><trkpt lat="43.568858" lon="11.3545255"><ele>428.79999999999995</ele><time>2026-04-18T11:04:38.804Z</time></trkpt><trkpt lat="43.5688818" lon="11.3546506"><ele>429.59999999999997</ele><time>2026-04-18T11:04:39.793Z</time></trkpt><trkpt lat="43.5688958" lon="11.3547536"><ele>430.40000000000003</ele><time>2026-04-18T11:04:40.798Z</time></trkpt><trkpt lat="43.5688736" lon="11.3548837"><ele>431.20000000000005</ele><time>2026-04-18T11:04:42.802Z</time></trkpt><trkpt lat="43.568799" lon="11.3549379"><ele>432.0</ele><time>2026-04-18T11:04:44.797Z</time></trkpt><trkpt lat="43.5686871" lon="11.3549136"><ele>431.3333333333333</ele><time>2026-04-18T11:04:46.799Z</time></trkpt><trkpt lat="43.5686287" lon="11.354855"><ele>430.66666666666663</ele><time>2026-04-18T11:04:47.792Z</time></trkpt><trkpt lat="43.5685847" lon="11.3547788"><ele>430.0</ele><time>2026-04-18T11:04:48.792Z</time></trkpt><trkpt lat="43.5685463" lon="11.3546937"><ele>429.3333333333333</ele><time>2026-04-18T11:04:49.792Z</time></trkpt><trkpt lat="43.5685176" lon="11.3545736"><ele>428.66666666666663</ele><time>2026-04-18T11:04:50.795Z</time></trkpt><trkpt lat="43.5684896" lon="11.3544509"><ele>428.0</ele><time>2026-04-18T11:04:51.799Z</time></trkpt><trkpt lat="43.5684557" lon="11.3543436"><ele>427.99999999999994</ele><time>2026-04-18T11:04:52.796Z</time></trkpt><trkpt lat="43.5684126" lon="11.3542502"><ele>428.0</ele><time>2026-04-18T11:04:53.794Z</time></trkpt><trkpt lat="43.5683751" lon="11.3541736"><ele>428.0</ele><time>2026-04-18T11:04:54.791Z</time></trkpt><trkpt lat="43.5683259" lon="11.3540754"><ele>428.0</ele><time>2026-04-18T11:04:55.798Z</time></trkpt><trkpt lat="43.5682832" lon="11.3539738"><ele>427.99999999999994</ele><time>2026-04-18T11:04:56.799Z</time></trkpt><trkpt lat="43.5682319" lon="11.353862"><ele>428.0</ele><time>2026-04-18T11:04:57.795Z</time></trkpt><trkpt lat="43.5681727" lon="11.3537557"><ele>428.8333333333333</ele><time>2026-04-18T11:04:58.802Z</time></trkpt><trkpt lat="43.5681164" lon="11.3536572"><ele>429.66666666666663</ele><time>2026-04-18T11:04:59.8Z</time></trkpt><trkpt lat="43.568061" lon="11.3535715"><ele>430.5</ele><time>2026-04-18T11:05:00.802Z</time></trkpt><trkpt lat="43.5679996" lon="11.3534928"><ele>431.33333333333337</ele><time>2026-04-18T11:05:01.805Z</time></trkpt><trkpt lat="43.5679328" lon="11.353414"><ele>432.1666666666667</ele><time>2026-04-18T11:05:02.823Z</time></trkpt><trkpt lat="43.5678641" lon="11.3533285"><ele>433.0</ele><time>2026-04-18T11:05:03.808Z</time></trkpt><trkpt lat="43.5677894" lon="11.3532383"><ele>433.0</ele><time>2026-04-18T11:05:04.809Z</time></trkpt><trkpt lat="43.5677105" lon="11.3531436"><ele>432.99999999999994</ele><time>2026-04-18T11:05:05.802Z</time></trkpt><trkpt lat="43.5676254" lon="11.3530392"><ele>432.99999999999994</ele><time>2026-04-18T11:05:06.807Z</time></trkpt><trkpt lat="43.5675419" lon="11.3529356"><ele>433.0</ele><time>2026-04-18T11:05:07.806Z</time></trkpt><trkpt lat="43.5674574" lon="11.3528309"><ele>433.0</ele><time>2026-04-18T11:05:08.804Z</time></trkpt><trkpt lat="43.5673648" lon="11.3527314"><ele>431.0</ele><time>2026-04-18T11:05:09.808Z</time></trkpt><trkpt lat="43.5672641" lon="11.3526461"><ele>428.99999999999994</ele><time>2026-04-18T11:05:10.809Z</time></trkpt><trkpt lat="43.5671644" lon="11.3525709"><ele>427.0</ele><time>2026-04-18T11:05:11.806Z</time></trkpt><trkpt lat="43.5670748" lon="11.3525111"><ele>425.0</ele><time>2026-04-18T11:05:12.802Z</time></trkpt><trkpt lat="43.5669916" lon="11.3524615"><ele>423.0</ele><time>2026-04-18T11:05:13.819Z</time></trkpt><trkpt lat="43.5669114" lon="11.3524276"><ele>423.0</ele><time>2026-04-18T11:05:14.81Z</time></trkpt><trkpt lat="43.5668314" lon="11.3524032"><ele>423.0</ele><time>2026-04-18T11:05:15.809Z</time></trkpt><trkpt lat="43.5667544" lon="11.3523926"><ele>423.0</ele><time>2026-04-18T11:05:16.809Z</time></trkpt><trkpt lat="43.5666922" lon="11.3524106"><ele>423.0</ele><time>2026-04-18T11:05:17.804Z</time></trkpt><trkpt lat="43.5665832" lon="11.3524908"><ele>423.0</ele><time>2026-04-18T11:05:19.809Z</time></trkpt><trkpt lat="43.5665208" lon="11.3525666"><ele>423.0</ele><time>2026-04-18T11:05:20.814Z</time></trkpt><trkpt lat="43.566457" lon="11.352642"><ele>423.0</ele><time>2026-04-18T11:05:21.811Z</time></trkpt><trkpt lat="43.5664008" lon="11.3526856"><ele>423.0</ele><time>2026-04-18T11:05:22.813Z</time></trkpt><trkpt lat="43.5662784" lon="11.352692"><ele>423.0</ele><time>2026-04-18T11:05:24.807Z</time></trkpt><trkpt lat="43.5661787" lon="11.3526166"><ele>423.0</ele><time>2026-04-18T11:05:26.807Z</time></trkpt><trkpt lat="43.5662502" lon="11.3526429"><ele>423.0</ele><time>2026-04-18T11:06:18.827Z</time></trkpt><trkpt lat="43.5663411" lon="11.3526903"><ele>423.0</ele><time>2026-04-18T11:06:21.829Z</time></trkpt><trkpt lat="43.5664267" lon="11.3526886"><ele>423.0</ele><time>2026-04-18T11:06:23.827Z</time></trkpt><trkpt lat="43.5665326" lon="11.3526053"><ele>423.0</ele><time>2026-04-18T11:06:25.829Z</time></trkpt><trkpt lat="43.5665845" lon="11.3525514"><ele>423.0</ele><time>2026-04-18T11:06:26.824Z</time></trkpt><trkpt lat="43.5666358" lon="11.3524981"><ele>423.0</ele><time>2026-04-18T11:06:27.819Z</time></trkpt><trkpt lat="43.5666973" lon="11.3524526"><ele>423.0</ele><time>2026-04-18T11:06:28.816Z</time></trkpt><trkpt lat="43.5667615" lon="11.352439"><ele>423.0</ele><time>2026-04-18T11:06:29.818Z</time></trkpt><trkpt lat="43.5668883" lon="11.3524534"><ele>423.0</ele><time>2026-04-18T11:06:31.821Z</time></trkpt><trkpt lat="43.5669561" lon="11.3524835"><ele>423.0</ele><time>2026-04-18T11:06:32.823Z</time></trkpt><trkpt lat="43.5670314" lon="11.3525119"><ele>423.0</ele><time>2026-04-18T11:06:33.821Z</time></trkpt><trkpt lat="43.5671108" lon="11.3525584"><ele>423.0</ele><time>2026-04-18T11:06:34.841Z</time></trkpt><trkpt lat="43.567198" lon="11.3526127"><ele>421.79999999999995</ele><time>2026-04-18T11:06:35.846Z</time></trkpt><trkpt lat="43.5672871" lon="11.3526849"><ele>420.6</ele><time>2026-04-18T11:06:36.899Z</time></trkpt><trkpt lat="43.5673751" lon="11.3527671"><ele>419.4</ele><time>2026-04-18T11:06:37.901Z</time></trkpt><trkpt lat="43.5674641" lon="11.3528614"><ele>418.20000000000005</ele><time>2026-04-18T11:06:38.902Z</time></trkpt><trkpt lat="43.5675526" lon="11.3529626"><ele>417.0</ele><time>2026-04-18T11:06:39.878Z</time></trkpt><trkpt lat="43.5676419" lon="11.3530641"><ele>418.0</ele><time>2026-04-18T11:06:40.872Z</time></trkpt><trkpt lat="43.5677559" lon="11.3531694"><ele>419.0</ele><time>2026-04-18T11:06:41.788Z</time></trkpt><trkpt lat="43.5678594" lon="11.3532545"><ele>420.0</ele><time>2026-04-18T11:06:42.786Z</time></trkpt><trkpt lat="43.5679416" lon="11.3533435"><ele>421.0</ele><time>2026-04-18T11:06:43.811Z</time></trkpt><trkpt lat="43.568014" lon="11.3534275"><ele>421.00000000000006</ele><time>2026-04-18T11:06:44.8Z</time></trkpt><trkpt lat="43.5680776" lon="11.3535128"><ele>421.0</ele><time>2026-04-18T11:06:45.803Z</time></trkpt><trkpt lat="43.5681276" lon="11.3535911"><ele>421.0</ele><time>2026-04-18T11:06:46.806Z</time></trkpt><trkpt lat="43.5681747" lon="11.353667"><ele>421.0</ele><time>2026-04-18T11:06:47.806Z</time></trkpt><trkpt lat="43.568221" lon="11.353757"><ele>421.00000000000006</ele><time>2026-04-18T11:06:48.804Z</time></trkpt><trkpt lat="43.5682795" lon="11.3538631"><ele>421.0</ele><time>2026-04-18T11:06:49.802Z</time></trkpt><trkpt lat="43.5683337" lon="11.3539856"><ele>422.1666666666667</ele><time>2026-04-18T11:06:50.803Z</time></trkpt><trkpt lat="43.5683775" lon="11.3540979"><ele>423.33333333333337</ele><time>2026-04-18T11:06:51.803Z</time></trkpt><trkpt lat="43.568409" lon="11.3541948"><ele>424.5</ele><time>2026-04-18T11:06:52.803Z</time></trkpt><trkpt lat="43.5684439" lon="11.3543268"><ele>425.66666666666663</ele><time>2026-04-18T11:06:54.804Z</time></trkpt><trkpt lat="43.568477" lon="11.3544564"><ele>426.8333333333333</ele><time>2026-04-18T11:06:56.804Z</time></trkpt><trkpt lat="43.5684955" lon="11.354547"><ele>428.0</ele><time>2026-04-18T11:06:57.801Z</time></trkpt><trkpt lat="43.5685237" lon="11.354659"><ele>428.66666666666663</ele><time>2026-04-18T11:06:58.804Z</time></trkpt><trkpt lat="43.5685576" lon="11.3547431"><ele>429.3333333333333</ele><time>2026-04-18T11:06:59.796Z</time></trkpt><trkpt lat="43.5686326" lon="11.3548439"><ele>430.0</ele><time>2026-04-18T11:07:01.81Z</time></trkpt><trkpt lat="43.5687258" lon="11.3549072"><ele>430.66666666666663</ele><time>2026-04-18T11:07:03.811Z</time></trkpt><trkpt lat="43.5688103" lon="11.3549179"><ele>431.3333333333333</ele><time>2026-04-18T11:07:05.817Z</time></trkpt><trkpt lat="43.5688802" lon="11.3548594"><ele>432.0</ele><time>2026-04-18T11:07:07.811Z</time></trkpt><trkpt lat="43.5688801" lon="11.3547437"><ele>432.8</ele><time>2026-04-18T11:07:09.814Z</time></trkpt><trkpt lat="43.5688517" lon="11.3545814"><ele>433.6</ele><time>2026-04-18T11:07:11.792Z</time></trkpt><trkpt lat="43.5688364" lon="11.3544638"><ele>434.40000000000003</ele><time>2026-04-18T11:07:12.791Z</time></trkpt><trkpt lat="43.5688072" lon="11.3543522"><ele>435.20000000000005</ele><time>2026-04-18T11:07:13.793Z</time></trkpt><trkpt lat="43.5687647" lon="11.3542521"><ele>436.0</ele><time>2026-04-18T11:07:14.789Z</time></trkpt><trkpt lat="43.5687166" lon="11.354151"><ele>434.6666666666667</ele><time>2026-04-18T11:07:15.783Z</time></trkpt><trkpt lat="43.5686635" lon="11.3540352"><ele>433.33333333333337</ele><time>2026-04-18T11:07:16.788Z</time></trkpt><trkpt lat="43.5686135" lon="11.3539279"><ele>432.0</ele><time>2026-04-18T11:07:17.79Z</time></trkpt><trkpt lat="43.5685749" lon="11.353819"><ele>430.66666666666663</ele><time>2026-04-18T11:07:18.795Z</time></trkpt><trkpt lat="43.568545" lon="11.353716"><ele>429.3333333333333</ele><time>2026-04-18T11:07:19.795Z</time></trkpt><trkpt lat="43.5685253" lon="11.3536234"><ele>428.0</ele><time>2026-04-18T11:07:20.799Z</time></trkpt><trkpt lat="43.5684995" lon="11.3535234"><ele>426.59999999999997</ele><time>2026-04-18T11:07:21.797Z</time></trkpt><trkpt lat="43.5684715" lon="11.3534236"><ele>425.19999999999993</ele><time>2026-04-18T11:07:22.799Z</time></trkpt><trkpt lat="43.5684529" lon="11.353323"><ele>423.8</ele><time>2026-04-18T11:07:23.795Z</time></trkpt><trkpt lat="43.5684409" lon="11.3531969"><ele>422.4</ele><time>2026-04-18T11:07:24.792Z</time></trkpt><trkpt lat="43.5684348" lon="11.3530522"><ele>421.0</ele><time>2026-04-18T11:07:25.793Z</time></trkpt><trkpt lat="43.5684244" lon="11.3529023"><ele>419.8</ele><time>2026-04-18T11:07:26.793Z</time></trkpt><trkpt lat="43.5684221" lon="11.3527538"><ele>418.6</ele><time>2026-04-18T11:07:27.794Z</time></trkpt><trkpt lat="43.5684272" lon="11.3526051"><ele>417.4</ele><time>2026-04-18T11:07:28.802Z</time></trkpt><trkpt lat="43.5684418" lon="11.352454"><ele>416.2</ele><time>2026-04-18T11:07:29.798Z</time></trkpt><trkpt lat="43.5684548" lon="11.3522889"><ele>415.0</ele><time>2026-04-18T11:07:30.802Z</time></trkpt><trkpt lat="43.5684578" lon="11.352132"><ele>413.25</ele><time>2026-04-18T11:07:31.801Z</time></trkpt><trkpt lat="43.5684578" lon="11.3519744"><ele>411.5</ele><time>2026-04-18T11:07:32.802Z</time></trkpt><trkpt lat="43.5684586" lon="11.3518187"><ele>409.75</ele><time>2026-04-18T11:07:33.803Z</time></trkpt><trkpt lat="43.5684415" lon="11.3516539"><ele>408.0</ele><time>2026-04-18T11:07:34.811Z</time></trkpt><trkpt lat="43.5684215" lon="11.3514957"><ele>407.42857142857144</ele><time>2026-04-18T11:07:35.811Z</time></trkpt><trkpt lat="43.568405" lon="11.3513682"><ele>406.8571428571429</ele><time>2026-04-18T11:07:36.811Z</time></trkpt><trkpt lat="43.5683936" lon="11.3512624"><ele>406.2857142857143</ele><time>2026-04-18T11:07:37.822Z</time></trkpt><trkpt lat="43.5683843" lon="11.3511713"><ele>405.7142857142857</ele><time>2026-04-18T11:07:38.808Z</time></trkpt><trkpt lat="43.5683573" lon="11.3510862"><ele>405.1428571428571</ele><time>2026-04-18T11:07:39.81Z</time></trkpt><trkpt lat="43.5683214" lon="11.3510062"><ele>404.57142857142856</ele><time>2026-04-18T11:07:40.811Z</time></trkpt><trkpt lat="43.5682685" lon="11.3509353"><ele>404.0</ele><time>2026-04-18T11:07:41.809Z</time></trkpt><trkpt lat="43.5682011" lon="11.3508796"><ele>404.0</ele><time>2026-04-18T11:07:42.805Z</time></trkpt><trkpt lat="43.5681249" lon="11.350821"><ele>404.0</ele><time>2026-04-18T11:07:43.806Z</time></trkpt><trkpt lat="43.5680484" lon="11.3507595"><ele>404.0</ele><time>2026-04-18T11:07:44.804Z</time></trkpt><trkpt lat="43.5679876" lon="11.3506682"><ele>404.0</ele><time>2026-04-18T11:07:45.801Z</time></trkpt><trkpt lat="43.5679333" lon="11.3505415"><ele>404.0</ele><time>2026-04-18T11:07:46.808Z</time></trkpt><trkpt lat="43.5678813" lon="11.350406"><ele>399.5</ele><time>2026-04-18T11:07:47.808Z</time></trkpt><trkpt lat="43.5678185" lon="11.3502663"><ele>395.0</ele><time>2026-04-18T11:07:48.806Z</time></trkpt><trkpt lat="43.5677344" lon="11.350136"><ele>390.5</ele><time>2026-04-18T11:07:49.806Z</time></trkpt><trkpt lat="43.5676402" lon="11.3500223"><ele>386.0</ele><time>2026-04-18T11:07:50.812Z</time></trkpt><trkpt lat="43.5675314" lon="11.349908"><ele>386.0</ele><time>2026-04-18T11:07:51.807Z</time></trkpt><trkpt lat="43.5674209" lon="11.3498002"><ele>386.0</ele><time>2026-04-18T11:07:52.816Z</time></trkpt><trkpt lat="43.5673118" lon="11.349696"><ele>386.0</ele><time>2026-04-18T11:07:53.813Z</time></trkpt><trkpt lat="43.567224" lon="11.3496063"><ele>386.0</ele><time>2026-04-18T11:07:54.815Z</time></trkpt><trkpt lat="43.5671498" lon="11.3495252"><ele>388.20000000000005</ele><time>2026-04-18T11:07:55.815Z</time></trkpt><trkpt lat="43.5670911" lon="11.3494346"><ele>390.40000000000003</ele><time>2026-04-18T11:07:56.81Z</time></trkpt><trkpt lat="43.5670422" lon="11.3493243"><ele>392.6</ele><time>2026-04-18T11:07:57.807Z</time></trkpt><trkpt lat="43.5669998" lon="11.349188"><ele>394.8</ele><time>2026-04-18T11:07:58.811Z</time></trkpt><trkpt lat="43.5669597" lon="11.3490365"><ele>397.0</ele><time>2026-04-18T11:07:59.815Z</time></trkpt><trkpt lat="43.5669183" lon="11.3488801"><ele>394.20000000000005</ele><time>2026-04-18T11:08:00.817Z</time></trkpt><trkpt lat="43.5668737" lon="11.3487272"><ele>391.4</ele><time>2026-04-18T11:08:01.815Z</time></trkpt><trkpt lat="43.5668172" lon="11.3485965"><ele>388.6</ele><time>2026-04-18T11:08:02.812Z</time></trkpt><trkpt lat="43.5667551" lon="11.3484741"><ele>385.79999999999995</ele><time>2026-04-18T11:08:03.811Z</time></trkpt><trkpt lat="43.5666935" lon="11.3483642"><ele>383.0</ele><time>2026-04-18T11:08:04.812Z</time></trkpt><trkpt lat="43.5666162" lon="11.3482558"><ele>383.0</ele><time>2026-04-18T11:08:05.806Z</time></trkpt><trkpt lat="43.5665233" lon="11.3481483"><ele>383.0</ele><time>2026-04-18T11:08:06.806Z</time></trkpt><trkpt lat="43.5664417" lon="11.3480577"><ele>383.0</ele><time>2026-04-18T11:08:07.804Z</time></trkpt><trkpt lat="43.5663635" lon="11.3479605"><ele>383.0</ele><time>2026-04-18T11:08:08.823Z</time></trkpt><trkpt lat="43.5662966" lon="11.3478519"><ele>383.0</ele><time>2026-04-18T11:08:09.804Z</time></trkpt><trkpt lat="43.5662367" lon="11.3477118"><ele>380.0</ele><time>2026-04-18T11:08:10.81Z</time></trkpt><trkpt lat="43.5661744" lon="11.3475566"><ele>377.0</ele><time>2026-04-18T11:08:11.8Z</time></trkpt><trkpt lat="43.5661058" lon="11.3474125"><ele>374.0</ele><time>2026-04-18T11:08:12.805Z</time></trkpt><trkpt lat="43.5660246" lon="11.3472679"><ele>371.0</ele><time>2026-04-18T11:08:13.812Z</time></trkpt><trkpt lat="43.5659409" lon="11.347112"><ele>371.0</ele><time>2026-04-18T11:08:14.808Z</time></trkpt><trkpt lat="43.5658482" lon="11.3469561"><ele>371.0</ele><time>2026-04-18T11:08:15.809Z</time></trkpt><trkpt lat="43.5657939" lon="11.3468203"><ele>371.0</ele><time>2026-04-18T11:08:16.808Z</time></trkpt><trkpt lat="43.5657497" lon="11.346695"><ele>371.0</ele><time>2026-04-18T11:08:17.808Z</time></trkpt><trkpt lat="43.5657253" lon="11.3465639"><ele>371.0</ele><time>2026-04-18T11:08:18.812Z</time></trkpt><trkpt lat="43.5657161" lon="11.3464365"><ele>371.0</ele><time>2026-04-18T11:08:19.812Z</time></trkpt><trkpt lat="43.565711" lon="11.3463123"><ele>371.0</ele><time>2026-04-18T11:08:20.812Z</time></trkpt><trkpt lat="43.5657246" lon="11.3461821"><ele>371.0</ele><time>2026-04-18T11:08:21.811Z</time></trkpt><trkpt lat="43.5657268" lon="11.3460773"><ele>371.0</ele><time>2026-04-18T11:08:22.822Z</time></trkpt><trkpt lat="43.565726" lon="11.3459783"><ele>371.0</ele><time>2026-04-18T11:08:23.818Z</time></trkpt><trkpt lat="43.5657147" lon="11.3458191"><ele>372.0</ele><time>2026-04-18T11:08:25.82Z</time></trkpt><trkpt lat="43.5656695" lon="11.3456913"><ele>373.0</ele><time>2026-04-18T11:08:27.817Z</time></trkpt><trkpt lat="43.5656148" lon="11.3455718"><ele>374.0</ele><time>2026-04-18T11:08:29.818Z</time></trkpt><trkpt lat="43.5655678" lon="11.345425"><ele>375.0</ele><time>2026-04-18T11:08:31.819Z</time></trkpt><trkpt lat="43.565532" lon="11.345345"><ele>376.0</ele><time>2026-04-18T11:08:32.818Z</time></trkpt><trkpt lat="43.5655011" lon="11.3452618"><ele>376.66666666666663</ele><time>2026-04-18T11:08:33.82Z</time></trkpt><trkpt lat="43.5654701" lon="11.3451847"><ele>377.3333333333333</ele><time>2026-04-18T11:08:34.82Z</time></trkpt><trkpt lat="43.5654161" lon="11.3450458"><ele>378.0</ele><time>2026-04-18T11:08:36.818Z</time></trkpt><trkpt lat="43.5653876" lon="11.3449638"><ele>378.6666666666667</ele><time>2026-04-18T11:08:37.818Z</time></trkpt><trkpt lat="43.5653542" lon="11.3448867"><ele>379.33333333333337</ele><time>2026-04-18T11:08:38.823Z</time></trkpt><trkpt lat="43.5653142" lon="11.3448192"><ele>380.0</ele><time>2026-04-18T11:08:39.838Z</time></trkpt><trkpt lat="43.5652281" lon="11.3447073"><ele>377.6</ele><time>2026-04-18T11:08:41.82Z</time></trkpt><trkpt lat="43.5651296" lon="11.3446324"><ele>375.2</ele><time>2026-04-18T11:08:43.815Z</time></trkpt><trkpt lat="43.5650254" lon="11.3445897"><ele>372.79999999999995</ele><time>2026-04-18T11:08:45.81Z</time></trkpt><trkpt lat="43.564929" lon="11.3445175"><ele>370.4</ele><time>2026-04-18T11:08:47.814Z</time></trkpt><trkpt lat="43.564876" lon="11.3444601"><ele>368.0</ele><time>2026-04-18T11:08:48.811Z</time></trkpt><trkpt lat="43.5648305" lon="11.3443742"><ele>368.0</ele><time>2026-04-18T11:08:49.809Z</time></trkpt><trkpt lat="43.5647823" lon="11.3442735"><ele>368.0</ele><time>2026-04-18T11:08:50.81Z</time></trkpt><trkpt lat="43.5647439" lon="11.344179"><ele>368.0</ele><time>2026-04-18T11:08:51.807Z</time></trkpt><trkpt lat="43.5647069" lon="11.3440931"><ele>368.0</ele><time>2026-04-18T11:08:52.812Z</time></trkpt><trkpt lat="43.5646638" lon="11.3439992"><ele>368.0</ele><time>2026-04-18T11:08:53.807Z</time></trkpt><trkpt lat="43.5646197" lon="11.343924"><ele>368.0</ele><time>2026-04-18T11:08:54.805Z</time></trkpt><trkpt lat="43.5645679" lon="11.3438666"><ele>366.33333333333337</ele><time>2026-04-18T11:08:55.804Z</time></trkpt><trkpt lat="43.5645114" lon="11.34382"><ele>364.6666666666667</ele><time>2026-04-18T11:08:56.806Z</time></trkpt><trkpt lat="43.5643965" lon="11.3437804"><ele>363.0</ele><time>2026-04-18T11:08:58.806Z</time></trkpt><trkpt lat="43.5643318" lon="11.3437726"><ele>361.3333333333333</ele><time>2026-04-18T11:08:59.799Z</time></trkpt><trkpt lat="43.5642628" lon="11.3437743"><ele>359.66666666666663</ele><time>2026-04-18T11:09:00.8Z</time></trkpt><trkpt lat="43.5641814" lon="11.3437724"><ele>358.0</ele><time>2026-04-18T11:09:01.8Z</time></trkpt><trkpt lat="43.564097" lon="11.3437728"><ele>358.0</ele><time>2026-04-18T11:09:02.802Z</time></trkpt><trkpt lat="43.564005" lon="11.3437718"><ele>358.0</ele><time>2026-04-18T11:09:03.805Z</time></trkpt><trkpt lat="43.5639157" lon="11.3437697"><ele>358.0</ele><time>2026-04-18T11:09:04.81Z</time></trkpt><trkpt lat="43.5638267" lon="11.3437723"><ele>358.0</ele><time>2026-04-18T11:09:05.815Z</time></trkpt><trkpt lat="43.5637391" lon="11.3437706"><ele>358.0</ele><time>2026-04-18T11:09:06.809Z</time></trkpt><trkpt lat="43.563653" lon="11.3437564"><ele>358.0</ele><time>2026-04-18T11:09:07.812Z</time></trkpt><trkpt lat="43.5635742" lon="11.3437291"><ele>354.8333333333333</ele><time>2026-04-18T11:09:08.817Z</time></trkpt><trkpt lat="43.5635052" lon="11.3436923"><ele>351.66666666666663</ele><time>2026-04-18T11:09:09.816Z</time></trkpt><trkpt lat="43.563443" lon="11.3436323"><ele>348.5</ele><time>2026-04-18T11:09:10.825Z</time></trkpt><trkpt lat="43.5633963" lon="11.343547"><ele>345.3333333333333</ele><time>2026-04-18T11:09:11.811Z</time></trkpt><trkpt lat="43.5633577" lon="11.3434473"><ele>342.1666666666667</ele><time>2026-04-18T11:09:12.815Z</time></trkpt><trkpt lat="43.5633382" lon="11.3433359"><ele>339.0</ele><time>2026-04-18T11:09:13.813Z</time></trkpt><trkpt lat="43.5633407" lon="11.3432031"><ele>339.0</ele><time>2026-04-18T11:09:14.823Z</time></trkpt><trkpt lat="43.5633459" lon="11.3430608"><ele>339.0</ele><time>2026-04-18T11:09:15.829Z</time></trkpt><trkpt lat="43.5633419" lon="11.3429226"><ele>339.0</ele><time>2026-04-18T11:09:16.821Z</time></trkpt><trkpt lat="43.5633235" lon="11.3427958"><ele>339.0</ele><time>2026-04-18T11:09:17.816Z</time></trkpt><trkpt lat="43.5633037" lon="11.3426768"><ele>339.0</ele><time>2026-04-18T11:09:18.825Z</time></trkpt><trkpt lat="43.5632802" lon="11.3425507"><ele>339.0</ele><time>2026-04-18T11:09:19.814Z</time></trkpt><trkpt lat="43.5632462" lon="11.3424142"><ele>339.0</ele><time>2026-04-18T11:09:20.817Z</time></trkpt><trkpt lat="43.5632062" lon="11.3422691"><ele>339.0</ele><time>2026-04-18T11:09:21.809Z</time></trkpt><trkpt lat="43.5631519" lon="11.342142"><ele>339.0</ele><time>2026-04-18T11:09:22.816Z</time></trkpt><trkpt lat="43.5630957" lon="11.3420262"><ele>339.0</ele><time>2026-04-18T11:09:23.81Z</time></trkpt><trkpt lat="43.5630404" lon="11.3419115"><ele>339.4</ele><time>2026-04-18T11:09:24.815Z</time></trkpt><trkpt lat="43.5630147" lon="11.3418036"><ele>339.79999999999995</ele><time>2026-04-18T11:09:25.826Z</time></trkpt><trkpt lat="43.5630061" lon="11.3416895"><ele>340.20000000000005</ele><time>2026-04-18T11:09:26.816Z</time></trkpt><trkpt lat="43.5629994" lon="11.3415653"><ele>340.6</ele><time>2026-04-18T11:09:27.818Z</time></trkpt><trkpt lat="43.5629915" lon="11.3414172"><ele>341.0</ele><time>2026-04-18T11:09:28.812Z</time></trkpt><trkpt lat="43.5629883" lon="11.3412583"><ele>341.25</ele><time>2026-04-18T11:09:29.809Z</time></trkpt><trkpt lat="43.5629913" lon="11.3410752"><ele>341.5</ele><time>2026-04-18T11:09:30.811Z</time></trkpt><trkpt lat="43.5630001" lon="11.3408936"><ele>341.75</ele><time>2026-04-18T11:09:31.814Z</time></trkpt><trkpt lat="43.5630062" lon="11.3407128"><ele>342.0</ele><time>2026-04-18T11:09:32.81Z</time></trkpt><trkpt lat="43.5630063" lon="11.3405392"><ele>342.0</ele><time>2026-04-18T11:09:33.807Z</time></trkpt><trkpt lat="43.5629949" lon="11.340377"><ele>342.0</ele><time>2026-04-18T11:09:34.807Z</time></trkpt><trkpt lat="43.5629707" lon="11.3402123"><ele>342.0</ele><time>2026-04-18T11:09:35.815Z</time></trkpt><trkpt lat="43.5629441" lon="11.3400403"><ele>342.0</ele><time>2026-04-18T11:09:36.81Z</time></trkpt><trkpt lat="43.5629168" lon="11.339872"><ele>341.8</ele><time>2026-04-18T11:09:37.81Z</time></trkpt><trkpt lat="43.562887" lon="11.3397082"><ele>341.6</ele><time>2026-04-18T11:09:38.81Z</time></trkpt><trkpt lat="43.5628558" lon="11.3395615"><ele>341.40000000000003</ele><time>2026-04-18T11:09:39.808Z</time></trkpt><trkpt lat="43.5628152" lon="11.3394124"><ele>341.20000000000005</ele><time>2026-04-18T11:09:40.807Z</time></trkpt><trkpt lat="43.5627768" lon="11.3392856"><ele>341.0</ele><time>2026-04-18T11:09:41.843Z</time></trkpt><trkpt lat="43.5627245" lon="11.3391528"><ele>336.0</ele><time>2026-04-18T11:09:42.816Z</time></trkpt><trkpt lat="43.5626777" lon="11.3390309"><ele>331.0</ele><time>2026-04-18T11:09:43.817Z</time></trkpt><trkpt lat="43.5626334" lon="11.3389181"><ele>326.0</ele><time>2026-04-18T11:09:44.812Z</time></trkpt><trkpt lat="43.5625846" lon="11.3387967"><ele>321.0</ele><time>2026-04-18T11:09:45.807Z</time></trkpt><trkpt lat="43.5625127" lon="11.3387005"><ele>316.0</ele><time>2026-04-18T11:09:46.808Z</time></trkpt><trkpt lat="43.5624242" lon="11.3386131"><ele>316.0</ele><time>2026-04-18T11:09:47.805Z</time></trkpt><trkpt lat="43.5623312" lon="11.3385215"><ele>316.0</ele><time>2026-04-18T11:09:48.809Z</time></trkpt><trkpt lat="43.5622503" lon="11.338439"><ele>316.0</ele><time>2026-04-18T11:09:49.804Z</time></trkpt><trkpt lat="43.5622001" lon="11.3383527"><ele>316.0</ele><time>2026-04-18T11:09:50.805Z</time></trkpt><trkpt lat="43.5621717" lon="11.3382603"><ele>316.0</ele><time>2026-04-18T11:09:51.8Z</time></trkpt><trkpt lat="43.5621539" lon="11.3381508"><ele>316.0</ele><time>2026-04-18T11:09:52.802Z</time></trkpt><trkpt lat="43.5621512" lon="11.3380221"><ele>314.0</ele><time>2026-04-18T11:09:53.8Z</time></trkpt><trkpt lat="43.5621716" lon="11.3378739"><ele>312.0</ele><time>2026-04-18T11:09:54.806Z</time></trkpt><trkpt lat="43.5622141" lon="11.3377175"><ele>310.0</ele><time>2026-04-18T11:09:55.802Z</time></trkpt><trkpt lat="43.5622706" lon="11.3375509"><ele>308.0</ele><time>2026-04-18T11:09:56.803Z</time></trkpt><trkpt lat="43.5623274" lon="11.3373884"><ele>308.0</ele><time>2026-04-18T11:09:57.802Z</time></trkpt><trkpt lat="43.5623914" lon="11.3372314"><ele>308.0</ele><time>2026-04-18T11:09:58.804Z</time></trkpt><trkpt lat="43.5624588" lon="11.3370925"><ele>308.0</ele><time>2026-04-18T11:09:59.804Z</time></trkpt><trkpt lat="43.5625476" lon="11.336976"><ele>308.0</ele><time>2026-04-18T11:10:00.808Z</time></trkpt><trkpt lat="43.5626423" lon="11.3368728"><ele>307.5</ele><time>2026-04-18T11:10:01.809Z</time></trkpt><trkpt lat="43.5627389" lon="11.3367651"><ele>307.0</ele><time>2026-04-18T11:10:02.807Z</time></trkpt><trkpt lat="43.5628459" lon="11.3366474"><ele>306.5</ele><time>2026-04-18T11:10:03.806Z</time></trkpt><trkpt lat="43.5629586" lon="11.3365261"><ele>306.0</ele><time>2026-04-18T11:10:04.807Z</time></trkpt><trkpt lat="43.5630796" lon="11.3364232"><ele>299.75</ele><time>2026-04-18T11:10:05.805Z</time></trkpt><trkpt lat="43.5631864" lon="11.3363235"><ele>293.5</ele><time>2026-04-18T11:10:06.805Z</time></trkpt><trkpt lat="43.5632933" lon="11.3362407"><ele>287.25</ele><time>2026-04-18T11:10:07.804Z</time></trkpt><trkpt lat="43.56339" lon="11.3361628"><ele>281.0</ele><time>2026-04-18T11:10:08.807Z</time></trkpt><trkpt lat="43.5634774" lon="11.3360817"><ele>281.0</ele><time>2026-04-18T11:10:09.805Z</time></trkpt><trkpt lat="43.5635532" lon="11.335988"><ele>281.0</ele><time>2026-04-18T11:10:10.804Z</time></trkpt><trkpt lat="43.5636303" lon="11.3359013"><ele>281.0</ele><time>2026-04-18T11:10:11.822Z</time></trkpt><trkpt lat="43.5636873" lon="11.3357874"><ele>281.0</ele><time>2026-04-18T11:10:12.802Z</time></trkpt><trkpt lat="43.563738" lon="11.3356406"><ele>281.0</ele><time>2026-04-18T11:10:13.805Z</time></trkpt><trkpt lat="43.5637733" lon="11.3354717"><ele>280.0</ele><time>2026-04-18T11:10:14.806Z</time></trkpt><trkpt lat="43.563795" lon="11.335286"><ele>279.0</ele><time>2026-04-18T11:10:15.809Z</time></trkpt><trkpt lat="43.5638113" lon="11.335114"><ele>278.0</ele><time>2026-04-18T11:10:16.822Z</time></trkpt><trkpt lat="43.5638304" lon="11.3349351"><ele>277.0</ele><time>2026-04-18T11:10:17.821Z</time></trkpt><trkpt lat="43.5638496" lon="11.3347704"><ele>276.0</ele><time>2026-04-18T11:10:18.824Z</time></trkpt><trkpt lat="43.5638647" lon="11.3346315"><ele>275.0</ele><time>2026-04-18T11:10:19.82Z</time></trkpt><trkpt lat="43.5638959" lon="11.3345048"><ele>274.0</ele><time>2026-04-18T11:10:20.814Z</time></trkpt><trkpt lat="43.5639412" lon="11.3343993"><ele>273.0</ele><time>2026-04-18T11:10:21.812Z</time></trkpt><trkpt lat="43.5640031" lon="11.3343175"><ele>272.0</ele><time>2026-04-18T11:10:22.815Z</time></trkpt><trkpt lat="43.564075" lon="11.3342465"><ele>272.0</ele><time>2026-04-18T11:10:23.817Z</time></trkpt><trkpt lat="43.5641463" lon="11.3341716"><ele>272.0</ele><time>2026-04-18T11:10:24.822Z</time></trkpt><trkpt lat="43.564211" lon="11.334094"><ele>272.0</ele><time>2026-04-18T11:10:25.821Z</time></trkpt><trkpt lat="43.5642535" lon="11.3339975"><ele>272.0</ele><time>2026-04-18T11:10:26.818Z</time></trkpt><trkpt lat="43.564287" lon="11.3338892"><ele>272.0</ele><time>2026-04-18T11:10:27.815Z</time></trkpt><trkpt lat="43.5642971" lon="11.3337571"><ele>272.0</ele><time>2026-04-18T11:10:28.815Z</time></trkpt><trkpt lat="43.5642932" lon="11.3336197"><ele>271.6666666666667</ele><time>2026-04-18T11:10:29.818Z</time></trkpt><trkpt lat="43.564288" lon="11.3334997"><ele>271.33333333333337</ele><time>2026-04-18T11:10:30.818Z</time></trkpt><trkpt lat="43.5642683" lon="11.3333915"><ele>271.0</ele><time>2026-04-18T11:10:31.815Z</time></trkpt><trkpt lat="43.5642296" lon="11.333289"><ele>270.6666666666667</ele><time>2026-04-18T11:10:32.819Z</time></trkpt><trkpt lat="43.5641668" lon="11.333191"><ele>270.3333333333333</ele><time>2026-04-18T11:10:33.814Z</time></trkpt><trkpt lat="43.5641044" lon="11.3331022"><ele>270.0</ele><time>2026-04-18T11:10:34.809Z</time></trkpt><trkpt lat="43.5640471" lon="11.3330263"><ele>270.0</ele><time>2026-04-18T11:10:35.81Z</time></trkpt><trkpt lat="43.5640125" lon="11.3329359"><ele>270.0</ele><time>2026-04-18T11:10:36.81Z</time></trkpt><trkpt lat="43.5640011" lon="11.3328394"><ele>270.0</ele><time>2026-04-18T11:10:37.814Z</time></trkpt><trkpt lat="43.5640077" lon="11.332717"><ele>270.0</ele><time>2026-04-18T11:10:38.817Z</time></trkpt><trkpt lat="43.5640242" lon="11.3325848"><ele>270.0</ele><time>2026-04-18T11:10:39.819Z</time></trkpt><trkpt lat="43.5640245" lon="11.3324409"><ele>270.0</ele><time>2026-04-18T11:10:40.826Z</time></trkpt><trkpt lat="43.56403" lon="11.3322891"><ele>269.75</ele><time>2026-04-18T11:10:41.827Z</time></trkpt><trkpt lat="43.5640411" lon="11.3321411"><ele>269.5</ele><time>2026-04-18T11:10:42.836Z</time></trkpt><trkpt lat="43.5640552" lon="11.3319831"><ele>269.25</ele><time>2026-04-18T11:10:43.82Z</time></trkpt><trkpt lat="43.5640747" lon="11.3318278"><ele>269.0</ele><time>2026-04-18T11:10:44.819Z</time></trkpt><trkpt lat="43.5640899" lon="11.3316626"><ele>269.0</ele><time>2026-04-18T11:10:45.818Z</time></trkpt><trkpt lat="43.5641183" lon="11.3314967"><ele>269.0</ele><time>2026-04-18T11:10:46.817Z</time></trkpt><trkpt lat="43.5641428" lon="11.3313282"><ele>269.0</ele><time>2026-04-18T11:10:47.82Z</time></trkpt><trkpt lat="43.5641596" lon="11.3311548"><ele>269.0</ele><time>2026-04-18T11:10:48.826Z</time></trkpt><trkpt lat="43.5641683" lon="11.330969"><ele>269.25</ele><time>2026-04-18T11:10:49.822Z</time></trkpt><trkpt lat="43.5641777" lon="11.3307839"><ele>269.5</ele><time>2026-04-18T11:10:50.824Z</time></trkpt><trkpt lat="43.5641856" lon="11.3306076"><ele>269.75</ele><time>2026-04-18T11:10:51.819Z</time></trkpt><trkpt lat="43.5641861" lon="11.3304435"><ele>270.0</ele><time>2026-04-18T11:10:52.819Z</time></trkpt><trkpt lat="43.5641822" lon="11.3302814"><ele>270.0</ele><time>2026-04-18T11:10:53.82Z</time></trkpt><trkpt lat="43.5641674" lon="11.330139"><ele>270.0</ele><time>2026-04-18T11:10:54.818Z</time></trkpt><trkpt lat="43.5641559" lon="11.3300089"><ele>270.0</ele><time>2026-04-18T11:10:55.81Z</time></trkpt><trkpt lat="43.5641463" lon="11.329892"><ele>270.0</ele><time>2026-04-18T11:10:56.8Z</time></trkpt><trkpt lat="43.5641398" lon="11.3297918"><ele>270.0</ele><time>2026-04-18T11:10:57.81Z</time></trkpt><trkpt lat="43.5641412" lon="11.3297027"><ele>270.0</ele><time>2026-04-18T11:10:58.818Z</time></trkpt><trkpt lat="43.564141" lon="11.3296146"><ele>270.0</ele><time>2026-04-18T11:10:59.817Z</time></trkpt><trkpt lat="43.5641382" lon="11.3294406"><ele>270.0</ele><time>2026-04-18T11:11:01.812Z</time></trkpt><trkpt lat="43.5641429" lon="11.3293214"><ele>270.0</ele><time>2026-04-18T11:11:02.811Z</time></trkpt><trkpt lat="43.5641483" lon="11.3291855"><ele>270.0</ele><time>2026-04-18T11:11:03.814Z</time></trkpt><trkpt lat="43.5641525" lon="11.3290282"><ele>270.0</ele><time>2026-04-18T11:11:04.819Z</time></trkpt><trkpt lat="43.5641662" lon="11.3288658"><ele>268.25</ele><time>2026-04-18T11:11:05.817Z</time></trkpt><trkpt lat="43.5641776" lon="11.3286924"><ele>266.5</ele><time>2026-04-18T11:11:06.812Z</time></trkpt><trkpt lat="43.5641987" lon="11.3285146"><ele>264.75</ele><time>2026-04-18T11:11:07.814Z</time></trkpt><trkpt lat="43.5642256" lon="11.328337"><ele>263.0</ele><time>2026-04-18T11:11:08.815Z</time></trkpt><trkpt lat="43.564254" lon="11.3281723"><ele>262.6</ele><time>2026-04-18T11:11:09.814Z</time></trkpt><trkpt lat="43.5642843" lon="11.3280165"><ele>262.20000000000005</ele><time>2026-04-18T11:11:10.815Z</time></trkpt><trkpt lat="43.5643264" lon="11.3278791"><ele>261.8</ele><time>2026-04-18T11:11:11.808Z</time></trkpt><trkpt lat="43.5643837" lon="11.327748"><ele>261.40000000000003</ele><time>2026-04-18T11:11:12.803Z</time></trkpt><trkpt lat="43.564454" lon="11.3276325"><ele>261.0</ele><time>2026-04-18T11:11:13.817Z</time></trkpt><trkpt lat="43.564549" lon="11.3275282"><ele>261.0</ele><time>2026-04-18T11:11:14.807Z</time></trkpt><trkpt lat="43.564651" lon="11.3274289"><ele>261.0</ele><time>2026-04-18T11:11:15.817Z</time></trkpt><trkpt lat="43.5647513" lon="11.3273194"><ele>261.0</ele><time>2026-04-18T11:11:16.821Z</time></trkpt><trkpt lat="43.5648554" lon="11.3272066"><ele>261.0</ele><time>2026-04-18T11:11:17.817Z</time></trkpt><trkpt lat="43.5649592" lon="11.3270921"><ele>259.75</ele><time>2026-04-18T11:11:18.821Z</time></trkpt><trkpt lat="43.5650709" lon="11.3269838"><ele>258.5</ele><time>2026-04-18T11:11:19.818Z</time></trkpt><trkpt lat="43.5651726" lon="11.3268732"><ele>257.25</ele><time>2026-04-18T11:11:20.826Z</time></trkpt><trkpt lat="43.56527" lon="11.3267646"><ele>256.0</ele><time>2026-04-18T11:11:21.824Z</time></trkpt><trkpt lat="43.5653592" lon="11.3266687"><ele>255.75</ele><time>2026-04-18T11:11:22.826Z</time></trkpt><trkpt lat="43.5654579" lon="11.3265582"><ele>255.5</ele><time>2026-04-18T11:11:23.829Z</time></trkpt><trkpt lat="43.5655663" lon="11.3264256"><ele>255.25</ele><time>2026-04-18T11:11:24.825Z</time></trkpt><trkpt lat="43.5656822" lon="11.3262891"><ele>255.0</ele><time>2026-04-18T11:11:25.827Z</time></trkpt><trkpt lat="43.5658028" lon="11.326148"><ele>255.0</ele><time>2026-04-18T11:11:26.824Z</time></trkpt><trkpt lat="43.5659381" lon="11.3260059"><ele>255.0</ele><time>2026-04-18T11:11:27.828Z</time></trkpt><trkpt lat="43.5660675" lon="11.3258601"><ele>255.0</ele><time>2026-04-18T11:11:28.834Z</time></trkpt><trkpt lat="43.5662013" lon="11.3257254"><ele>254.66666666666669</ele><time>2026-04-18T11:11:29.832Z</time></trkpt><trkpt lat="43.5663373" lon="11.3255959"><ele>254.33333333333334</ele><time>2026-04-18T11:11:30.828Z</time></trkpt><trkpt lat="43.566483" lon="11.325473"><ele>254.0</ele><time>2026-04-18T11:11:31.828Z</time></trkpt><trkpt lat="43.5666279" lon="11.3253377"><ele>253.33333333333334</ele><time>2026-04-18T11:11:32.83Z</time></trkpt><trkpt lat="43.5667704" lon="11.3251938"><ele>252.66666666666669</ele><time>2026-04-18T11:11:33.833Z</time></trkpt><trkpt lat="43.5669114" lon="11.3250583"><ele>252.0</ele><time>2026-04-18T11:11:34.833Z</time></trkpt><trkpt lat="43.5670428" lon="11.324938"><ele>252.0</ele><time>2026-04-18T11:11:35.832Z</time></trkpt><trkpt lat="43.5671753" lon="11.3248374"><ele>252.0</ele><time>2026-04-18T11:11:36.833Z</time></trkpt><trkpt lat="43.5673034" lon="11.3247485"><ele>252.0</ele><time>2026-04-18T11:11:37.834Z</time></trkpt><trkpt lat="43.5674209" lon="11.3246703"><ele>252.0</ele><time>2026-04-18T11:11:38.827Z</time></trkpt><trkpt lat="43.5675467" lon="11.324612"><ele>252.0</ele><time>2026-04-18T11:11:39.828Z</time></trkpt><trkpt lat="43.5676711" lon="11.3245805"><ele>252.0</ele><time>2026-04-18T11:11:40.831Z</time></trkpt><trkpt lat="43.5677888" lon="11.3245528"><ele>252.0</ele><time>2026-04-18T11:11:41.829Z</time></trkpt><trkpt lat="43.5678887" lon="11.3245281"><ele>252.0</ele><time>2026-04-18T11:11:42.822Z</time></trkpt><trkpt lat="43.567958" lon="11.3245079"><ele>252.0</ele><time>2026-04-18T11:11:43.822Z</time></trkpt><trkpt lat="43.5680406" lon="11.3244898"><ele>252.0</ele><time>2026-04-18T11:11:45.816Z</time></trkpt><trkpt lat="43.568084" lon="11.3243848"><ele>252.0</ele><time>2026-04-18T11:12:17.828Z</time></trkpt><trkpt lat="43.5681074" lon="11.3242618"><ele>252.0</ele><time>2026-04-18T11:12:19.831Z</time></trkpt><trkpt lat="43.5681365" lon="11.3241032"><ele>252.0</ele><time>2026-04-18T11:12:21.823Z</time></trkpt><trkpt lat="43.5681594" lon="11.324021"><ele>252.0</ele><time>2026-04-18T11:12:22.822Z</time></trkpt><trkpt lat="43.5681864" lon="11.3239307"><ele>252.0</ele><time>2026-04-18T11:12:23.819Z</time></trkpt><trkpt lat="43.5682218" lon="11.323833"><ele>252.66666666666666</ele><time>2026-04-18T11:12:24.821Z</time></trkpt><trkpt lat="43.5682509" lon="11.3237272"><ele>253.33333333333331</ele><time>2026-04-18T11:12:25.836Z</time></trkpt><trkpt lat="43.5682778" lon="11.3236208"><ele>254.0</ele><time>2026-04-18T11:12:26.822Z</time></trkpt><trkpt lat="43.5682995" lon="11.3235233"><ele>254.66666666666666</ele><time>2026-04-18T11:12:27.82Z</time></trkpt><trkpt lat="43.5683248" lon="11.3234368"><ele>255.33333333333331</ele><time>2026-04-18T11:12:28.819Z</time></trkpt><trkpt lat="43.5683718" lon="11.3233355"><ele>256.0</ele><time>2026-04-18T11:12:29.813Z</time></trkpt><trkpt lat="43.5684276" lon="11.3232287"><ele>256.0</ele><time>2026-04-18T11:12:30.819Z</time></trkpt><trkpt lat="43.5684875" lon="11.3231263"><ele>256.0</ele><time>2026-04-18T11:12:31.818Z</time></trkpt><trkpt lat="43.568555" lon="11.323025"><ele>256.0</ele><time>2026-04-18T11:12:32.817Z</time></trkpt><trkpt lat="43.568634" lon="11.3229129"><ele>256.0</ele><time>2026-04-18T11:12:33.816Z</time></trkpt><trkpt lat="43.56872" lon="11.3227906"><ele>256.0</ele><time>2026-04-18T11:12:34.817Z</time></trkpt><trkpt lat="43.5688199" lon="11.3226687"><ele>255.75</ele><time>2026-04-18T11:12:35.828Z</time></trkpt><trkpt lat="43.5689254" lon="11.3225387"><ele>255.5</ele><time>2026-04-18T11:12:36.816Z</time></trkpt><trkpt lat="43.5690086" lon="11.322407"><ele>255.25</ele><time>2026-04-18T11:12:37.817Z</time></trkpt><trkpt lat="43.5690933" lon="11.3222852"><ele>255.0</ele><time>2026-04-18T11:12:38.822Z</time></trkpt><trkpt lat="43.5691754" lon="11.3221647"><ele>256.6</ele><time>2026-04-18T11:12:39.818Z</time></trkpt><trkpt lat="43.5692473" lon="11.3220419"><ele>258.2</ele><time>2026-04-18T11:12:40.813Z</time></trkpt><trkpt lat="43.5693055" lon="11.3219127"><ele>259.8</ele><time>2026-04-18T11:12:41.808Z</time></trkpt><trkpt lat="43.5693475" lon="11.3217748"><ele>261.4</ele><time>2026-04-18T11:12:42.808Z</time></trkpt><trkpt lat="43.5693722" lon="11.3216226"><ele>263.0</ele><time>2026-04-18T11:12:43.815Z</time></trkpt><trkpt lat="43.5693866" lon="11.3214537"><ele>263.8</ele><time>2026-04-18T11:12:44.821Z</time></trkpt><trkpt lat="43.5693927" lon="11.321288"><ele>264.6</ele><time>2026-04-18T11:12:45.83Z</time></trkpt><trkpt lat="43.5693794" lon="11.3211337"><ele>265.4</ele><time>2026-04-18T11:12:46.839Z</time></trkpt><trkpt lat="43.5693553" lon="11.3210039"><ele>266.2</ele><time>2026-04-18T11:12:47.826Z</time></trkpt><trkpt lat="43.5693309" lon="11.3209042"><ele>267.0</ele><time>2026-04-18T11:12:48.818Z</time></trkpt><trkpt lat="43.569313" lon="11.3208192"><ele>267.0</ele><time>2026-04-18T11:12:49.818Z</time></trkpt><trkpt lat="43.5693383" lon="11.3206997"><ele>267.0</ele><time>2026-04-18T11:12:51.804Z</time></trkpt><trkpt lat="43.5694413" lon="11.3205952"><ele>267.0</ele><time>2026-04-18T11:12:53.804Z</time></trkpt><trkpt lat="43.5695268" lon="11.3205549"><ele>267.0</ele><time>2026-04-18T11:12:54.812Z</time></trkpt><trkpt lat="43.5696303" lon="11.3205095"><ele>267.0</ele><time>2026-04-18T11:12:55.83Z</time></trkpt><trkpt lat="43.5697483" lon="11.320481"><ele>265.75</ele><time>2026-04-18T11:12:56.818Z</time></trkpt><trkpt lat="43.569875" lon="11.3204598"><ele>264.5</ele><time>2026-04-18T11:12:57.817Z</time></trkpt><trkpt lat="43.5700047" lon="11.3204324"><ele>263.25</ele><time>2026-04-18T11:12:58.844Z</time></trkpt><trkpt lat="43.5701396" lon="11.3204013"><ele>262.0</ele><time>2026-04-18T11:12:59.906Z</time></trkpt><trkpt lat="43.5702811" lon="11.3203688"><ele>261.25</ele><time>2026-04-18T11:13:00.903Z</time></trkpt><trkpt lat="43.5704214" lon="11.3203342"><ele>260.5</ele><time>2026-04-18T11:13:01.903Z</time></trkpt><trkpt lat="43.5705519" lon="11.3202966"><ele>259.75</ele><time>2026-04-18T11:13:02.896Z</time></trkpt><trkpt lat="43.5706753" lon="11.32025"><ele>259.0</ele><time>2026-04-18T11:13:03.897Z</time></trkpt><trkpt lat="43.5708073" lon="11.3201898"><ele>259.0</ele><time>2026-04-18T11:13:04.907Z</time></trkpt><trkpt lat="43.5709451" lon="11.3201181"><ele>259.0</ele><time>2026-04-18T11:13:05.914Z</time></trkpt><trkpt lat="43.5710964" lon="11.3200361"><ele>259.0</ele><time>2026-04-18T11:13:06.904Z</time></trkpt><trkpt lat="43.5712605" lon="11.3199542"><ele>261.66666666666663</ele><time>2026-04-18T11:13:07.904Z</time></trkpt><trkpt lat="43.5714326" lon="11.3198702"><ele>264.3333333333333</ele><time>2026-04-18T11:13:08.907Z</time></trkpt><trkpt lat="43.5715932" lon="11.3197897"><ele>267.0</ele><time>2026-04-18T11:13:09.908Z</time></trkpt><trkpt lat="43.5717454" lon="11.3196997"><ele>267.0</ele><time>2026-04-18T11:13:10.905Z</time></trkpt><trkpt lat="43.5718907" lon="11.3196298"><ele>267.0</ele><time>2026-04-18T11:13:11.903Z</time></trkpt><trkpt lat="43.5720259" lon="11.3195612"><ele>267.0</ele><time>2026-04-18T11:13:12.908Z</time></trkpt><trkpt lat="43.5721512" lon="11.3194968"><ele>267.0</ele><time>2026-04-18T11:13:13.907Z</time></trkpt><trkpt lat="43.5722692" lon="11.3194363"><ele>264.75</ele><time>2026-04-18T11:13:14.902Z</time></trkpt><trkpt lat="43.5723823" lon="11.3193793"><ele>262.5</ele><time>2026-04-18T11:13:15.916Z</time></trkpt><trkpt lat="43.5724898" lon="11.3193237"><ele>260.25</ele><time>2026-04-18T11:13:16.904Z</time></trkpt><trkpt lat="43.5725947" lon="11.3192722"><ele>258.0</ele><time>2026-04-18T11:13:17.918Z</time></trkpt><trkpt lat="43.5726931" lon="11.3192229"><ele>258.0</ele><time>2026-04-18T11:13:18.902Z</time></trkpt><trkpt lat="43.5727943" lon="11.3191695"><ele>258.0</ele><time>2026-04-18T11:13:19.896Z</time></trkpt><trkpt lat="43.5729057" lon="11.3191137"><ele>258.0</ele><time>2026-04-18T11:13:20.902Z</time></trkpt><trkpt lat="43.5730259" lon="11.3190597"><ele>258.0</ele><time>2026-04-18T11:13:21.902Z</time></trkpt><trkpt lat="43.5731546" lon="11.3190008"><ele>255.0</ele><time>2026-04-18T11:13:22.908Z</time></trkpt><trkpt lat="43.5732922" lon="11.3189347"><ele>252.0</ele><time>2026-04-18T11:13:23.904Z</time></trkpt><trkpt lat="43.5734365" lon="11.3188664"><ele>249.0</ele><time>2026-04-18T11:13:24.898Z</time></trkpt><trkpt lat="43.5735858" lon="11.3187968"><ele>252.0</ele><time>2026-04-18T11:13:25.914Z</time></trkpt><trkpt lat="43.5737418" lon="11.3187217"><ele>255.0</ele><time>2026-04-18T11:13:26.903Z</time></trkpt><trkpt lat="43.573901" lon="11.3186437"><ele>258.0</ele><time>2026-04-18T11:13:27.901Z</time></trkpt><trkpt lat="43.5740678" lon="11.3185625"><ele>258.0</ele><time>2026-04-18T11:13:28.902Z</time></trkpt><trkpt lat="43.5742359" lon="11.3184778"><ele>258.0</ele><time>2026-04-18T11:13:29.898Z</time></trkpt><trkpt lat="43.5744058" lon="11.3183926"><ele>258.0</ele><time>2026-04-18T11:13:30.897Z</time></trkpt><trkpt lat="43.5745749" lon="11.3183047"><ele>258.0</ele><time>2026-04-18T11:13:31.902Z</time></trkpt><trkpt lat="43.5747359" lon="11.318216"><ele>258.0</ele><time>2026-04-18T11:13:32.906Z</time></trkpt><trkpt lat="43.5748903" lon="11.3181281"><ele>258.0</ele><time>2026-04-18T11:13:33.892Z</time></trkpt><trkpt lat="43.5750364" lon="11.3180528"><ele>258.0</ele><time>2026-04-18T11:13:34.904Z</time></trkpt><trkpt lat="43.5751755" lon="11.3179867"><ele>258.0</ele><time>2026-04-18T11:13:35.918Z</time></trkpt><trkpt lat="43.5753001" lon="11.3179139"><ele>258.0</ele><time>2026-04-18T11:13:36.903Z</time></trkpt><trkpt lat="43.5754198" lon="11.31785"><ele>258.0</ele><time>2026-04-18T11:13:37.917Z</time></trkpt><trkpt lat="43.5755348" lon="11.3177904"><ele>255.2</ele><time>2026-04-18T11:13:38.917Z</time></trkpt><trkpt lat="43.5756447" lon="11.317733"><ele>252.4</ele><time>2026-04-18T11:13:39.92Z</time></trkpt><trkpt lat="43.5757478" lon="11.3176789"><ele>249.59999999999997</ele><time>2026-04-18T11:13:40.918Z</time></trkpt><trkpt lat="43.575847" lon="11.3176314"><ele>246.79999999999998</ele><time>2026-04-18T11:13:41.919Z</time></trkpt><trkpt lat="43.5759425" lon="11.317583"><ele>244.0</ele><time>2026-04-18T11:13:42.918Z</time></trkpt><trkpt lat="43.576037" lon="11.3175351"><ele>244.0</ele><time>2026-04-18T11:13:43.919Z</time></trkpt><trkpt lat="43.57613" lon="11.3174868"><ele>243.99999999999997</ele><time>2026-04-18T11:13:44.915Z</time></trkpt><trkpt lat="43.5762349" lon="11.3174378"><ele>243.99999999999997</ele><time>2026-04-18T11:13:45.926Z</time></trkpt><trkpt lat="43.5763431" lon="11.3173955"><ele>244.0</ele><time>2026-04-18T11:13:46.917Z</time></trkpt><trkpt lat="43.5764604" lon="11.3173442"><ele>244.0</ele><time>2026-04-18T11:13:47.902Z</time></trkpt><trkpt lat="43.5765813" lon="11.3172879"><ele>244.0</ele><time>2026-04-18T11:13:48.91Z</time></trkpt><trkpt lat="43.576702" lon="11.317224"><ele>244.0</ele><time>2026-04-18T11:13:49.893Z</time></trkpt><trkpt lat="43.5768275" lon="11.3171619"><ele>244.0</ele><time>2026-04-18T11:13:50.899Z</time></trkpt><trkpt lat="43.5769559" lon="11.3171025"><ele>244.0</ele><time>2026-04-18T11:13:51.916Z</time></trkpt><trkpt lat="43.5770844" lon="11.3170438"><ele>244.0</ele><time>2026-04-18T11:13:52.92Z</time></trkpt><trkpt lat="43.5772088" lon="11.3169908"><ele>244.0</ele><time>2026-04-18T11:13:53.917Z</time></trkpt><trkpt lat="43.5773271" lon="11.3169448"><ele>244.0</ele><time>2026-04-18T11:13:54.921Z</time></trkpt><trkpt lat="43.5774413" lon="11.316901"><ele>244.0</ele><time>2026-04-18T11:13:55.932Z</time></trkpt><trkpt lat="43.5775499" lon="11.3168608"><ele>244.0</ele><time>2026-04-18T11:13:56.91Z</time></trkpt><trkpt lat="43.5776598" lon="11.3168228"><ele>244.0</ele><time>2026-04-18T11:13:57.917Z</time></trkpt><trkpt lat="43.5777715" lon="11.3167822"><ele>244.0</ele><time>2026-04-18T11:13:58.917Z</time></trkpt><trkpt lat="43.5778887" lon="11.3167422"><ele>244.0</ele><time>2026-04-18T11:13:59.916Z</time></trkpt><trkpt lat="43.5780092" lon="11.316701"><ele>243.0</ele><time>2026-04-18T11:14:00.914Z</time></trkpt><trkpt lat="43.5781329" lon="11.3166575"><ele>242.0</ele><time>2026-04-18T11:14:01.909Z</time></trkpt><trkpt lat="43.5782638" lon="11.3166154"><ele>241.0</ele><time>2026-04-18T11:14:02.908Z</time></trkpt><trkpt lat="43.5783968" lon="11.3165799"><ele>240.0</ele><time>2026-04-18T11:14:03.906Z</time></trkpt><trkpt lat="43.5785356" lon="11.3165642"><ele>240.0</ele><time>2026-04-18T11:14:04.901Z</time></trkpt><trkpt lat="43.5786841" lon="11.3165704"><ele>240.0</ele><time>2026-04-18T11:14:05.909Z</time></trkpt><trkpt lat="43.5788337" lon="11.3165989"><ele>240.0</ele><time>2026-04-18T11:14:06.882Z</time></trkpt><trkpt lat="43.5789841" lon="11.3166385"><ele>239.75</ele><time>2026-04-18T11:14:07.888Z</time></trkpt><trkpt lat="43.5791263" lon="11.3166789"><ele>239.5</ele><time>2026-04-18T11:14:08.884Z</time></trkpt><trkpt lat="43.5792646" lon="11.3167236"><ele>239.25</ele><time>2026-04-18T11:14:09.886Z</time></trkpt><trkpt lat="43.5793986" lon="11.3167731"><ele>239.0</ele><time>2026-04-18T11:14:10.911Z</time></trkpt><trkpt lat="43.5795255" lon="11.316825"><ele>240.0</ele><time>2026-04-18T11:14:11.917Z</time></trkpt><trkpt lat="43.5796599" lon="11.3168784"><ele>241.0</ele><time>2026-04-18T11:14:12.908Z</time></trkpt><trkpt lat="43.5797971" lon="11.3169315"><ele>242.0</ele><time>2026-04-18T11:14:13.919Z</time></trkpt><trkpt lat="43.5799274" lon="11.31698"><ele>243.0</ele><time>2026-04-18T11:14:14.919Z</time></trkpt><trkpt lat="43.5800475" lon="11.3170468"><ele>243.0</ele><time>2026-04-18T11:14:15.924Z</time></trkpt><trkpt lat="43.5801628" lon="11.3171409"><ele>243.0</ele><time>2026-04-18T11:14:16.922Z</time></trkpt><trkpt lat="43.5802791" lon="11.3172574"><ele>243.0</ele><time>2026-04-18T11:14:17.903Z</time></trkpt><trkpt lat="43.5804053" lon="11.3173776"><ele>243.0</ele><time>2026-04-18T11:14:18.896Z</time></trkpt><trkpt lat="43.5805452" lon="11.3175018"><ele>241.0</ele><time>2026-04-18T11:14:19.908Z</time></trkpt><trkpt lat="43.5806879" lon="11.3176195"><ele>239.0</ele><time>2026-04-18T11:14:20.893Z</time></trkpt><trkpt lat="43.5808196" lon="11.3177413"><ele>237.0</ele><time>2026-04-18T11:14:21.913Z</time></trkpt><trkpt lat="43.5809425" lon="11.3178416"><ele>237.0</ele><time>2026-04-18T11:14:22.908Z</time></trkpt><trkpt lat="43.5810677" lon="11.3178894"><ele>237.0</ele><time>2026-04-18T11:14:23.902Z</time></trkpt><trkpt lat="43.5812008" lon="11.3178867"><ele>237.0</ele><time>2026-04-18T11:14:24.903Z</time></trkpt><trkpt lat="43.5813112" lon="11.3178915"><ele>237.0</ele><time>2026-04-18T11:14:25.902Z</time></trkpt><trkpt lat="43.5814368" lon="11.3178904"><ele>237.5</ele><time>2026-04-18T11:14:26.89Z</time></trkpt><trkpt lat="43.5815652" lon="11.3178707"><ele>238.0</ele><time>2026-04-18T11:14:27.89Z</time></trkpt><trkpt lat="43.5816957" lon="11.3178903"><ele>238.5</ele><time>2026-04-18T11:14:28.895Z</time></trkpt><trkpt lat="43.5818283" lon="11.3179091"><ele>239.0</ele><time>2026-04-18T11:14:29.905Z</time></trkpt><trkpt lat="43.5819683" lon="11.3179577"><ele>238.25</ele><time>2026-04-18T11:14:30.909Z</time></trkpt><trkpt lat="43.5821041" lon="11.3179702"><ele>237.5</ele><time>2026-04-18T11:14:31.913Z</time></trkpt><trkpt lat="43.5822298" lon="11.3179717"><ele>236.75</ele><time>2026-04-18T11:14:32.916Z</time></trkpt><trkpt lat="43.5823423" lon="11.3179507"><ele>236.0</ele><time>2026-04-18T11:14:33.898Z</time></trkpt><trkpt lat="43.5824443" lon="11.3179018"><ele>236.00000000000003</ele><time>2026-04-18T11:14:34.894Z</time></trkpt><trkpt lat="43.5825378" lon="11.317849"><ele>236.0</ele><time>2026-04-18T11:14:35.895Z</time></trkpt><trkpt lat="43.5826175" lon="11.3178044"><ele>236.0</ele><time>2026-04-18T11:14:36.896Z</time></trkpt><trkpt lat="43.5826798" lon="11.3177678"><ele>236.0</ele><time>2026-04-18T11:14:37.914Z</time></trkpt><trkpt lat="43.5827542" lon="11.3177258"><ele>236.00000000000003</ele><time>2026-04-18T11:14:39.91Z</time></trkpt><trkpt lat="43.5826939" lon="11.3177827"><ele>236.0</ele><time>2026-04-18T11:15:00.903Z</time></trkpt><trkpt lat="43.5827527" lon="11.3177332"><ele>236.00000000000003</ele><time>2026-04-18T11:15:03.894Z</time></trkpt><trkpt lat="43.5828404" lon="11.3176824"><ele>236.0</ele><time>2026-04-18T11:15:05.888Z</time></trkpt><trkpt lat="43.5828989" lon="11.3176399"><ele>236.0</ele><time>2026-04-18T11:15:06.877Z</time></trkpt><trkpt lat="43.5829955" lon="11.3176218"><ele>236.0</ele><time>2026-04-18T11:15:07.885Z</time></trkpt><trkpt lat="43.5830648" lon="11.3175686"><ele>236.00000000000003</ele><time>2026-04-18T11:15:08.908Z</time></trkpt><trkpt lat="43.5831299" lon="11.3175057"><ele>236.0</ele><time>2026-04-18T11:15:09.878Z</time></trkpt><trkpt lat="43.5831868" lon="11.317444"><ele>235.60000000000002</ele><time>2026-04-18T11:15:10.876Z</time></trkpt><trkpt lat="43.5832741" lon="11.3173719"><ele>235.20000000000002</ele><time>2026-04-18T11:15:11.876Z</time></trkpt><trkpt lat="43.5833442" lon="11.317294"><ele>234.79999999999998</ele><time>2026-04-18T11:15:12.876Z</time></trkpt><trkpt lat="43.5834227" lon="11.3171999"><ele>234.39999999999998</ele><time>2026-04-18T11:15:13.894Z</time></trkpt><trkpt lat="43.5834911" lon="11.317097"><ele>234.0</ele><time>2026-04-18T11:15:14.89Z</time></trkpt><trkpt lat="43.5835475" lon="11.3169932"><ele>234.0</ele><time>2026-04-18T11:15:15.896Z</time></trkpt><trkpt lat="43.5836044" lon="11.3168882"><ele>233.99999999999997</ele><time>2026-04-18T11:15:16.874Z</time></trkpt><trkpt lat="43.5836558" lon="11.3167813"><ele>233.99999999999997</ele><time>2026-04-18T11:15:17.878Z</time></trkpt><trkpt lat="43.5837075" lon="11.316666"><ele>234.0</ele><time>2026-04-18T11:15:18.881Z</time></trkpt><trkpt lat="43.5837565" lon="11.3165527"><ele>234.0</ele><time>2026-04-18T11:15:19.875Z</time></trkpt><trkpt lat="43.5838044" lon="11.3164412"><ele>233.39999999999998</ele><time>2026-04-18T11:15:20.897Z</time></trkpt><trkpt lat="43.5838532" lon="11.3163317"><ele>232.79999999999998</ele><time>2026-04-18T11:15:21.911Z</time></trkpt><trkpt lat="43.5838998" lon="11.3162267"><ele>232.20000000000002</ele><time>2026-04-18T11:15:22.892Z</time></trkpt><trkpt lat="43.5839506" lon="11.3161184"><ele>231.60000000000002</ele><time>2026-04-18T11:15:23.897Z</time></trkpt><trkpt lat="43.5840045" lon="11.3160118"><ele>231.0</ele><time>2026-04-18T11:15:24.895Z</time></trkpt><trkpt lat="43.5840648" lon="11.3158998"><ele>231.0</ele><time>2026-04-18T11:15:25.899Z</time></trkpt><trkpt lat="43.5841366" lon="11.3157941"><ele>231.00000000000003</ele><time>2026-04-18T11:15:26.89Z</time></trkpt><trkpt lat="43.5842225" lon="11.3157042"><ele>231.00000000000003</ele><time>2026-04-18T11:15:27.887Z</time></trkpt><trkpt lat="43.5843197" lon="11.3156262"><ele>231.0</ele><time>2026-04-18T11:15:28.865Z</time></trkpt><trkpt lat="43.5844266" lon="11.3155603"><ele>231.0</ele><time>2026-04-18T11:15:29.871Z</time></trkpt><trkpt lat="43.5845397" lon="11.3155052"><ele>230.75</ele><time>2026-04-18T11:15:30.874Z</time></trkpt><trkpt lat="43.5846565" lon="11.3154652"><ele>230.5</ele><time>2026-04-18T11:15:31.874Z</time></trkpt><trkpt lat="43.584774" lon="11.3154313"><ele>230.25</ele><time>2026-04-18T11:15:32.9Z</time></trkpt><trkpt lat="43.58489" lon="11.3153918"><ele>230.0</ele><time>2026-04-18T11:15:33.895Z</time></trkpt><trkpt lat="43.5850083" lon="11.3153588"><ele>230.0</ele><time>2026-04-18T11:15:34.874Z</time></trkpt><trkpt lat="43.58514" lon="11.3153266"><ele>230.0</ele><time>2026-04-18T11:15:35.87Z</time></trkpt><trkpt lat="43.5852866" lon="11.315301"><ele>230.0</ele><time>2026-04-18T11:15:36.87Z</time></trkpt><trkpt lat="43.585435" lon="11.3152792"><ele>230.0</ele><time>2026-04-18T11:15:37.869Z</time></trkpt><trkpt lat="43.5855652" lon="11.315263"><ele>229.66666666666669</ele><time>2026-04-18T11:15:38.906Z</time></trkpt><trkpt lat="43.5856724" lon="11.3152392"><ele>229.33333333333334</ele><time>2026-04-18T11:15:39.882Z</time></trkpt><trkpt lat="43.5857615" lon="11.3152181"><ele>229.0</ele><time>2026-04-18T11:15:40.888Z</time></trkpt><trkpt lat="43.5858325" lon="11.3151998"><ele>228.66666666666669</ele><time>2026-04-18T11:15:41.886Z</time></trkpt><trkpt lat="43.5859364" lon="11.3151705"><ele>228.33333333333334</ele><time>2026-04-18T11:15:43.89Z</time></trkpt><trkpt lat="43.5859997" lon="11.3151504"><ele>228.0</ele><time>2026-04-18T11:15:45.911Z</time></trkpt><trkpt lat="43.5860631" lon="11.3151347"><ele>228.0</ele><time>2026-04-18T11:15:52.91Z</time></trkpt><trkpt lat="43.5861296" lon="11.3151049"><ele>228.0</ele><time>2026-04-18T11:16:07.892Z</time></trkpt><trkpt lat="43.5862061" lon="11.3150957"><ele>228.0</ele><time>2026-04-18T11:16:09.879Z</time></trkpt><trkpt lat="43.5862837" lon="11.3150581"><ele>228.0</ele><time>2026-04-18T11:16:10.879Z</time></trkpt><trkpt lat="43.586369" lon="11.3150266"><ele>228.0</ele><time>2026-04-18T11:16:11.886Z</time></trkpt><trkpt lat="43.5864602" lon="11.3150081"><ele>228.0</ele><time>2026-04-18T11:16:12.894Z</time></trkpt><trkpt lat="43.5865422" lon="11.3149913"><ele>228.0</ele><time>2026-04-18T11:16:13.891Z</time></trkpt><trkpt lat="43.5866176" lon="11.3149699"><ele>228.0</ele><time>2026-04-18T11:16:14.896Z</time></trkpt><trkpt lat="43.586723" lon="11.3149809"><ele>228.0</ele><time>2026-04-18T11:16:15.892Z</time></trkpt><trkpt lat="43.5868192" lon="11.3149592"><ele>228.0</ele><time>2026-04-18T11:16:16.898Z</time></trkpt><trkpt lat="43.5869232" lon="11.3149367"><ele>228.0</ele><time>2026-04-18T11:16:17.899Z</time></trkpt><trkpt lat="43.5870446" lon="11.3149272"><ele>227.75</ele><time>2026-04-18T11:16:18.895Z</time></trkpt><trkpt lat="43.5871635" lon="11.3149133"><ele>227.5</ele><time>2026-04-18T11:16:19.894Z</time></trkpt><trkpt lat="43.5872842" lon="11.3149027"><ele>227.25</ele><time>2026-04-18T11:16:20.897Z</time></trkpt><trkpt lat="43.5874076" lon="11.3148895"><ele>227.0</ele><time>2026-04-18T11:16:21.892Z</time></trkpt><trkpt lat="43.5875326" lon="11.3148734"><ele>227.0</ele><time>2026-04-18T11:16:22.895Z</time></trkpt><trkpt lat="43.5876569" lon="11.3148565"><ele>227.0</ele><time>2026-04-18T11:16:23.911Z</time></trkpt><trkpt lat="43.5877819" lon="11.3148377"><ele>227.0</ele><time>2026-04-18T11:16:24.9Z</time></trkpt><trkpt lat="43.5879108" lon="11.3148186"><ele>227.0</ele><time>2026-04-18T11:16:25.899Z</time></trkpt><trkpt lat="43.588049" lon="11.3148004"><ele>227.0</ele><time>2026-04-18T11:16:26.899Z</time></trkpt><trkpt lat="43.588194" lon="11.3147765"><ele>227.0</ele><time>2026-04-18T11:16:27.902Z</time></trkpt><trkpt lat="43.5883523" lon="11.3147524"><ele>227.0</ele><time>2026-04-18T11:16:28.899Z</time></trkpt><trkpt lat="43.5885241" lon="11.3147257"><ele>226.33333333333334</ele><time>2026-04-18T11:16:29.894Z</time></trkpt><trkpt lat="43.5887084" lon="11.3146931"><ele>225.66666666666669</ele><time>2026-04-18T11:16:30.899Z</time></trkpt><trkpt lat="43.588901" lon="11.3146604"><ele>225.0</ele><time>2026-04-18T11:16:31.903Z</time></trkpt><trkpt lat="43.5891036" lon="11.314629"><ele>225.0</ele><time>2026-04-18T11:16:32.904Z</time></trkpt><trkpt lat="43.5893118" lon="11.3145928"><ele>225.0</ele><time>2026-04-18T11:16:33.9Z</time></trkpt><trkpt lat="43.5895132" lon="11.3145557"><ele>225.0</ele><time>2026-04-18T11:16:34.898Z</time></trkpt><trkpt lat="43.5897043" lon="11.3145178"><ele>224.33333333333331</ele><time>2026-04-18T11:16:35.889Z</time></trkpt><trkpt lat="43.5898809" lon="11.3144811"><ele>223.66666666666666</ele><time>2026-04-18T11:16:36.898Z</time></trkpt><trkpt lat="43.5900456" lon="11.3144539"><ele>223.0</ele><time>2026-04-18T11:16:37.891Z</time></trkpt><trkpt lat="43.5902099" lon="11.3144287"><ele>222.75</ele><time>2026-04-18T11:16:38.893Z</time></trkpt><trkpt lat="43.5903657" lon="11.3144018"><ele>222.5</ele><time>2026-04-18T11:16:39.897Z</time></trkpt><trkpt lat="43.5905052" lon="11.3143935"><ele>222.25</ele><time>2026-04-18T11:16:40.808Z</time></trkpt><trkpt lat="43.590634" lon="11.3144103"><ele>222.0</ele><time>2026-04-18T11:16:41.804Z</time></trkpt><trkpt lat="43.5907544" lon="11.3144302"><ele>222.0</ele><time>2026-04-18T11:16:42.81Z</time></trkpt><trkpt lat="43.5908717" lon="11.3144648"><ele>222.0</ele><time>2026-04-18T11:16:43.811Z</time></trkpt><trkpt lat="43.5910018" lon="11.3144961"><ele>222.0</ele><time>2026-04-18T11:16:44.807Z</time></trkpt><trkpt lat="43.5911543" lon="11.3145307"><ele>222.0</ele><time>2026-04-18T11:16:45.804Z</time></trkpt><trkpt lat="43.5913179" lon="11.314598"><ele>222.0</ele><time>2026-04-18T11:16:46.797Z</time></trkpt><trkpt lat="43.5914755" lon="11.3147032"><ele>222.0</ele><time>2026-04-18T11:16:47.81Z</time></trkpt><trkpt lat="43.591616" lon="11.3148162"><ele>222.0</ele><time>2026-04-18T11:16:48.81Z</time></trkpt><trkpt lat="43.5917444" lon="11.3149184"><ele>222.0</ele><time>2026-04-18T11:16:49.801Z</time></trkpt><trkpt lat="43.5918486" lon="11.3150032"><ele>222.0</ele><time>2026-04-18T11:16:50.795Z</time></trkpt><trkpt lat="43.5919287" lon="11.3150934"><ele>222.0</ele><time>2026-04-18T11:16:51.804Z</time></trkpt><trkpt lat="43.591986" lon="11.3151868"><ele>222.0</ele><time>2026-04-18T11:16:52.804Z</time></trkpt><trkpt lat="43.5920728" lon="11.3152448"><ele>222.0</ele><time>2026-04-18T11:16:53.813Z</time></trkpt><trkpt lat="43.5921845" lon="11.3152796"><ele>221.66666666666669</ele><time>2026-04-18T11:16:54.82Z</time></trkpt><trkpt lat="43.5923147" lon="11.3153501"><ele>221.33333333333334</ele><time>2026-04-18T11:16:55.814Z</time></trkpt><trkpt lat="43.5924861" lon="11.3154519"><ele>221.0</ele><time>2026-04-18T11:16:56.795Z</time></trkpt><trkpt lat="43.5926783" lon="11.3155718"><ele>222.5</ele><time>2026-04-18T11:16:57.802Z</time></trkpt><trkpt lat="43.5928989" lon="11.3156897"><ele>224.0</ele><time>2026-04-18T11:16:58.79Z</time></trkpt><trkpt lat="43.5931549" lon="11.3157967"><ele>224.0</ele><time>2026-04-18T11:16:59.796Z</time></trkpt><trkpt lat="43.5934221" lon="11.3159178"><ele>224.0</ele><time>2026-04-18T11:17:00.809Z</time></trkpt><trkpt lat="43.5936861" lon="11.3160701"><ele>222.0</ele><time>2026-04-18T11:17:01.806Z</time></trkpt><trkpt lat="43.593951" lon="11.3162652"><ele>220.0</ele><time>2026-04-18T11:17:02.802Z</time></trkpt><trkpt lat="43.5941644" lon="11.316428"><ele>220.66666666666666</ele><time>2026-04-18T11:17:03.806Z</time></trkpt><trkpt lat="43.5943633" lon="11.3165763"><ele>221.33333333333331</ele><time>2026-04-18T11:17:04.805Z</time></trkpt><trkpt lat="43.5945427" lon="11.3166976"><ele>222.0</ele><time>2026-04-18T11:17:05.803Z</time></trkpt><trkpt lat="43.594721" lon="11.31674"><ele>222.0</ele><time>2026-04-18T11:17:06.808Z</time></trkpt><trkpt lat="43.594903" lon="11.3167283"><ele>222.0</ele><time>2026-04-18T11:17:07.8Z</time></trkpt><trkpt lat="43.5951213" lon="11.3166972"><ele>222.0</ele><time>2026-04-18T11:17:08.791Z</time></trkpt><trkpt lat="43.5953523" lon="11.3166729"><ele>220.66666666666669</ele><time>2026-04-18T11:17:09.782Z</time></trkpt><trkpt lat="43.5955814" lon="11.316691"><ele>219.33333333333334</ele><time>2026-04-18T11:17:10.782Z</time></trkpt><trkpt lat="43.5957887" lon="11.3167536"><ele>218.0</ele><time>2026-04-18T11:17:11.8Z</time></trkpt><trkpt lat="43.5959547" lon="11.3168287"><ele>218.0</ele><time>2026-04-18T11:17:12.803Z</time></trkpt><trkpt lat="43.5960983" lon="11.3168897"><ele>218.0</ele><time>2026-04-18T11:17:13.8Z</time></trkpt><trkpt lat="43.5962248" lon="11.3169377"><ele>218.0</ele><time>2026-04-18T11:17:14.816Z</time></trkpt><trkpt lat="43.5963511" lon="11.316965"><ele>218.0</ele><time>2026-04-18T11:17:15.81Z</time></trkpt><trkpt lat="43.5964713" lon="11.316979"><ele>218.0</ele><time>2026-04-18T11:17:16.806Z</time></trkpt><trkpt lat="43.5965828" lon="11.3169717"><ele>218.0</ele><time>2026-04-18T11:17:17.801Z</time></trkpt><trkpt lat="43.5966925" lon="11.3169595"><ele>218.0</ele><time>2026-04-18T11:17:18.805Z</time></trkpt><trkpt lat="43.5968314" lon="11.3169208"><ele>218.0</ele><time>2026-04-18T11:17:19.798Z</time></trkpt><trkpt lat="43.5969779" lon="11.3168693"><ele>218.66666666666669</ele><time>2026-04-18T11:17:20.804Z</time></trkpt><trkpt lat="43.5971247" lon="11.3167793"><ele>219.33333333333331</ele><time>2026-04-18T11:17:21.805Z</time></trkpt><trkpt lat="43.5972625" lon="11.3166929"><ele>220.0</ele><time>2026-04-18T11:17:22.807Z</time></trkpt><trkpt lat="43.5973975" lon="11.3165994"><ele>220.0</ele><time>2026-04-18T11:17:23.812Z</time></trkpt><trkpt lat="43.5975186" lon="11.3165191"><ele>220.0</ele><time>2026-04-18T11:17:24.809Z</time></trkpt><trkpt lat="43.5976213" lon="11.3164498"><ele>220.0</ele><time>2026-04-18T11:17:25.828Z</time></trkpt><trkpt lat="43.5977236" lon="11.3163821"><ele>220.0</ele><time>2026-04-18T11:17:26.809Z</time></trkpt><trkpt lat="43.5978324" lon="11.3162901"><ele>220.0</ele><time>2026-04-18T11:17:27.805Z</time></trkpt><trkpt lat="43.5979488" lon="11.316166"><ele>220.0</ele><time>2026-04-18T11:17:28.801Z</time></trkpt><trkpt lat="43.5980645" lon="11.3160054"><ele>220.0</ele><time>2026-04-18T11:17:29.805Z</time></trkpt><trkpt lat="43.5981676" lon="11.3158312"><ele>220.0</ele><time>2026-04-18T11:17:30.801Z</time></trkpt><trkpt lat="43.5982713" lon="11.3156452"><ele>220.0</ele><time>2026-04-18T11:17:31.801Z</time></trkpt><trkpt lat="43.5983723" lon="11.3154627"><ele>220.0</ele><time>2026-04-18T11:17:32.812Z</time></trkpt><trkpt lat="43.5984693" lon="11.3152946"><ele>219.25</ele><time>2026-04-18T11:17:33.807Z</time></trkpt><trkpt lat="43.5985571" lon="11.3151308"><ele>218.5</ele><time>2026-04-18T11:17:34.813Z</time></trkpt><trkpt lat="43.5986441" lon="11.3149759"><ele>217.75</ele><time>2026-04-18T11:17:35.805Z</time></trkpt><trkpt lat="43.5987274" lon="11.3148282"><ele>217.0</ele><time>2026-04-18T11:17:36.813Z</time></trkpt><trkpt lat="43.5988069" lon="11.3146885"><ele>217.0</ele><time>2026-04-18T11:17:37.808Z</time></trkpt><trkpt lat="43.5988866" lon="11.3145475"><ele>217.0</ele><time>2026-04-18T11:17:38.803Z</time></trkpt><trkpt lat="43.5989743" lon="11.3143981"><ele>217.0</ele><time>2026-04-18T11:17:39.799Z</time></trkpt><trkpt lat="43.5990655" lon="11.3142192"><ele>217.0</ele><time>2026-04-18T11:17:40.802Z</time></trkpt><trkpt lat="43.5991646" lon="11.3140239"><ele>216.0</ele><time>2026-04-18T11:17:41.805Z</time></trkpt><trkpt lat="43.5992737" lon="11.3138265"><ele>215.0</ele><time>2026-04-18T11:17:42.809Z</time></trkpt><trkpt lat="43.5993868" lon="11.313626"><ele>214.0</ele><time>2026-04-18T11:17:43.808Z</time></trkpt><trkpt lat="43.5994991" lon="11.3134065"><ele>213.66666666666666</ele><time>2026-04-18T11:17:44.807Z</time></trkpt><trkpt lat="43.5996162" lon="11.3131812"><ele>213.33333333333331</ele><time>2026-04-18T11:17:45.808Z</time></trkpt><trkpt lat="43.5997474" lon="11.312959"><ele>213.0</ele><time>2026-04-18T11:17:46.811Z</time></trkpt><trkpt lat="43.5998866" lon="11.3127216"><ele>213.0</ele><time>2026-04-18T11:17:47.814Z</time></trkpt><trkpt lat="43.6000135" lon="11.3124802"><ele>213.0</ele><time>2026-04-18T11:17:48.813Z</time></trkpt><trkpt lat="43.6001391" lon="11.31223"><ele>213.0</ele><time>2026-04-18T11:17:49.812Z</time></trkpt><trkpt lat="43.6002746" lon="11.3119653"><ele>213.66666666666669</ele><time>2026-04-18T11:17:50.814Z</time></trkpt><trkpt lat="43.6004141" lon="11.3117149"><ele>214.33333333333334</ele><time>2026-04-18T11:17:51.814Z</time></trkpt><trkpt lat="43.6005448" lon="11.3114877"><ele>215.0</ele><time>2026-04-18T11:17:52.807Z</time></trkpt><trkpt lat="43.6006623" lon="11.3112799"><ele>215.0</ele><time>2026-04-18T11:17:53.808Z</time></trkpt><trkpt lat="43.6007792" lon="11.3110895"><ele>215.0</ele><time>2026-04-18T11:17:54.798Z</time></trkpt><trkpt lat="43.6009099" lon="11.3109297"><ele>215.0</ele><time>2026-04-18T11:17:55.813Z</time></trkpt><trkpt lat="43.6010652" lon="11.3107892"><ele>214.0</ele><time>2026-04-18T11:17:56.818Z</time></trkpt><trkpt lat="43.601251" lon="11.3106729"><ele>213.0</ele><time>2026-04-18T11:17:57.803Z</time></trkpt><trkpt lat="43.6014527" lon="11.3105629"><ele>212.0</ele><time>2026-04-18T11:17:58.797Z</time></trkpt><trkpt lat="43.601667" lon="11.3104468"><ele>212.0</ele><time>2026-04-18T11:17:59.795Z</time></trkpt><trkpt lat="43.601888" lon="11.310317"><ele>212.0</ele><time>2026-04-18T11:18:00.803Z</time></trkpt><trkpt lat="43.6021161" lon="11.3101828"><ele>213.0</ele><time>2026-04-18T11:18:01.8Z</time></trkpt><trkpt lat="43.6023539" lon="11.3100442"><ele>214.0</ele><time>2026-04-18T11:18:02.802Z</time></trkpt><trkpt lat="43.6026097" lon="11.3099048"><ele>213.5</ele><time>2026-04-18T11:18:03.81Z</time></trkpt><trkpt lat="43.6028532" lon="11.3097747"><ele>213.0</ele><time>2026-04-18T11:18:04.796Z</time></trkpt><trkpt lat="43.6030798" lon="11.3096522"><ele>213.0</ele><time>2026-04-18T11:18:05.798Z</time></trkpt><trkpt lat="43.6032741" lon="11.3095411"><ele>213.0</ele><time>2026-04-18T11:18:06.802Z</time></trkpt><trkpt lat="43.6034548" lon="11.309442"><ele>213.0</ele><time>2026-04-18T11:18:07.792Z</time></trkpt><trkpt lat="43.6036148" lon="11.3093524"><ele>213.75</ele><time>2026-04-18T11:18:08.79Z</time></trkpt><trkpt lat="43.6037372" lon="11.3092528"><ele>214.5</ele><time>2026-04-18T11:18:09.806Z</time></trkpt><trkpt lat="43.6038524" lon="11.3091307"><ele>215.25</ele><time>2026-04-18T11:18:10.797Z</time></trkpt><trkpt lat="43.6039278" lon="11.3090098"><ele>216.0</ele><time>2026-04-18T11:18:11.815Z</time></trkpt><trkpt lat="43.6039877" lon="11.3088891"><ele>216.0</ele><time>2026-04-18T11:18:12.805Z</time></trkpt><trkpt lat="43.60403" lon="11.3087719"><ele>216.0</ele><time>2026-04-18T11:18:13.808Z</time></trkpt><trkpt lat="43.6040607" lon="11.3086766"><ele>216.0</ele><time>2026-04-18T11:18:14.806Z</time></trkpt><trkpt lat="43.6040916" lon="11.3085995"><ele>216.0</ele><time>2026-04-18T11:18:15.813Z</time></trkpt><trkpt lat="43.6041523" lon="11.3084964"><ele>216.0</ele><time>2026-04-18T11:18:17.807Z</time></trkpt><trkpt lat="43.6042075" lon="11.3084251"><ele>216.0</ele><time>2026-04-18T11:18:37.827Z</time></trkpt><trkpt lat="43.6042407" lon="11.308328"><ele>216.0</ele><time>2026-04-18T11:18:39.822Z</time></trkpt><trkpt lat="43.6042707" lon="11.3081746"><ele>216.00000000000003</ele><time>2026-04-18T11:18:41.813Z</time></trkpt><trkpt lat="43.6042709" lon="11.3080838"><ele>216.00000000000003</ele><time>2026-04-18T11:18:42.818Z</time></trkpt><trkpt lat="43.6042984" lon="11.3079432"><ele>216.0</ele><time>2026-04-18T11:18:44.808Z</time></trkpt><trkpt lat="43.6043782" lon="11.3078578"><ele>216.0</ele><time>2026-04-18T11:18:46.819Z</time></trkpt><trkpt lat="43.6044955" lon="11.3078876"><ele>217.33333333333334</ele><time>2026-04-18T11:18:48.815Z</time></trkpt><trkpt lat="43.6045593" lon="11.3079326"><ele>218.66666666666669</ele><time>2026-04-18T11:18:49.813Z</time></trkpt><trkpt lat="43.6046274" lon="11.3079609"><ele>220.0</ele><time>2026-04-18T11:18:50.814Z</time></trkpt><trkpt lat="43.6047013" lon="11.30798"><ele>221.33333333333334</ele><time>2026-04-18T11:18:51.815Z</time></trkpt><trkpt lat="43.604779" lon="11.307985"><ele>222.66666666666669</ele><time>2026-04-18T11:18:52.813Z</time></trkpt><trkpt lat="43.6048567" lon="11.3079757"><ele>224.0</ele><time>2026-04-18T11:18:53.816Z</time></trkpt><trkpt lat="43.6049327" lon="11.3079675"><ele>224.00000000000003</ele><time>2026-04-18T11:18:54.812Z</time></trkpt><trkpt lat="43.6050095" lon="11.3079505"><ele>224.0</ele><time>2026-04-18T11:18:55.808Z</time></trkpt><trkpt lat="43.6050777" lon="11.3079239"><ele>224.0</ele><time>2026-04-18T11:18:56.815Z</time></trkpt><trkpt lat="43.6052022" lon="11.307934"><ele>224.0</ele><time>2026-04-18T11:18:58.845Z</time></trkpt><trkpt lat="43.605275" lon="11.3079807"><ele>224.00000000000003</ele><time>2026-04-18T11:18:59.818Z</time></trkpt><trkpt lat="43.6053387" lon="11.3080467"><ele>224.0</ele><time>2026-04-18T11:19:00.824Z</time></trkpt><trkpt lat="43.6054059" lon="11.308123"><ele>224.50000000000003</ele><time>2026-04-18T11:19:01.816Z</time></trkpt><trkpt lat="43.6054751" lon="11.3082018"><ele>225.0</ele><time>2026-04-18T11:19:02.816Z</time></trkpt><trkpt lat="43.6055421" lon="11.3082768"><ele>225.5</ele><time>2026-04-18T11:19:03.818Z</time></trkpt><trkpt lat="43.6056081" lon="11.3083505"><ele>226.0</ele><time>2026-04-18T11:19:04.813Z</time></trkpt><trkpt lat="43.605676" lon="11.3084287"><ele>226.50000000000003</ele><time>2026-04-18T11:19:05.811Z</time></trkpt><trkpt lat="43.6057489" lon="11.3085118"><ele>227.0</ele><time>2026-04-18T11:19:06.886Z</time></trkpt><trkpt lat="43.6058196" lon="11.3085981"><ele>227.0</ele><time>2026-04-18T11:19:07.891Z</time></trkpt><trkpt lat="43.6058875" lon="11.3086859"><ele>227.0</ele><time>2026-04-18T11:19:08.896Z</time></trkpt><trkpt lat="43.6059542" lon="11.3087779"><ele>227.0</ele><time>2026-04-18T11:19:09.888Z</time></trkpt><trkpt lat="43.6060217" lon="11.3088735"><ele>227.0</ele><time>2026-04-18T11:19:10.897Z</time></trkpt><trkpt lat="43.6060887" lon="11.3089672"><ele>227.0</ele><time>2026-04-18T11:19:11.894Z</time></trkpt><trkpt lat="43.6061558" lon="11.3090607"><ele>227.6</ele><time>2026-04-18T11:19:12.892Z</time></trkpt><trkpt lat="43.606224" lon="11.3091571"><ele>228.2</ele><time>2026-04-18T11:19:13.888Z</time></trkpt><trkpt lat="43.6062961" lon="11.3092458"><ele>228.8</ele><time>2026-04-18T11:19:14.89Z</time></trkpt><trkpt lat="43.6063748" lon="11.3093312"><ele>229.4</ele><time>2026-04-18T11:19:15.892Z</time></trkpt><trkpt lat="43.606461" lon="11.3094043"><ele>230.0</ele><time>2026-04-18T11:19:16.894Z</time></trkpt><trkpt lat="43.6065457" lon="11.3094838"><ele>230.0</ele><time>2026-04-18T11:19:17.871Z</time></trkpt><trkpt lat="43.6066247" lon="11.3095729"><ele>230.0</ele><time>2026-04-18T11:19:18.872Z</time></trkpt><trkpt lat="43.6066991" lon="11.3096625"><ele>230.0</ele><time>2026-04-18T11:19:19.874Z</time></trkpt><trkpt lat="43.6067696" lon="11.3097594"><ele>230.0</ele><time>2026-04-18T11:19:20.876Z</time></trkpt><trkpt lat="43.6068347" lon="11.3098598"><ele>230.0</ele><time>2026-04-18T11:19:21.893Z</time></trkpt><trkpt lat="43.6068943" lon="11.3099653"><ele>231.8</ele><time>2026-04-18T11:19:22.895Z</time></trkpt><trkpt lat="43.6069408" lon="11.3100687"><ele>233.6</ele><time>2026-04-18T11:19:23.869Z</time></trkpt><trkpt lat="43.6069879" lon="11.3101663"><ele>235.39999999999998</ele><time>2026-04-18T11:19:24.87Z</time></trkpt><trkpt lat="43.6070496" lon="11.3102647"><ele>237.2</ele><time>2026-04-18T11:19:25.873Z</time></trkpt><trkpt lat="43.607118" lon="11.3103616"><ele>239.0</ele><time>2026-04-18T11:19:26.866Z</time></trkpt><trkpt lat="43.6071901" lon="11.3104542"><ele>239.2</ele><time>2026-04-18T11:19:27.888Z</time></trkpt><trkpt lat="43.6072607" lon="11.3105526"><ele>239.39999999999998</ele><time>2026-04-18T11:19:28.906Z</time></trkpt><trkpt lat="43.6073402" lon="11.3106581"><ele>239.6</ele><time>2026-04-18T11:19:29.887Z</time></trkpt><trkpt lat="43.60742" lon="11.3107625"><ele>239.8</ele><time>2026-04-18T11:19:30.89Z</time></trkpt><trkpt lat="43.6074933" lon="11.3108582"><ele>240.0</ele><time>2026-04-18T11:19:31.879Z</time></trkpt><trkpt lat="43.6075632" lon="11.3109501"><ele>242.75</ele><time>2026-04-18T11:19:32.888Z</time></trkpt><trkpt lat="43.6076466" lon="11.3110705"><ele>245.5</ele><time>2026-04-18T11:19:33.88Z</time></trkpt><trkpt lat="43.6077257" lon="11.3112125"><ele>248.25</ele><time>2026-04-18T11:19:34.879Z</time></trkpt><trkpt lat="43.6077922" lon="11.3113571"><ele>251.0</ele><time>2026-04-18T11:19:35.885Z</time></trkpt><trkpt lat="43.6078656" lon="11.311521"><ele>254.0</ele><time>2026-04-18T11:19:36.871Z</time></trkpt><trkpt lat="43.6079462" lon="11.311699"><ele>257.0</ele><time>2026-04-18T11:19:37.869Z</time></trkpt><trkpt lat="43.6080271" lon="11.311866"><ele>260.0</ele><time>2026-04-18T11:19:38.861Z</time></trkpt><trkpt lat="43.608093" lon="11.3120153"><ele>263.0</ele><time>2026-04-18T11:19:39.862Z</time></trkpt><trkpt lat="43.6081565" lon="11.3121255"><ele>263.25</ele><time>2026-04-18T11:19:40.886Z</time></trkpt><trkpt lat="43.6082232" lon="11.3122441"><ele>263.5</ele><time>2026-04-18T11:19:41.882Z</time></trkpt><trkpt lat="43.6083122" lon="11.3123556"><ele>263.75</ele><time>2026-04-18T11:19:42.861Z</time></trkpt><trkpt lat="43.6084185" lon="11.312449"><ele>264.0</ele><time>2026-04-18T11:19:43.86Z</time></trkpt><trkpt lat="43.6085317" lon="11.3125461"><ele>264.0</ele><time>2026-04-18T11:19:44.863Z</time></trkpt><trkpt lat="43.6086401" lon="11.3126628"><ele>264.0</ele><time>2026-04-18T11:19:45.866Z</time></trkpt><trkpt lat="43.6087407" lon="11.3127958"><ele>264.0</ele><time>2026-04-18T11:19:46.883Z</time></trkpt><trkpt lat="43.6088365" lon="11.3129417"><ele>264.0</ele><time>2026-04-18T11:19:47.879Z</time></trkpt><trkpt lat="43.6089285" lon="11.3130945"><ele>267.4</ele><time>2026-04-18T11:19:48.866Z</time></trkpt><trkpt lat="43.609007" lon="11.3132247"><ele>270.79999999999995</ele><time>2026-04-18T11:19:49.866Z</time></trkpt><trkpt lat="43.6090684" lon="11.3133401"><ele>274.20000000000005</ele><time>2026-04-18T11:19:50.862Z</time></trkpt><trkpt lat="43.6091508" lon="11.3134311"><ele>277.6</ele><time>2026-04-18T11:19:51.87Z</time></trkpt><trkpt lat="43.6092403" lon="11.3135149"><ele>281.0</ele><time>2026-04-18T11:19:52.882Z</time></trkpt><trkpt lat="43.6093396" lon="11.313593"><ele>281.0</ele><time>2026-04-18T11:19:53.884Z</time></trkpt><trkpt lat="43.6094526" lon="11.3136727"><ele>281.0</ele><time>2026-04-18T11:19:54.864Z</time></trkpt><trkpt lat="43.6095695" lon="11.3137465"><ele>281.0</ele><time>2026-04-18T11:19:55.869Z</time></trkpt><trkpt lat="43.6096935" lon="11.3138148"><ele>281.0</ele><time>2026-04-18T11:19:56.865Z</time></trkpt><trkpt lat="43.6098026" lon="11.313885"><ele>284.0</ele><time>2026-04-18T11:19:57.859Z</time></trkpt><trkpt lat="43.6099042" lon="11.3139581"><ele>287.0</ele><time>2026-04-18T11:19:58.884Z</time></trkpt><trkpt lat="43.6100052" lon="11.3140365"><ele>290.0</ele><time>2026-04-18T11:19:59.896Z</time></trkpt><trkpt lat="43.610105" lon="11.3141343"><ele>293.0</ele><time>2026-04-18T11:20:00.86Z</time></trkpt><trkpt lat="43.6102069" lon="11.3142436"><ele>293.0</ele><time>2026-04-18T11:20:01.863Z</time></trkpt><trkpt lat="43.6103083" lon="11.3143602"><ele>293.0</ele><time>2026-04-18T11:20:02.866Z</time></trkpt><trkpt lat="43.6104121" lon="11.3144735"><ele>293.0</ele><time>2026-04-18T11:20:03.865Z</time></trkpt><trkpt lat="43.6105191" lon="11.3145877"><ele>293.0</ele><time>2026-04-18T11:20:04.884Z</time></trkpt><trkpt lat="43.6106206" lon="11.3147048"><ele>296.25</ele><time>2026-04-18T11:20:05.891Z</time></trkpt><trkpt lat="43.6107197" lon="11.3148184"><ele>299.5</ele><time>2026-04-18T11:20:06.888Z</time></trkpt><trkpt lat="43.6108281" lon="11.3149209"><ele>302.75</ele><time>2026-04-18T11:20:07.89Z</time></trkpt><trkpt lat="43.6109416" lon="11.3150183"><ele>306.0</ele><time>2026-04-18T11:20:08.893Z</time></trkpt><trkpt lat="43.6110593" lon="11.3151329"><ele>306.0</ele><time>2026-04-18T11:20:09.868Z</time></trkpt><trkpt lat="43.6111571" lon="11.3152342"><ele>306.0</ele><time>2026-04-18T11:20:10.871Z</time></trkpt><trkpt lat="43.6112621" lon="11.3153268"><ele>306.0</ele><time>2026-04-18T11:20:11.864Z</time></trkpt><trkpt lat="43.6113744" lon="11.3154006"><ele>306.0</ele><time>2026-04-18T11:20:12.864Z</time></trkpt><trkpt lat="43.6115013" lon="11.3154539"><ele>307.0</ele><time>2026-04-18T11:20:13.885Z</time></trkpt><trkpt lat="43.6116447" lon="11.3155121"><ele>308.0</ele><time>2026-04-18T11:20:14.892Z</time></trkpt><trkpt lat="43.611913" lon="11.3156856"><ele>309.0</ele><time>2026-04-18T11:20:16.784Z</time></trkpt><trkpt lat="43.6120061" lon="11.3157725"><ele>311.0</ele><time>2026-04-18T11:20:17.779Z</time></trkpt><trkpt lat="43.6120954" lon="11.3158383"><ele>313.0</ele><time>2026-04-18T11:20:18.777Z</time></trkpt><trkpt lat="43.612185" lon="11.3158814"><ele>315.0</ele><time>2026-04-18T11:20:19.795Z</time></trkpt><trkpt lat="43.6122817" lon="11.3159121"><ele>317.0</ele><time>2026-04-18T11:20:20.799Z</time></trkpt><trkpt lat="43.6123872" lon="11.315921"><ele>319.0</ele><time>2026-04-18T11:20:21.799Z</time></trkpt><trkpt lat="43.6125013" lon="11.3159314"><ele>319.0</ele><time>2026-04-18T11:20:22.797Z</time></trkpt><trkpt lat="43.6126368" lon="11.3159429"><ele>319.0</ele><time>2026-04-18T11:20:23.799Z</time></trkpt><trkpt lat="43.6127683" lon="11.3159672"><ele>319.0</ele><time>2026-04-18T11:20:24.805Z</time></trkpt><trkpt lat="43.6129068" lon="11.3159979"><ele>319.0</ele><time>2026-04-18T11:20:25.802Z</time></trkpt><trkpt lat="43.6130657" lon="11.3160373"><ele>321.0</ele><time>2026-04-18T11:20:26.797Z</time></trkpt><trkpt lat="43.6132291" lon="11.3160907"><ele>323.0</ele><time>2026-04-18T11:20:27.797Z</time></trkpt><trkpt lat="43.6133838" lon="11.3161331"><ele>325.0</ele><time>2026-04-18T11:20:28.799Z</time></trkpt><trkpt lat="43.6135356" lon="11.3161769"><ele>327.25</ele><time>2026-04-18T11:20:29.794Z</time></trkpt><trkpt lat="43.6136966" lon="11.3162172"><ele>329.5</ele><time>2026-04-18T11:20:30.818Z</time></trkpt><trkpt lat="43.6138434" lon="11.3162565"><ele>331.75</ele><time>2026-04-18T11:20:31.796Z</time></trkpt><trkpt lat="43.6139727" lon="11.3162913"><ele>334.0</ele><time>2026-04-18T11:20:32.794Z</time></trkpt><trkpt lat="43.6140874" lon="11.3163154"><ele>334.0</ele><time>2026-04-18T11:20:33.785Z</time></trkpt><trkpt lat="43.6141965" lon="11.3163225"><ele>334.0</ele><time>2026-04-18T11:20:34.794Z</time></trkpt><trkpt lat="43.6143067" lon="11.3163233"><ele>334.0</ele><time>2026-04-18T11:20:35.793Z</time></trkpt><trkpt lat="43.6144284" lon="11.3163195"><ele>334.0</ele><time>2026-04-18T11:20:36.794Z</time></trkpt><trkpt lat="43.6145502" lon="11.3163176"><ele>335.75</ele><time>2026-04-18T11:20:37.797Z</time></trkpt><trkpt lat="43.6146692" lon="11.3163323"><ele>337.5</ele><time>2026-04-18T11:20:38.793Z</time></trkpt><trkpt lat="43.6147949" lon="11.3163569"><ele>339.25</ele><time>2026-04-18T11:20:39.801Z</time></trkpt><trkpt lat="43.6149098" lon="11.3163855"><ele>341.0</ele><time>2026-04-18T11:20:40.799Z</time></trkpt><trkpt lat="43.615027" lon="11.3164185"><ele>341.0</ele><time>2026-04-18T11:20:41.797Z</time></trkpt><trkpt lat="43.6151454" lon="11.3164327"><ele>341.0</ele><time>2026-04-18T11:20:42.804Z</time></trkpt><trkpt lat="43.6152598" lon="11.3164357"><ele>341.0</ele><time>2026-04-18T11:20:43.798Z</time></trkpt><trkpt lat="43.6154021" lon="11.3164073"><ele>341.0</ele><time>2026-04-18T11:20:44.801Z</time></trkpt><trkpt lat="43.6155423" lon="11.3163934"><ele>344.0</ele><time>2026-04-18T11:20:45.789Z</time></trkpt><trkpt lat="43.6156418" lon="11.3164091"><ele>347.0</ele><time>2026-04-18T11:20:46.786Z</time></trkpt><trkpt lat="43.6157245" lon="11.3164582"><ele>350.0</ele><time>2026-04-18T11:20:47.793Z</time></trkpt><trkpt lat="43.61581" lon="11.3165228"><ele>353.0</ele><time>2026-04-18T11:20:48.785Z</time></trkpt><trkpt lat="43.6159195" lon="11.3165992"><ele>356.0</ele><time>2026-04-18T11:20:49.788Z</time></trkpt><trkpt lat="43.6160488" lon="11.3166706"><ele>356.6</ele><time>2026-04-18T11:20:50.787Z</time></trkpt><trkpt lat="43.6161554" lon="11.3167509"><ele>357.20000000000005</ele><time>2026-04-18T11:20:51.799Z</time></trkpt><trkpt lat="43.6162516" lon="11.316793"><ele>357.79999999999995</ele><time>2026-04-18T11:20:52.786Z</time></trkpt><trkpt lat="43.6163436" lon="11.3168013"><ele>358.4</ele><time>2026-04-18T11:20:53.784Z</time></trkpt><trkpt lat="43.6164168" lon="11.3168082"><ele>359.0</ele><time>2026-04-18T11:20:54.787Z</time></trkpt><trkpt lat="43.6164787" lon="11.3168405"><ele>359.0</ele><time>2026-04-18T11:20:55.799Z</time></trkpt><trkpt lat="43.6165703" lon="11.3169759"><ele>359.0</ele><time>2026-04-18T11:20:57.798Z</time></trkpt><trkpt lat="43.6166333" lon="11.3170817"><ele>359.0</ele><time>2026-04-18T11:20:58.809Z</time></trkpt><trkpt lat="43.6166975" lon="11.3171861"><ele>359.0</ele><time>2026-04-18T11:20:59.802Z</time></trkpt><trkpt lat="43.6167681" lon="11.317295"><ele>359.0</ele><time>2026-04-18T11:21:00.804Z</time></trkpt><trkpt lat="43.6168508" lon="11.3174031"><ele>359.4</ele><time>2026-04-18T11:21:01.814Z</time></trkpt><trkpt lat="43.6169424" lon="11.3175187"><ele>359.79999999999995</ele><time>2026-04-18T11:21:02.8Z</time></trkpt><trkpt lat="43.617022" lon="11.3176132"><ele>360.20000000000005</ele><time>2026-04-18T11:21:03.789Z</time></trkpt><trkpt lat="43.6170944" lon="11.3176769"><ele>360.6</ele><time>2026-04-18T11:21:04.789Z</time></trkpt><trkpt lat="43.6171643" lon="11.3177217"><ele>361.0</ele><time>2026-04-18T11:21:05.791Z</time></trkpt><trkpt lat="43.6172357" lon="11.3177605"><ele>361.0</ele><time>2026-04-18T11:21:06.799Z</time></trkpt><trkpt lat="43.6173179" lon="11.3177962"><ele>361.0</ele><time>2026-04-18T11:21:07.799Z</time></trkpt><trkpt lat="43.6173944" lon="11.3178434"><ele>361.0</ele><time>2026-04-18T11:21:08.803Z</time></trkpt><trkpt lat="43.6174713" lon="11.3179019"><ele>361.0</ele><time>2026-04-18T11:21:09.795Z</time></trkpt><trkpt lat="43.6175525" lon="11.3179651"><ele>361.0</ele><time>2026-04-18T11:21:10.796Z</time></trkpt><trkpt lat="43.617643" lon="11.3180392"><ele>361.25</ele><time>2026-04-18T11:21:11.792Z</time></trkpt><trkpt lat="43.6177482" lon="11.3181279"><ele>361.5</ele><time>2026-04-18T11:21:12.797Z</time></trkpt><trkpt lat="43.6178641" lon="11.3182196"><ele>361.75</ele><time>2026-04-18T11:21:13.799Z</time></trkpt><trkpt lat="43.6179784" lon="11.3183008"><ele>362.0</ele><time>2026-04-18T11:21:14.796Z</time></trkpt><trkpt lat="43.6180857" lon="11.3183661"><ele>362.0</ele><time>2026-04-18T11:21:15.798Z</time></trkpt><trkpt lat="43.6181809" lon="11.3184339"><ele>362.0</ele><time>2026-04-18T11:21:16.801Z</time></trkpt><trkpt lat="43.618263" lon="11.3185245"><ele>362.0</ele><time>2026-04-18T11:21:17.796Z</time></trkpt><trkpt lat="43.618345" lon="11.3186299"><ele>362.0</ele><time>2026-04-18T11:21:18.794Z</time></trkpt><trkpt lat="43.6184323" lon="11.3187582"><ele>362.0</ele><time>2026-04-18T11:21:19.796Z</time></trkpt><trkpt lat="43.6185196" lon="11.3188914"><ele>362.0</ele><time>2026-04-18T11:21:20.797Z</time></trkpt><trkpt lat="43.6186123" lon="11.3190276"><ele>362.0</ele><time>2026-04-18T11:21:21.799Z</time></trkpt><trkpt lat="43.6187203" lon="11.3191635"><ele>362.0</ele><time>2026-04-18T11:21:22.8Z</time></trkpt><trkpt lat="43.6188281" lon="11.3192756"><ele>360.75</ele><time>2026-04-18T11:21:23.796Z</time></trkpt><trkpt lat="43.6189241" lon="11.3193892"><ele>359.5</ele><time>2026-04-18T11:21:24.798Z</time></trkpt><trkpt lat="43.6190144" lon="11.3194969"><ele>358.25</ele><time>2026-04-18T11:21:25.808Z</time></trkpt><trkpt lat="43.6190953" lon="11.3195949"><ele>357.0</ele><time>2026-04-18T11:21:26.797Z</time></trkpt><trkpt lat="43.6191681" lon="11.3196935"><ele>357.20000000000005</ele><time>2026-04-18T11:21:27.797Z</time></trkpt><trkpt lat="43.6192557" lon="11.3197877"><ele>357.4</ele><time>2026-04-18T11:21:28.796Z</time></trkpt><trkpt lat="43.6193341" lon="11.3198824"><ele>357.6</ele><time>2026-04-18T11:21:29.798Z</time></trkpt><trkpt lat="43.6193999" lon="11.3199662"><ele>357.79999999999995</ele><time>2026-04-18T11:21:30.799Z</time></trkpt><trkpt lat="43.6194575" lon="11.3200437"><ele>358.0</ele><time>2026-04-18T11:21:31.793Z</time></trkpt><trkpt lat="43.6195116" lon="11.3201206"><ele>358.0</ele><time>2026-04-18T11:21:32.81Z</time></trkpt><trkpt lat="43.6195631" lon="11.3201986"><ele>358.0</ele><time>2026-04-18T11:21:33.795Z</time></trkpt><trkpt lat="43.6196212" lon="11.3202853"><ele>358.0</ele><time>2026-04-18T11:21:34.793Z</time></trkpt><trkpt lat="43.619681" lon="11.3203788"><ele>358.0</ele><time>2026-04-18T11:21:35.789Z</time></trkpt><trkpt lat="43.6197218" lon="11.3204808"><ele>358.0</ele><time>2026-04-18T11:21:36.784Z</time></trkpt><trkpt lat="43.61975" lon="11.3205955"><ele>358.0</ele><time>2026-04-18T11:21:37.788Z</time></trkpt><trkpt lat="43.619782" lon="11.3207169"><ele>358.2</ele><time>2026-04-18T11:21:38.788Z</time></trkpt><trkpt lat="43.6198258" lon="11.3208394"><ele>358.4</ele><time>2026-04-18T11:21:39.787Z</time></trkpt><trkpt lat="43.6198787" lon="11.3209635"><ele>358.59999999999997</ele><time>2026-04-18T11:21:40.797Z</time></trkpt><trkpt lat="43.6199283" lon="11.3210688"><ele>358.79999999999995</ele><time>2026-04-18T11:21:41.794Z</time></trkpt><trkpt lat="43.619968" lon="11.3211525"><ele>359.0</ele><time>2026-04-18T11:21:42.781Z</time></trkpt><trkpt lat="43.620041" lon="11.3212116"><ele>359.0</ele><time>2026-04-18T11:21:44.783Z</time></trkpt><trkpt lat="43.6201157" lon="11.3211829"><ele>359.0</ele><time>2026-04-18T11:21:46.799Z</time></trkpt><trkpt lat="43.6202068" lon="11.3211222"><ele>359.0</ele><time>2026-04-18T11:21:48.797Z</time></trkpt><trkpt lat="43.6202728" lon="11.321083"><ele>359.0</ele><time>2026-04-18T11:21:49.796Z</time></trkpt><trkpt lat="43.6203502" lon="11.3210415"><ele>359.0</ele><time>2026-04-18T11:21:50.795Z</time></trkpt><trkpt lat="43.6204231" lon="11.3210033"><ele>359.0</ele><time>2026-04-18T11:21:51.798Z</time></trkpt><trkpt lat="43.6204959" lon="11.3209651"><ele>357.5</ele><time>2026-04-18T11:21:52.792Z</time></trkpt><trkpt lat="43.6205732" lon="11.3209276"><ele>356.0</ele><time>2026-04-18T11:21:53.794Z</time></trkpt><trkpt lat="43.620653" lon="11.320886"><ele>354.5</ele><time>2026-04-18T11:21:54.799Z</time></trkpt><trkpt lat="43.6207336" lon="11.3208442"><ele>353.0</ele><time>2026-04-18T11:21:55.798Z</time></trkpt><trkpt lat="43.620814" lon="11.3208048"><ele>351.5</ele><time>2026-04-18T11:21:56.793Z</time></trkpt><trkpt lat="43.6208967" lon="11.3207773"><ele>350.0</ele><time>2026-04-18T11:21:57.798Z</time></trkpt><trkpt lat="43.6209828" lon="11.3207608"><ele>350.0</ele><time>2026-04-18T11:21:58.796Z</time></trkpt><trkpt lat="43.6210761" lon="11.3207517"><ele>350.0</ele><time>2026-04-18T11:21:59.795Z</time></trkpt><trkpt lat="43.6211726" lon="11.3207404"><ele>350.0</ele><time>2026-04-18T11:22:00.794Z</time></trkpt><trkpt lat="43.6212638" lon="11.3207308"><ele>350.0</ele><time>2026-04-18T11:22:01.798Z</time></trkpt><trkpt lat="43.6213488" lon="11.3207128"><ele>350.0</ele><time>2026-04-18T11:22:02.795Z</time></trkpt><trkpt lat="43.6214261" lon="11.3206948"><ele>350.0</ele><time>2026-04-18T11:22:03.808Z</time></trkpt><trkpt lat="43.6214917" lon="11.3206904"><ele>347.5</ele><time>2026-04-18T11:22:04.793Z</time></trkpt><trkpt lat="43.6215531" lon="11.3207131"><ele>345.0</ele><time>2026-04-18T11:22:05.787Z</time></trkpt><trkpt lat="43.621605" lon="11.3207666"><ele>342.5</ele><time>2026-04-18T11:22:06.791Z</time></trkpt><trkpt lat="43.6216526" lon="11.3208365"><ele>340.0</ele><time>2026-04-18T11:22:07.79Z</time></trkpt><trkpt lat="43.6216889" lon="11.3209107"><ele>337.5</ele><time>2026-04-18T11:22:08.787Z</time></trkpt><trkpt lat="43.621713" lon="11.321086"><ele>335.0</ele><time>2026-04-18T11:22:10.784Z</time></trkpt><trkpt lat="43.6217444" lon="11.3212374"><ele>335.0</ele><time>2026-04-18T11:22:12.764Z</time></trkpt><trkpt lat="43.6218201" lon="11.3213255"><ele>335.0</ele><time>2026-04-18T11:22:14.773Z</time></trkpt><trkpt lat="43.6219276" lon="11.321283"><ele>335.0</ele><time>2026-04-18T11:22:16.784Z</time></trkpt><trkpt lat="43.622009" lon="11.3212262"><ele>335.0</ele><time>2026-04-18T11:22:17.775Z</time></trkpt><trkpt lat="43.6220905" lon="11.3211359"><ele>335.0</ele><time>2026-04-18T11:22:18.782Z</time></trkpt><trkpt lat="43.6221653" lon="11.3210485"><ele>335.2</ele><time>2026-04-18T11:22:19.782Z</time></trkpt><trkpt lat="43.62223" lon="11.3209516"><ele>335.4</ele><time>2026-04-18T11:22:20.784Z</time></trkpt><trkpt lat="43.6222911" lon="11.3208392"><ele>335.6</ele><time>2026-04-18T11:22:21.782Z</time></trkpt><trkpt lat="43.6223416" lon="11.3207311"><ele>335.8</ele><time>2026-04-18T11:22:22.79Z</time></trkpt><trkpt lat="43.6223851" lon="11.3206093"><ele>336.0</ele><time>2026-04-18T11:22:23.784Z</time></trkpt><trkpt lat="43.6224177" lon="11.3204835"><ele>334.20000000000005</ele><time>2026-04-18T11:22:24.783Z</time></trkpt><trkpt lat="43.6224573" lon="11.3203648"><ele>332.40000000000003</ele><time>2026-04-18T11:22:25.777Z</time></trkpt><trkpt lat="43.6224885" lon="11.3202415"><ele>330.6</ele><time>2026-04-18T11:22:26.779Z</time></trkpt><trkpt lat="43.6225172" lon="11.3201118"><ele>328.8</ele><time>2026-04-18T11:22:27.778Z</time></trkpt><trkpt lat="43.6225464" lon="11.3199769"><ele>327.0</ele><time>2026-04-18T11:22:28.771Z</time></trkpt><trkpt lat="43.6225842" lon="11.3198301"><ele>325.8</ele><time>2026-04-18T11:22:29.777Z</time></trkpt><trkpt lat="43.622618" lon="11.3196974"><ele>324.6</ele><time>2026-04-18T11:22:30.774Z</time></trkpt><trkpt lat="43.6226451" lon="11.3195984"><ele>323.40000000000003</ele><time>2026-04-18T11:22:31.781Z</time></trkpt><trkpt lat="43.62268" lon="11.3195152"><ele>322.20000000000005</ele><time>2026-04-18T11:22:32.779Z</time></trkpt><trkpt lat="43.6227751" lon="11.3194286"><ele>321.0</ele><time>2026-04-18T11:22:34.801Z</time></trkpt><trkpt lat="43.6228664" lon="11.3194225"><ele>321.0</ele><time>2026-04-18T11:22:36.789Z</time></trkpt><trkpt lat="43.6229134" lon="11.3194806"><ele>321.0</ele><time>2026-04-18T11:22:39.8Z</time></trkpt><trkpt lat="43.6229713" lon="11.3195424"><ele>321.0</ele><time>2026-04-18T11:22:43.798Z</time></trkpt><trkpt lat="43.6230266" lon="11.3196253"><ele>321.0</ele><time>2026-04-18T11:22:45.798Z</time></trkpt><trkpt lat="43.6231236" lon="11.3197126"><ele>321.0</ele><time>2026-04-18T11:22:47.795Z</time></trkpt><trkpt lat="43.6232536" lon="11.319779"><ele>325.20000000000005</ele><time>2026-04-18T11:22:49.793Z</time></trkpt><trkpt lat="43.623333" lon="11.3198019"><ele>329.40000000000003</ele><time>2026-04-18T11:22:50.782Z</time></trkpt><trkpt lat="43.6234163" lon="11.3198171"><ele>333.6</ele><time>2026-04-18T11:22:51.791Z</time></trkpt><trkpt lat="43.6235038" lon="11.3198208"><ele>337.8</ele><time>2026-04-18T11:22:52.779Z</time></trkpt><trkpt lat="43.623579" lon="11.319817"><ele>342.0</ele><time>2026-04-18T11:22:53.777Z</time></trkpt><trkpt lat="43.6237077" lon="11.3198096"><ele>341.1666666666667</ele><time>2026-04-18T11:22:55.775Z</time></trkpt><trkpt lat="43.6237774" lon="11.319769"><ele>340.3333333333333</ele><time>2026-04-18T11:22:56.773Z</time></trkpt><trkpt lat="43.6238613" lon="11.3196913"><ele>339.5</ele><time>2026-04-18T11:22:57.77Z</time></trkpt><trkpt lat="43.6239275" lon="11.3196007"><ele>338.66666666666663</ele><time>2026-04-18T11:22:58.782Z</time></trkpt><trkpt lat="43.6239919" lon="11.3195212"><ele>337.8333333333333</ele><time>2026-04-18T11:22:59.792Z</time></trkpt><trkpt lat="43.6240372" lon="11.3194557"><ele>337.0</ele><time>2026-04-18T11:23:00.786Z</time></trkpt><trkpt lat="43.6241158" lon="11.3194049"><ele>337.0</ele><time>2026-04-18T11:23:02.782Z</time></trkpt><trkpt lat="43.6242018" lon="11.3194387"><ele>337.0</ele><time>2026-04-18T11:23:04.791Z</time></trkpt><trkpt lat="43.6242446" lon="11.3195789"><ele>337.0</ele><time>2026-04-18T11:23:06.799Z</time></trkpt><trkpt lat="43.6242612" lon="11.3196676"><ele>337.0</ele><time>2026-04-18T11:23:07.792Z</time></trkpt><trkpt lat="43.62428" lon="11.319769"><ele>337.0</ele><time>2026-04-18T11:23:08.794Z</time></trkpt><trkpt lat="43.6242915" lon="11.3198777"><ele>337.0</ele><time>2026-04-18T11:23:09.784Z</time></trkpt><trkpt lat="43.624302" lon="11.3199999"><ele>340.0</ele><time>2026-04-18T11:23:10.783Z</time></trkpt><trkpt lat="43.6243121" lon="11.3201342"><ele>343.0</ele><time>2026-04-18T11:23:11.786Z</time></trkpt><trkpt lat="43.6243227" lon="11.3202799"><ele>346.0</ele><time>2026-04-18T11:23:12.789Z</time></trkpt><trkpt lat="43.6243605" lon="11.3204229"><ele>349.0</ele><time>2026-04-18T11:23:13.787Z</time></trkpt><trkpt lat="43.6244122" lon="11.3205899"><ele>352.0</ele><time>2026-04-18T11:23:14.782Z</time></trkpt><trkpt lat="43.6244722" lon="11.3207518"><ele>353.0</ele><time>2026-04-18T11:23:15.778Z</time></trkpt><trkpt lat="43.6245264" lon="11.3209139"><ele>354.0</ele><time>2026-04-18T11:23:16.786Z</time></trkpt><trkpt lat="43.6245899" lon="11.3210967"><ele>355.0</ele><time>2026-04-18T11:23:17.79Z</time></trkpt><trkpt lat="43.6246741" lon="11.321288"><ele>356.0</ele><time>2026-04-18T11:23:18.785Z</time></trkpt><trkpt lat="43.6247552" lon="11.32149"><ele>357.8</ele><time>2026-04-18T11:23:19.787Z</time></trkpt><trkpt lat="43.6248213" lon="11.3216984"><ele>359.6</ele><time>2026-04-18T11:23:20.778Z</time></trkpt><trkpt lat="43.624858" lon="11.3218302"><ele>361.4</ele><time>2026-04-18T11:23:21.778Z</time></trkpt><trkpt lat="43.6248813" lon="11.3219139"><ele>363.2</ele><time>2026-04-18T11:23:22.787Z</time></trkpt><trkpt lat="43.6249233" lon="11.3220239"><ele>365.0</ele><time>2026-04-18T11:23:23.777Z</time></trkpt><trkpt lat="43.6249744" lon="11.3221159"><ele>365.0</ele><time>2026-04-18T11:23:24.776Z</time></trkpt><trkpt lat="43.62504" lon="11.3222028"><ele>365.0</ele><time>2026-04-18T11:23:25.775Z</time></trkpt><trkpt lat="43.6251099" lon="11.3222656"><ele>365.0</ele><time>2026-04-18T11:23:26.789Z</time></trkpt><trkpt lat="43.625174" lon="11.3222953"><ele>365.0</ele><time>2026-04-18T11:23:27.782Z</time></trkpt><trkpt lat="43.6252746" lon="11.322319"><ele>365.0</ele><time>2026-04-18T11:23:29.785Z</time></trkpt><trkpt lat="43.6253409" lon="11.3222081"><ele>365.0</ele><time>2026-04-18T11:23:31.798Z</time></trkpt><trkpt lat="43.625317" lon="11.3220525"><ele>365.0</ele><time>2026-04-18T11:23:33.786Z</time></trkpt><trkpt lat="43.6252907" lon="11.3219468"><ele>365.0</ele><time>2026-04-18T11:23:34.781Z</time></trkpt><trkpt lat="43.6252528" lon="11.3217752"><ele>365.0</ele><time>2026-04-18T11:23:35.781Z</time></trkpt><trkpt lat="43.6252419" lon="11.3216068"><ele>365.0</ele><time>2026-04-18T11:23:36.791Z</time></trkpt><trkpt lat="43.6252491" lon="11.3214579"><ele>365.0</ele><time>2026-04-18T11:23:37.777Z</time></trkpt><trkpt lat="43.6252607" lon="11.3213"><ele>366.0</ele><time>2026-04-18T11:23:38.785Z</time></trkpt><trkpt lat="43.625305" lon="11.3211526"><ele>367.0</ele><time>2026-04-18T11:23:39.782Z</time></trkpt><trkpt lat="43.6253538" lon="11.3210053"><ele>368.0</ele><time>2026-04-18T11:23:40.772Z</time></trkpt><trkpt lat="43.6254122" lon="11.3208657"><ele>369.0</ele><time>2026-04-18T11:23:41.782Z</time></trkpt><trkpt lat="43.625468" lon="11.3207234"><ele>367.25</ele><time>2026-04-18T11:23:42.785Z</time></trkpt><trkpt lat="43.6255221" lon="11.3205655"><ele>365.5</ele><time>2026-04-18T11:23:43.78Z</time></trkpt><trkpt lat="43.6255718" lon="11.3204059"><ele>363.75</ele><time>2026-04-18T11:23:44.771Z</time></trkpt><trkpt lat="43.6256125" lon="11.3202404"><ele>362.0</ele><time>2026-04-18T11:23:45.779Z</time></trkpt><trkpt lat="43.6256537" lon="11.3200986"><ele>362.0</ele><time>2026-04-18T11:23:46.775Z</time></trkpt><trkpt lat="43.6256912" lon="11.3199904"><ele>362.0</ele><time>2026-04-18T11:23:47.781Z</time></trkpt><trkpt lat="43.625723" lon="11.3199031"><ele>362.0</ele><time>2026-04-18T11:23:48.771Z</time></trkpt><trkpt lat="43.6257647" lon="11.3198366"><ele>362.0</ele><time>2026-04-18T11:23:49.774Z</time></trkpt><trkpt lat="43.6258718" lon="11.3197749"><ele>362.0</ele><time>2026-04-18T11:23:51.785Z</time></trkpt><trkpt lat="43.625933" lon="11.3198257"><ele>362.0</ele><time>2026-04-18T11:23:52.79Z</time></trkpt><trkpt lat="43.6259954" lon="11.3198734"><ele>362.0</ele><time>2026-04-18T11:23:53.797Z</time></trkpt><trkpt lat="43.6260443" lon="11.3199537"><ele>362.0</ele><time>2026-04-18T11:23:54.788Z</time></trkpt><trkpt lat="43.6260846" lon="11.3200557"><ele>362.0</ele><time>2026-04-18T11:23:55.79Z</time></trkpt><trkpt lat="43.6261367" lon="11.3201831"><ele>362.0</ele><time>2026-04-18T11:23:56.779Z</time></trkpt><trkpt lat="43.6261939" lon="11.3203324"><ele>362.0</ele><time>2026-04-18T11:23:57.785Z</time></trkpt><trkpt lat="43.6262533" lon="11.320498"><ele>363.0</ele><time>2026-04-18T11:23:58.778Z</time></trkpt><trkpt lat="43.6263161" lon="11.3206792"><ele>364.0</ele><time>2026-04-18T11:23:59.782Z</time></trkpt><trkpt lat="43.6263853" lon="11.3208385"><ele>365.0</ele><time>2026-04-18T11:24:00.775Z</time></trkpt><trkpt lat="43.6264536" lon="11.3209741"><ele>366.0</ele><time>2026-04-18T11:24:01.784Z</time></trkpt><trkpt lat="43.626508" lon="11.3210901"><ele>366.0</ele><time>2026-04-18T11:24:02.782Z</time></trkpt><trkpt lat="43.6265557" lon="11.3212009"><ele>366.0</ele><time>2026-04-18T11:24:03.775Z</time></trkpt><trkpt lat="43.6265991" lon="11.3213214"><ele>366.0</ele><time>2026-04-18T11:24:04.786Z</time></trkpt><trkpt lat="43.6266457" lon="11.3214395"><ele>366.0</ele><time>2026-04-18T11:24:05.777Z</time></trkpt><trkpt lat="43.6267102" lon="11.321565"><ele>366.0</ele><time>2026-04-18T11:24:06.774Z</time></trkpt><trkpt lat="43.6267898" lon="11.3216783"><ele>368.0</ele><time>2026-04-18T11:24:07.795Z</time></trkpt><trkpt lat="43.626858" lon="11.3217773"><ele>370.0</ele><time>2026-04-18T11:24:08.778Z</time></trkpt><trkpt lat="43.6269188" lon="11.3218732"><ele>372.0</ele><time>2026-04-18T11:24:09.778Z</time></trkpt><trkpt lat="43.626976" lon="11.3219431"><ele>374.0</ele><time>2026-04-18T11:24:10.777Z</time></trkpt><trkpt lat="43.6270778" lon="11.3219668"><ele>376.0</ele><time>2026-04-18T11:24:12.768Z</time></trkpt><trkpt lat="43.6271629" lon="11.321868"><ele>376.8</ele><time>2026-04-18T11:24:14.771Z</time></trkpt><trkpt lat="43.6271939" lon="11.3217169"><ele>377.6</ele><time>2026-04-18T11:24:16.791Z</time></trkpt><trkpt lat="43.6271868" lon="11.3215742"><ele>378.4</ele><time>2026-04-18T11:24:17.779Z</time></trkpt><trkpt lat="43.6271777" lon="11.3214144"><ele>379.2</ele><time>2026-04-18T11:24:18.774Z</time></trkpt><trkpt lat="43.6271774" lon="11.3212667"><ele>380.0</ele><time>2026-04-18T11:24:19.777Z</time></trkpt><trkpt lat="43.6271803" lon="11.3211521"><ele>378.1666666666667</ele><time>2026-04-18T11:24:20.773Z</time></trkpt><trkpt lat="43.627215" lon="11.3210422"><ele>376.33333333333337</ele><time>2026-04-18T11:24:22.776Z</time></trkpt><trkpt lat="43.6272819" lon="11.3210581"><ele>374.5</ele><time>2026-04-18T11:24:25.803Z</time></trkpt><trkpt lat="43.6273517" lon="11.3211185"><ele>372.6666666666667</ele><time>2026-04-18T11:24:27.784Z</time></trkpt><trkpt lat="43.6274055" lon="11.3211865"><ele>370.8333333333333</ele><time>2026-04-18T11:24:28.783Z</time></trkpt><trkpt lat="43.6274668" lon="11.3212612"><ele>369.0</ele><time>2026-04-18T11:24:29.779Z</time></trkpt><trkpt lat="43.6275423" lon="11.3213296"><ele>369.0</ele><time>2026-04-18T11:24:30.781Z</time></trkpt><trkpt lat="43.6276162" lon="11.3213716"><ele>369.0</ele><time>2026-04-18T11:24:31.777Z</time></trkpt><trkpt lat="43.6276885" lon="11.3213952"><ele>369.0</ele><time>2026-04-18T11:24:32.775Z</time></trkpt><trkpt lat="43.6277615" lon="11.3213968"><ele>369.0</ele><time>2026-04-18T11:24:33.79Z</time></trkpt><trkpt lat="43.6278451" lon="11.3213507"><ele>369.0</ele><time>2026-04-18T11:24:34.777Z</time></trkpt><trkpt lat="43.6279077" lon="11.3212993"><ele>369.0</ele><time>2026-04-18T11:24:35.776Z</time></trkpt><trkpt lat="43.6279646" lon="11.3212343"><ele>371.6</ele><time>2026-04-18T11:24:36.772Z</time></trkpt><trkpt lat="43.6280173" lon="11.3211589"><ele>374.2</ele><time>2026-04-18T11:24:37.772Z</time></trkpt><trkpt lat="43.6280554" lon="11.3210672"><ele>376.8</ele><time>2026-04-18T11:24:38.784Z</time></trkpt><trkpt lat="43.6280953" lon="11.3209314"><ele>379.40000000000003</ele><time>2026-04-18T11:24:39.779Z</time></trkpt><trkpt lat="43.6281398" lon="11.3207964"><ele>382.0</ele><time>2026-04-18T11:24:40.784Z</time></trkpt><trkpt lat="43.62818" lon="11.3206783"><ele>380.20000000000005</ele><time>2026-04-18T11:24:41.783Z</time></trkpt><trkpt lat="43.6282049" lon="11.3205512"><ele>378.4</ele><time>2026-04-18T11:24:42.783Z</time></trkpt><trkpt lat="43.6282277" lon="11.3204006"><ele>376.6</ele><time>2026-04-18T11:24:43.784Z</time></trkpt><trkpt lat="43.6282312" lon="11.3202588"><ele>374.79999999999995</ele><time>2026-04-18T11:24:44.781Z</time></trkpt><trkpt lat="43.6282239" lon="11.3201246"><ele>373.0</ele><time>2026-04-18T11:24:45.788Z</time></trkpt><trkpt lat="43.6282334" lon="11.3200162"><ele>373.0</ele><time>2026-04-18T11:24:46.788Z</time></trkpt><trkpt lat="43.628262" lon="11.3199294"><ele>373.0</ele><time>2026-04-18T11:24:47.787Z</time></trkpt><trkpt lat="43.6283152" lon="11.3198784"><ele>373.0</ele><time>2026-04-18T11:24:48.785Z</time></trkpt><trkpt lat="43.628383" lon="11.3198448"><ele>373.0</ele><time>2026-04-18T11:24:49.774Z</time></trkpt><trkpt lat="43.6284661" lon="11.3198263"><ele>373.0</ele><time>2026-04-18T11:24:50.791Z</time></trkpt><trkpt lat="43.6285849" lon="11.3198457"><ele>373.0</ele><time>2026-04-18T11:24:51.788Z</time></trkpt><trkpt lat="43.628719" lon="11.3198637"><ele>374.59999999999997</ele><time>2026-04-18T11:24:52.784Z</time></trkpt><trkpt lat="43.6288283" lon="11.3198881"><ele>376.2</ele><time>2026-04-18T11:24:53.778Z</time></trkpt><trkpt lat="43.628898" lon="11.3199112"><ele>377.8</ele><time>2026-04-18T11:24:54.779Z</time></trkpt><trkpt lat="43.6290211" lon="11.3199436"><ele>379.4</ele><time>2026-04-18T11:24:56.774Z</time></trkpt><trkpt lat="43.6291102" lon="11.3198621"><ele>381.0</ele><time>2026-04-18T11:24:58.774Z</time></trkpt><trkpt lat="43.6291288" lon="11.3197725"><ele>379.25</ele><time>2026-04-18T11:24:59.768Z</time></trkpt><trkpt lat="43.6291359" lon="11.3196756"><ele>377.5</ele><time>2026-04-18T11:25:00.761Z</time></trkpt><trkpt lat="43.6291022" lon="11.31952"><ele>375.75</ele><time>2026-04-18T11:25:01.767Z</time></trkpt><trkpt lat="43.629044" lon="11.3193485"><ele>374.0</ele><time>2026-04-18T11:25:02.773Z</time></trkpt><trkpt lat="43.6289771" lon="11.3191417"><ele>374.0</ele><time>2026-04-18T11:25:03.764Z</time></trkpt><trkpt lat="43.6289249" lon="11.3189545"><ele>374.0</ele><time>2026-04-18T11:25:04.77Z</time></trkpt><trkpt lat="43.6288819" lon="11.3187668"><ele>374.0</ele><time>2026-04-18T11:25:05.777Z</time></trkpt><trkpt lat="43.6288271" lon="11.3185766"><ele>374.0</ele><time>2026-04-18T11:25:06.791Z</time></trkpt><trkpt lat="43.6287753" lon="11.318411"><ele>373.0</ele><time>2026-04-18T11:25:07.781Z</time></trkpt><trkpt lat="43.6287263" lon="11.3182848"><ele>372.0</ele><time>2026-04-18T11:25:08.793Z</time></trkpt><trkpt lat="43.6286939" lon="11.318177"><ele>371.0</ele><time>2026-04-18T11:25:09.81Z</time></trkpt><trkpt lat="43.6286743" lon="11.3180636"><ele>370.0</ele><time>2026-04-18T11:25:10.795Z</time></trkpt><trkpt lat="43.628677" lon="11.3179539"><ele>369.0</ele><time>2026-04-18T11:25:11.798Z</time></trkpt><trkpt lat="43.6286941" lon="11.3178474"><ele>368.0</ele><time>2026-04-18T11:25:12.795Z</time></trkpt><trkpt lat="43.6287305" lon="11.3177619"><ele>365.83333333333337</ele><time>2026-04-18T11:25:13.799Z</time></trkpt><trkpt lat="43.6287786" lon="11.3176907"><ele>363.6666666666667</ele><time>2026-04-18T11:25:14.792Z</time></trkpt><trkpt lat="43.6288464" lon="11.3176144"><ele>361.5</ele><time>2026-04-18T11:25:15.793Z</time></trkpt><trkpt lat="43.6289215" lon="11.3175554"><ele>359.3333333333333</ele><time>2026-04-18T11:25:16.796Z</time></trkpt><trkpt lat="43.6290022" lon="11.3175145"><ele>357.16666666666663</ele><time>2026-04-18T11:25:17.796Z</time></trkpt><trkpt lat="43.6290884" lon="11.3174927"><ele>355.0</ele><time>2026-04-18T11:25:18.79Z</time></trkpt><trkpt lat="43.629167" lon="11.3174901"><ele>355.0</ele><time>2026-04-18T11:25:19.798Z</time></trkpt><trkpt lat="43.6292318" lon="11.3175335"><ele>355.0</ele><time>2026-04-18T11:25:20.8Z</time></trkpt><trkpt lat="43.6293019" lon="11.3175861"><ele>355.0</ele><time>2026-04-18T11:25:21.803Z</time></trkpt><trkpt lat="43.6293734" lon="11.3176418"><ele>355.0</ele><time>2026-04-18T11:25:22.799Z</time></trkpt><trkpt lat="43.6294374" lon="11.3176852"><ele>355.0</ele><time>2026-04-18T11:25:23.802Z</time></trkpt><trkpt lat="43.6295056" lon="11.3177197"><ele>355.0</ele><time>2026-04-18T11:25:24.792Z</time></trkpt><trkpt lat="43.6295916" lon="11.3177224"><ele>356.0</ele><time>2026-04-18T11:25:25.792Z</time></trkpt><trkpt lat="43.6296974" lon="11.3177021"><ele>357.0</ele><time>2026-04-18T11:25:26.803Z</time></trkpt><trkpt lat="43.629794" lon="11.3176431"><ele>358.0</ele><time>2026-04-18T11:25:27.784Z</time></trkpt><trkpt lat="43.6298883" lon="11.3175646"><ele>359.0</ele><time>2026-04-18T11:25:28.785Z</time></trkpt><trkpt lat="43.629946" lon="11.3174942"><ele>360.0</ele><time>2026-04-18T11:25:29.781Z</time></trkpt><trkpt lat="43.6299727" lon="11.3173966"><ele>358.8</ele><time>2026-04-18T11:25:31.774Z</time></trkpt><trkpt lat="43.6299113" lon="11.317223"><ele>357.6</ele><time>2026-04-18T11:25:33.781Z</time></trkpt><trkpt lat="43.6298803" lon="11.3171266"><ele>356.4</ele><time>2026-04-18T11:25:34.783Z</time></trkpt><trkpt lat="43.6298876" lon="11.3169678"><ele>355.2</ele><time>2026-04-18T11:25:36.788Z</time></trkpt><trkpt lat="43.6299285" lon="11.3168879"><ele>354.0</ele><time>2026-04-18T11:25:38.8Z</time></trkpt><trkpt lat="43.630009" lon="11.316863"><ele>354.0</ele><time>2026-04-18T11:25:40.809Z</time></trkpt><trkpt lat="43.6300833" lon="11.3168558"><ele>354.0</ele><time>2026-04-18T11:25:41.799Z</time></trkpt><trkpt lat="43.6301704" lon="11.316844"><ele>354.0</ele><time>2026-04-18T11:25:42.786Z</time></trkpt><trkpt lat="43.6302681" lon="11.3168248"><ele>354.0</ele><time>2026-04-18T11:25:43.787Z</time></trkpt><trkpt lat="43.6303498" lon="11.3167876"><ele>354.0</ele><time>2026-04-18T11:25:44.789Z</time></trkpt><trkpt lat="43.6304306" lon="11.3167133"><ele>354.0</ele><time>2026-04-18T11:25:45.79Z</time></trkpt><trkpt lat="43.6304856" lon="11.3166174"><ele>354.2</ele><time>2026-04-18T11:25:46.782Z</time></trkpt><trkpt lat="43.6304947" lon="11.3164861"><ele>354.4</ele><time>2026-04-18T11:25:47.801Z</time></trkpt><trkpt lat="43.6304784" lon="11.3163574"><ele>354.6</ele><time>2026-04-18T11:25:48.789Z</time></trkpt><trkpt lat="43.6304374" lon="11.3162434"><ele>354.8</ele><time>2026-04-18T11:25:49.782Z</time></trkpt><trkpt lat="43.6303712" lon="11.3161286"><ele>355.0</ele><time>2026-04-18T11:25:50.783Z</time></trkpt><trkpt lat="43.6302694" lon="11.3160229"><ele>355.0</ele><time>2026-04-18T11:25:51.784Z</time></trkpt><trkpt lat="43.6301787" lon="11.3159139"><ele>355.0</ele><time>2026-04-18T11:25:52.792Z</time></trkpt><trkpt lat="43.6301071" lon="11.3158115"><ele>355.0</ele><time>2026-04-18T11:25:53.794Z</time></trkpt><trkpt lat="43.6300405" lon="11.3156798"><ele>355.0</ele><time>2026-04-18T11:25:54.782Z</time></trkpt><trkpt lat="43.6299627" lon="11.3155355"><ele>356.75</ele><time>2026-04-18T11:25:55.781Z</time></trkpt><trkpt lat="43.6298691" lon="11.3153815"><ele>358.5</ele><time>2026-04-18T11:25:56.772Z</time></trkpt><trkpt lat="43.629776" lon="11.3152383"><ele>360.25</ele><time>2026-04-18T11:25:57.779Z</time></trkpt><trkpt lat="43.6296947" lon="11.3151113"><ele>362.0</ele><time>2026-04-18T11:25:58.775Z</time></trkpt><trkpt lat="43.6296167" lon="11.3149783"><ele>362.0</ele><time>2026-04-18T11:25:59.778Z</time></trkpt><trkpt lat="43.6295353" lon="11.3148297"><ele>362.0</ele><time>2026-04-18T11:26:00.78Z</time></trkpt><trkpt lat="43.6294509" lon="11.3146868"><ele>362.0</ele><time>2026-04-18T11:26:01.783Z</time></trkpt><trkpt lat="43.6293634" lon="11.3145749"><ele>362.0</ele><time>2026-04-18T11:26:02.789Z</time></trkpt><trkpt lat="43.6292817" lon="11.3144625"><ele>361.40000000000003</ele><time>2026-04-18T11:26:03.783Z</time></trkpt><trkpt lat="43.6292235" lon="11.3143663"><ele>360.8</ele><time>2026-04-18T11:26:04.784Z</time></trkpt><trkpt lat="43.6291653" lon="11.3142471"><ele>360.2</ele><time>2026-04-18T11:26:05.788Z</time></trkpt><trkpt lat="43.6291072" lon="11.314108"><ele>359.6</ele><time>2026-04-18T11:26:06.788Z</time></trkpt><trkpt lat="43.629027" lon="11.3139532"><ele>359.0</ele><time>2026-04-18T11:26:07.789Z</time></trkpt><trkpt lat="43.6289633" lon="11.313805"><ele>358.79999999999995</ele><time>2026-04-18T11:26:08.791Z</time></trkpt><trkpt lat="43.6289056" lon="11.3136588"><ele>358.59999999999997</ele><time>2026-04-18T11:26:09.791Z</time></trkpt><trkpt lat="43.6288593" lon="11.3135303"><ele>358.4</ele><time>2026-04-18T11:26:10.791Z</time></trkpt><trkpt lat="43.6288167" lon="11.3134034"><ele>358.2</ele><time>2026-04-18T11:26:11.812Z</time></trkpt><trkpt lat="43.6287716" lon="11.3132603"><ele>358.0</ele><time>2026-04-18T11:26:12.795Z</time></trkpt><trkpt lat="43.6287298" lon="11.3131114"><ele>356.0</ele><time>2026-04-18T11:26:13.799Z</time></trkpt><trkpt lat="43.6286813" lon="11.3129745"><ele>354.0</ele><time>2026-04-18T11:26:14.794Z</time></trkpt><trkpt lat="43.62864" lon="11.3128467"><ele>352.0</ele><time>2026-04-18T11:26:15.798Z</time></trkpt><trkpt lat="43.6285961" lon="11.3127203"><ele>350.0</ele><time>2026-04-18T11:26:16.798Z</time></trkpt><trkpt lat="43.6285595" lon="11.3125933"><ele>348.0</ele><time>2026-04-18T11:26:17.8Z</time></trkpt><trkpt lat="43.628517" lon="11.3124874"><ele>348.0</ele><time>2026-04-18T11:26:18.789Z</time></trkpt><trkpt lat="43.6284898" lon="11.3123871"><ele>348.0</ele><time>2026-04-18T11:26:19.79Z</time></trkpt><trkpt lat="43.6284889" lon="11.3122946"><ele>348.0</ele><time>2026-04-18T11:26:20.788Z</time></trkpt><trkpt lat="43.6285067" lon="11.3121814"><ele>348.0</ele><time>2026-04-18T11:26:21.794Z</time></trkpt><trkpt lat="43.6285439" lon="11.3120463"><ele>348.0</ele><time>2026-04-18T11:26:22.796Z</time></trkpt><trkpt lat="43.6285917" lon="11.3119075"><ele>348.0</ele><time>2026-04-18T11:26:23.791Z</time></trkpt><trkpt lat="43.6286428" lon="11.3117824"><ele>346.5</ele><time>2026-04-18T11:26:24.793Z</time></trkpt><trkpt lat="43.6286818" lon="11.3116808"><ele>345.0</ele><time>2026-04-18T11:26:25.795Z</time></trkpt><trkpt lat="43.6287227" lon="11.3116122"><ele>343.5</ele><time>2026-04-18T11:26:26.792Z</time></trkpt><trkpt lat="43.6287633" lon="11.3115384"><ele>342.0</ele><time>2026-04-18T11:26:28.796Z</time></trkpt><trkpt lat="43.6288165" lon="11.3114859"><ele>340.5</ele><time>2026-04-18T11:26:50.812Z</time></trkpt><trkpt lat="43.6289013" lon="11.3115106"><ele>339.0</ele><time>2026-04-18T11:26:54.813Z</time></trkpt><trkpt lat="43.6290194" lon="11.311552"><ele>339.0</ele><time>2026-04-18T11:26:56.798Z</time></trkpt><trkpt lat="43.6291146" lon="11.3115777"><ele>339.0</ele><time>2026-04-18T11:26:57.804Z</time></trkpt><trkpt lat="43.6292232" lon="11.3116021"><ele>339.0</ele><time>2026-04-18T11:26:58.806Z</time></trkpt><trkpt lat="43.6293279" lon="11.3116386"><ele>339.0</ele><time>2026-04-18T11:26:59.8Z</time></trkpt><trkpt lat="43.6294199" lon="11.3116982"><ele>339.0</ele><time>2026-04-18T11:27:00.804Z</time></trkpt><trkpt lat="43.6295079" lon="11.3117826"><ele>333.6666666666667</ele><time>2026-04-18T11:27:01.791Z</time></trkpt><trkpt lat="43.6296097" lon="11.3118978"><ele>328.33333333333337</ele><time>2026-04-18T11:27:02.792Z</time></trkpt><trkpt lat="43.629739" lon="11.3120046"><ele>323.0</ele><time>2026-04-18T11:27:03.791Z</time></trkpt><trkpt lat="43.6298996" lon="11.3121069"><ele>323.0</ele><time>2026-04-18T11:27:04.79Z</time></trkpt><trkpt lat="43.6300778" lon="11.3122031"><ele>323.0</ele><time>2026-04-18T11:27:05.799Z</time></trkpt><trkpt lat="43.6302551" lon="11.3122998"><ele>323.0</ele><time>2026-04-18T11:27:06.795Z</time></trkpt><trkpt lat="43.6304492" lon="11.3123999"><ele>322.33333333333337</ele><time>2026-04-18T11:27:07.794Z</time></trkpt><trkpt lat="43.6306594" lon="11.3124873"><ele>321.6666666666667</ele><time>2026-04-18T11:27:08.797Z</time></trkpt><trkpt lat="43.6308582" lon="11.3125682"><ele>321.0</ele><time>2026-04-18T11:27:09.802Z</time></trkpt><trkpt lat="43.6310403" lon="11.3126722"><ele>319.6666666666667</ele><time>2026-04-18T11:27:10.787Z</time></trkpt><trkpt lat="43.6312167" lon="11.3128149"><ele>318.33333333333337</ele><time>2026-04-18T11:27:11.796Z</time></trkpt><trkpt lat="43.6313871" lon="11.3129907"><ele>317.0</ele><time>2026-04-18T11:27:12.79Z</time></trkpt><trkpt lat="43.6315844" lon="11.3131387"><ele>317.0</ele><time>2026-04-18T11:27:13.803Z</time></trkpt><trkpt lat="43.6318158" lon="11.313256"><ele>317.0</ele><time>2026-04-18T11:27:14.789Z</time></trkpt><trkpt lat="43.6320735" lon="11.3133648"><ele>312.0</ele><time>2026-04-18T11:27:15.802Z</time></trkpt><trkpt lat="43.6323105" lon="11.3134918"><ele>307.0</ele><time>2026-04-18T11:27:16.804Z</time></trkpt><trkpt lat="43.6325289" lon="11.3136493"><ele>307.0</ele><time>2026-04-18T11:27:17.801Z</time></trkpt><trkpt lat="43.632718" lon="11.3137671"><ele>307.0</ele><time>2026-04-18T11:27:18.794Z</time></trkpt><trkpt lat="43.6328731" lon="11.3138668"><ele>307.0</ele><time>2026-04-18T11:27:19.806Z</time></trkpt><trkpt lat="43.63303" lon="11.3138967"><ele>305.66666666666663</ele><time>2026-04-18T11:27:20.804Z</time></trkpt><trkpt lat="43.6332082" lon="11.3138789"><ele>304.3333333333333</ele><time>2026-04-18T11:27:21.802Z</time></trkpt><trkpt lat="43.6333986" lon="11.3138259"><ele>303.0</ele><time>2026-04-18T11:27:22.805Z</time></trkpt><trkpt lat="43.6335729" lon="11.3137979"><ele>303.6666666666667</ele><time>2026-04-18T11:27:23.796Z</time></trkpt><trkpt lat="43.6337316" lon="11.3138032"><ele>304.33333333333337</ele><time>2026-04-18T11:27:24.801Z</time></trkpt><trkpt lat="43.6338981" lon="11.313864"><ele>305.0</ele><time>2026-04-18T11:27:25.803Z</time></trkpt><trkpt lat="43.6340491" lon="11.3139575"><ele>305.0</ele><time>2026-04-18T11:27:26.8Z</time></trkpt><trkpt lat="43.634209" lon="11.3140433"><ele>305.0</ele><time>2026-04-18T11:27:27.807Z</time></trkpt><trkpt lat="43.6343515" lon="11.3140655"><ele>305.0</ele><time>2026-04-18T11:27:28.806Z</time></trkpt><trkpt lat="43.6345193" lon="11.3140031"><ele>303.33333333333337</ele><time>2026-04-18T11:27:29.8Z</time></trkpt><trkpt lat="43.6346751" lon="11.3138627"><ele>301.6666666666667</ele><time>2026-04-18T11:27:30.785Z</time></trkpt><trkpt lat="43.6348519" lon="11.3137387"><ele>300.0</ele><time>2026-04-18T11:27:31.782Z</time></trkpt><trkpt lat="43.6350365" lon="11.3136168"><ele>300.0</ele><time>2026-04-18T11:27:32.782Z</time></trkpt><trkpt lat="43.6352192" lon="11.3135201"><ele>300.0</ele><time>2026-04-18T11:27:33.785Z</time></trkpt><trkpt lat="43.6354025" lon="11.3134804"><ele>300.0</ele><time>2026-04-18T11:27:34.778Z</time></trkpt><trkpt lat="43.6355957" lon="11.3134794"><ele>300.0</ele><time>2026-04-18T11:27:35.778Z</time></trkpt><trkpt lat="43.6358139" lon="11.313513"><ele>300.0</ele><time>2026-04-18T11:27:36.776Z</time></trkpt><trkpt lat="43.6360237" lon="11.3135406"><ele>300.0</ele><time>2026-04-18T11:27:37.789Z</time></trkpt><trkpt lat="43.636219" lon="11.3136159"><ele>296.6666666666667</ele><time>2026-04-18T11:27:38.78Z</time></trkpt><trkpt lat="43.6363915" lon="11.3136755"><ele>293.33333333333337</ele><time>2026-04-18T11:27:39.795Z</time></trkpt><trkpt lat="43.6365655" lon="11.3137907"><ele>290.0</ele><time>2026-04-18T11:27:40.793Z</time></trkpt><trkpt lat="43.6367351" lon="11.3138817"><ele>289.5</ele><time>2026-04-18T11:27:41.793Z</time></trkpt><trkpt lat="43.6368938" lon="11.3139762"><ele>289.0</ele><time>2026-04-18T11:27:42.787Z</time></trkpt><trkpt lat="43.6370196" lon="11.31404"><ele>288.5</ele><time>2026-04-18T11:27:43.788Z</time></trkpt><trkpt lat="43.637144" lon="11.3140664"><ele>288.0</ele><time>2026-04-18T11:27:44.814Z</time></trkpt><trkpt lat="43.6372521" lon="11.3140668"><ele>288.0</ele><time>2026-04-18T11:27:45.793Z</time></trkpt><trkpt lat="43.6373665" lon="11.3140538"><ele>288.0</ele><time>2026-04-18T11:27:46.796Z</time></trkpt><trkpt lat="43.6374768" lon="11.3140359"><ele>288.0</ele><time>2026-04-18T11:27:47.814Z</time></trkpt><trkpt lat="43.637589" lon="11.314023"><ele>288.0</ele><time>2026-04-18T11:27:48.871Z</time></trkpt><trkpt lat="43.6377029" lon="11.3140134"><ele>286.75</ele><time>2026-04-18T11:27:49.873Z</time></trkpt><trkpt lat="43.6378202" lon="11.3140033"><ele>285.5</ele><time>2026-04-18T11:27:50.873Z</time></trkpt><trkpt lat="43.6379468" lon="11.3139872"><ele>284.25</ele><time>2026-04-18T11:27:51.873Z</time></trkpt><trkpt lat="43.6380722" lon="11.3139731"><ele>283.0</ele><time>2026-04-18T11:27:52.875Z</time></trkpt><trkpt lat="43.6381905" lon="11.3139581"><ele>283.0</ele><time>2026-04-18T11:27:53.878Z</time></trkpt><trkpt lat="43.638302" lon="11.3139332"><ele>283.0</ele><time>2026-04-18T11:27:54.871Z</time></trkpt><trkpt lat="43.6384134" lon="11.3138959"><ele>283.0</ele><time>2026-04-18T11:27:55.867Z</time></trkpt><trkpt lat="43.6385319" lon="11.3138457"><ele>283.0</ele><time>2026-04-18T11:27:56.845Z</time></trkpt><trkpt lat="43.638657" lon="11.313778"><ele>281.5</ele><time>2026-04-18T11:27:57.845Z</time></trkpt><trkpt lat="43.6387919" lon="11.3137062"><ele>280.0</ele><time>2026-04-18T11:27:58.85Z</time></trkpt><trkpt lat="43.6389157" lon="11.3136122"><ele>278.5</ele><time>2026-04-18T11:27:59.847Z</time></trkpt><trkpt lat="43.6390641" lon="11.3135371"><ele>277.0</ele><time>2026-04-18T11:28:00.869Z</time></trkpt><trkpt lat="43.6392185" lon="11.3134732"><ele>277.0</ele><time>2026-04-18T11:28:01.872Z</time></trkpt><trkpt lat="43.6393828" lon="11.3134292"><ele>277.0</ele><time>2026-04-18T11:28:02.878Z</time></trkpt><trkpt lat="43.639559" lon="11.3134011"><ele>277.0</ele><time>2026-04-18T11:28:03.864Z</time></trkpt><trkpt lat="43.6397483" lon="11.3133821"><ele>277.3333333333333</ele><time>2026-04-18T11:28:04.869Z</time></trkpt><trkpt lat="43.6399461" lon="11.3133729"><ele>277.6666666666667</ele><time>2026-04-18T11:28:05.872Z</time></trkpt><trkpt lat="43.6401482" lon="11.313357"><ele>278.0</ele><time>2026-04-18T11:28:06.865Z</time></trkpt><trkpt lat="43.6403548" lon="11.3133151"><ele>277.0</ele><time>2026-04-18T11:28:07.879Z</time></trkpt><trkpt lat="43.6405567" lon="11.313236"><ele>276.0</ele><time>2026-04-18T11:28:08.886Z</time></trkpt><trkpt lat="43.6407707" lon="11.3131273"><ele>275.0</ele><time>2026-04-18T11:28:09.86Z</time></trkpt><trkpt lat="43.6409925" lon="11.3130107"><ele>270.5</ele><time>2026-04-18T11:28:10.865Z</time></trkpt><trkpt lat="43.641226" lon="11.3128857"><ele>266.0</ele><time>2026-04-18T11:28:11.776Z</time></trkpt><trkpt lat="43.6414592" lon="11.3128197"><ele>266.0</ele><time>2026-04-18T11:28:12.782Z</time></trkpt><trkpt lat="43.641707" lon="11.3127667"><ele>266.0</ele><time>2026-04-18T11:28:13.791Z</time></trkpt><trkpt lat="43.6419679" lon="11.3127226"><ele>262.5</ele><time>2026-04-18T11:28:14.795Z</time></trkpt><trkpt lat="43.6422297" lon="11.312688"><ele>259.0</ele><time>2026-04-18T11:28:15.828Z</time></trkpt><trkpt lat="43.6425017" lon="11.3126458"><ele>259.0</ele><time>2026-04-18T11:28:16.799Z</time></trkpt><trkpt lat="43.6427927" lon="11.3125969"><ele>259.0</ele><time>2026-04-18T11:28:17.799Z</time></trkpt><trkpt lat="43.6430913" lon="11.3125469"><ele>256.5</ele><time>2026-04-18T11:28:18.795Z</time></trkpt><trkpt lat="43.6434052" lon="11.3124838"><ele>254.0</ele><time>2026-04-18T11:28:19.794Z</time></trkpt><trkpt lat="43.6437295" lon="11.3124231"><ele>253.5</ele><time>2026-04-18T11:28:20.799Z</time></trkpt><trkpt lat="43.6440698" lon="11.3123712"><ele>253.0</ele><time>2026-04-18T11:28:21.798Z</time></trkpt><trkpt lat="43.644413" lon="11.312322"><ele>250.5</ele><time>2026-04-18T11:28:22.8Z</time></trkpt><trkpt lat="43.644725" lon="11.3122746"><ele>248.0</ele><time>2026-04-18T11:28:23.793Z</time></trkpt><trkpt lat="43.6450216" lon="11.3122372"><ele>245.5</ele><time>2026-04-18T11:28:24.791Z</time></trkpt><trkpt lat="43.645288" lon="11.3121819"><ele>243.0</ele><time>2026-04-18T11:28:25.793Z</time></trkpt><trkpt lat="43.6455373" lon="11.3121111"><ele>243.0</ele><time>2026-04-18T11:28:26.788Z</time></trkpt><trkpt lat="43.6457861" lon="11.3120065"><ele>243.0</ele><time>2026-04-18T11:28:27.803Z</time></trkpt><trkpt lat="43.6460521" lon="11.3118697"><ele>244.0</ele><time>2026-04-18T11:28:28.8Z</time></trkpt><trkpt lat="43.6463308" lon="11.3117377"><ele>245.0</ele><time>2026-04-18T11:28:29.796Z</time></trkpt><trkpt lat="43.6466175" lon="11.3116228"><ele>245.0</ele><time>2026-04-18T11:28:30.806Z</time></trkpt><trkpt lat="43.6469134" lon="11.3115242"><ele>245.0</ele><time>2026-04-18T11:28:31.8Z</time></trkpt><trkpt lat="43.647179" lon="11.3114348"><ele>240.5</ele><time>2026-04-18T11:28:32.792Z</time></trkpt><trkpt lat="43.6474155" lon="11.3113488"><ele>236.0</ele><time>2026-04-18T11:28:33.794Z</time></trkpt><trkpt lat="43.6476513" lon="11.3112674"><ele>234.0</ele><time>2026-04-18T11:28:34.792Z</time></trkpt><trkpt lat="43.6478961" lon="11.3112172"><ele>232.0</ele><time>2026-04-18T11:28:35.792Z</time></trkpt><trkpt lat="43.6481595" lon="11.31117"><ele>232.0</ele><time>2026-04-18T11:28:36.799Z</time></trkpt><trkpt lat="43.6484303" lon="11.3111116"><ele>232.0</ele><time>2026-04-18T11:28:37.804Z</time></trkpt><trkpt lat="43.6486865" lon="11.3110586"><ele>230.0</ele><time>2026-04-18T11:28:38.803Z</time></trkpt><trkpt lat="43.6489252" lon="11.3110096"><ele>228.0</ele><time>2026-04-18T11:28:39.802Z</time></trkpt><trkpt lat="43.6491556" lon="11.3109598"><ele>228.0</ele><time>2026-04-18T11:28:40.8Z</time></trkpt><trkpt lat="43.6493634" lon="11.3109126"><ele>228.0</ele><time>2026-04-18T11:28:41.791Z</time></trkpt><trkpt lat="43.6495582" lon="11.310834"><ele>228.0</ele><time>2026-04-18T11:28:42.798Z</time></trkpt><trkpt lat="43.6497457" lon="11.3106977"><ele>225.0</ele><time>2026-04-18T11:28:43.8Z</time></trkpt><trkpt lat="43.6499461" lon="11.3105109"><ele>222.0</ele><time>2026-04-18T11:28:44.804Z</time></trkpt><trkpt lat="43.6501524" lon="11.3102897"><ele>221.0</ele><time>2026-04-18T11:28:45.807Z</time></trkpt><trkpt lat="43.6503722" lon="11.3100733"><ele>220.0</ele><time>2026-04-18T11:28:46.799Z</time></trkpt><trkpt lat="43.6505967" lon="11.3098697"><ele>219.0</ele><time>2026-04-18T11:28:47.796Z</time></trkpt><trkpt lat="43.6508024" lon="11.3096859"><ele>218.0</ele><time>2026-04-18T11:28:48.795Z</time></trkpt><trkpt lat="43.650987" lon="11.3095053"><ele>217.0</ele><time>2026-04-18T11:28:49.798Z</time></trkpt><trkpt lat="43.6511587" lon="11.3093379"><ele>216.0</ele><time>2026-04-18T11:28:50.798Z</time></trkpt><trkpt lat="43.6513176" lon="11.3091879"><ele>215.0</ele><time>2026-04-18T11:28:51.792Z</time></trkpt><trkpt lat="43.6514753" lon="11.3090493"><ele>215.0</ele><time>2026-04-18T11:28:52.798Z</time></trkpt><trkpt lat="43.6516098" lon="11.3089139"><ele>215.0</ele><time>2026-04-18T11:28:53.8Z</time></trkpt><trkpt lat="43.6517339" lon="11.3087699"><ele>215.0</ele><time>2026-04-18T11:28:54.794Z</time></trkpt><trkpt lat="43.6518547" lon="11.3086032"><ele>214.66666666666669</ele><time>2026-04-18T11:28:55.79Z</time></trkpt><trkpt lat="43.6519698" lon="11.3083976"><ele>214.33333333333331</ele><time>2026-04-18T11:28:56.807Z</time></trkpt><trkpt lat="43.6520921" lon="11.3081619"><ele>214.0</ele><time>2026-04-18T11:28:57.8Z</time></trkpt><trkpt lat="43.6522186" lon="11.30791"><ele>213.5</ele><time>2026-04-18T11:28:58.798Z</time></trkpt><trkpt lat="43.6523428" lon="11.307633"><ele>213.0</ele><time>2026-04-18T11:28:59.791Z</time></trkpt><trkpt lat="43.6524535" lon="11.3073416"><ele>211.5</ele><time>2026-04-18T11:29:00.791Z</time></trkpt><trkpt lat="43.6525627" lon="11.3070158"><ele>210.0</ele><time>2026-04-18T11:29:01.796Z</time></trkpt><trkpt lat="43.652674" lon="11.3066867"><ele>212.0</ele><time>2026-04-18T11:29:02.803Z</time></trkpt><trkpt lat="43.6527866" lon="11.3063365"><ele>214.0</ele><time>2026-04-18T11:29:03.799Z</time></trkpt><trkpt lat="43.652909" lon="11.305963"><ele>214.0</ele><time>2026-04-18T11:29:04.801Z</time></trkpt><trkpt lat="43.6530419" lon="11.3055965"><ele>214.0</ele><time>2026-04-18T11:29:05.805Z</time></trkpt><trkpt lat="43.6531698" lon="11.3052292"><ele>211.0</ele><time>2026-04-18T11:29:06.8Z</time></trkpt><trkpt lat="43.6533015" lon="11.3048608"><ele>208.0</ele><time>2026-04-18T11:29:07.796Z</time></trkpt><trkpt lat="43.6534206" lon="11.3044816"><ele>204.5</ele><time>2026-04-18T11:29:08.789Z</time></trkpt><trkpt lat="43.6535246" lon="11.3040807"><ele>201.0</ele><time>2026-04-18T11:29:09.782Z</time></trkpt><trkpt lat="43.6536097" lon="11.3036561"><ele>205.5</ele><time>2026-04-18T11:29:10.795Z</time></trkpt><trkpt lat="43.6536939" lon="11.303198"><ele>210.0</ele><time>2026-04-18T11:29:11.802Z</time></trkpt><trkpt lat="43.6537679" lon="11.3027436"><ele>212.5</ele><time>2026-04-18T11:29:12.801Z</time></trkpt><trkpt lat="43.6538288" lon="11.3023549"><ele>215.0</ele><time>2026-04-18T11:29:13.806Z</time></trkpt><trkpt lat="43.6538852" lon="11.3019904"><ele>215.0</ele><time>2026-04-18T11:29:14.804Z</time></trkpt><trkpt lat="43.6539451" lon="11.3016773"><ele>215.0</ele><time>2026-04-18T11:29:15.795Z</time></trkpt><trkpt lat="43.6540031" lon="11.3013817"><ele>214.0</ele><time>2026-04-18T11:29:16.803Z</time></trkpt><trkpt lat="43.6540788" lon="11.3011298"><ele>213.0</ele><time>2026-04-18T11:29:17.789Z</time></trkpt><trkpt lat="43.6541632" lon="11.3009029"><ele>212.0</ele><time>2026-04-18T11:29:18.789Z</time></trkpt><trkpt lat="43.6542518" lon="11.3006991"><ele>210.33333333333334</ele><time>2026-04-18T11:29:19.782Z</time></trkpt><trkpt lat="43.6543453" lon="11.3005234"><ele>208.66666666666669</ele><time>2026-04-18T11:29:20.796Z</time></trkpt><trkpt lat="43.654452" lon="11.3003819"><ele>207.0</ele><time>2026-04-18T11:29:21.799Z</time></trkpt><trkpt lat="43.6545686" lon="11.3002351"><ele>207.66666666666669</ele><time>2026-04-18T11:29:22.797Z</time></trkpt><trkpt lat="43.6546915" lon="11.3000776"><ele>208.33333333333334</ele><time>2026-04-18T11:29:23.796Z</time></trkpt><trkpt lat="43.6548233" lon="11.2999045"><ele>209.0</ele><time>2026-04-18T11:29:24.793Z</time></trkpt><trkpt lat="43.6549694" lon="11.2997162"><ele>209.0</ele><time>2026-04-18T11:29:25.795Z</time></trkpt><trkpt lat="43.6551153" lon="11.2995199"><ele>209.0</ele><time>2026-04-18T11:29:26.8Z</time></trkpt><trkpt lat="43.6552854" lon="11.2993213"><ele>209.0</ele><time>2026-04-18T11:29:27.799Z</time></trkpt><trkpt lat="43.6554524" lon="11.2991135"><ele>208.0</ele><time>2026-04-18T11:29:28.802Z</time></trkpt><trkpt lat="43.6556229" lon="11.2989033"><ele>207.0</ele><time>2026-04-18T11:29:29.791Z</time></trkpt><trkpt lat="43.6557887" lon="11.2986732"><ele>207.0</ele><time>2026-04-18T11:29:30.798Z</time></trkpt><trkpt lat="43.6559582" lon="11.2984457"><ele>207.0</ele><time>2026-04-18T11:29:31.798Z</time></trkpt><trkpt lat="43.6561242" lon="11.2982166"><ele>214.0</ele><time>2026-04-18T11:29:32.801Z</time></trkpt><trkpt lat="43.6562784" lon="11.2979629"><ele>221.0</ele><time>2026-04-18T11:29:33.79Z</time></trkpt><trkpt lat="43.6564222" lon="11.297679"><ele>221.0</ele><time>2026-04-18T11:29:34.788Z</time></trkpt><trkpt lat="43.6565593" lon="11.2973842"><ele>221.0</ele><time>2026-04-18T11:29:35.786Z</time></trkpt><trkpt lat="43.6566829" lon="11.297065"><ele>221.5</ele><time>2026-04-18T11:29:36.788Z</time></trkpt><trkpt lat="43.6568007" lon="11.2967304"><ele>222.0</ele><time>2026-04-18T11:29:37.789Z</time></trkpt><trkpt lat="43.6569295" lon="11.2963853"><ele>227.5</ele><time>2026-04-18T11:29:38.791Z</time></trkpt><trkpt lat="43.6570628" lon="11.2960764"><ele>233.0</ele><time>2026-04-18T11:29:39.795Z</time></trkpt><trkpt lat="43.6571866" lon="11.2957869"><ele>233.0</ele><time>2026-04-18T11:29:40.785Z</time></trkpt><trkpt lat="43.6573183" lon="11.2955726"><ele>233.0</ele><time>2026-04-18T11:29:41.786Z</time></trkpt><trkpt lat="43.6574554" lon="11.29537"><ele>233.0</ele><time>2026-04-18T11:29:42.791Z</time></trkpt><trkpt lat="43.6576005" lon="11.2951759"><ele>233.0</ele><time>2026-04-18T11:29:43.806Z</time></trkpt><trkpt lat="43.6577552" lon="11.2949868"><ele>233.0</ele><time>2026-04-18T11:29:44.801Z</time></trkpt><trkpt lat="43.6579171" lon="11.2948257"><ele>233.0</ele><time>2026-04-18T11:29:45.796Z</time></trkpt><trkpt lat="43.6580825" lon="11.2946846"><ele>233.33333333333334</ele><time>2026-04-18T11:29:46.798Z</time></trkpt><trkpt lat="43.6582571" lon="11.2945423"><ele>233.66666666666669</ele><time>2026-04-18T11:29:47.822Z</time></trkpt><trkpt lat="43.658411" lon="11.2944195"><ele>234.0</ele><time>2026-04-18T11:29:48.791Z</time></trkpt><trkpt lat="43.6585545" lon="11.2943145"><ele>233.25</ele><time>2026-04-18T11:29:49.797Z</time></trkpt><trkpt lat="43.6586813" lon="11.2942125"><ele>232.5</ele><time>2026-04-18T11:29:50.796Z</time></trkpt><trkpt lat="43.6587912" lon="11.294122"><ele>231.75</ele><time>2026-04-18T11:29:51.804Z</time></trkpt><trkpt lat="43.6588913" lon="11.2940333"><ele>231.0</ele><time>2026-04-18T11:29:52.807Z</time></trkpt><trkpt lat="43.65899" lon="11.2939487"><ele>230.0</ele><time>2026-04-18T11:29:53.805Z</time></trkpt><trkpt lat="43.6590821" lon="11.2938743"><ele>229.00000000000003</ele><time>2026-04-18T11:29:54.832Z</time></trkpt><trkpt lat="43.6591656" lon="11.2938119"><ele>228.00000000000003</ele><time>2026-04-18T11:29:55.817Z</time></trkpt><trkpt lat="43.6592488" lon="11.2937633"><ele>227.0</ele><time>2026-04-18T11:29:56.885Z</time></trkpt><trkpt lat="43.6593199" lon="11.2937319"><ele>226.0</ele><time>2026-04-18T11:29:57.883Z</time></trkpt><trkpt lat="43.6594073" lon="11.2936405"><ele>226.0</ele><time>2026-04-18T11:29:59.86Z</time></trkpt><trkpt lat="43.6594404" lon="11.2935082"><ele>226.00000000000003</ele><time>2026-04-18T11:30:01.867Z</time></trkpt><trkpt lat="43.659487" lon="11.293357"><ele>226.00000000000003</ele><time>2026-04-18T11:30:03.798Z</time></trkpt><trkpt lat="43.6595441" lon="11.2932375"><ele>226.0</ele><time>2026-04-18T11:30:04.798Z</time></trkpt><trkpt lat="43.6596297" lon="11.2931135"><ele>226.0</ele><time>2026-04-18T11:30:05.801Z</time></trkpt><trkpt lat="43.6597357" lon="11.2929874"><ele>224.5</ele><time>2026-04-18T11:30:06.804Z</time></trkpt><trkpt lat="43.6598452" lon="11.2928746"><ele>223.0</ele><time>2026-04-18T11:30:07.809Z</time></trkpt><trkpt lat="43.6599523" lon="11.2927609"><ele>221.5</ele><time>2026-04-18T11:30:08.817Z</time></trkpt><trkpt lat="43.6600768" lon="11.2926597"><ele>220.0</ele><time>2026-04-18T11:30:09.803Z</time></trkpt><trkpt lat="43.6602195" lon="11.2925641"><ele>221.66666666666666</ele><time>2026-04-18T11:30:10.809Z</time></trkpt><trkpt lat="43.660374" lon="11.2924758"><ele>223.33333333333331</ele><time>2026-04-18T11:30:11.799Z</time></trkpt><trkpt lat="43.6605326" lon="11.2924157"><ele>225.0</ele><time>2026-04-18T11:30:12.805Z</time></trkpt><trkpt lat="43.6606778" lon="11.2923881"><ele>225.0</ele><time>2026-04-18T11:30:13.802Z</time></trkpt><trkpt lat="43.6608177" lon="11.2923831"><ele>225.0</ele><time>2026-04-18T11:30:14.804Z</time></trkpt><trkpt lat="43.6609524" lon="11.2924166"><ele>225.0</ele><time>2026-04-18T11:30:15.803Z</time></trkpt><trkpt lat="43.6611101" lon="11.2924807"><ele>225.0</ele><time>2026-04-18T11:30:16.798Z</time></trkpt><trkpt lat="43.6612718" lon="11.2925755"><ele>225.33333333333331</ele><time>2026-04-18T11:30:17.802Z</time></trkpt><trkpt lat="43.661439" lon="11.2926687"><ele>225.66666666666666</ele><time>2026-04-18T11:30:18.806Z</time></trkpt><trkpt lat="43.6616054" lon="11.292793"><ele>226.0</ele><time>2026-04-18T11:30:19.799Z</time></trkpt><trkpt lat="43.6617939" lon="11.2929399"><ele>224.5</ele><time>2026-04-18T11:30:20.805Z</time></trkpt><trkpt lat="43.6619936" lon="11.2930807"><ele>223.0</ele><time>2026-04-18T11:30:21.79Z</time></trkpt><trkpt lat="43.6622259" lon="11.2931945"><ele>227.5</ele><time>2026-04-18T11:30:22.803Z</time></trkpt><trkpt lat="43.6624635" lon="11.2932819"><ele>232.0</ele><time>2026-04-18T11:30:23.804Z</time></trkpt><trkpt lat="43.6627073" lon="11.2933202"><ele>235.0</ele><time>2026-04-18T11:30:24.808Z</time></trkpt><trkpt lat="43.6629636" lon="11.2933194"><ele>238.0</ele><time>2026-04-18T11:30:25.806Z</time></trkpt><trkpt lat="43.6632245" lon="11.2932869"><ele>238.0</ele><time>2026-04-18T11:30:26.792Z</time></trkpt><trkpt lat="43.6634456" lon="11.2932759"><ele>238.0</ele><time>2026-04-18T11:30:27.802Z</time></trkpt><trkpt lat="43.6636342" lon="11.2932702"><ele>238.0</ele><time>2026-04-18T11:30:28.8Z</time></trkpt><trkpt lat="43.6637632" lon="11.2933012"><ele>239.2</ele><time>2026-04-18T11:30:29.804Z</time></trkpt><trkpt lat="43.6638859" lon="11.2933572"><ele>240.4</ele><time>2026-04-18T11:30:30.805Z</time></trkpt><trkpt lat="43.6639782" lon="11.2934279"><ele>241.59999999999997</ele><time>2026-04-18T11:30:31.797Z</time></trkpt><trkpt lat="43.66405" lon="11.2935117"><ele>242.79999999999998</ele><time>2026-04-18T11:30:32.795Z</time></trkpt><trkpt lat="43.6641059" lon="11.2935944"><ele>244.0</ele><time>2026-04-18T11:30:33.795Z</time></trkpt><trkpt lat="43.6641483" lon="11.2936781"><ele>243.99999999999997</ele><time>2026-04-18T11:30:34.799Z</time></trkpt><trkpt lat="43.6641941" lon="11.2937384"><ele>244.0</ele><time>2026-04-18T11:30:35.805Z</time></trkpt><trkpt lat="43.6642715" lon="11.2937567"><ele>243.99999999999997</ele><time>2026-04-18T11:30:36.805Z</time></trkpt><trkpt lat="43.6643379" lon="11.2937412"><ele>243.99999999999997</ele><time>2026-04-18T11:30:37.8Z</time></trkpt><trkpt lat="43.6643994" lon="11.2937041"><ele>244.0</ele><time>2026-04-18T11:30:38.805Z</time></trkpt><trkpt lat="43.664463" lon="11.2936462"><ele>243.99999999999997</ele><time>2026-04-18T11:30:39.805Z</time></trkpt><trkpt lat="43.664536" lon="11.2935956"><ele>243.99999999999997</ele><time>2026-04-18T11:30:40.805Z</time></trkpt><trkpt lat="43.6646162" lon="11.2935509"><ele>243.79999999999998</ele><time>2026-04-18T11:30:41.803Z</time></trkpt><trkpt lat="43.664708" lon="11.2935077"><ele>243.59999999999997</ele><time>2026-04-18T11:30:42.805Z</time></trkpt><trkpt lat="43.6648159" lon="11.2934796"><ele>243.4</ele><time>2026-04-18T11:30:43.81Z</time></trkpt><trkpt lat="43.6649277" lon="11.2934583"><ele>243.2</ele><time>2026-04-18T11:30:44.806Z</time></trkpt><trkpt lat="43.6650346" lon="11.2934381"><ele>243.0</ele><time>2026-04-18T11:30:45.806Z</time></trkpt><trkpt lat="43.665145" lon="11.2934181"><ele>243.0</ele><time>2026-04-18T11:30:46.81Z</time></trkpt><trkpt lat="43.6652606" lon="11.2934061"><ele>243.0</ele><time>2026-04-18T11:30:47.806Z</time></trkpt><trkpt lat="43.6653792" lon="11.2933985"><ele>243.0</ele><time>2026-04-18T11:30:48.812Z</time></trkpt><trkpt lat="43.6654998" lon="11.2933812"><ele>243.0</ele><time>2026-04-18T11:30:49.824Z</time></trkpt><trkpt lat="43.6656301" lon="11.2933636"><ele>241.66666666666669</ele><time>2026-04-18T11:30:50.81Z</time></trkpt><trkpt lat="43.6657734" lon="11.2933323"><ele>240.33333333333334</ele><time>2026-04-18T11:30:51.803Z</time></trkpt><trkpt lat="43.6659227" lon="11.2932807"><ele>239.0</ele><time>2026-04-18T11:30:52.807Z</time></trkpt><trkpt lat="43.6660741" lon="11.2932135"><ele>238.75</ele><time>2026-04-18T11:30:53.807Z</time></trkpt><trkpt lat="43.6662108" lon="11.2931655"><ele>238.5</ele><time>2026-04-18T11:30:54.808Z</time></trkpt><trkpt lat="43.6663437" lon="11.2931125"><ele>238.25</ele><time>2026-04-18T11:30:55.809Z</time></trkpt><trkpt lat="43.6664606" lon="11.2930747"><ele>238.0</ele><time>2026-04-18T11:30:56.802Z</time></trkpt><trkpt lat="43.6665791" lon="11.2930412"><ele>238.4</ele><time>2026-04-18T11:30:57.802Z</time></trkpt><trkpt lat="43.6666933" lon="11.2929957"><ele>238.8</ele><time>2026-04-18T11:30:58.802Z</time></trkpt><trkpt lat="43.6667966" lon="11.2929641"><ele>239.2</ele><time>2026-04-18T11:30:59.805Z</time></trkpt><trkpt lat="43.6668908" lon="11.2929295"><ele>239.6</ele><time>2026-04-18T11:31:00.804Z</time></trkpt><trkpt lat="43.6669971" lon="11.292886"><ele>240.0</ele><time>2026-04-18T11:31:01.806Z</time></trkpt><trkpt lat="43.667106" lon="11.2928353"><ele>240.0</ele><time>2026-04-18T11:31:02.803Z</time></trkpt><trkpt lat="43.6672027" lon="11.2927894"><ele>240.0</ele><time>2026-04-18T11:31:03.801Z</time></trkpt><trkpt lat="43.6672866" lon="11.2927575"><ele>240.0</ele><time>2026-04-18T11:31:04.802Z</time></trkpt><trkpt lat="43.667374" lon="11.2927224"><ele>240.0</ele><time>2026-04-18T11:31:05.801Z</time></trkpt><trkpt lat="43.6674576" lon="11.2926879"><ele>240.0</ele><time>2026-04-18T11:31:06.8Z</time></trkpt><trkpt lat="43.6675288" lon="11.292656"><ele>240.0</ele><time>2026-04-18T11:31:07.804Z</time></trkpt><trkpt lat="43.6675954" lon="11.2926276"><ele>240.0</ele><time>2026-04-18T11:31:08.805Z</time></trkpt><trkpt lat="43.6676581" lon="11.2926014"><ele>240.0</ele><time>2026-04-18T11:31:09.806Z</time></trkpt><trkpt lat="43.6677205" lon="11.2925782"><ele>240.0</ele><time>2026-04-18T11:31:10.803Z</time></trkpt><trkpt lat="43.6677838" lon="11.2925673"><ele>240.0</ele><time>2026-04-18T11:31:11.804Z</time></trkpt><trkpt lat="43.6678566" lon="11.2925579"><ele>240.0</ele><time>2026-04-18T11:31:12.807Z</time></trkpt><trkpt lat="43.6679268" lon="11.2925328"><ele>240.0</ele><time>2026-04-18T11:31:13.806Z</time></trkpt><trkpt lat="43.6680084" lon="11.2925093"><ele>240.0</ele><time>2026-04-18T11:31:14.797Z</time></trkpt><trkpt lat="43.6680972" lon="11.292485"><ele>239.5</ele><time>2026-04-18T11:31:15.804Z</time></trkpt><trkpt lat="43.6681692" lon="11.2924621"><ele>239.0</ele><time>2026-04-18T11:31:16.795Z</time></trkpt><trkpt lat="43.6682445" lon="11.2924447"><ele>238.5</ele><time>2026-04-18T11:31:18.796Z</time></trkpt><trkpt lat="43.6683289" lon="11.2924235"><ele>238.0</ele><time>2026-04-18T11:31:21.812Z</time></trkpt><trkpt lat="43.6683669" lon="11.2922952"><ele>237.5</ele><time>2026-04-18T11:31:24.802Z</time></trkpt><trkpt lat="43.6683791" lon="11.2921951"><ele>237.0</ele><time>2026-04-18T11:31:25.798Z</time></trkpt><trkpt lat="43.6684137" lon="11.29209"><ele>236.8</ele><time>2026-04-18T11:31:26.804Z</time></trkpt><trkpt lat="43.668463" lon="11.291988"><ele>236.6</ele><time>2026-04-18T11:31:27.798Z</time></trkpt><trkpt lat="43.6685293" lon="11.2918811"><ele>236.40000000000003</ele><time>2026-04-18T11:31:28.803Z</time></trkpt><trkpt lat="43.6685894" lon="11.2917734"><ele>236.20000000000002</ele><time>2026-04-18T11:31:29.8Z</time></trkpt><trkpt lat="43.6686473" lon="11.2916827"><ele>236.0</ele><time>2026-04-18T11:31:30.804Z</time></trkpt><trkpt lat="43.6686991" lon="11.2916005"><ele>237.0</ele><time>2026-04-18T11:31:31.801Z</time></trkpt><trkpt lat="43.668756" lon="11.2915027"><ele>238.00000000000003</ele><time>2026-04-18T11:31:32.799Z</time></trkpt><trkpt lat="43.6688056" lon="11.2913766"><ele>239.00000000000003</ele><time>2026-04-18T11:31:33.799Z</time></trkpt><trkpt lat="43.6688553" lon="11.2912403"><ele>240.0</ele><time>2026-04-18T11:31:34.8Z</time></trkpt><trkpt lat="43.6688966" lon="11.2910855"><ele>241.0</ele><time>2026-04-18T11:31:35.797Z</time></trkpt><trkpt lat="43.6689383" lon="11.2909121"><ele>241.0</ele><time>2026-04-18T11:31:36.798Z</time></trkpt><trkpt lat="43.6689794" lon="11.2907317"><ele>241.0</ele><time>2026-04-18T11:31:37.801Z</time></trkpt><trkpt lat="43.6690159" lon="11.2905529"><ele>241.0</ele><time>2026-04-18T11:31:38.801Z</time></trkpt><trkpt lat="43.6690599" lon="11.2903727"><ele>241.0</ele><time>2026-04-18T11:31:39.796Z</time></trkpt><trkpt lat="43.6690924" lon="11.2901641"><ele>240.66666666666666</ele><time>2026-04-18T11:31:40.803Z</time></trkpt><trkpt lat="43.6691192" lon="11.2899459"><ele>240.33333333333331</ele><time>2026-04-18T11:31:41.804Z</time></trkpt><trkpt lat="43.6691274" lon="11.2897258"><ele>240.0</ele><time>2026-04-18T11:31:42.803Z</time></trkpt><trkpt lat="43.6691389" lon="11.2895041"><ele>240.66666666666669</ele><time>2026-04-18T11:31:43.807Z</time></trkpt><trkpt lat="43.6691494" lon="11.2892688"><ele>241.33333333333334</ele><time>2026-04-18T11:31:44.792Z</time></trkpt><trkpt lat="43.6691348" lon="11.2890278"><ele>242.0</ele><time>2026-04-18T11:31:45.796Z</time></trkpt><trkpt lat="43.6691139" lon="11.2887953"><ele>243.5</ele><time>2026-04-18T11:31:46.798Z</time></trkpt><trkpt lat="43.6691152" lon="11.288621"><ele>245.0</ele><time>2026-04-18T11:31:47.791Z</time></trkpt><trkpt lat="43.6691035" lon="11.2884253"><ele>246.5</ele><time>2026-04-18T11:31:48.795Z</time></trkpt><trkpt lat="43.6690742" lon="11.2882638"><ele>248.0</ele><time>2026-04-18T11:31:49.783Z</time></trkpt><trkpt lat="43.6690472" lon="11.2881131"><ele>248.00000000000003</ele><time>2026-04-18T11:31:50.811Z</time></trkpt><trkpt lat="43.669036" lon="11.2880068"><ele>248.0</ele><time>2026-04-18T11:31:51.815Z</time></trkpt><trkpt lat="43.6690141" lon="11.2878895"><ele>248.0</ele><time>2026-04-18T11:31:52.809Z</time></trkpt><trkpt lat="43.6690016" lon="11.2877838"><ele>248.0</ele><time>2026-04-18T11:31:53.803Z</time></trkpt><trkpt lat="43.6689794" lon="11.2876893"><ele>248.00000000000003</ele><time>2026-04-18T11:31:54.813Z</time></trkpt><trkpt lat="43.6689493" lon="11.2875336"><ele>248.0</ele><time>2026-04-18T11:31:56.81Z</time></trkpt><trkpt lat="43.6689238" lon="11.287398"><ele>248.0</ele><time>2026-04-18T11:31:58.812Z</time></trkpt><trkpt lat="43.6688965" lon="11.2872661"><ele>248.00000000000003</ele><time>2026-04-18T11:32:00.815Z</time></trkpt><trkpt lat="43.6688812" lon="11.2871706"><ele>248.0</ele><time>2026-04-18T11:32:02.815Z</time></trkpt><trkpt lat="43.6688368" lon="11.2870903"><ele>248.0</ele><time>2026-04-18T11:32:15.821Z</time></trkpt><trkpt lat="43.6687779" lon="11.287055"><ele>248.00000000000003</ele><time>2026-04-18T11:32:29.823Z</time></trkpt><trkpt lat="43.6687762" lon="11.2871491"><ele>248.0</ele><time>2026-04-18T11:32:32.819Z</time></trkpt><trkpt lat="43.6688234" lon="11.2872214"><ele>248.0</ele><time>2026-04-18T11:32:34.809Z</time></trkpt><trkpt lat="43.6688991" lon="11.2873786"><ele>248.00000000000003</ele><time>2026-04-18T11:32:36.813Z</time></trkpt><trkpt lat="43.6689311" lon="11.2875033"><ele>248.0</ele><time>2026-04-18T11:32:37.806Z</time></trkpt><trkpt lat="43.6689612" lon="11.287634"><ele>248.0</ele><time>2026-04-18T11:32:38.804Z</time></trkpt><trkpt lat="43.6689878" lon="11.2877474"><ele>248.0</ele><time>2026-04-18T11:32:39.813Z</time></trkpt><trkpt lat="43.6690086" lon="11.2878446"><ele>248.00000000000003</ele><time>2026-04-18T11:32:40.813Z</time></trkpt><trkpt lat="43.6690169" lon="11.2879336"><ele>248.0</ele><time>2026-04-18T11:32:41.814Z</time></trkpt><trkpt lat="43.6690257" lon="11.2880271"><ele>248.00000000000003</ele><time>2026-04-18T11:32:42.811Z</time></trkpt><trkpt lat="43.6690297" lon="11.2881321"><ele>248.0</ele><time>2026-04-18T11:32:43.819Z</time></trkpt><trkpt lat="43.6690535" lon="11.2882416"><ele>248.0</ele><time>2026-04-18T11:32:44.812Z</time></trkpt><trkpt lat="43.6690698" lon="11.2883383"><ele>248.0</ele><time>2026-04-18T11:32:45.809Z</time></trkpt><trkpt lat="43.6690897" lon="11.2884373"><ele>248.00000000000003</ele><time>2026-04-18T11:32:46.811Z</time></trkpt><trkpt lat="43.669108" lon="11.288534"><ele>248.0</ele><time>2026-04-18T11:32:47.808Z</time></trkpt><trkpt lat="43.6691534" lon="11.2886717"><ele>248.00000000000003</ele><time>2026-04-18T11:32:49.805Z</time></trkpt><trkpt lat="43.6691938" lon="11.2887434"><ele>248.0</ele><time>2026-04-18T11:32:50.814Z</time></trkpt><trkpt lat="43.6692509" lon="11.2888554"><ele>248.0</ele><time>2026-04-18T11:32:52.813Z</time></trkpt><trkpt lat="43.6692802" lon="11.2889881"><ele>248.0</ele><time>2026-04-18T11:32:54.811Z</time></trkpt><trkpt lat="43.669309" lon="11.2890726"><ele>248.00000000000003</ele><time>2026-04-18T11:32:55.812Z</time></trkpt><trkpt lat="43.6693441" lon="11.28918"><ele>248.0</ele><time>2026-04-18T11:32:56.812Z</time></trkpt><trkpt lat="43.6693776" lon="11.2892836"><ele>247.00000000000003</ele><time>2026-04-18T11:32:57.812Z</time></trkpt><trkpt lat="43.6694271" lon="11.2893949"><ele>246.0</ele><time>2026-04-18T11:32:58.809Z</time></trkpt><trkpt lat="43.6694656" lon="11.2894919"><ele>245.0</ele><time>2026-04-18T11:32:59.809Z</time></trkpt><trkpt lat="43.6695044" lon="11.2895865"><ele>244.0</ele><time>2026-04-18T11:33:00.815Z</time></trkpt><trkpt lat="43.6695429" lon="11.2896762"><ele>243.00000000000003</ele><time>2026-04-18T11:33:01.813Z</time></trkpt><trkpt lat="43.6695717" lon="11.2897562"><ele>242.0</ele><time>2026-04-18T11:33:02.817Z</time></trkpt><trkpt lat="43.669612" lon="11.289828"><ele>241.66666666666669</ele><time>2026-04-18T11:33:03.805Z</time></trkpt><trkpt lat="43.6696748" lon="11.2899107"><ele>241.33333333333334</ele><time>2026-04-18T11:33:04.814Z</time></trkpt><trkpt lat="43.6697505" lon="11.2900051"><ele>241.0</ele><time>2026-04-18T11:33:05.811Z</time></trkpt><trkpt lat="43.6698151" lon="11.2900976"><ele>240.66666666666669</ele><time>2026-04-18T11:33:06.817Z</time></trkpt><trkpt lat="43.6698778" lon="11.2901812"><ele>240.33333333333334</ele><time>2026-04-18T11:33:07.877Z</time></trkpt><trkpt lat="43.669928" lon="11.2902492"><ele>240.0</ele><time>2026-04-18T11:33:08.879Z</time></trkpt><trkpt lat="43.669997" lon="11.2903288"><ele>240.0</ele><time>2026-04-18T11:33:10.886Z</time></trkpt><trkpt lat="43.6700548" lon="11.2903863"><ele>240.0</ele><time>2026-04-18T11:33:32.895Z</time></trkpt><trkpt lat="43.6700982" lon="11.2904502"><ele>240.0</ele><time>2026-04-18T11:33:34.889Z</time></trkpt><trkpt lat="43.6701571" lon="11.2905447"><ele>240.0</ele><time>2026-04-18T11:33:36.888Z</time></trkpt><trkpt lat="43.6702437" lon="11.2906601"><ele>240.0</ele><time>2026-04-18T11:33:38.882Z</time></trkpt><trkpt lat="43.6703113" lon="11.2907513"><ele>240.0</ele><time>2026-04-18T11:33:40.882Z</time></trkpt><trkpt lat="43.6703948" lon="11.2908648"><ele>240.6</ele><time>2026-04-18T11:33:42.881Z</time></trkpt><trkpt lat="43.6704713" lon="11.2909864"><ele>241.2</ele><time>2026-04-18T11:33:44.869Z</time></trkpt><trkpt lat="43.670544" lon="11.2911004"><ele>241.8</ele><time>2026-04-18T11:33:46.87Z</time></trkpt><trkpt lat="43.6705941" lon="11.2912106"><ele>242.4</ele><time>2026-04-18T11:33:48.899Z</time></trkpt><trkpt lat="43.6706449" lon="11.2913239"><ele>243.0</ele><time>2026-04-18T11:33:50.906Z</time></trkpt><trkpt lat="43.6706695" lon="11.2914283"><ele>244.4</ele><time>2026-04-18T11:33:52.902Z</time></trkpt><trkpt lat="43.6706954" lon="11.2915278"><ele>245.8</ele><time>2026-04-18T11:33:54.914Z</time></trkpt><trkpt lat="43.6707631" lon="11.2916621"><ele>247.2</ele><time>2026-04-18T11:33:56.887Z</time></trkpt><trkpt lat="43.6708212" lon="11.2917964"><ele>248.6</ele><time>2026-04-18T11:33:58.869Z</time></trkpt><trkpt lat="43.6708541" lon="11.2919089"><ele>250.0</ele><time>2026-04-18T11:34:00.866Z</time></trkpt><trkpt lat="43.6709181" lon="11.2920623"><ele>249.99999999999997</ele><time>2026-04-18T11:34:36.917Z</time></trkpt><trkpt lat="43.6710226" lon="11.2920591"><ele>250.0</ele><time>2026-04-18T11:34:40.803Z</time></trkpt><trkpt lat="43.6710879" lon="11.2920722"><ele>250.0</ele><time>2026-04-18T11:34:41.798Z</time></trkpt><trkpt lat="43.6711602" lon="11.2920871"><ele>250.0</ele><time>2026-04-18T11:34:42.805Z</time></trkpt><trkpt lat="43.6712431" lon="11.2920959"><ele>249.99999999999997</ele><time>2026-04-18T11:34:43.806Z</time></trkpt><trkpt lat="43.6713351" lon="11.2921038"><ele>250.0</ele><time>2026-04-18T11:34:44.806Z</time></trkpt><trkpt lat="43.6714296" lon="11.2921208"><ele>249.83333333333331</ele><time>2026-04-18T11:34:45.806Z</time></trkpt><trkpt lat="43.671524" lon="11.2921384"><ele>249.66666666666666</ele><time>2026-04-18T11:34:46.816Z</time></trkpt><trkpt lat="43.6716039" lon="11.2921552"><ele>249.5</ele><time>2026-04-18T11:34:47.806Z</time></trkpt><trkpt lat="43.6716756" lon="11.2921721"><ele>249.33333333333331</ele><time>2026-04-18T11:34:48.809Z</time></trkpt><trkpt lat="43.6717456" lon="11.2921876"><ele>249.16666666666666</ele><time>2026-04-18T11:34:49.803Z</time></trkpt><trkpt lat="43.6718109" lon="11.292205"><ele>249.0</ele><time>2026-04-18T11:34:50.808Z</time></trkpt><trkpt lat="43.6719048" lon="11.2922616"><ele>249.0</ele><time>2026-04-18T11:34:52.805Z</time></trkpt><trkpt lat="43.6719384" lon="11.2923709"><ele>249.0</ele><time>2026-04-18T11:34:54.806Z</time></trkpt><trkpt lat="43.6719601" lon="11.2925242"><ele>249.0</ele><time>2026-04-18T11:34:56.816Z</time></trkpt><trkpt lat="43.6719794" lon="11.2926222"><ele>249.0</ele><time>2026-04-18T11:34:57.797Z</time></trkpt><trkpt lat="43.672006" lon="11.2927243"><ele>249.0</ele><time>2026-04-18T11:34:58.794Z</time></trkpt><trkpt lat="43.6720367" lon="11.2928273"><ele>249.0</ele><time>2026-04-18T11:34:59.795Z</time></trkpt><trkpt lat="43.672064" lon="11.2929281"><ele>250.33333333333334</ele><time>2026-04-18T11:35:00.798Z</time></trkpt><trkpt lat="43.672091" lon="11.2930226"><ele>251.66666666666669</ele><time>2026-04-18T11:35:01.801Z</time></trkpt><trkpt lat="43.672119" lon="11.2931207"><ele>253.0</ele><time>2026-04-18T11:35:02.8Z</time></trkpt><trkpt lat="43.6721532" lon="11.2932225"><ele>254.33333333333334</ele><time>2026-04-18T11:35:03.799Z</time></trkpt><trkpt lat="43.6721924" lon="11.2933338"><ele>255.66666666666669</ele><time>2026-04-18T11:35:04.796Z</time></trkpt><trkpt lat="43.6722426" lon="11.2934491"><ele>257.0</ele><time>2026-04-18T11:35:05.799Z</time></trkpt><trkpt lat="43.672305" lon="11.2935496"><ele>257.2</ele><time>2026-04-18T11:35:06.791Z</time></trkpt><trkpt lat="43.6723826" lon="11.2936545"><ele>257.4</ele><time>2026-04-18T11:35:07.796Z</time></trkpt><trkpt lat="43.6724622" lon="11.2937695"><ele>257.6</ele><time>2026-04-18T11:35:08.794Z</time></trkpt><trkpt lat="43.672535" lon="11.2938699"><ele>257.8</ele><time>2026-04-18T11:35:09.793Z</time></trkpt><trkpt lat="43.6725913" lon="11.2939519"><ele>258.0</ele><time>2026-04-18T11:35:10.787Z</time></trkpt><trkpt lat="43.6726622" lon="11.2940827"><ele>258.5</ele><time>2026-04-18T11:35:12.791Z</time></trkpt><trkpt lat="43.672727" lon="11.2941973"><ele>259.0</ele><time>2026-04-18T11:35:14.797Z</time></trkpt><trkpt lat="43.6727673" lon="11.2942701"><ele>259.5</ele><time>2026-04-18T11:35:15.797Z</time></trkpt><trkpt lat="43.6728257" lon="11.2943532"><ele>260.0</ele><time>2026-04-18T11:35:16.794Z</time></trkpt><trkpt lat="43.6728793" lon="11.2944365"><ele>260.5</ele><time>2026-04-18T11:35:17.794Z</time></trkpt><trkpt lat="43.6729312" lon="11.2945176"><ele>261.0</ele><time>2026-04-18T11:35:18.792Z</time></trkpt><trkpt lat="43.6729786" lon="11.2945973"><ele>261.0</ele><time>2026-04-18T11:35:19.791Z</time></trkpt><trkpt lat="43.6730138" lon="11.2946837"><ele>261.0</ele><time>2026-04-18T11:35:20.799Z</time></trkpt><trkpt lat="43.673049" lon="11.2947637"><ele>261.0</ele><time>2026-04-18T11:35:21.798Z</time></trkpt><trkpt lat="43.6730734" lon="11.2948676"><ele>261.0</ele><time>2026-04-18T11:35:22.803Z</time></trkpt><trkpt lat="43.6731008" lon="11.2949887"><ele>261.0</ele><time>2026-04-18T11:35:23.797Z</time></trkpt><trkpt lat="43.6731341" lon="11.2951191"><ele>261.0</ele><time>2026-04-18T11:35:24.799Z</time></trkpt><trkpt lat="43.6731728" lon="11.2952359"><ele>259.6666666666667</ele><time>2026-04-18T11:35:25.802Z</time></trkpt><trkpt lat="43.6732157" lon="11.2953524"><ele>258.3333333333333</ele><time>2026-04-18T11:35:26.799Z</time></trkpt><trkpt lat="43.6732512" lon="11.2954648"><ele>257.0</ele><time>2026-04-18T11:35:27.814Z</time></trkpt><trkpt lat="43.6732925" lon="11.2955734"><ele>255.66666666666666</ele><time>2026-04-18T11:35:28.79Z</time></trkpt><trkpt lat="43.6733323" lon="11.2956786"><ele>254.33333333333331</ele><time>2026-04-18T11:35:29.796Z</time></trkpt><trkpt lat="43.6733743" lon="11.2957778"><ele>253.0</ele><time>2026-04-18T11:35:30.799Z</time></trkpt><trkpt lat="43.6734134" lon="11.2958737"><ele>251.71428571428575</ele><time>2026-04-18T11:35:31.811Z</time></trkpt><trkpt lat="43.6734422" lon="11.2959721"><ele>250.42857142857144</ele><time>2026-04-18T11:35:32.81Z</time></trkpt><trkpt lat="43.6734556" lon="11.2960639"><ele>249.14285714285714</ele><time>2026-04-18T11:35:33.805Z</time></trkpt><trkpt lat="43.6734723" lon="11.2961596"><ele>247.85714285714286</ele><time>2026-04-18T11:35:34.806Z</time></trkpt><trkpt lat="43.6734985" lon="11.2962488"><ele>246.57142857142856</ele><time>2026-04-18T11:35:35.802Z</time></trkpt><trkpt lat="43.6735366" lon="11.2963357"><ele>245.28571428571425</ele><time>2026-04-18T11:35:36.802Z</time></trkpt><trkpt lat="43.6735868" lon="11.2964178"><ele>243.99999999999997</ele><time>2026-04-18T11:35:37.799Z</time></trkpt><trkpt lat="43.6736417" lon="11.2965024"><ele>243.49999999999997</ele><time>2026-04-18T11:35:38.802Z</time></trkpt><trkpt lat="43.6736913" lon="11.2965792"><ele>243.0</ele><time>2026-04-18T11:35:39.806Z</time></trkpt><trkpt lat="43.6737336" lon="11.2966526"><ele>242.5</ele><time>2026-04-18T11:35:40.798Z</time></trkpt><trkpt lat="43.6737688" lon="11.2967269"><ele>242.0</ele><time>2026-04-18T11:35:41.8Z</time></trkpt><trkpt lat="43.6738583" lon="11.2968407"><ele>241.49999999999997</ele><time>2026-04-18T11:35:43.798Z</time></trkpt><trkpt lat="43.67393" lon="11.2969247"><ele>241.0</ele><time>2026-04-18T11:35:45.793Z</time></trkpt><trkpt lat="43.6739957" lon="11.2969745"><ele>240.99999999999997</ele><time>2026-04-18T11:35:48.802Z</time></trkpt><trkpt lat="43.6739402" lon="11.2969128"><ele>241.0</ele><time>2026-04-18T11:37:11.803Z</time></trkpt><trkpt lat="43.6738465" lon="11.2968309"><ele>241.0</ele><time>2026-04-18T11:37:13.798Z</time></trkpt><trkpt lat="43.6737892" lon="11.2967669"><ele>241.0</ele><time>2026-04-18T11:37:14.791Z</time></trkpt><trkpt lat="43.673733" lon="11.2966906"><ele>240.99999999999997</ele><time>2026-04-18T11:37:15.793Z</time></trkpt><trkpt lat="43.6736775" lon="11.2965999"><ele>241.0</ele><time>2026-04-18T11:37:16.795Z</time></trkpt><trkpt lat="43.6736283" lon="11.296508"><ele>241.60000000000002</ele><time>2026-04-18T11:37:17.785Z</time></trkpt><trkpt lat="43.673597" lon="11.2964193"><ele>242.20000000000002</ele><time>2026-04-18T11:37:18.791Z</time></trkpt><trkpt lat="43.6735089" lon="11.296282"><ele>242.79999999999998</ele><time>2026-04-18T11:37:20.789Z</time></trkpt><trkpt lat="43.6734698" lon="11.2961802"><ele>243.39999999999998</ele><time>2026-04-18T11:37:21.795Z</time></trkpt><trkpt lat="43.6734338" lon="11.2960644"><ele>244.0</ele><time>2026-04-18T11:37:22.794Z</time></trkpt><trkpt lat="43.6734051" lon="11.2959262"><ele>244.0</ele><time>2026-04-18T11:37:23.785Z</time></trkpt><trkpt lat="43.6733721" lon="11.2957769"><ele>243.99999999999997</ele><time>2026-04-18T11:37:24.79Z</time></trkpt><trkpt lat="43.6733249" lon="11.2956411"><ele>243.99999999999997</ele><time>2026-04-18T11:37:25.786Z</time></trkpt><trkpt lat="43.6732756" lon="11.2955144"><ele>244.0</ele><time>2026-04-18T11:37:26.784Z</time></trkpt><trkpt lat="43.6732225" lon="11.2953926"><ele>244.0</ele><time>2026-04-18T11:37:27.789Z</time></trkpt><trkpt lat="43.6731661" lon="11.2952773"><ele>245.79999999999998</ele><time>2026-04-18T11:37:28.785Z</time></trkpt><trkpt lat="43.6731091" lon="11.2951519"><ele>247.59999999999997</ele><time>2026-04-18T11:37:29.787Z</time></trkpt><trkpt lat="43.6730658" lon="11.2950147"><ele>249.4</ele><time>2026-04-18T11:37:30.787Z</time></trkpt><trkpt lat="43.6730295" lon="11.2948756"><ele>251.2</ele><time>2026-04-18T11:37:31.803Z</time></trkpt><trkpt lat="43.6729979" lon="11.2947414"><ele>253.0</ele><time>2026-04-18T11:37:32.789Z</time></trkpt><trkpt lat="43.6729647" lon="11.2946169"><ele>253.0</ele><time>2026-04-18T11:37:33.788Z</time></trkpt><trkpt lat="43.6729166" lon="11.2945031"><ele>253.0</ele><time>2026-04-18T11:37:34.786Z</time></trkpt><trkpt lat="43.6728507" lon="11.2943934"><ele>253.0</ele><time>2026-04-18T11:37:35.781Z</time></trkpt><trkpt lat="43.6727732" lon="11.2942848"><ele>253.0</ele><time>2026-04-18T11:37:36.779Z</time></trkpt><trkpt lat="43.6726947" lon="11.2941752"><ele>253.0</ele><time>2026-04-18T11:37:37.773Z</time></trkpt><trkpt lat="43.6726096" lon="11.294064"><ele>253.0</ele><time>2026-04-18T11:37:38.779Z</time></trkpt><trkpt lat="43.6725331" lon="11.2939429"><ele>253.0</ele><time>2026-04-18T11:37:39.779Z</time></trkpt><trkpt lat="43.6724615" lon="11.2938114"><ele>253.0</ele><time>2026-04-18T11:37:40.781Z</time></trkpt><trkpt lat="43.6723912" lon="11.2936802"><ele>253.0</ele><time>2026-04-18T11:37:41.781Z</time></trkpt><trkpt lat="43.6723248" lon="11.2935551"><ele>253.8</ele><time>2026-04-18T11:37:42.786Z</time></trkpt><trkpt lat="43.6722547" lon="11.2934365"><ele>254.60000000000002</ele><time>2026-04-18T11:37:43.783Z</time></trkpt><trkpt lat="43.6721875" lon="11.2933275"><ele>255.39999999999998</ele><time>2026-04-18T11:37:44.772Z</time></trkpt><trkpt lat="43.6721337" lon="11.2932258"><ele>256.2</ele><time>2026-04-18T11:37:45.783Z</time></trkpt><trkpt lat="43.6720956" lon="11.2931149"><ele>257.0</ele><time>2026-04-18T11:37:46.785Z</time></trkpt><trkpt lat="43.6720631" lon="11.292984"><ele>257.0</ele><time>2026-04-18T11:37:47.785Z</time></trkpt><trkpt lat="43.6720186" lon="11.2928284"><ele>257.0</ele><time>2026-04-18T11:37:48.797Z</time></trkpt><trkpt lat="43.6719795" lon="11.2926742"><ele>257.0</ele><time>2026-04-18T11:37:49.783Z</time></trkpt><trkpt lat="43.6719444" lon="11.292538"><ele>257.0</ele><time>2026-04-18T11:37:50.789Z</time></trkpt><trkpt lat="43.6719151" lon="11.2924172"><ele>257.0</ele><time>2026-04-18T11:37:51.79Z</time></trkpt><trkpt lat="43.6718875" lon="11.2923195"><ele>255.83333333333334</ele><time>2026-04-18T11:37:52.8Z</time></trkpt><trkpt lat="43.6718749" lon="11.2922185"><ele>254.66666666666669</ele><time>2026-04-18T11:37:54.793Z</time></trkpt><trkpt lat="43.6719257" lon="11.292163"><ele>253.5</ele><time>2026-04-18T11:38:26.817Z</time></trkpt><trkpt lat="43.6720045" lon="11.2921254"><ele>252.33333333333331</ele><time>2026-04-18T11:38:28.804Z</time></trkpt><trkpt lat="43.6720846" lon="11.2921115"><ele>251.16666666666666</ele><time>2026-04-18T11:38:29.784Z</time></trkpt><trkpt lat="43.6721898" lon="11.2920979"><ele>250.0</ele><time>2026-04-18T11:38:30.802Z</time></trkpt><trkpt lat="43.6722874" lon="11.292067"><ele>250.0</ele><time>2026-04-18T11:38:31.879Z</time></trkpt><trkpt lat="43.6723782" lon="11.2920439"><ele>250.0</ele><time>2026-04-18T11:38:32.872Z</time></trkpt><trkpt lat="43.6724602" lon="11.292021"><ele>250.0</ele><time>2026-04-18T11:38:33.895Z</time></trkpt><trkpt lat="43.672553" lon="11.2919869"><ele>250.0</ele><time>2026-04-18T11:38:34.869Z</time></trkpt><trkpt lat="43.6726632" lon="11.2919523"><ele>250.0</ele><time>2026-04-18T11:38:35.875Z</time></trkpt><trkpt lat="43.6727934" lon="11.2919276"><ele>250.66666666666666</ele><time>2026-04-18T11:38:36.858Z</time></trkpt><trkpt lat="43.6729368" lon="11.291911"><ele>251.33333333333331</ele><time>2026-04-18T11:38:37.863Z</time></trkpt><trkpt lat="43.6730982" lon="11.2919101"><ele>252.0</ele><time>2026-04-18T11:38:38.864Z</time></trkpt><trkpt lat="43.6732683" lon="11.2919106"><ele>252.0</ele><time>2026-04-18T11:38:39.861Z</time></trkpt><trkpt lat="43.6734484" lon="11.2919232"><ele>252.0</ele><time>2026-04-18T11:38:40.887Z</time></trkpt><trkpt lat="43.6736407" lon="11.2919333"><ele>252.0</ele><time>2026-04-18T11:38:41.877Z</time></trkpt><trkpt lat="43.6738844" lon="11.2919582"><ele>251.66666666666669</ele><time>2026-04-18T11:38:42.877Z</time></trkpt><trkpt lat="43.6740985" lon="11.2919848"><ele>251.33333333333334</ele><time>2026-04-18T11:38:43.878Z</time></trkpt><trkpt lat="43.6743261" lon="11.2920007"><ele>251.0</ele><time>2026-04-18T11:38:44.88Z</time></trkpt><trkpt lat="43.6745616" lon="11.2920237"><ele>248.5</ele><time>2026-04-18T11:38:45.801Z</time></trkpt><trkpt lat="43.6748211" lon="11.2920666"><ele>246.0</ele><time>2026-04-18T11:38:46.787Z</time></trkpt><trkpt lat="43.6750898" lon="11.2921254"><ele>244.33333333333331</ele><time>2026-04-18T11:38:47.799Z</time></trkpt><trkpt lat="43.6753214" lon="11.2921615"><ele>242.66666666666666</ele><time>2026-04-18T11:38:48.788Z</time></trkpt><trkpt lat="43.6755252" lon="11.292176"><ele>241.0</ele><time>2026-04-18T11:38:49.789Z</time></trkpt><trkpt lat="43.6756979" lon="11.292201"><ele>241.0</ele><time>2026-04-18T11:38:50.795Z</time></trkpt><trkpt lat="43.675864" lon="11.2922619"><ele>241.0</ele><time>2026-04-18T11:38:51.802Z</time></trkpt><trkpt lat="43.6760376" lon="11.2923682"><ele>241.0</ele><time>2026-04-18T11:38:52.801Z</time></trkpt><trkpt lat="43.676256" lon="11.2925037"><ele>241.0</ele><time>2026-04-18T11:38:53.788Z</time></trkpt><trkpt lat="43.6764775" lon="11.2926445"><ele>241.0</ele><time>2026-04-18T11:38:54.788Z</time></trkpt><trkpt lat="43.6766814" lon="11.2927627"><ele>241.0</ele><time>2026-04-18T11:38:55.797Z</time></trkpt><trkpt lat="43.6768811" lon="11.2928125"><ele>241.0</ele><time>2026-04-18T11:38:56.789Z</time></trkpt><trkpt lat="43.6770614" lon="11.2928351"><ele>241.0</ele><time>2026-04-18T11:38:57.799Z</time></trkpt><trkpt lat="43.6772234" lon="11.2928295"><ele>240.4</ele><time>2026-04-18T11:38:58.789Z</time></trkpt><trkpt lat="43.6773558" lon="11.2928211"><ele>239.8</ele><time>2026-04-18T11:38:59.788Z</time></trkpt><trkpt lat="43.6774436" lon="11.2928169"><ele>239.20000000000002</ele><time>2026-04-18T11:39:00.791Z</time></trkpt><trkpt lat="43.6775138" lon="11.292823"><ele>238.60000000000002</ele><time>2026-04-18T11:39:01.792Z</time></trkpt><trkpt lat="43.6775788" lon="11.2928318"><ele>238.0</ele><time>2026-04-18T11:39:02.796Z</time></trkpt><trkpt lat="43.6777035" lon="11.29281"><ele>238.8</ele><time>2026-04-18T11:39:04.817Z</time></trkpt><trkpt lat="43.6777721" lon="11.2928051"><ele>239.60000000000002</ele><time>2026-04-18T11:39:05.793Z</time></trkpt><trkpt lat="43.6778495" lon="11.2928182"><ele>240.39999999999998</ele><time>2026-04-18T11:39:06.802Z</time></trkpt><trkpt lat="43.6779487" lon="11.2928297"><ele>241.2</ele><time>2026-04-18T11:39:07.792Z</time></trkpt><trkpt lat="43.6780653" lon="11.2928333"><ele>242.0</ele><time>2026-04-18T11:39:08.797Z</time></trkpt><trkpt lat="43.6782035" lon="11.2928335"><ele>242.0</ele><time>2026-04-18T11:39:09.793Z</time></trkpt><trkpt lat="43.6783541" lon="11.2928414"><ele>242.0</ele><time>2026-04-18T11:39:10.798Z</time></trkpt><trkpt lat="43.6785199" lon="11.2928432"><ele>242.0</ele><time>2026-04-18T11:39:11.801Z</time></trkpt><trkpt lat="43.6786923" lon="11.2928291"><ele>239.66666666666669</ele><time>2026-04-18T11:39:12.802Z</time></trkpt><trkpt lat="43.6788753" lon="11.2928267"><ele>237.33333333333331</ele><time>2026-04-18T11:39:13.804Z</time></trkpt><trkpt lat="43.6790629" lon="11.2928355"><ele>235.0</ele><time>2026-04-18T11:39:14.8Z</time></trkpt><trkpt lat="43.6792594" lon="11.292833"><ele>234.33333333333331</ele><time>2026-04-18T11:39:15.804Z</time></trkpt><trkpt lat="43.6794602" lon="11.2928348"><ele>233.66666666666669</ele><time>2026-04-18T11:39:16.805Z</time></trkpt><trkpt lat="43.6796778" lon="11.2928308"><ele>233.0</ele><time>2026-04-18T11:39:17.807Z</time></trkpt><trkpt lat="43.6799042" lon="11.2928329"><ele>233.0</ele><time>2026-04-18T11:39:18.804Z</time></trkpt><trkpt lat="43.6801405" lon="11.2928383"><ele>233.0</ele><time>2026-04-18T11:39:19.795Z</time></trkpt><trkpt lat="43.6803929" lon="11.2928425"><ele>233.5</ele><time>2026-04-18T11:39:20.804Z</time></trkpt><trkpt lat="43.6806543" lon="11.2928544"><ele>234.0</ele><time>2026-04-18T11:39:21.804Z</time></trkpt><trkpt lat="43.6809148" lon="11.2928648"><ele>234.0</ele><time>2026-04-18T11:39:22.806Z</time></trkpt><trkpt lat="43.6811678" lon="11.2928816"><ele>234.0</ele><time>2026-04-18T11:39:23.792Z</time></trkpt><trkpt lat="43.6813979" lon="11.2929117"><ele>234.0</ele><time>2026-04-18T11:39:24.795Z</time></trkpt><trkpt lat="43.6816129" lon="11.2929516"><ele>234.0</ele><time>2026-04-18T11:39:25.803Z</time></trkpt><trkpt lat="43.6818196" lon="11.2929983"><ele>234.0</ele><time>2026-04-18T11:39:26.807Z</time></trkpt><trkpt lat="43.6820259" lon="11.2930595"><ele>232.33333333333331</ele><time>2026-04-18T11:39:27.8Z</time></trkpt><trkpt lat="43.6822241" lon="11.2931305"><ele>230.66666666666666</ele><time>2026-04-18T11:39:28.798Z</time></trkpt><trkpt lat="43.6824069" lon="11.293212"><ele>229.0</ele><time>2026-04-18T11:39:29.803Z</time></trkpt><trkpt lat="43.6825894" lon="11.2932907"><ele>229.0</ele><time>2026-04-18T11:39:30.801Z</time></trkpt><trkpt lat="43.6827588" lon="11.2933628"><ele>229.0</ele><time>2026-04-18T11:39:31.804Z</time></trkpt><trkpt lat="43.6829176" lon="11.293436"><ele>229.0</ele><time>2026-04-18T11:39:32.804Z</time></trkpt><trkpt lat="43.6830686" lon="11.2935057"><ele>228.0</ele><time>2026-04-18T11:39:33.804Z</time></trkpt><trkpt lat="43.683216" lon="11.2935822"><ele>227.0</ele><time>2026-04-18T11:39:34.802Z</time></trkpt><trkpt lat="43.6833638" lon="11.2936495"><ele>226.0</ele><time>2026-04-18T11:39:35.82Z</time></trkpt><trkpt lat="43.6835049" lon="11.2937035"><ele>226.0</ele><time>2026-04-18T11:39:36.803Z</time></trkpt><trkpt lat="43.6836425" lon="11.2937521"><ele>226.0</ele><time>2026-04-18T11:39:37.799Z</time></trkpt><trkpt lat="43.6837703" lon="11.293803"><ele>226.0</ele><time>2026-04-18T11:39:38.802Z</time></trkpt><trkpt lat="43.6838888" lon="11.2938579"><ele>226.0</ele><time>2026-04-18T11:39:39.798Z</time></trkpt><trkpt lat="43.6839959" lon="11.2939328"><ele>226.0</ele><time>2026-04-18T11:39:40.805Z</time></trkpt><trkpt lat="43.6840937" lon="11.2940202"><ele>226.0</ele><time>2026-04-18T11:39:41.791Z</time></trkpt><trkpt lat="43.6841757" lon="11.2941233"><ele>226.0</ele><time>2026-04-18T11:39:42.802Z</time></trkpt><trkpt lat="43.6842547" lon="11.294246"><ele>226.0</ele><time>2026-04-18T11:39:43.806Z</time></trkpt><trkpt lat="43.6843228" lon="11.2943893"><ele>226.0</ele><time>2026-04-18T11:39:44.801Z</time></trkpt><trkpt lat="43.6843858" lon="11.2945607"><ele>226.0</ele><time>2026-04-18T11:39:45.799Z</time></trkpt><trkpt lat="43.6844447" lon="11.2947524"><ele>226.0</ele><time>2026-04-18T11:39:46.8Z</time></trkpt><trkpt lat="43.684504" lon="11.2949578"><ele>225.66666666666666</ele><time>2026-04-18T11:39:47.792Z</time></trkpt><trkpt lat="43.6845801" lon="11.2951578"><ele>225.33333333333331</ele><time>2026-04-18T11:39:48.794Z</time></trkpt><trkpt lat="43.6846715" lon="11.2953419"><ele>225.0</ele><time>2026-04-18T11:39:49.79Z</time></trkpt><trkpt lat="43.6847794" lon="11.2955042"><ele>223.33333333333331</ele><time>2026-04-18T11:39:50.793Z</time></trkpt><trkpt lat="43.6849071" lon="11.2956351"><ele>221.66666666666666</ele><time>2026-04-18T11:39:51.801Z</time></trkpt><trkpt lat="43.6850478" lon="11.2957452"><ele>220.0</ele><time>2026-04-18T11:39:52.805Z</time></trkpt><trkpt lat="43.6852071" lon="11.295841"><ele>217.66666666666666</ele><time>2026-04-18T11:39:53.801Z</time></trkpt><trkpt lat="43.6853721" lon="11.2959456"><ele>215.33333333333331</ele><time>2026-04-18T11:39:54.796Z</time></trkpt><trkpt lat="43.685526" lon="11.296056"><ele>213.0</ele><time>2026-04-18T11:39:55.79Z</time></trkpt><trkpt lat="43.6856798" lon="11.296166"><ele>213.0</ele><time>2026-04-18T11:39:56.796Z</time></trkpt><trkpt lat="43.685831" lon="11.2962523"><ele>213.0</ele><time>2026-04-18T11:39:57.792Z</time></trkpt><trkpt lat="43.6859929" lon="11.2963153"><ele>213.0</ele><time>2026-04-18T11:39:58.791Z</time></trkpt><trkpt lat="43.6861432" lon="11.2963402"><ele>210.75</ele><time>2026-04-18T11:39:59.789Z</time></trkpt><trkpt lat="43.6862881" lon="11.2963404"><ele>208.5</ele><time>2026-04-18T11:40:00.796Z</time></trkpt><trkpt lat="43.6864316" lon="11.2963374"><ele>206.25</ele><time>2026-04-18T11:40:01.799Z</time></trkpt><trkpt lat="43.68656" lon="11.2963509"><ele>204.0</ele><time>2026-04-18T11:40:02.795Z</time></trkpt><trkpt lat="43.686659" lon="11.2963628"><ele>204.0</ele><time>2026-04-18T11:40:03.803Z</time></trkpt><trkpt lat="43.6867268" lon="11.2963741"><ele>204.0</ele><time>2026-04-18T11:40:04.792Z</time></trkpt><trkpt lat="43.686791" lon="11.2964108"><ele>204.0</ele><time>2026-04-18T11:40:06.804Z</time></trkpt><trkpt lat="43.6867289" lon="11.2963192"><ele>204.0</ele><time>2026-04-18T11:40:38.802Z</time></trkpt><trkpt lat="43.6866018" lon="11.2962962"><ele>204.0</ele><time>2026-04-18T11:40:40.797Z</time></trkpt><trkpt lat="43.6864887" lon="11.2962832"><ele>204.0</ele><time>2026-04-18T11:40:41.788Z</time></trkpt><trkpt lat="43.68636" lon="11.2962756"><ele>204.0</ele><time>2026-04-18T11:40:42.793Z</time></trkpt><trkpt lat="43.6862413" lon="11.2962742"><ele>204.0</ele><time>2026-04-18T11:40:43.799Z</time></trkpt><trkpt lat="43.6861347" lon="11.2962891"><ele>204.0</ele><time>2026-04-18T11:40:44.796Z</time></trkpt><trkpt lat="43.68602" lon="11.2962927"><ele>206.25</ele><time>2026-04-18T11:40:45.789Z</time></trkpt><trkpt lat="43.6858992" lon="11.2962727"><ele>208.5</ele><time>2026-04-18T11:40:46.822Z</time></trkpt><trkpt lat="43.68578" lon="11.2962265"><ele>210.75</ele><time>2026-04-18T11:40:47.878Z</time></trkpt><trkpt lat="43.6856524" lon="11.2961624"><ele>213.0</ele><time>2026-04-18T11:40:48.882Z</time></trkpt><trkpt lat="43.6855278" lon="11.2960779"><ele>213.0</ele><time>2026-04-18T11:40:49.885Z</time></trkpt><trkpt lat="43.6853944" lon="11.2959781"><ele>213.0</ele><time>2026-04-18T11:40:50.897Z</time></trkpt><trkpt lat="43.6852524" lon="11.2958707"><ele>213.0</ele><time>2026-04-18T11:40:51.888Z</time></trkpt><trkpt lat="43.6851057" lon="11.2957463"><ele>215.33333333333331</ele><time>2026-04-18T11:40:52.885Z</time></trkpt><trkpt lat="43.6849535" lon="11.2956195"><ele>217.66666666666666</ele><time>2026-04-18T11:40:53.894Z</time></trkpt><trkpt lat="43.6847875" lon="11.2954419"><ele>220.0</ele><time>2026-04-18T11:40:54.804Z</time></trkpt><trkpt lat="43.6846511" lon="11.2952819"><ele>220.5</ele><time>2026-04-18T11:40:55.792Z</time></trkpt><trkpt lat="43.6845585" lon="11.2951151"><ele>221.0</ele><time>2026-04-18T11:40:56.792Z</time></trkpt><trkpt lat="43.684489" lon="11.2949384"><ele>221.5</ele><time>2026-04-18T11:40:57.794Z</time></trkpt><trkpt lat="43.6844147" lon="11.2947588"><ele>222.0</ele><time>2026-04-18T11:40:58.79Z</time></trkpt><trkpt lat="43.6843512" lon="11.2945283"><ele>221.33333333333331</ele><time>2026-04-18T11:40:59.78Z</time></trkpt><trkpt lat="43.6842722" lon="11.2942988"><ele>220.66666666666666</ele><time>2026-04-18T11:41:00.785Z</time></trkpt><trkpt lat="43.6841782" lon="11.2940969"><ele>220.0</ele><time>2026-04-18T11:41:01.781Z</time></trkpt><trkpt lat="43.6840759" lon="11.2939182"><ele>220.0</ele><time>2026-04-18T11:41:02.784Z</time></trkpt><trkpt lat="43.6839307" lon="11.2937604"><ele>220.0</ele><time>2026-04-18T11:41:03.8Z</time></trkpt><trkpt lat="43.6836937" lon="11.2936815"><ele>220.0</ele><time>2026-04-18T11:41:04.794Z</time></trkpt><trkpt lat="43.6834338" lon="11.293606"><ele>222.0</ele><time>2026-04-18T11:41:05.786Z</time></trkpt><trkpt lat="43.6832064" lon="11.2935442"><ele>224.0</ele><time>2026-04-18T11:41:06.781Z</time></trkpt><trkpt lat="43.6830076" lon="11.293479"><ele>226.0</ele><time>2026-04-18T11:41:07.783Z</time></trkpt><trkpt lat="43.6828281" lon="11.2934098"><ele>227.0</ele><time>2026-04-18T11:41:08.8Z</time></trkpt><trkpt lat="43.6826546" lon="11.2933361"><ele>228.0</ele><time>2026-04-18T11:41:09.782Z</time></trkpt><trkpt lat="43.6824804" lon="11.2932689"><ele>229.0</ele><time>2026-04-18T11:41:10.787Z</time></trkpt><trkpt lat="43.6823119" lon="11.2931996"><ele>229.0</ele><time>2026-04-18T11:41:11.789Z</time></trkpt><trkpt lat="43.6821516" lon="11.2931311"><ele>229.0</ele><time>2026-04-18T11:41:12.793Z</time></trkpt><trkpt lat="43.6820036" lon="11.2930764"><ele>229.0</ele><time>2026-04-18T11:41:13.795Z</time></trkpt><trkpt lat="43.6818581" lon="11.2930299"><ele>230.25</ele><time>2026-04-18T11:41:14.797Z</time></trkpt><trkpt lat="43.6817266" lon="11.2929949"><ele>231.5</ele><time>2026-04-18T11:41:15.802Z</time></trkpt><trkpt lat="43.6816046" lon="11.2929654"><ele>232.75</ele><time>2026-04-18T11:41:16.8Z</time></trkpt><trkpt lat="43.6814832" lon="11.2929554"><ele>234.0</ele><time>2026-04-18T11:41:17.805Z</time></trkpt><trkpt lat="43.6813766" lon="11.2929395"><ele>234.0</ele><time>2026-04-18T11:41:18.799Z</time></trkpt><trkpt lat="43.6812884" lon="11.292917"><ele>234.0</ele><time>2026-04-18T11:41:19.797Z</time></trkpt><trkpt lat="43.6812205" lon="11.2928991"><ele>234.0</ele><time>2026-04-18T11:41:20.791Z</time></trkpt><trkpt lat="43.6811903" lon="11.2928123"><ele>234.0</ele><time>2026-04-18T11:41:26.804Z</time></trkpt><trkpt lat="43.681231" lon="11.292722"><ele>234.0</ele><time>2026-04-18T11:41:29.791Z</time></trkpt><trkpt lat="43.6812837" lon="11.2925885"><ele>234.0</ele><time>2026-04-18T11:41:31.8Z</time></trkpt><trkpt lat="43.6813109" lon="11.2924951"><ele>234.0</ele><time>2026-04-18T11:41:32.8Z</time></trkpt><trkpt lat="43.6813526" lon="11.2923801"><ele>234.0</ele><time>2026-04-18T11:41:34.805Z</time></trkpt><trkpt lat="43.6813925" lon="11.2922531"><ele>234.0</ele><time>2026-04-18T11:41:59.81Z</time></trkpt><trkpt lat="43.6814445" lon="11.2921287"><ele>234.0</ele><time>2026-04-18T11:42:01.797Z</time></trkpt><trkpt lat="43.6814764" lon="11.2920526"><ele>234.0</ele><time>2026-04-18T11:42:02.804Z</time></trkpt><trkpt lat="43.6815026" lon="11.2919725"><ele>234.0</ele><time>2026-04-18T11:42:03.797Z</time></trkpt><trkpt lat="43.6815384" lon="11.2918951"><ele>233.5</ele><time>2026-04-18T11:42:04.799Z</time></trkpt><trkpt lat="43.6815744" lon="11.2918158"><ele>233.0</ele><time>2026-04-18T11:42:05.796Z</time></trkpt><trkpt lat="43.6816149" lon="11.2916943"><ele>232.5</ele><time>2026-04-18T11:42:07.787Z</time></trkpt><trkpt lat="43.6816413" lon="11.291601"><ele>232.0</ele><time>2026-04-18T11:42:09.799Z</time></trkpt><trkpt lat="43.681718" lon="11.2915697"><ele>231.5</ele><time>2026-04-18T11:42:12.811Z</time></trkpt><trkpt lat="43.6817695" lon="11.2916588"><ele>231.0</ele><time>2026-04-18T11:42:15.807Z</time></trkpt><trkpt lat="43.6818243" lon="11.2917088"><ele>231.0</ele><time>2026-04-18T11:42:17.807Z</time></trkpt><trkpt lat="43.6819282" lon="11.2916814"><ele>231.0</ele><time>2026-04-18T11:42:20.796Z</time></trkpt><trkpt lat="43.6819837" lon="11.2916278"><ele>231.0</ele><time>2026-04-18T11:42:21.801Z</time></trkpt><trkpt lat="43.6820365" lon="11.2915492"><ele>231.0</ele><time>2026-04-18T11:42:22.789Z</time></trkpt><trkpt lat="43.6820844" lon="11.2914896"><ele>231.0</ele><time>2026-04-18T11:42:23.797Z</time></trkpt><trkpt lat="43.6821323" lon="11.2914291"><ele>231.0</ele><time>2026-04-18T11:42:24.791Z</time></trkpt><trkpt lat="43.682228" lon="11.2913279"><ele>231.0</ele><time>2026-04-18T11:42:26.793Z</time></trkpt><trkpt lat="43.682286" lon="11.2912845"><ele>231.0</ele><time>2026-04-18T11:42:27.789Z</time></trkpt><trkpt lat="43.6823536" lon="11.2912444"><ele>231.0</ele><time>2026-04-18T11:42:28.796Z</time></trkpt><trkpt lat="43.6824245" lon="11.2912054"><ele>231.0</ele><time>2026-04-18T11:42:29.796Z</time></trkpt><trkpt lat="43.6825047" lon="11.2911746"><ele>231.0</ele><time>2026-04-18T11:42:30.785Z</time></trkpt><trkpt lat="43.6825916" lon="11.2911472"><ele>231.0</ele><time>2026-04-18T11:42:31.79Z</time></trkpt><trkpt lat="43.6826979" lon="11.2911443"><ele>229.60000000000002</ele><time>2026-04-18T11:42:32.795Z</time></trkpt><trkpt lat="43.6828005" lon="11.2911306"><ele>228.20000000000002</ele><time>2026-04-18T11:42:33.792Z</time></trkpt><trkpt lat="43.6829065" lon="11.2911099"><ele>226.79999999999998</ele><time>2026-04-18T11:42:34.79Z</time></trkpt><trkpt lat="43.6830006" lon="11.291105"><ele>225.39999999999998</ele><time>2026-04-18T11:42:35.788Z</time></trkpt><trkpt lat="43.6830846" lon="11.2910878"><ele>224.0</ele><time>2026-04-18T11:42:36.798Z</time></trkpt><trkpt lat="43.6831517" lon="11.2910833"><ele>224.0</ele><time>2026-04-18T11:42:37.79Z</time></trkpt><trkpt lat="43.6832166" lon="11.2910891"><ele>224.0</ele><time>2026-04-18T11:42:38.793Z</time></trkpt><trkpt lat="43.6832795" lon="11.2910768"><ele>224.0</ele><time>2026-04-18T11:42:39.795Z</time></trkpt><trkpt lat="43.6833413" lon="11.2910533"><ele>224.0</ele><time>2026-04-18T11:42:40.815Z</time></trkpt><trkpt lat="43.6834079" lon="11.2910274"><ele>224.0</ele><time>2026-04-18T11:42:41.797Z</time></trkpt><trkpt lat="43.6834698" lon="11.2910085"><ele>224.0</ele><time>2026-04-18T11:42:42.798Z</time></trkpt><trkpt lat="43.6835425" lon="11.2909869"><ele>224.0</ele><time>2026-04-18T11:42:43.805Z</time></trkpt><trkpt lat="43.6836091" lon="11.2909811"><ele>223.2</ele><time>2026-04-18T11:42:44.799Z</time></trkpt><trkpt lat="43.683697" lon="11.290951"><ele>222.39999999999998</ele><time>2026-04-18T11:42:46.802Z</time></trkpt><trkpt lat="43.6837928" lon="11.2909417"><ele>221.6</ele><time>2026-04-18T11:42:48.8Z</time></trkpt><trkpt lat="43.6839106" lon="11.2910284"><ele>220.8</ele><time>2026-04-18T11:42:50.789Z</time></trkpt><trkpt lat="43.6839716" lon="11.2910751"><ele>220.0</ele><time>2026-04-18T11:42:51.799Z</time></trkpt><trkpt lat="43.6840329" lon="11.2910984"><ele>219.99999999999997</ele><time>2026-04-18T11:42:52.79Z</time></trkpt><trkpt lat="43.6841016" lon="11.2911105"><ele>220.0</ele><time>2026-04-18T11:42:53.792Z</time></trkpt><trkpt lat="43.6841682" lon="11.2911033"><ele>220.0</ele><time>2026-04-18T11:42:54.793Z</time></trkpt><trkpt lat="43.6842346" lon="11.291083"><ele>220.0</ele><time>2026-04-18T11:42:55.793Z</time></trkpt><trkpt lat="43.6843019" lon="11.2910595"><ele>220.0</ele><time>2026-04-18T11:42:56.801Z</time></trkpt><trkpt lat="43.6843787" lon="11.2910316"><ele>219.99999999999997</ele><time>2026-04-18T11:42:57.792Z</time></trkpt><trkpt lat="43.684451" lon="11.2909909"><ele>220.0</ele><time>2026-04-18T11:42:58.795Z</time></trkpt><trkpt lat="43.6845295" lon="11.2908857"><ele>218.8</ele><time>2026-04-18T11:43:00.783Z</time></trkpt><trkpt lat="43.6845966" lon="11.2907718"><ele>217.6</ele><time>2026-04-18T11:43:02.796Z</time></trkpt><trkpt lat="43.6847164" lon="11.290673"><ele>216.39999999999998</ele><time>2026-04-18T11:43:04.795Z</time></trkpt><trkpt lat="43.684794" lon="11.2906354"><ele>215.2</ele><time>2026-04-18T11:43:05.795Z</time></trkpt><trkpt lat="43.6848821" lon="11.2906039"><ele>214.0</ele><time>2026-04-18T11:43:06.8Z</time></trkpt><trkpt lat="43.6849627" lon="11.2905838"><ele>212.99999999999997</ele><time>2026-04-18T11:43:07.803Z</time></trkpt><trkpt lat="43.6850369" lon="11.2905575"><ele>212.0</ele><time>2026-04-18T11:43:08.8Z</time></trkpt><trkpt lat="43.6851095" lon="11.2905419"><ele>211.0</ele><time>2026-04-18T11:43:09.797Z</time></trkpt><trkpt lat="43.6851857" lon="11.2905142"><ele>210.0</ele><time>2026-04-18T11:43:10.795Z</time></trkpt><trkpt lat="43.6852653" lon="11.2904821"><ele>208.99999999999997</ele><time>2026-04-18T11:43:11.816Z</time></trkpt><trkpt lat="43.6853557" lon="11.2904587"><ele>208.0</ele><time>2026-04-18T11:43:12.797Z</time></trkpt><trkpt lat="43.6854506" lon="11.2904225"><ele>208.0</ele><time>2026-04-18T11:43:13.796Z</time></trkpt><trkpt lat="43.6855476" lon="11.2903615"><ele>208.0</ele><time>2026-04-18T11:43:14.8Z</time></trkpt><trkpt lat="43.6856567" lon="11.2903209"><ele>208.0</ele><time>2026-04-18T11:43:15.794Z</time></trkpt><trkpt lat="43.6857697" lon="11.2902867"><ele>208.0</ele><time>2026-04-18T11:43:16.806Z</time></trkpt><trkpt lat="43.6858764" lon="11.2902527"><ele>208.0</ele><time>2026-04-18T11:43:17.799Z</time></trkpt><trkpt lat="43.6859854" lon="11.2902228"><ele>208.0</ele><time>2026-04-18T11:43:18.802Z</time></trkpt><trkpt lat="43.686091" lon="11.2901997"><ele>208.0</ele><time>2026-04-18T11:43:19.806Z</time></trkpt><trkpt lat="43.6861954" lon="11.2901813"><ele>208.0</ele><time>2026-04-18T11:43:20.806Z</time></trkpt><trkpt lat="43.6862971" lon="11.2901521"><ele>208.0</ele><time>2026-04-18T11:43:21.802Z</time></trkpt><trkpt lat="43.6863978" lon="11.2901134"><ele>208.0</ele><time>2026-04-18T11:43:22.801Z</time></trkpt><trkpt lat="43.6864956" lon="11.2900868"><ele>208.60000000000002</ele><time>2026-04-18T11:43:23.8Z</time></trkpt><trkpt lat="43.6865832" lon="11.2900624"><ele>209.20000000000002</ele><time>2026-04-18T11:43:24.8Z</time></trkpt><trkpt lat="43.6866744" lon="11.2900615"><ele>209.8</ele><time>2026-04-18T11:43:25.799Z</time></trkpt><trkpt lat="43.6867706" lon="11.2900433"><ele>210.4</ele><time>2026-04-18T11:43:26.795Z</time></trkpt><trkpt lat="43.6868795" lon="11.2900141"><ele>211.0</ele><time>2026-04-18T11:43:27.794Z</time></trkpt><trkpt lat="43.6869866" lon="11.2899892"><ele>211.49999999999997</ele><time>2026-04-18T11:43:28.804Z</time></trkpt><trkpt lat="43.6870774" lon="11.2899709"><ele>212.0</ele><time>2026-04-18T11:43:29.806Z</time></trkpt><trkpt lat="43.6871588" lon="11.2899481"><ele>212.5</ele><time>2026-04-18T11:43:30.8Z</time></trkpt><trkpt lat="43.6872439" lon="11.289917"><ele>213.0</ele><time>2026-04-18T11:43:31.794Z</time></trkpt><trkpt lat="43.6873342" lon="11.2898915"><ele>213.49999999999997</ele><time>2026-04-18T11:43:32.801Z</time></trkpt><trkpt lat="43.6874238" lon="11.2898636"><ele>214.0</ele><time>2026-04-18T11:43:33.796Z</time></trkpt><trkpt lat="43.6875104" lon="11.2898305"><ele>213.99999999999997</ele><time>2026-04-18T11:43:34.799Z</time></trkpt><trkpt lat="43.687602" lon="11.2898033"><ele>214.0</ele><time>2026-04-18T11:43:35.8Z</time></trkpt><trkpt lat="43.6876846" lon="11.2897724"><ele>214.0</ele><time>2026-04-18T11:43:36.799Z</time></trkpt><trkpt lat="43.6877506" lon="11.2897482"><ele>214.0</ele><time>2026-04-18T11:43:37.804Z</time></trkpt><trkpt lat="43.6878446" lon="11.2897067"><ele>213.99999999999997</ele><time>2026-04-18T11:43:39.799Z</time></trkpt><trkpt lat="43.6879071" lon="11.2896429"><ele>214.0</ele><time>2026-04-18T11:43:42.83Z</time></trkpt><trkpt lat="43.6878318" lon="11.2896895"><ele>214.0</ele><time>2026-04-18T11:44:41.807Z</time></trkpt><trkpt lat="43.6877535" lon="11.2897409"><ele>213.99999999999997</ele><time>2026-04-18T11:44:43.803Z</time></trkpt><trkpt lat="43.6876495" lon="11.2897838"><ele>213.99999999999997</ele><time>2026-04-18T11:44:45.789Z</time></trkpt><trkpt lat="43.6875668" lon="11.289815"><ele>214.0</ele><time>2026-04-18T11:44:47.802Z</time></trkpt><trkpt lat="43.6874724" lon="11.2898472"><ele>214.0</ele><time>2026-04-18T11:44:49.796Z</time></trkpt><trkpt lat="43.687356" lon="11.2898884"><ele>213.99999999999997</ele><time>2026-04-18T11:44:51.798Z</time></trkpt><trkpt lat="43.6872854" lon="11.2899196"><ele>214.0</ele><time>2026-04-18T11:44:52.798Z</time></trkpt><trkpt lat="43.6872154" lon="11.2899404"><ele>214.0</ele><time>2026-04-18T11:44:53.798Z</time></trkpt><trkpt lat="43.6871511" lon="11.2899617"><ele>214.0</ele><time>2026-04-18T11:44:54.794Z</time></trkpt><trkpt lat="43.6870461" lon="11.2900195"><ele>213.99999999999997</ele><time>2026-04-18T11:44:56.798Z</time></trkpt><trkpt lat="43.6869337" lon="11.2900609"><ele>214.0</ele><time>2026-04-18T11:44:58.799Z</time></trkpt><trkpt lat="43.6868061" lon="11.2901101"><ele>213.49999999999997</ele><time>2026-04-18T11:45:00.792Z</time></trkpt><trkpt lat="43.6867378" lon="11.2901346"><ele>213.0</ele><time>2026-04-18T11:45:01.783Z</time></trkpt><trkpt lat="43.6866658" lon="11.2901525"><ele>212.5</ele><time>2026-04-18T11:45:02.784Z</time></trkpt><trkpt lat="43.6865935" lon="11.2901556"><ele>212.0</ele><time>2026-04-18T11:45:03.788Z</time></trkpt><trkpt lat="43.6865117" lon="11.2901538"><ele>211.49999999999997</ele><time>2026-04-18T11:45:04.788Z</time></trkpt><trkpt lat="43.6864205" lon="11.2901613"><ele>211.0</ele><time>2026-04-18T11:45:05.791Z</time></trkpt><trkpt lat="43.6863248" lon="11.2901872"><ele>211.0</ele><time>2026-04-18T11:45:06.786Z</time></trkpt><trkpt lat="43.686223" lon="11.2902206"><ele>211.0</ele><time>2026-04-18T11:45:07.782Z</time></trkpt><trkpt lat="43.6861217" lon="11.2902506"><ele>211.0</ele><time>2026-04-18T11:45:08.79Z</time></trkpt><trkpt lat="43.68602" lon="11.2902769"><ele>211.0</ele><time>2026-04-18T11:45:09.79Z</time></trkpt><trkpt lat="43.6859123" lon="11.2903109"><ele>211.0</ele><time>2026-04-18T11:45:10.787Z</time></trkpt><trkpt lat="43.6858011" lon="11.2903491"><ele>210.4</ele><time>2026-04-18T11:45:11.789Z</time></trkpt><trkpt lat="43.6856926" lon="11.2903773"><ele>209.8</ele><time>2026-04-18T11:45:12.786Z</time></trkpt><trkpt lat="43.6855823" lon="11.2904056"><ele>209.20000000000002</ele><time>2026-04-18T11:45:13.789Z</time></trkpt><trkpt lat="43.6854755" lon="11.2904415"><ele>208.60000000000002</ele><time>2026-04-18T11:45:14.792Z</time></trkpt><trkpt lat="43.6853735" lon="11.2904768"><ele>208.0</ele><time>2026-04-18T11:45:15.811Z</time></trkpt><trkpt lat="43.6852698" lon="11.2905144"><ele>208.0</ele><time>2026-04-18T11:45:16.79Z</time></trkpt><trkpt lat="43.6851626" lon="11.2905358"><ele>208.0</ele><time>2026-04-18T11:45:17.79Z</time></trkpt><trkpt lat="43.6850525" lon="11.2905527"><ele>208.0</ele><time>2026-04-18T11:45:18.791Z</time></trkpt><trkpt lat="43.6849372" lon="11.2905803"><ele>208.0</ele><time>2026-04-18T11:45:19.788Z</time></trkpt><trkpt lat="43.6848336" lon="11.2906213"><ele>208.0</ele><time>2026-04-18T11:45:20.79Z</time></trkpt><trkpt lat="43.6847522" lon="11.2906517"><ele>208.99999999999997</ele><time>2026-04-18T11:45:21.783Z</time></trkpt><trkpt lat="43.6846885" lon="11.2906775"><ele>210.0</ele><time>2026-04-18T11:45:22.78Z</time></trkpt><trkpt lat="43.6846047" lon="11.2907214"><ele>211.0</ele><time>2026-04-18T11:45:24.767Z</time></trkpt><trkpt lat="43.6846816" lon="11.2906971"><ele>212.0</ele><time>2026-04-18T11:45:46.842Z</time></trkpt><trkpt lat="43.6847383" lon="11.2906533"><ele>212.99999999999997</ele><time>2026-04-18T11:45:48.818Z</time></trkpt><trkpt lat="43.6848166" lon="11.2906173"><ele>214.0</ele><time>2026-04-18T11:45:50.813Z</time></trkpt><trkpt lat="43.6849059" lon="11.2906207"><ele>214.00000000000003</ele><time>2026-04-18T11:45:52.817Z</time></trkpt><trkpt lat="43.6849178" lon="11.2907209"><ele>214.0</ele><time>2026-04-18T11:46:18.806Z</time></trkpt><trkpt lat="43.6848922" lon="11.2908013"><ele>214.0</ele><time>2026-04-18T11:46:20.797Z</time></trkpt><trkpt lat="43.6848497" lon="11.2908879"><ele>214.0</ele><time>2026-04-18T11:46:22.803Z</time></trkpt><trkpt lat="43.6848324" lon="11.2909907"><ele>214.0</ele><time>2026-04-18T11:46:24.798Z</time></trkpt><trkpt lat="43.6847966" lon="11.2910881"><ele>214.00000000000003</ele><time>2026-04-18T11:46:26.797Z</time></trkpt><trkpt lat="43.6847509" lon="11.291178"><ele>214.0</ele><time>2026-04-18T11:46:28.81Z</time></trkpt><trkpt lat="43.6847178" lon="11.2912625"><ele>214.00000000000003</ele><time>2026-04-18T11:46:50.809Z</time></trkpt><trkpt lat="43.6846691" lon="11.2913432"><ele>214.0</ele><time>2026-04-18T11:46:53.803Z</time></trkpt><trkpt lat="43.684642" lon="11.2914255"><ele>214.0</ele><time>2026-04-18T11:46:55.798Z</time></trkpt><trkpt lat="43.6846243" lon="11.2915326"><ele>214.0</ele><time>2026-04-18T11:46:57.797Z</time></trkpt><trkpt lat="43.6845806" lon="11.2916177"><ele>214.0</ele><time>2026-04-18T11:46:59.792Z</time></trkpt><trkpt lat="43.684533" lon="11.2916834"><ele>214.00000000000003</ele><time>2026-04-18T11:47:01.801Z</time></trkpt><trkpt lat="43.6845044" lon="11.2917639"><ele>214.0</ele><time>2026-04-18T11:47:03.801Z</time></trkpt><trkpt lat="43.6844521" lon="11.2918636"><ele>213.99999999999997</ele><time>2026-04-18T11:47:06.801Z</time></trkpt><trkpt lat="43.6844035" lon="11.2919308"><ele>214.0</ele><time>2026-04-18T11:47:08.802Z</time></trkpt><trkpt lat="43.6843785" lon="11.2920252"><ele>214.0</ele><time>2026-04-18T11:47:11.796Z</time></trkpt><trkpt lat="43.6843439" lon="11.2921118"><ele>214.0</ele><time>2026-04-18T11:47:20.798Z</time></trkpt><trkpt lat="43.6843083" lon="11.2922009"><ele>213.99999999999997</ele><time>2026-04-18T11:47:22.805Z</time></trkpt><trkpt lat="43.6842496" lon="11.2923238"><ele>214.0</ele><time>2026-04-18T11:47:25.802Z</time></trkpt><trkpt lat="43.6842213" lon="11.2924175"><ele>214.0</ele><time>2026-04-18T11:47:27.802Z</time></trkpt><trkpt lat="43.6842981" lon="11.2924317"><ele>213.99999999999997</ele><time>2026-04-18T11:47:44.805Z</time></trkpt><trkpt lat="43.6843641" lon="11.2924793"><ele>213.99999999999997</ele><time>2026-04-18T11:47:46.797Z</time></trkpt><trkpt lat="43.6845062" lon="11.2925153"><ele>214.0</ele><time>2026-04-18T11:47:48.79Z</time></trkpt><trkpt lat="43.6845798" lon="11.2925386"><ele>214.0</ele><time>2026-04-18T11:47:49.796Z</time></trkpt><trkpt lat="43.6846628" lon="11.2925625"><ele>212.66666666666666</ele><time>2026-04-18T11:47:51.805Z</time></trkpt><trkpt lat="43.6847297" lon="11.2925986"><ele>211.33333333333331</ele><time>2026-04-18T11:47:53.799Z</time></trkpt><trkpt lat="43.6848078" lon="11.292631"><ele>210.0</ele><time>2026-04-18T11:47:55.809Z</time></trkpt><trkpt lat="43.6848854" lon="11.2926643"><ele>208.66666666666669</ele><time>2026-04-18T11:47:57.808Z</time></trkpt><trkpt lat="43.6849848" lon="11.2926821"><ele>207.33333333333334</ele><time>2026-04-18T11:47:59.802Z</time></trkpt><trkpt lat="43.6850674" lon="11.2927159"><ele>206.0</ele><time>2026-04-18T11:48:01.803Z</time></trkpt><trkpt lat="43.6851549" lon="11.2927622"><ele>206.0</ele><time>2026-04-18T11:48:03.81Z</time></trkpt><trkpt lat="43.6852597" lon="11.2928064"><ele>206.0</ele><time>2026-04-18T11:48:05.793Z</time></trkpt><trkpt lat="43.6853544" lon="11.2928453"><ele>206.0</ele><time>2026-04-18T11:48:07.808Z</time></trkpt><trkpt lat="43.6854305" lon="11.292877"><ele>206.0</ele><time>2026-04-18T11:48:09.81Z</time></trkpt><trkpt lat="43.6855139" lon="11.2928999"><ele>206.0</ele><time>2026-04-18T11:48:11.804Z</time></trkpt><trkpt lat="43.685603" lon="11.2929239"><ele>204.83333333333334</ele><time>2026-04-18T11:48:13.814Z</time></trkpt><trkpt lat="43.6856875" lon="11.2929629"><ele>203.66666666666669</ele><time>2026-04-18T11:48:15.795Z</time></trkpt><trkpt lat="43.6857775" lon="11.2929949"><ele>202.5</ele><time>2026-04-18T11:48:17.812Z</time></trkpt><trkpt lat="43.6858537" lon="11.2930016"><ele>201.33333333333331</ele><time>2026-04-18T11:48:19.801Z</time></trkpt><trkpt lat="43.6859308" lon="11.2930002"><ele>200.16666666666666</ele><time>2026-04-18T11:48:21.822Z</time></trkpt><trkpt lat="43.6860165" lon="11.2930018"><ele>199.0</ele><time>2026-04-18T11:48:23.804Z</time></trkpt><trkpt lat="43.6861003" lon="11.2929941"><ele>198.99999999999997</ele><time>2026-04-18T11:48:25.794Z</time></trkpt><trkpt lat="43.6861762" lon="11.2929978"><ele>199.0</ele><time>2026-04-18T11:48:27.796Z</time></trkpt><trkpt lat="43.6860995" lon="11.2929618"><ele>199.0</ele><time>2026-04-18T11:49:02.814Z</time></trkpt><trkpt lat="43.6860266" lon="11.2929724"><ele>199.0</ele><time>2026-04-18T11:49:04.805Z</time></trkpt><trkpt lat="43.685962" lon="11.2929704"><ele>198.99999999999997</ele><time>2026-04-18T11:49:06.816Z</time></trkpt><trkpt lat="43.6860307" lon="11.2928896"><ele>199.0</ele><time>2026-04-18T11:49:54.817Z</time></trkpt><trkpt lat="43.6860854" lon="11.2928185"><ele>198.49999999999997</ele><time>2026-04-18T11:49:56.801Z</time></trkpt><trkpt lat="43.6861421" lon="11.2927409"><ele>198.0</ele><time>2026-04-18T11:49:58.8Z</time></trkpt><trkpt lat="43.6861956" lon="11.2926767"><ele>197.5</ele><time>2026-04-18T11:50:00.792Z</time></trkpt><trkpt lat="43.6862537" lon="11.2925983"><ele>197.0</ele><time>2026-04-18T11:50:03.794Z</time></trkpt><trkpt lat="43.6863076" lon="11.2925488"><ele>196.49999999999997</ele><time>2026-04-18T11:50:05.795Z</time></trkpt><trkpt lat="43.6863729" lon="11.2924728"><ele>196.0</ele><time>2026-04-18T11:50:07.793Z</time></trkpt><trkpt lat="43.6864194" lon="11.2923955"><ele>195.99999999999997</ele><time>2026-04-18T11:50:09.798Z</time></trkpt><trkpt lat="43.6864733" lon="11.2923256"><ele>196.0</ele><time>2026-04-18T11:50:12.798Z</time></trkpt><trkpt lat="43.6865346" lon="11.2922661"><ele>196.0</ele><time>2026-04-18T11:50:15.8Z</time></trkpt><trkpt lat="43.6865915" lon="11.2922067"><ele>196.0</ele><time>2026-04-18T11:50:17.797Z</time></trkpt><trkpt lat="43.6866764" lon="11.2921145"><ele>195.99999999999997</ele><time>2026-04-18T11:50:19.786Z</time></trkpt><trkpt lat="43.6867245" lon="11.2920571"><ele>196.0</ele><time>2026-04-18T11:50:20.81Z</time></trkpt><trkpt lat="43.6867878" lon="11.2920032"><ele>196.60000000000002</ele><time>2026-04-18T11:50:21.795Z</time></trkpt><trkpt lat="43.6868442" lon="11.2919531"><ele>197.2</ele><time>2026-04-18T11:50:22.79Z</time></trkpt><trkpt lat="43.6869439" lon="11.2918749"><ele>197.8</ele><time>2026-04-18T11:50:24.791Z</time></trkpt><trkpt lat="43.6870297" lon="11.2917896"><ele>198.39999999999998</ele><time>2026-04-18T11:50:26.794Z</time></trkpt><trkpt lat="43.6871162" lon="11.2916958"><ele>199.0</ele><time>2026-04-18T11:50:28.799Z</time></trkpt><trkpt lat="43.6872083" lon="11.2916194"><ele>199.2</ele><time>2026-04-18T11:50:30.799Z</time></trkpt><trkpt lat="43.6873206" lon="11.2915063"><ele>199.39999999999998</ele><time>2026-04-18T11:50:32.796Z</time></trkpt><trkpt lat="43.6873769" lon="11.2914401"><ele>199.6</ele><time>2026-04-18T11:50:33.798Z</time></trkpt><trkpt lat="43.6874305" lon="11.2913809"><ele>199.8</ele><time>2026-04-18T11:50:34.793Z</time></trkpt><trkpt lat="43.6875298" lon="11.2912758"><ele>200.0</ele><time>2026-04-18T11:50:36.794Z</time></trkpt><trkpt lat="43.6875896" lon="11.2912161"><ele>199.83333333333334</ele><time>2026-04-18T11:50:37.791Z</time></trkpt><trkpt lat="43.6876466" lon="11.291153"><ele>199.66666666666669</ele><time>2026-04-18T11:50:38.781Z</time></trkpt><trkpt lat="43.6877099" lon="11.2910884"><ele>199.5</ele><time>2026-04-18T11:50:39.786Z</time></trkpt><trkpt lat="43.6877749" lon="11.291012"><ele>199.33333333333331</ele><time>2026-04-18T11:50:40.784Z</time></trkpt><trkpt lat="43.6878462" lon="11.2909329"><ele>199.16666666666666</ele><time>2026-04-18T11:50:41.778Z</time></trkpt><trkpt lat="43.6879048" lon="11.2908673"><ele>199.0</ele><time>2026-04-18T11:50:42.782Z</time></trkpt><trkpt lat="43.6879708" lon="11.2907834"><ele>198.99999999999997</ele><time>2026-04-18T11:50:44.781Z</time></trkpt><trkpt lat="43.6879019" lon="11.2908367"><ele>199.0</ele><time>2026-04-18T11:51:57.809Z</time></trkpt><trkpt lat="43.6878583" lon="11.2909033"><ele>199.0</ele><time>2026-04-18T11:51:59.791Z</time></trkpt><trkpt lat="43.687791" lon="11.2909985"><ele>199.0</ele><time>2026-04-18T11:52:01.786Z</time></trkpt><trkpt lat="43.6877415" lon="11.2910926"><ele>198.99999999999997</ele><time>2026-04-18T11:52:03.803Z</time></trkpt><trkpt lat="43.6876781" lon="11.2911221"><ele>199.0</ele><time>2026-04-18T11:52:08.794Z</time></trkpt><trkpt lat="43.6876172" lon="11.2910802"><ele>201.39999999999998</ele><time>2026-04-18T11:52:10.788Z</time></trkpt><trkpt lat="43.6875232" lon="11.2910178"><ele>203.8</ele><time>2026-04-18T11:52:12.786Z</time></trkpt><trkpt lat="43.687426" lon="11.2909247"><ele>206.2</ele><time>2026-04-18T11:52:14.78Z</time></trkpt><trkpt lat="43.6873646" lon="11.2908106"><ele>208.60000000000002</ele><time>2026-04-18T11:52:16.79Z</time></trkpt><trkpt lat="43.6873138" lon="11.2906712"><ele>211.0</ele><time>2026-04-18T11:52:18.787Z</time></trkpt><trkpt lat="43.6872628" lon="11.2905388"><ele>211.49999999999997</ele><time>2026-04-18T11:52:20.784Z</time></trkpt><trkpt lat="43.6871901" lon="11.2904669"><ele>212.0</ele><time>2026-04-18T11:52:22.778Z</time></trkpt><trkpt lat="43.6872221" lon="11.2903559"><ele>212.5</ele><time>2026-04-18T11:52:38.791Z</time></trkpt><trkpt lat="43.6872693" lon="11.2902726"><ele>213.0</ele><time>2026-04-18T11:52:40.796Z</time></trkpt><trkpt lat="43.6873556" lon="11.2901675"><ele>213.49999999999997</ele><time>2026-04-18T11:52:42.794Z</time></trkpt><trkpt lat="43.6874055" lon="11.2901004"><ele>214.0</ele><time>2026-04-18T11:52:43.79Z</time></trkpt><trkpt lat="43.6874698" lon="11.2899795"><ele>214.0</ele><time>2026-04-18T11:52:45.789Z</time></trkpt><trkpt lat="43.6875421" lon="11.2899209"><ele>213.99999999999997</ele><time>2026-04-18T11:52:47.781Z</time></trkpt><trkpt lat="43.6875605" lon="11.2898142"><ele>213.99999999999997</ele><time>2026-04-18T11:52:50.789Z</time></trkpt><trkpt lat="43.6874689" lon="11.289821"><ele>214.0</ele><time>2026-04-18T11:52:53.79Z</time></trkpt><trkpt lat="43.6873533" lon="11.2898822"><ele>214.0</ele><time>2026-04-18T11:52:55.774Z</time></trkpt><trkpt lat="43.6871916" lon="11.2899489"><ele>213.99999999999997</ele><time>2026-04-18T11:52:57.792Z</time></trkpt><trkpt lat="43.6871137" lon="11.2899715"><ele>214.0</ele><time>2026-04-18T11:52:58.785Z</time></trkpt><trkpt lat="43.6870414" lon="11.2899967"><ele>214.0</ele><time>2026-04-18T11:52:59.805Z</time></trkpt><trkpt lat="43.686968" lon="11.290016"><ele>214.0</ele><time>2026-04-18T11:53:00.786Z</time></trkpt><trkpt lat="43.6868793" lon="11.2900375"><ele>213.99999999999997</ele><time>2026-04-18T11:53:01.79Z</time></trkpt><trkpt lat="43.6867775" lon="11.290066"><ele>214.0</ele><time>2026-04-18T11:53:02.799Z</time></trkpt><trkpt lat="43.6866645" lon="11.290095"><ele>213.25</ele><time>2026-04-18T11:53:03.8Z</time></trkpt><trkpt lat="43.6865468" lon="11.290115"><ele>212.5</ele><time>2026-04-18T11:53:04.876Z</time></trkpt><trkpt lat="43.6864293" lon="11.2901388"><ele>211.75</ele><time>2026-04-18T11:53:05.875Z</time></trkpt><trkpt lat="43.686304" lon="11.2901721"><ele>211.0</ele><time>2026-04-18T11:53:06.866Z</time></trkpt><trkpt lat="43.6861838" lon="11.2902107"><ele>210.25</ele><time>2026-04-18T11:53:07.865Z</time></trkpt><trkpt lat="43.6860616" lon="11.2902485"><ele>209.5</ele><time>2026-04-18T11:53:08.784Z</time></trkpt><trkpt lat="43.685941" lon="11.2902949"><ele>208.75</ele><time>2026-04-18T11:53:09.775Z</time></trkpt><trkpt lat="43.6858171" lon="11.2903356"><ele>208.0</ele><time>2026-04-18T11:53:10.776Z</time></trkpt><trkpt lat="43.6856949" lon="11.2903699"><ele>208.0</ele><time>2026-04-18T11:53:11.774Z</time></trkpt><trkpt lat="43.6855747" lon="11.2904077"><ele>208.0</ele><time>2026-04-18T11:53:12.774Z</time></trkpt><trkpt lat="43.6854507" lon="11.2904483"><ele>208.0</ele><time>2026-04-18T11:53:13.787Z</time></trkpt><trkpt lat="43.6853296" lon="11.2904767"><ele>208.0</ele><time>2026-04-18T11:53:14.783Z</time></trkpt><trkpt lat="43.6851001" lon="11.2905475"><ele>208.0</ele><time>2026-04-18T11:53:16.782Z</time></trkpt><trkpt lat="43.6849847" lon="11.2905797"><ele>208.0</ele><time>2026-04-18T11:53:17.784Z</time></trkpt><trkpt lat="43.6848881" lon="11.2906151"><ele>208.0</ele><time>2026-04-18T11:53:18.781Z</time></trkpt><trkpt lat="43.6847913" lon="11.2906447"><ele>208.0</ele><time>2026-04-18T11:53:19.783Z</time></trkpt><trkpt lat="43.6847015" lon="11.2906695"><ele>208.0</ele><time>2026-04-18T11:53:20.781Z</time></trkpt><trkpt lat="43.6846288" lon="11.2907084"><ele>208.99999999999997</ele><time>2026-04-18T11:53:21.779Z</time></trkpt><trkpt lat="43.6845641" lon="11.2907858"><ele>210.0</ele><time>2026-04-18T11:53:22.778Z</time></trkpt><trkpt lat="43.6845009" lon="11.290867"><ele>211.0</ele><time>2026-04-18T11:53:23.777Z</time></trkpt><trkpt lat="43.6844459" lon="11.2909554"><ele>212.0</ele><time>2026-04-18T11:53:24.774Z</time></trkpt><trkpt lat="43.6843815" lon="11.291021"><ele>212.99999999999997</ele><time>2026-04-18T11:53:25.776Z</time></trkpt><trkpt lat="43.6843138" lon="11.291079"><ele>214.0</ele><time>2026-04-18T11:53:26.775Z</time></trkpt><trkpt lat="43.6842358" lon="11.2911135"><ele>214.99999999999997</ele><time>2026-04-18T11:53:27.773Z</time></trkpt><trkpt lat="43.684172" lon="11.2911339"><ele>216.0</ele><time>2026-04-18T11:53:28.774Z</time></trkpt><trkpt lat="43.6841054" lon="11.2911388"><ele>217.0</ele><time>2026-04-18T11:53:29.774Z</time></trkpt><trkpt lat="43.6839901" lon="11.2910975"><ele>218.0</ele><time>2026-04-18T11:53:31.78Z</time></trkpt><trkpt lat="43.6839213" lon="11.2910515"><ele>218.99999999999997</ele><time>2026-04-18T11:53:32.775Z</time></trkpt><trkpt lat="43.6838626" lon="11.2910021"><ele>220.0</ele><time>2026-04-18T11:53:33.772Z</time></trkpt><trkpt lat="43.6837934" lon="11.2909719"><ele>220.0</ele><time>2026-04-18T11:53:34.769Z</time></trkpt><trkpt lat="43.6837027" lon="11.2909752"><ele>220.0</ele><time>2026-04-18T11:53:35.764Z</time></trkpt><trkpt lat="43.6836078" lon="11.2909967"><ele>220.0</ele><time>2026-04-18T11:53:36.76Z</time></trkpt><trkpt lat="43.6834902" lon="11.2910372"><ele>220.0</ele><time>2026-04-18T11:53:37.77Z</time></trkpt><trkpt lat="43.6833656" lon="11.2910813"><ele>220.0</ele><time>2026-04-18T11:53:38.77Z</time></trkpt><trkpt lat="43.6832483" lon="11.2911095"><ele>220.8</ele><time>2026-04-18T11:53:39.774Z</time></trkpt><trkpt lat="43.6831536" lon="11.2911393"><ele>221.6</ele><time>2026-04-18T11:53:40.77Z</time></trkpt><trkpt lat="43.6830628" lon="11.2911308"><ele>222.39999999999998</ele><time>2026-04-18T11:53:41.771Z</time></trkpt><trkpt lat="43.6829729" lon="11.2911133"><ele>223.2</ele><time>2026-04-18T11:53:42.772Z</time></trkpt><trkpt lat="43.6828598" lon="11.2911206"><ele>224.0</ele><time>2026-04-18T11:53:43.775Z</time></trkpt><trkpt lat="43.6827401" lon="11.2911413"><ele>225.39999999999998</ele><time>2026-04-18T11:53:44.777Z</time></trkpt><trkpt lat="43.6826295" lon="11.291169"><ele>226.79999999999998</ele><time>2026-04-18T11:53:45.773Z</time></trkpt><trkpt lat="43.6825344" lon="11.2911771"><ele>228.20000000000002</ele><time>2026-04-18T11:53:46.779Z</time></trkpt><trkpt lat="43.6824511" lon="11.2911937"><ele>229.60000000000002</ele><time>2026-04-18T11:53:47.767Z</time></trkpt><trkpt lat="43.6823786" lon="11.2912236"><ele>231.0</ele><time>2026-04-18T11:53:48.763Z</time></trkpt><trkpt lat="43.6822974" lon="11.2912766"><ele>231.0</ele><time>2026-04-18T11:53:49.764Z</time></trkpt><trkpt lat="43.6822055" lon="11.291362"><ele>231.00000000000003</ele><time>2026-04-18T11:53:50.763Z</time></trkpt><trkpt lat="43.6821065" lon="11.2914615"><ele>231.00000000000003</ele><time>2026-04-18T11:53:51.759Z</time></trkpt><trkpt lat="43.6820167" lon="11.2915536"><ele>231.0</ele><time>2026-04-18T11:53:52.763Z</time></trkpt><trkpt lat="43.6819499" lon="11.291624"><ele>231.0</ele><time>2026-04-18T11:53:53.761Z</time></trkpt><trkpt lat="43.6818938" lon="11.2916845"><ele>231.0</ele><time>2026-04-18T11:53:54.764Z</time></trkpt><trkpt lat="43.6818069" lon="11.291734"><ele>231.0</ele><time>2026-04-18T11:53:56.758Z</time></trkpt><trkpt lat="43.6817414" lon="11.2916906"><ele>231.0</ele><time>2026-04-18T11:53:58.781Z</time></trkpt><trkpt lat="43.6816908" lon="11.291588"><ele>231.0</ele><time>2026-04-18T11:54:00.788Z</time></trkpt><trkpt lat="43.6816133" lon="11.2915566"><ele>231.0</ele><time>2026-04-18T11:54:02.774Z</time></trkpt><trkpt lat="43.6815769" lon="11.2916723"><ele>231.0</ele><time>2026-04-18T11:54:06.781Z</time></trkpt><trkpt lat="43.6815597" lon="11.2917566"><ele>231.0</ele><time>2026-04-18T11:54:08.793Z</time></trkpt><trkpt lat="43.6815273" lon="11.2918666"><ele>231.0</ele><time>2026-04-18T11:54:10.776Z</time></trkpt><trkpt lat="43.6814871" lon="11.29203"><ele>231.0</ele><time>2026-04-18T11:54:12.773Z</time></trkpt><trkpt lat="43.6814563" lon="11.2921242"><ele>231.0</ele><time>2026-04-18T11:54:13.777Z</time></trkpt><trkpt lat="43.6814168" lon="11.2922113"><ele>231.0</ele><time>2026-04-18T11:54:14.777Z</time></trkpt><trkpt lat="43.68138" lon="11.2923162"><ele>231.0</ele><time>2026-04-18T11:54:15.783Z</time></trkpt><trkpt lat="43.6813404" lon="11.292427"><ele>231.5</ele><time>2026-04-18T11:54:16.789Z</time></trkpt><trkpt lat="43.6813055" lon="11.2925332"><ele>232.0</ele><time>2026-04-18T11:54:17.787Z</time></trkpt><trkpt lat="43.6812684" lon="11.2926261"><ele>232.5</ele><time>2026-04-18T11:54:18.788Z</time></trkpt><trkpt lat="43.681238" lon="11.292704"><ele>233.0</ele><time>2026-04-18T11:54:19.781Z</time></trkpt><trkpt lat="43.6811908" lon="11.292809"><ele>233.5</ele><time>2026-04-18T11:54:21.777Z</time></trkpt><trkpt lat="43.681197" lon="11.2929034"><ele>234.0</ele><time>2026-04-18T11:54:32.802Z</time></trkpt><trkpt lat="43.6812928" lon="11.2929575"><ele>234.0</ele><time>2026-04-18T11:54:34.788Z</time></trkpt><trkpt lat="43.6813861" lon="11.2929649"><ele>233.99999999999997</ele><time>2026-04-18T11:54:35.775Z</time></trkpt><trkpt lat="43.6814897" lon="11.2929645"><ele>233.99999999999997</ele><time>2026-04-18T11:54:36.785Z</time></trkpt><trkpt lat="43.6815892" lon="11.2929749"><ele>234.0</ele><time>2026-04-18T11:54:37.775Z</time></trkpt><trkpt lat="43.6816719" lon="11.2929973"><ele>234.0</ele><time>2026-04-18T11:54:38.779Z</time></trkpt><trkpt lat="43.6817538" lon="11.2930205"><ele>234.0</ele><time>2026-04-18T11:54:39.78Z</time></trkpt><trkpt lat="43.6818511" lon="11.2930493"><ele>234.0</ele><time>2026-04-18T11:54:40.776Z</time></trkpt><trkpt lat="43.6819641" lon="11.2930767"><ele>234.0</ele><time>2026-04-18T11:54:41.77Z</time></trkpt><trkpt lat="43.6820946" lon="11.2931116"><ele>234.0</ele><time>2026-04-18T11:54:42.771Z</time></trkpt><trkpt lat="43.6822212" lon="11.293166"><ele>233.0</ele><time>2026-04-18T11:54:43.783Z</time></trkpt><trkpt lat="43.6823289" lon="11.2932161"><ele>231.99999999999997</ele><time>2026-04-18T11:54:44.788Z</time></trkpt><trkpt lat="43.6824335" lon="11.2932591"><ele>230.99999999999997</ele><time>2026-04-18T11:54:45.79Z</time></trkpt><trkpt lat="43.6825366" lon="11.2933005"><ele>230.0</ele><time>2026-04-18T11:54:46.792Z</time></trkpt><trkpt lat="43.6826313" lon="11.2933386"><ele>229.0</ele><time>2026-04-18T11:54:47.796Z</time></trkpt><trkpt lat="43.682725" lon="11.2933741"><ele>228.49999999999997</ele><time>2026-04-18T11:54:48.792Z</time></trkpt><trkpt lat="43.6828046" lon="11.2934063"><ele>228.0</ele><time>2026-04-18T11:54:49.796Z</time></trkpt><trkpt lat="43.6828829" lon="11.2934409"><ele>227.5</ele><time>2026-04-18T11:54:50.789Z</time></trkpt><trkpt lat="43.6829564" lon="11.2934678"><ele>227.0</ele><time>2026-04-18T11:54:51.791Z</time></trkpt><trkpt lat="43.6830253" lon="11.2935051"><ele>226.49999999999997</ele><time>2026-04-18T11:54:52.796Z</time></trkpt><trkpt lat="43.6830937" lon="11.29355"><ele>226.0</ele><time>2026-04-18T11:54:53.781Z</time></trkpt><trkpt lat="43.6831838" lon="11.2935889"><ele>226.0</ele><time>2026-04-18T11:54:54.792Z</time></trkpt><trkpt lat="43.6832871" lon="11.2936383"><ele>226.0</ele><time>2026-04-18T11:54:55.792Z</time></trkpt><trkpt lat="43.6833968" lon="11.2936874"><ele>226.0</ele><time>2026-04-18T11:54:56.796Z</time></trkpt><trkpt lat="43.6835146" lon="11.293724"><ele>226.0</ele><time>2026-04-18T11:54:57.792Z</time></trkpt><trkpt lat="43.6836372" lon="11.2937656"><ele>226.0</ele><time>2026-04-18T11:54:58.79Z</time></trkpt><trkpt lat="43.683759" lon="11.2938085"><ele>226.0</ele><time>2026-04-18T11:54:59.791Z</time></trkpt><trkpt lat="43.6838697" lon="11.29386"><ele>226.0</ele><time>2026-04-18T11:55:00.78Z</time></trkpt><trkpt lat="43.683974" lon="11.2939244"><ele>226.0</ele><time>2026-04-18T11:55:01.784Z</time></trkpt><trkpt lat="43.6840683" lon="11.2939855"><ele>226.0</ele><time>2026-04-18T11:55:02.793Z</time></trkpt><trkpt lat="43.6841408" lon="11.2940602"><ele>226.00000000000003</ele><time>2026-04-18T11:55:03.804Z</time></trkpt><trkpt lat="43.6842282" lon="11.2941645"><ele>226.00000000000003</ele><time>2026-04-18T11:55:04.783Z</time></trkpt><trkpt lat="43.684297" lon="11.2942961"><ele>226.0</ele><time>2026-04-18T11:55:05.784Z</time></trkpt><trkpt lat="43.6843579" lon="11.2944397"><ele>226.0</ele><time>2026-04-18T11:55:06.785Z</time></trkpt><trkpt lat="43.6843989" lon="11.2945942"><ele>225.75</ele><time>2026-04-18T11:55:07.784Z</time></trkpt><trkpt lat="43.6844445" lon="11.2947657"><ele>225.5</ele><time>2026-04-18T11:55:08.779Z</time></trkpt><trkpt lat="43.6845025" lon="11.2949499"><ele>225.25</ele><time>2026-04-18T11:55:09.79Z</time></trkpt><trkpt lat="43.6845728" lon="11.2951287"><ele>225.0</ele><time>2026-04-18T11:55:10.778Z</time></trkpt><trkpt lat="43.6846863" lon="11.295304"><ele>225.0</ele><time>2026-04-18T11:55:11.781Z</time></trkpt><trkpt lat="43.6848087" lon="11.2954618"><ele>225.0</ele><time>2026-04-18T11:55:12.777Z</time></trkpt><trkpt lat="43.6849407" lon="11.2956054"><ele>225.0</ele><time>2026-04-18T11:55:13.783Z</time></trkpt><trkpt lat="43.6851225" lon="11.2957318"><ele>221.0</ele><time>2026-04-18T11:55:14.781Z</time></trkpt><trkpt lat="43.6853071" lon="11.2958592"><ele>217.0</ele><time>2026-04-18T11:55:15.78Z</time></trkpt><trkpt lat="43.6854846" lon="11.2960103"><ele>213.0</ele><time>2026-04-18T11:55:16.784Z</time></trkpt><trkpt lat="43.6856579" lon="11.2961482"><ele>213.0</ele><time>2026-04-18T11:55:17.789Z</time></trkpt><trkpt lat="43.6858375" lon="11.2962523"><ele>213.0</ele><time>2026-04-18T11:55:18.783Z</time></trkpt><trkpt lat="43.6860299" lon="11.2963234"><ele>213.0</ele><time>2026-04-18T11:55:19.781Z</time></trkpt><trkpt lat="43.6862666" lon="11.2963392"><ele>208.5</ele><time>2026-04-18T11:55:20.772Z</time></trkpt><trkpt lat="43.6865384" lon="11.2963457"><ele>204.0</ele><time>2026-04-18T11:55:21.782Z</time></trkpt><trkpt lat="43.686797" lon="11.2963519"><ele>202.0</ele><time>2026-04-18T11:55:22.775Z</time></trkpt><trkpt lat="43.6870479" lon="11.2963224"><ele>200.0</ele><time>2026-04-18T11:55:23.788Z</time></trkpt><trkpt lat="43.6873301" lon="11.296264"><ele>200.0</ele><time>2026-04-18T11:55:24.796Z</time></trkpt><trkpt lat="43.6876536" lon="11.2961922"><ele>200.0</ele><time>2026-04-18T11:55:25.795Z</time></trkpt><trkpt lat="43.6879585" lon="11.296112"><ele>202.5</ele><time>2026-04-18T11:55:26.872Z</time></trkpt><trkpt lat="43.6882385" lon="11.2960458"><ele>205.0</ele><time>2026-04-18T11:55:27.869Z</time></trkpt><trkpt lat="43.6884926" lon="11.2959985"><ele>207.5</ele><time>2026-04-18T11:55:28.868Z</time></trkpt><trkpt lat="43.6887272" lon="11.2959754"><ele>210.0</ele><time>2026-04-18T11:55:29.871Z</time></trkpt><trkpt lat="43.6889767" lon="11.2959871"><ele>210.0</ele><time>2026-04-18T11:55:30.873Z</time></trkpt><trkpt lat="43.6892182" lon="11.2960093"><ele>210.0</ele><time>2026-04-18T11:55:31.854Z</time></trkpt><trkpt lat="43.6894416" lon="11.2960173"><ele>209.33333333333331</ele><time>2026-04-18T11:55:32.856Z</time></trkpt><trkpt lat="43.6896669" lon="11.2960062"><ele>208.66666666666666</ele><time>2026-04-18T11:55:33.852Z</time></trkpt><trkpt lat="43.6898743" lon="11.2959618"><ele>208.0</ele><time>2026-04-18T11:55:34.873Z</time></trkpt><trkpt lat="43.6900858" lon="11.2958915"><ele>205.0</ele><time>2026-04-18T11:55:35.865Z</time></trkpt><trkpt lat="43.6903071" lon="11.2957965"><ele>202.0</ele><time>2026-04-18T11:55:36.871Z</time></trkpt><trkpt lat="43.690538" lon="11.2956784"><ele>203.0</ele><time>2026-04-18T11:55:37.878Z</time></trkpt><trkpt lat="43.690765" lon="11.295571"><ele>204.0</ele><time>2026-04-18T11:55:38.866Z</time></trkpt><trkpt lat="43.6909819" lon="11.2954723"><ele>203.33333333333331</ele><time>2026-04-18T11:55:39.878Z</time></trkpt><trkpt lat="43.691184" lon="11.2953684"><ele>202.66666666666666</ele><time>2026-04-18T11:55:40.88Z</time></trkpt><trkpt lat="43.6913732" lon="11.2952542"><ele>202.0</ele><time>2026-04-18T11:55:41.87Z</time></trkpt><trkpt lat="43.691551" lon="11.2951302"><ele>202.0</ele><time>2026-04-18T11:55:42.881Z</time></trkpt><trkpt lat="43.6917135" lon="11.2949942"><ele>202.0</ele><time>2026-04-18T11:55:43.879Z</time></trkpt><trkpt lat="43.6918598" lon="11.2948641"><ele>202.0</ele><time>2026-04-18T11:55:44.879Z</time></trkpt><trkpt lat="43.6919726" lon="11.2947743"><ele>201.75</ele><time>2026-04-18T11:55:45.8Z</time></trkpt><trkpt lat="43.692098" lon="11.2947309"><ele>201.5</ele><time>2026-04-18T11:55:46.796Z</time></trkpt><trkpt lat="43.6922298" lon="11.2947465"><ele>201.25</ele><time>2026-04-18T11:55:47.787Z</time></trkpt><trkpt lat="43.692353" lon="11.2947925"><ele>201.0</ele><time>2026-04-18T11:55:48.777Z</time></trkpt><trkpt lat="43.692474" lon="11.2948516"><ele>201.0</ele><time>2026-04-18T11:55:49.783Z</time></trkpt><trkpt lat="43.6925765" lon="11.2949071"><ele>201.0</ele><time>2026-04-18T11:55:50.775Z</time></trkpt><trkpt lat="43.6926751" lon="11.2949417"><ele>201.0</ele><time>2026-04-18T11:55:51.791Z</time></trkpt><trkpt lat="43.6927641" lon="11.2949253"><ele>201.0</ele><time>2026-04-18T11:55:52.775Z</time></trkpt><trkpt lat="43.6928445" lon="11.2949047"><ele>201.0</ele><time>2026-04-18T11:55:53.773Z</time></trkpt><trkpt lat="43.6929186" lon="11.2948605"><ele>200.5</ele><time>2026-04-18T11:55:55.789Z</time></trkpt><trkpt lat="43.6929517" lon="11.2947333"><ele>200.0</ele><time>2026-04-18T11:56:24.784Z</time></trkpt><trkpt lat="43.693004" lon="11.2945297"><ele>199.5</ele><time>2026-04-18T11:56:26.782Z</time></trkpt><trkpt lat="43.6930322" lon="11.29437"><ele>199.0</ele><time>2026-04-18T11:56:27.78Z</time></trkpt><trkpt lat="43.6930452" lon="11.2942259"><ele>199.0</ele><time>2026-04-18T11:56:28.784Z</time></trkpt><trkpt lat="43.6930719" lon="11.2940887"><ele>199.0</ele><time>2026-04-18T11:56:29.785Z</time></trkpt><trkpt lat="43.6931091" lon="11.2939472"><ele>199.0</ele><time>2026-04-18T11:56:30.776Z</time></trkpt><trkpt lat="43.6931674" lon="11.2937995"><ele>199.0</ele><time>2026-04-18T11:56:31.786Z</time></trkpt><trkpt lat="43.6932614" lon="11.2936667"><ele>199.75</ele><time>2026-04-18T11:56:32.775Z</time></trkpt><trkpt lat="43.6933773" lon="11.2935473"><ele>200.5</ele><time>2026-04-18T11:56:33.8Z</time></trkpt><trkpt lat="43.6935144" lon="11.2934725"><ele>201.25</ele><time>2026-04-18T11:56:34.792Z</time></trkpt><trkpt lat="43.6936596" lon="11.2934105"><ele>202.0</ele><time>2026-04-18T11:56:35.791Z</time></trkpt><trkpt lat="43.6937921" lon="11.2933206"><ele>202.0</ele><time>2026-04-18T11:56:36.814Z</time></trkpt><trkpt lat="43.6938986" lon="11.2931559"><ele>202.0</ele><time>2026-04-18T11:56:37.782Z</time></trkpt><trkpt lat="43.6939952" lon="11.2929867"><ele>202.0</ele><time>2026-04-18T11:56:38.784Z</time></trkpt><trkpt lat="43.6940991" lon="11.2928852"><ele>202.0</ele><time>2026-04-18T11:56:39.795Z</time></trkpt><trkpt lat="43.6942408" lon="11.2928399"><ele>204.0</ele><time>2026-04-18T11:56:40.797Z</time></trkpt><trkpt lat="43.694396" lon="11.2928277"><ele>206.0</ele><time>2026-04-18T11:56:41.776Z</time></trkpt><trkpt lat="43.6945595" lon="11.2928207"><ele>208.0</ele><time>2026-04-18T11:56:42.78Z</time></trkpt><trkpt lat="43.6947487" lon="11.2928227"><ele>208.0</ele><time>2026-04-18T11:56:43.786Z</time></trkpt><trkpt lat="43.6949438" lon="11.2928285"><ele>208.0</ele><time>2026-04-18T11:56:44.78Z</time></trkpt><trkpt lat="43.695146" lon="11.2928325"><ele>208.0</ele><time>2026-04-18T11:56:45.775Z</time></trkpt><trkpt lat="43.6953554" lon="11.2928606"><ele>207.5</ele><time>2026-04-18T11:56:46.775Z</time></trkpt><trkpt lat="43.6955863" lon="11.2929222"><ele>207.0</ele><time>2026-04-18T11:56:47.773Z</time></trkpt><trkpt lat="43.6958436" lon="11.293021"><ele>205.0</ele><time>2026-04-18T11:56:48.779Z</time></trkpt><trkpt lat="43.6961098" lon="11.293109"><ele>203.0</ele><time>2026-04-18T11:56:49.783Z</time></trkpt><trkpt lat="43.6963841" lon="11.2932006"><ele>203.0</ele><time>2026-04-18T11:56:50.778Z</time></trkpt><trkpt lat="43.6966683" lon="11.293277"><ele>203.0</ele><time>2026-04-18T11:56:51.785Z</time></trkpt><trkpt lat="43.6969471" lon="11.2933366"><ele>202.5</ele><time>2026-04-18T11:56:52.779Z</time></trkpt><trkpt lat="43.6972078" lon="11.2933963"><ele>202.0</ele><time>2026-04-18T11:56:53.774Z</time></trkpt><trkpt lat="43.6974717" lon="11.2934249"><ele>203.5</ele><time>2026-04-18T11:56:54.778Z</time></trkpt><trkpt lat="43.6977744" lon="11.2933915"><ele>205.0</ele><time>2026-04-18T11:56:55.773Z</time></trkpt><trkpt lat="43.698045" lon="11.2934078"><ele>205.0</ele><time>2026-04-18T11:56:56.759Z</time></trkpt><trkpt lat="43.6982907" lon="11.2934185"><ele>205.0</ele><time>2026-04-18T11:56:57.787Z</time></trkpt><trkpt lat="43.6985436" lon="11.2933911"><ele>204.0</ele><time>2026-04-18T11:56:58.775Z</time></trkpt><trkpt lat="43.6988388" lon="11.29333"><ele>203.0</ele><time>2026-04-18T11:56:59.778Z</time></trkpt><trkpt lat="43.6991106" lon="11.293263"><ele>203.0</ele><time>2026-04-18T11:57:00.776Z</time></trkpt><trkpt lat="43.6993943" lon="11.2931817"><ele>203.0</ele><time>2026-04-18T11:57:01.792Z</time></trkpt><trkpt lat="43.699635" lon="11.2930958"><ele>203.0</ele><time>2026-04-18T11:57:02.785Z</time></trkpt><trkpt lat="43.6998346" lon="11.2930357"><ele>203.0</ele><time>2026-04-18T11:57:03.776Z</time></trkpt><trkpt lat="43.7000166" lon="11.2930111"><ele>203.0</ele><time>2026-04-18T11:57:04.778Z</time></trkpt><trkpt lat="43.7001967" lon="11.2929967"><ele>203.33333333333334</ele><time>2026-04-18T11:57:05.774Z</time></trkpt><trkpt lat="43.7004004" lon="11.2929963"><ele>203.66666666666669</ele><time>2026-04-18T11:57:06.77Z</time></trkpt><trkpt lat="43.7006341" lon="11.2930132"><ele>204.0</ele><time>2026-04-18T11:57:07.789Z</time></trkpt><trkpt lat="43.7008606" lon="11.2930252"><ele>204.0</ele><time>2026-04-18T11:57:08.775Z</time></trkpt><trkpt lat="43.7010929" lon="11.2930572"><ele>204.0</ele><time>2026-04-18T11:57:09.774Z</time></trkpt><trkpt lat="43.7014062" lon="11.2930742"><ele>202.0</ele><time>2026-04-18T11:57:10.782Z</time></trkpt><trkpt lat="43.7017133" lon="11.2931113"><ele>200.0</ele><time>2026-04-18T11:57:11.788Z</time></trkpt><trkpt lat="43.7020166" lon="11.2931552"><ele>199.0</ele><time>2026-04-18T11:57:12.785Z</time></trkpt><trkpt lat="43.7022766" lon="11.2932172"><ele>198.0</ele><time>2026-04-18T11:57:13.783Z</time></trkpt><trkpt lat="43.7025269" lon="11.2932465"><ele>199.0</ele><time>2026-04-18T11:57:14.817Z</time></trkpt><trkpt lat="43.7027767" lon="11.2932466"><ele>200.0</ele><time>2026-04-18T11:57:15.815Z</time></trkpt><trkpt lat="43.7030194" lon="11.2932311"><ele>200.0</ele><time>2026-04-18T11:57:16.881Z</time></trkpt><trkpt lat="43.7032432" lon="11.2932149"><ele>200.0</ele><time>2026-04-18T11:57:17.889Z</time></trkpt><trkpt lat="43.7034363" lon="11.2931937"><ele>200.0</ele><time>2026-04-18T11:57:18.879Z</time></trkpt><trkpt lat="43.703604" lon="11.2931567"><ele>200.33333333333334</ele><time>2026-04-18T11:57:19.878Z</time></trkpt><trkpt lat="43.7037644" lon="11.2930909"><ele>200.66666666666669</ele><time>2026-04-18T11:57:20.859Z</time></trkpt><trkpt lat="43.7039245" lon="11.292999"><ele>201.0</ele><time>2026-04-18T11:57:21.871Z</time></trkpt><trkpt lat="43.7040646" lon="11.2928484"><ele>201.0</ele><time>2026-04-18T11:57:22.85Z</time></trkpt><trkpt lat="43.7042116" lon="11.2927203"><ele>201.0</ele><time>2026-04-18T11:57:23.857Z</time></trkpt><trkpt lat="43.7043278" lon="11.2925347"><ele>201.0</ele><time>2026-04-18T11:57:24.763Z</time></trkpt><trkpt lat="43.7044947" lon="11.2924008"><ele>199.33333333333331</ele><time>2026-04-18T11:57:25.767Z</time></trkpt><trkpt lat="43.7046603" lon="11.2922405"><ele>197.66666666666666</ele><time>2026-04-18T11:57:26.776Z</time></trkpt><trkpt lat="43.7048177" lon="11.2920472"><ele>196.0</ele><time>2026-04-18T11:57:27.754Z</time></trkpt><trkpt lat="43.7049745" lon="11.2918179"><ele>196.0</ele><time>2026-04-18T11:57:28.772Z</time></trkpt><trkpt lat="43.705157" lon="11.2915957"><ele>196.0</ele><time>2026-04-18T11:57:29.773Z</time></trkpt><trkpt lat="43.7053323" lon="11.2913802"><ele>196.0</ele><time>2026-04-18T11:57:30.784Z</time></trkpt><trkpt lat="43.7055151" lon="11.2911684"><ele>196.0</ele><time>2026-04-18T11:57:31.784Z</time></trkpt><trkpt lat="43.705715" lon="11.2909305"><ele>196.0</ele><time>2026-04-18T11:57:32.789Z</time></trkpt><trkpt lat="43.7059301" lon="11.2906711"><ele>196.0</ele><time>2026-04-18T11:57:33.796Z</time></trkpt><trkpt lat="43.7061233" lon="11.290427"><ele>194.66666666666666</ele><time>2026-04-18T11:57:34.786Z</time></trkpt><trkpt lat="43.7062989" lon="11.2902128"><ele>193.33333333333331</ele><time>2026-04-18T11:57:35.785Z</time></trkpt><trkpt lat="43.7064532" lon="11.2900149"><ele>192.0</ele><time>2026-04-18T11:57:36.789Z</time></trkpt><trkpt lat="43.7065746" lon="11.2898538"><ele>191.0</ele><time>2026-04-18T11:57:37.788Z</time></trkpt><trkpt lat="43.7066908" lon="11.2897195"><ele>190.0</ele><time>2026-04-18T11:57:38.811Z</time></trkpt><trkpt lat="43.7068262" lon="11.2896208"><ele>189.0</ele><time>2026-04-18T11:57:39.797Z</time></trkpt><trkpt lat="43.7069681" lon="11.2895932"><ele>188.0</ele><time>2026-04-18T11:57:40.788Z</time></trkpt><trkpt lat="43.7071312" lon="11.2895721"><ele>185.5</ele><time>2026-04-18T11:57:41.787Z</time></trkpt><trkpt lat="43.7075081" lon="11.2895275"><ele>183.0</ele><time>2026-04-18T11:57:43.797Z</time></trkpt><trkpt lat="43.7076948" lon="11.2894942"><ele>184.33333333333334</ele><time>2026-04-18T11:57:44.79Z</time></trkpt><trkpt lat="43.7078617" lon="11.2894745"><ele>185.66666666666669</ele><time>2026-04-18T11:57:45.789Z</time></trkpt><trkpt lat="43.7080354" lon="11.2894498"><ele>187.0</ele><time>2026-04-18T11:57:46.796Z</time></trkpt><trkpt lat="43.7081975" lon="11.2894288"><ele>187.0</ele><time>2026-04-18T11:57:47.791Z</time></trkpt><trkpt lat="43.7083514" lon="11.2894307"><ele>187.0</ele><time>2026-04-18T11:57:48.786Z</time></trkpt><trkpt lat="43.7085014" lon="11.2894496"><ele>187.0</ele><time>2026-04-18T11:57:49.778Z</time></trkpt><trkpt lat="43.7086369" lon="11.2894583"><ele>187.0</ele><time>2026-04-18T11:57:50.793Z</time></trkpt><trkpt lat="43.7087636" lon="11.289485"><ele>186.75</ele><time>2026-04-18T11:57:51.789Z</time></trkpt><trkpt lat="43.708884" lon="11.2895323"><ele>186.5</ele><time>2026-04-18T11:57:52.79Z</time></trkpt><trkpt lat="43.7089974" lon="11.289586"><ele>186.25</ele><time>2026-04-18T11:57:53.785Z</time></trkpt><trkpt lat="43.7091066" lon="11.2896722"><ele>186.0</ele><time>2026-04-18T11:57:54.79Z</time></trkpt><trkpt lat="43.7092145" lon="11.2897646"><ele>186.0</ele><time>2026-04-18T11:57:55.784Z</time></trkpt><trkpt lat="43.7093341" lon="11.2898913"><ele>186.0</ele><time>2026-04-18T11:57:56.797Z</time></trkpt><trkpt lat="43.7094611" lon="11.2899987"><ele>186.0</ele><time>2026-04-18T11:57:57.79Z</time></trkpt><trkpt lat="43.7095942" lon="11.2901097"><ele>185.33333333333334</ele><time>2026-04-18T11:57:58.789Z</time></trkpt><trkpt lat="43.7097397" lon="11.2902242"><ele>184.66666666666669</ele><time>2026-04-18T11:57:59.791Z</time></trkpt><trkpt lat="43.7098943" lon="11.2903311"><ele>184.0</ele><time>2026-04-18T11:58:00.778Z</time></trkpt><trkpt lat="43.7100635" lon="11.2904305"><ele>183.0</ele><time>2026-04-18T11:58:01.789Z</time></trkpt><trkpt lat="43.7102503" lon="11.2905014"><ele>182.0</ele><time>2026-04-18T11:58:02.788Z</time></trkpt><trkpt lat="43.7104638" lon="11.2905637"><ele>181.0</ele><time>2026-04-18T11:58:03.787Z</time></trkpt><trkpt lat="43.7106751" lon="11.2906292"><ele>181.0</ele><time>2026-04-18T11:58:04.792Z</time></trkpt><trkpt lat="43.7108764" lon="11.2906771"><ele>181.0</ele><time>2026-04-18T11:58:05.79Z</time></trkpt><trkpt lat="43.7110845" lon="11.2906949"><ele>181.0</ele><time>2026-04-18T11:58:06.797Z</time></trkpt><trkpt lat="43.7112766" lon="11.2906846"><ele>181.5</ele><time>2026-04-18T11:58:07.782Z</time></trkpt><trkpt lat="43.7114989" lon="11.2906071"><ele>182.0</ele><time>2026-04-18T11:58:08.795Z</time></trkpt><trkpt lat="43.7117501" lon="11.2905119"><ele>181.0</ele><time>2026-04-18T11:58:09.797Z</time></trkpt><trkpt lat="43.7119896" lon="11.2904502"><ele>180.0</ele><time>2026-04-18T11:58:10.784Z</time></trkpt><trkpt lat="43.7122092" lon="11.2904022"><ele>180.0</ele><time>2026-04-18T11:58:11.785Z</time></trkpt><trkpt lat="43.7124004" lon="11.290351"><ele>180.0</ele><time>2026-04-18T11:58:12.78Z</time></trkpt><trkpt lat="43.712573" lon="11.2903325"><ele>180.0</ele><time>2026-04-18T11:58:13.789Z</time></trkpt><trkpt lat="43.7127419" lon="11.2903472"><ele>180.0</ele><time>2026-04-18T11:58:14.787Z</time></trkpt><trkpt lat="43.7128914" lon="11.2903704"><ele>180.0</ele><time>2026-04-18T11:58:15.778Z</time></trkpt><trkpt lat="43.7130375" lon="11.2904468"><ele>180.0</ele><time>2026-04-18T11:58:16.795Z</time></trkpt><trkpt lat="43.7132105" lon="11.290577"><ele>179.0</ele><time>2026-04-18T11:58:17.795Z</time></trkpt><trkpt lat="43.7133966" lon="11.2907345"><ele>178.0</ele><time>2026-04-18T11:58:18.8Z</time></trkpt><trkpt lat="43.7135897" lon="11.2909191"><ele>178.0</ele><time>2026-04-18T11:58:19.798Z</time></trkpt><trkpt lat="43.7137838" lon="11.2910864"><ele>178.0</ele><time>2026-04-18T11:58:20.796Z</time></trkpt><trkpt lat="43.7139808" lon="11.2911975"><ele>178.0</ele><time>2026-04-18T11:58:21.786Z</time></trkpt><trkpt lat="43.7142057" lon="11.2912759"><ele>177.5</ele><time>2026-04-18T11:58:22.788Z</time></trkpt><trkpt lat="43.7144064" lon="11.2913442"><ele>177.0</ele><time>2026-04-18T11:58:23.791Z</time></trkpt><trkpt lat="43.7147844" lon="11.291455"><ele>176.66666666666666</ele><time>2026-04-18T11:58:25.792Z</time></trkpt><trkpt lat="43.7149538" lon="11.2915051"><ele>176.33333333333331</ele><time>2026-04-18T11:58:26.791Z</time></trkpt><trkpt lat="43.7151161" lon="11.2915677"><ele>176.0</ele><time>2026-04-18T11:58:27.799Z</time></trkpt><trkpt lat="43.7152743" lon="11.2916682"><ele>174.0</ele><time>2026-04-18T11:58:28.787Z</time></trkpt><trkpt lat="43.7154312" lon="11.2917711"><ele>172.0</ele><time>2026-04-18T11:58:29.784Z</time></trkpt><trkpt lat="43.7155745" lon="11.2918878"><ele>170.0</ele><time>2026-04-18T11:58:30.787Z</time></trkpt><trkpt lat="43.7157314" lon="11.2919974"><ele>170.0</ele><time>2026-04-18T11:58:31.778Z</time></trkpt><trkpt lat="43.7158534" lon="11.2920815"><ele>170.0</ele><time>2026-04-18T11:58:32.781Z</time></trkpt><trkpt lat="43.7160122" lon="11.2921146"><ele>170.0</ele><time>2026-04-18T11:58:33.777Z</time></trkpt><trkpt lat="43.7161894" lon="11.292082"><ele>168.33333333333331</ele><time>2026-04-18T11:58:34.79Z</time></trkpt><trkpt lat="43.71637" lon="11.2919984"><ele>166.66666666666666</ele><time>2026-04-18T11:58:35.789Z</time></trkpt><trkpt lat="43.7165678" lon="11.2919062"><ele>165.0</ele><time>2026-04-18T11:58:36.786Z</time></trkpt><trkpt lat="43.7167743" lon="11.2918184"><ele>162.66666666666666</ele><time>2026-04-18T11:58:37.776Z</time></trkpt><trkpt lat="43.7169951" lon="11.2917414"><ele>160.33333333333331</ele><time>2026-04-18T11:58:38.785Z</time></trkpt><trkpt lat="43.7172097" lon="11.291674"><ele>158.0</ele><time>2026-04-18T11:58:39.785Z</time></trkpt><trkpt lat="43.7174462" lon="11.2916345"><ele>158.0</ele><time>2026-04-18T11:58:40.803Z</time></trkpt><trkpt lat="43.7177056" lon="11.2916319"><ele>158.0</ele><time>2026-04-18T11:58:41.777Z</time></trkpt><trkpt lat="43.7179988" lon="11.2916593"><ele>155.5</ele><time>2026-04-18T11:58:42.784Z</time></trkpt><trkpt lat="43.7182961" lon="11.2916742"><ele>153.0</ele><time>2026-04-18T11:58:43.787Z</time></trkpt><trkpt lat="43.7185694" lon="11.2917075"><ele>150.0</ele><time>2026-04-18T11:58:44.78Z</time></trkpt><trkpt lat="43.7188118" lon="11.2917206"><ele>147.0</ele><time>2026-04-18T11:58:45.786Z</time></trkpt><trkpt lat="43.7190193" lon="11.291735"><ele>147.0</ele><time>2026-04-18T11:58:46.787Z</time></trkpt><trkpt lat="43.719204" lon="11.291727"><ele>147.0</ele><time>2026-04-18T11:58:47.774Z</time></trkpt><trkpt lat="43.7193853" lon="11.291674"><ele>147.0</ele><time>2026-04-18T11:58:48.789Z</time></trkpt><trkpt lat="43.7195585" lon="11.2915956"><ele>146.0</ele><time>2026-04-18T11:58:49.787Z</time></trkpt><trkpt lat="43.71974" lon="11.2914746"><ele>145.0</ele><time>2026-04-18T11:58:50.778Z</time></trkpt><trkpt lat="43.7199054" lon="11.2912882"><ele>144.0</ele><time>2026-04-18T11:58:51.772Z</time></trkpt><trkpt lat="43.7200408" lon="11.2911127"><ele>142.0</ele><time>2026-04-18T11:58:52.778Z</time></trkpt><trkpt lat="43.7201812" lon="11.2909353"><ele>140.0</ele><time>2026-04-18T11:58:53.783Z</time></trkpt><trkpt lat="43.7203206" lon="11.2907707"><ele>138.0</ele><time>2026-04-18T11:58:54.781Z</time></trkpt><trkpt lat="43.720442" lon="11.2906418"><ele>133.25</ele><time>2026-04-18T11:58:55.79Z</time></trkpt><trkpt lat="43.7205511" lon="11.2905389"><ele>128.5</ele><time>2026-04-18T11:58:56.783Z</time></trkpt><trkpt lat="43.7206551" lon="11.2905043"><ele>123.75</ele><time>2026-04-18T11:58:57.782Z</time></trkpt><trkpt lat="43.7207721" lon="11.2905193"><ele>119.0</ele><time>2026-04-18T11:58:58.781Z</time></trkpt><trkpt lat="43.7208742" lon="11.2905762"><ele>115.75</ele><time>2026-04-18T11:58:59.794Z</time></trkpt><trkpt lat="43.7209777" lon="11.2906695"><ele>112.5</ele><time>2026-04-18T11:59:00.798Z</time></trkpt><trkpt lat="43.721055" lon="11.2907896"><ele>109.25</ele><time>2026-04-18T11:59:01.776Z</time></trkpt><trkpt lat="43.7211138" lon="11.2909422"><ele>106.0</ele><time>2026-04-18T11:59:02.789Z</time></trkpt><trkpt lat="43.7211223" lon="11.2911328"><ele>106.0</ele><time>2026-04-18T11:59:03.792Z</time></trkpt><trkpt lat="43.7211058" lon="11.2913101"><ele>106.0</ele><time>2026-04-18T11:59:04.794Z</time></trkpt><trkpt lat="43.7210365" lon="11.2914988"><ele>106.0</ele><time>2026-04-18T11:59:05.783Z</time></trkpt><trkpt lat="43.7209325" lon="11.2916999"><ele>115.0</ele><time>2026-04-18T11:59:06.78Z</time></trkpt><trkpt lat="43.7208809" lon="11.2919059"><ele>124.0</ele><time>2026-04-18T11:59:07.776Z</time></trkpt><trkpt lat="43.720884" lon="11.2921228"><ele>133.0</ele><time>2026-04-18T11:59:08.786Z</time></trkpt><trkpt lat="43.7209162" lon="11.2923375"><ele>133.0</ele><time>2026-04-18T11:59:09.775Z</time></trkpt><trkpt lat="43.7209964" lon="11.2925365"><ele>133.0</ele><time>2026-04-18T11:59:10.79Z</time></trkpt><trkpt lat="43.7211207" lon="11.292729"><ele>133.0</ele><time>2026-04-18T11:59:11.795Z</time></trkpt><trkpt lat="43.7212778" lon="11.2929114"><ele>126.5</ele><time>2026-04-18T11:59:12.784Z</time></trkpt><trkpt lat="43.7214447" lon="11.2931272"><ele>120.0</ele><time>2026-04-18T11:59:13.778Z</time></trkpt><trkpt lat="43.7216087" lon="11.2933527"><ele>120.0</ele><time>2026-04-18T11:59:14.785Z</time></trkpt><trkpt lat="43.7217466" lon="11.2935502"><ele>120.0</ele><time>2026-04-18T11:59:15.788Z</time></trkpt><trkpt lat="43.7218882" lon="11.293727"><ele>120.0</ele><time>2026-04-18T11:59:16.788Z</time></trkpt><trkpt lat="43.722008" lon="11.2938867"><ele>117.33333333333334</ele><time>2026-04-18T11:59:17.802Z</time></trkpt><trkpt lat="43.722155" lon="11.2939897"><ele>114.66666666666667</ele><time>2026-04-18T11:59:18.787Z</time></trkpt><trkpt lat="43.7223237" lon="11.2940488"><ele>112.0</ele><time>2026-04-18T11:59:19.781Z</time></trkpt><trkpt lat="43.722459" lon="11.2940584"><ele>112.0</ele><time>2026-04-18T11:59:20.785Z</time></trkpt><trkpt lat="43.7225813" lon="11.2940679"><ele>111.99999999999999</ele><time>2026-04-18T11:59:21.792Z</time></trkpt><trkpt lat="43.7226661" lon="11.2940918"><ele>111.99999999999999</ele><time>2026-04-18T11:59:22.795Z</time></trkpt><trkpt lat="43.7227467" lon="11.2941743"><ele>112.0</ele><time>2026-04-18T11:59:23.792Z</time></trkpt><trkpt lat="43.7228129" lon="11.2942821"><ele>112.0</ele><time>2026-04-18T11:59:24.8Z</time></trkpt><trkpt lat="43.7228394" lon="11.2944366"><ele>109.5</ele><time>2026-04-18T11:59:25.786Z</time></trkpt><trkpt lat="43.7228403" lon="11.2945848"><ele>107.0</ele><time>2026-04-18T11:59:26.782Z</time></trkpt><trkpt lat="43.7227802" lon="11.2946913"><ele>104.5</ele><time>2026-04-18T11:59:27.802Z</time></trkpt><trkpt lat="43.7226715" lon="11.2947821"><ele>102.0</ele><time>2026-04-18T11:59:28.799Z</time></trkpt><trkpt lat="43.7225409" lon="11.2948313"><ele>102.0</ele><time>2026-04-18T11:59:29.802Z</time></trkpt><trkpt lat="43.7223924" lon="11.294863"><ele>102.0</ele><time>2026-04-18T11:59:30.781Z</time></trkpt><trkpt lat="43.7222319" lon="11.2948873"><ele>102.0</ele><time>2026-04-18T11:59:31.772Z</time></trkpt><trkpt lat="43.722046" lon="11.2949355"><ele>104.33333333333334</ele><time>2026-04-18T11:59:32.771Z</time></trkpt><trkpt lat="43.7218413" lon="11.2949791"><ele>106.66666666666667</ele><time>2026-04-18T11:59:33.777Z</time></trkpt><trkpt lat="43.721633" lon="11.29502"><ele>109.0</ele><time>2026-04-18T11:59:34.772Z</time></trkpt><trkpt lat="43.721446" lon="11.2950772"><ele>109.0</ele><time>2026-04-18T11:59:35.771Z</time></trkpt><trkpt lat="43.7213026" lon="11.2951165"><ele>109.0</ele><time>2026-04-18T11:59:36.772Z</time></trkpt><trkpt lat="43.7211829" lon="11.295167"><ele>109.0</ele><time>2026-04-18T11:59:37.769Z</time></trkpt><trkpt lat="43.7210882" lon="11.2952828"><ele>109.0</ele><time>2026-04-18T11:59:38.775Z</time></trkpt><trkpt lat="43.7210243" lon="11.2954323"><ele>106.5</ele><time>2026-04-18T11:59:39.781Z</time></trkpt><trkpt lat="43.7210666" lon="11.2956047"><ele>104.0</ele><time>2026-04-18T11:59:40.775Z</time></trkpt><trkpt lat="43.7211421" lon="11.2957801"><ele>101.5</ele><time>2026-04-18T11:59:41.788Z</time></trkpt><trkpt lat="43.7212264" lon="11.2958691"><ele>99.0</ele><time>2026-04-18T11:59:42.796Z</time></trkpt><trkpt lat="43.7213322" lon="11.2959073"><ele>99.0</ele><time>2026-04-18T11:59:43.784Z</time></trkpt><trkpt lat="43.7214602" lon="11.29589"><ele>99.0</ele><time>2026-04-18T11:59:44.786Z</time></trkpt><trkpt lat="43.7216032" lon="11.2958172"><ele>99.0</ele><time>2026-04-18T11:59:45.786Z</time></trkpt><trkpt lat="43.7217789" lon="11.2957166"><ele>100.5</ele><time>2026-04-18T11:59:46.775Z</time></trkpt><trkpt lat="43.7220036" lon="11.2955989"><ele>102.0</ele><time>2026-04-18T11:59:47.782Z</time></trkpt><trkpt lat="43.722204" lon="11.2954757"><ele>102.0</ele><time>2026-04-18T11:59:48.789Z</time></trkpt><trkpt lat="43.7224047" lon="11.2953821"><ele>102.0</ele><time>2026-04-18T11:59:49.784Z</time></trkpt><trkpt lat="43.7226009" lon="11.2953036"><ele>102.0</ele><time>2026-04-18T11:59:50.791Z</time></trkpt><trkpt lat="43.7227819" lon="11.2951931"><ele>98.0</ele><time>2026-04-18T11:59:51.79Z</time></trkpt><trkpt lat="43.7229257" lon="11.2950645"><ele>94.0</ele><time>2026-04-18T11:59:52.802Z</time></trkpt><trkpt lat="43.7230367" lon="11.2949116"><ele>90.0</ele><time>2026-04-18T11:59:53.775Z</time></trkpt><trkpt lat="43.7231245" lon="11.294779"><ele>90.6</ele><time>2026-04-18T11:59:54.785Z</time></trkpt><trkpt lat="43.7232005" lon="11.2946667"><ele>91.2</ele><time>2026-04-18T11:59:55.791Z</time></trkpt><trkpt lat="43.7232582" lon="11.294566"><ele>91.80000000000001</ele><time>2026-04-18T11:59:56.759Z</time></trkpt><trkpt lat="43.7233253" lon="11.2944506"><ele>92.4</ele><time>2026-04-18T11:59:57.764Z</time></trkpt><trkpt lat="43.7234041" lon="11.2943132"><ele>93.0</ele><time>2026-04-18T11:59:58.764Z</time></trkpt><trkpt lat="43.7235076" lon="11.2941555"><ele>91.75</ele><time>2026-04-18T11:59:59.757Z</time></trkpt><trkpt lat="43.7235852" lon="11.2939972"><ele>90.5</ele><time>2026-04-18T12:00:00.746Z</time></trkpt><trkpt lat="43.7236782" lon="11.2938547"><ele>89.25</ele><time>2026-04-18T12:00:01.749Z</time></trkpt><trkpt lat="43.7237609" lon="11.2937024"><ele>88.0</ele><time>2026-04-18T12:00:02.747Z</time></trkpt><trkpt lat="43.7238506" lon="11.2935674"><ele>88.0</ele><time>2026-04-18T12:00:03.755Z</time></trkpt><trkpt lat="43.7239379" lon="11.2934377"><ele>88.0</ele><time>2026-04-18T12:00:04.761Z</time></trkpt><trkpt lat="43.7240198" lon="11.2933302"><ele>88.0</ele><time>2026-04-18T12:00:05.767Z</time></trkpt><trkpt lat="43.7240992" lon="11.293218"><ele>88.0</ele><time>2026-04-18T12:00:06.759Z</time></trkpt><trkpt lat="43.7241862" lon="11.2931255"><ele>88.2</ele><time>2026-04-18T12:00:07.756Z</time></trkpt><trkpt lat="43.7242656" lon="11.2930668"><ele>88.4</ele><time>2026-04-18T12:00:08.768Z</time></trkpt><trkpt lat="43.7243514" lon="11.293035"><ele>88.60000000000001</ele><time>2026-04-18T12:00:09.76Z</time></trkpt><trkpt lat="43.7244451" lon="11.29303"><ele>88.80000000000001</ele><time>2026-04-18T12:00:10.762Z</time></trkpt><trkpt lat="43.7245648" lon="11.2930152"><ele>89.0</ele><time>2026-04-18T12:00:11.759Z</time></trkpt><trkpt lat="43.7246823" lon="11.293027"><ele>89.0</ele><time>2026-04-18T12:00:12.76Z</time></trkpt><trkpt lat="43.7248206" lon="11.2930358"><ele>89.0</ele><time>2026-04-18T12:00:13.767Z</time></trkpt><trkpt lat="43.7249606" lon="11.2930359"><ele>89.0</ele><time>2026-04-18T12:00:14.768Z</time></trkpt><trkpt lat="43.7250852" lon="11.2930752"><ele>89.0</ele><time>2026-04-18T12:00:15.759Z</time></trkpt><trkpt lat="43.7252141" lon="11.2930729"><ele>89.2</ele><time>2026-04-18T12:00:16.757Z</time></trkpt><trkpt lat="43.7253482" lon="11.29305"><ele>89.4</ele><time>2026-04-18T12:00:17.759Z</time></trkpt><trkpt lat="43.7254344" lon="11.2929828"><ele>89.6</ele><time>2026-04-18T12:00:18.765Z</time></trkpt><trkpt lat="43.7254952" lon="11.2928973"><ele>89.8</ele><time>2026-04-18T12:00:19.774Z</time></trkpt><trkpt lat="43.7255606" lon="11.2928298"><ele>90.0</ele><time>2026-04-18T12:00:20.773Z</time></trkpt><trkpt lat="43.7256317" lon="11.2927646"><ele>90.0</ele><time>2026-04-18T12:00:21.771Z</time></trkpt><trkpt lat="43.7257086" lon="11.2927186"><ele>90.0</ele><time>2026-04-18T12:00:22.775Z</time></trkpt><trkpt lat="43.725783" lon="11.2927087"><ele>90.0</ele><time>2026-04-18T12:00:23.77Z</time></trkpt><trkpt lat="43.7258635" lon="11.2927381"><ele>90.0</ele><time>2026-04-18T12:00:24.767Z</time></trkpt><trkpt lat="43.7259489" lon="11.2928067"><ele>90.0</ele><time>2026-04-18T12:00:25.774Z</time></trkpt><trkpt lat="43.726035" lon="11.2928919"><ele>90.0</ele><time>2026-04-18T12:00:26.763Z</time></trkpt><trkpt lat="43.726128" lon="11.2929589"><ele>89.8</ele><time>2026-04-18T12:00:27.767Z</time></trkpt><trkpt lat="43.7262213" lon="11.293012"><ele>89.6</ele><time>2026-04-18T12:00:28.768Z</time></trkpt><trkpt lat="43.726311" lon="11.2930453"><ele>89.4</ele><time>2026-04-18T12:00:29.77Z</time></trkpt><trkpt lat="43.7264094" lon="11.2930899"><ele>89.2</ele><time>2026-04-18T12:00:30.768Z</time></trkpt><trkpt lat="43.726518" lon="11.2931435"><ele>89.0</ele><time>2026-04-18T12:00:31.768Z</time></trkpt><trkpt lat="43.7266305" lon="11.293207"><ele>89.0</ele><time>2026-04-18T12:00:32.774Z</time></trkpt><trkpt lat="43.7267371" lon="11.2932869"><ele>89.0</ele><time>2026-04-18T12:00:33.776Z</time></trkpt><trkpt lat="43.7268308" lon="11.2933782"><ele>89.0</ele><time>2026-04-18T12:00:34.766Z</time></trkpt><trkpt lat="43.7269142" lon="11.2934792"><ele>89.0</ele><time>2026-04-18T12:00:35.769Z</time></trkpt><trkpt lat="43.7269928" lon="11.2935738"><ele>89.0</ele><time>2026-04-18T12:00:36.773Z</time></trkpt><trkpt lat="43.7270619" lon="11.2936638"><ele>89.0</ele><time>2026-04-18T12:00:37.851Z</time></trkpt><trkpt lat="43.7271276" lon="11.2937597"><ele>89.0</ele><time>2026-04-18T12:00:38.843Z</time></trkpt><trkpt lat="43.7271897" lon="11.2938577"><ele>89.0</ele><time>2026-04-18T12:00:39.852Z</time></trkpt><trkpt lat="43.7272497" lon="11.2939507"><ele>89.0</ele><time>2026-04-18T12:00:40.85Z</time></trkpt><trkpt lat="43.7273071" lon="11.2940348"><ele>89.0</ele><time>2026-04-18T12:00:41.855Z</time></trkpt><trkpt lat="43.7273587" lon="11.2941146"><ele>89.0</ele><time>2026-04-18T12:00:42.849Z</time></trkpt><trkpt lat="43.7274024" lon="11.294189"><ele>89.0</ele><time>2026-04-18T12:00:43.863Z</time></trkpt><trkpt lat="43.7274559" lon="11.2942755"><ele>89.0</ele><time>2026-04-18T12:00:44.861Z</time></trkpt><trkpt lat="43.7275035" lon="11.2943478"><ele>89.0</ele><time>2026-04-18T12:00:45.857Z</time></trkpt><trkpt lat="43.727554" lon="11.2944328"><ele>89.0</ele><time>2026-04-18T12:00:46.85Z</time></trkpt><trkpt lat="43.7276097" lon="11.2945215"><ele>88.99999999999999</ele><time>2026-04-18T12:00:47.849Z</time></trkpt><trkpt lat="43.7276685" lon="11.2946089"><ele>89.0</ele><time>2026-04-18T12:00:48.857Z</time></trkpt><trkpt lat="43.7277156" lon="11.2946939"><ele>89.0</ele><time>2026-04-18T12:00:49.83Z</time></trkpt><trkpt lat="43.7277598" lon="11.2947662"><ele>89.0</ele><time>2026-04-18T12:00:50.832Z</time></trkpt><trkpt lat="43.7278168" lon="11.294832"><ele>89.0</ele><time>2026-04-18T12:00:51.842Z</time></trkpt><trkpt lat="43.7278675" lon="11.2948895"><ele>88.99999999999999</ele><time>2026-04-18T12:00:52.836Z</time></trkpt><trkpt lat="43.7279229" lon="11.2949543"><ele>89.0</ele><time>2026-04-18T12:00:53.842Z</time></trkpt><trkpt lat="43.7279769" lon="11.2950279"><ele>88.80000000000001</ele><time>2026-04-18T12:00:54.849Z</time></trkpt><trkpt lat="43.7280322" lon="11.2951027"><ele>88.60000000000001</ele><time>2026-04-18T12:00:55.838Z</time></trkpt><trkpt lat="43.7281" lon="11.2951811"><ele>88.4</ele><time>2026-04-18T12:00:56.844Z</time></trkpt><trkpt lat="43.7281791" lon="11.2952522"><ele>88.2</ele><time>2026-04-18T12:00:57.835Z</time></trkpt><trkpt lat="43.728269" lon="11.2953212"><ele>88.0</ele><time>2026-04-18T12:00:58.826Z</time></trkpt><trkpt lat="43.7283788" lon="11.2953821"><ele>88.0</ele><time>2026-04-18T12:00:59.834Z</time></trkpt><trkpt lat="43.7285002" lon="11.2954413"><ele>88.0</ele><time>2026-04-18T12:01:00.822Z</time></trkpt><trkpt lat="43.7286283" lon="11.2954927"><ele>88.0</ele><time>2026-04-18T12:01:01.831Z</time></trkpt><trkpt lat="43.728761" lon="11.2955325"><ele>88.0</ele><time>2026-04-18T12:01:02.841Z</time></trkpt><trkpt lat="43.7288981" lon="11.2955688"><ele>87.66666666666666</ele><time>2026-04-18T12:01:03.838Z</time></trkpt><trkpt lat="43.7290425" lon="11.2956028"><ele>87.33333333333333</ele><time>2026-04-18T12:01:04.825Z</time></trkpt><trkpt lat="43.7291963" lon="11.2956446"><ele>87.0</ele><time>2026-04-18T12:01:05.836Z</time></trkpt><trkpt lat="43.7293595" lon="11.2956933"><ele>88.0</ele><time>2026-04-18T12:01:06.854Z</time></trkpt><trkpt lat="43.7295257" lon="11.2957436"><ele>89.0</ele><time>2026-04-18T12:01:07.846Z</time></trkpt><trkpt lat="43.7296932" lon="11.2957983"><ele>90.0</ele><time>2026-04-18T12:01:08.85Z</time></trkpt><trkpt lat="43.7298532" lon="11.2958466"><ele>90.0</ele><time>2026-04-18T12:01:09.853Z</time></trkpt><trkpt lat="43.7299996" lon="11.2958932"><ele>90.0</ele><time>2026-04-18T12:01:10.836Z</time></trkpt><trkpt lat="43.7301348" lon="11.2959353"><ele>90.0</ele><time>2026-04-18T12:01:11.838Z</time></trkpt><trkpt lat="43.7302607" lon="11.2959736"><ele>90.0</ele><time>2026-04-18T12:01:12.839Z</time></trkpt><trkpt lat="43.7303798" lon="11.2960055"><ele>89.5</ele><time>2026-04-18T12:01:13.844Z</time></trkpt><trkpt lat="43.7305008" lon="11.2960378"><ele>89.0</ele><time>2026-04-18T12:01:14.843Z</time></trkpt><trkpt lat="43.7306366" lon="11.2960771"><ele>88.5</ele><time>2026-04-18T12:01:15.831Z</time></trkpt><trkpt lat="43.7307855" lon="11.2961253"><ele>88.0</ele><time>2026-04-18T12:01:16.837Z</time></trkpt><trkpt lat="43.7309333" lon="11.2961734"><ele>87.5</ele><time>2026-04-18T12:01:17.846Z</time></trkpt><trkpt lat="43.731063" lon="11.2962113"><ele>87.0</ele><time>2026-04-18T12:01:18.83Z</time></trkpt><trkpt lat="43.7311935" lon="11.2962527"><ele>86.5</ele><time>2026-04-18T12:01:19.843Z</time></trkpt><trkpt lat="43.7313363" lon="11.2962974"><ele>86.0</ele><time>2026-04-18T12:01:20.843Z</time></trkpt><trkpt lat="43.731484" lon="11.2963383"><ele>86.0</ele><time>2026-04-18T12:01:21.829Z</time></trkpt><trkpt lat="43.7316271" lon="11.2963841"><ele>86.0</ele><time>2026-04-18T12:01:22.839Z</time></trkpt><trkpt lat="43.7317627" lon="11.296435"><ele>86.0</ele><time>2026-04-18T12:01:23.841Z</time></trkpt><trkpt lat="43.7318893" lon="11.2964786"><ele>86.0</ele><time>2026-04-18T12:01:24.825Z</time></trkpt><trkpt lat="43.7320233" lon="11.2965136"><ele>86.33333333333334</ele><time>2026-04-18T12:01:25.841Z</time></trkpt><trkpt lat="43.7321737" lon="11.2965567"><ele>86.66666666666667</ele><time>2026-04-18T12:01:26.839Z</time></trkpt><trkpt lat="43.7323408" lon="11.296598"><ele>87.0</ele><time>2026-04-18T12:01:27.852Z</time></trkpt><trkpt lat="43.7325258" lon="11.2966423"><ele>87.0</ele><time>2026-04-18T12:01:28.846Z</time></trkpt><trkpt lat="43.7327069" lon="11.2966877"><ele>87.0</ele><time>2026-04-18T12:01:29.843Z</time></trkpt><trkpt lat="43.7328755" lon="11.2967335"><ele>87.0</ele><time>2026-04-18T12:01:30.846Z</time></trkpt><trkpt lat="43.7330341" lon="11.2967801"><ele>86.75</ele><time>2026-04-18T12:01:31.855Z</time></trkpt><trkpt lat="43.733186" lon="11.2968268"><ele>86.5</ele><time>2026-04-18T12:01:32.847Z</time></trkpt><trkpt lat="43.733326" lon="11.296866"><ele>86.25</ele><time>2026-04-18T12:01:33.849Z</time></trkpt><trkpt lat="43.7334496" lon="11.2968968"><ele>86.0</ele><time>2026-04-18T12:01:34.835Z</time></trkpt><trkpt lat="43.7335636" lon="11.2969217"><ele>85.83333333333334</ele><time>2026-04-18T12:01:35.844Z</time></trkpt><trkpt lat="43.7336715" lon="11.2969411"><ele>85.66666666666667</ele><time>2026-04-18T12:01:36.847Z</time></trkpt><trkpt lat="43.7337688" lon="11.2969583"><ele>85.5</ele><time>2026-04-18T12:01:37.841Z</time></trkpt><trkpt lat="43.7338538" lon="11.2969635"><ele>85.33333333333333</ele><time>2026-04-18T12:01:38.844Z</time></trkpt><trkpt lat="43.7339294" lon="11.2969636"><ele>85.16666666666666</ele><time>2026-04-18T12:01:39.84Z</time></trkpt><trkpt lat="43.7340004" lon="11.2969738"><ele>85.0</ele><time>2026-04-18T12:01:40.852Z</time></trkpt><trkpt lat="43.7340699" lon="11.2969971"><ele>85.0</ele><time>2026-04-18T12:01:41.837Z</time></trkpt><trkpt lat="43.7341472" lon="11.2970055"><ele>85.0</ele><time>2026-04-18T12:01:42.845Z</time></trkpt><trkpt lat="43.734224" lon="11.297003"><ele>85.0</ele><time>2026-04-18T12:01:43.856Z</time></trkpt><trkpt lat="43.7342988" lon="11.2969855"><ele>85.0</ele><time>2026-04-18T12:01:44.766Z</time></trkpt><trkpt lat="43.7343589" lon="11.2970128"><ele>85.0</ele><time>2026-04-18T12:01:45.771Z</time></trkpt><trkpt lat="43.7344396" lon="11.2970968"><ele>85.0</ele><time>2026-04-18T12:01:47.764Z</time></trkpt><trkpt lat="43.7344773" lon="11.2972119"><ele>85.16666666666666</ele><time>2026-04-18T12:01:49.771Z</time></trkpt><trkpt lat="43.7344651" lon="11.2973132"><ele>85.33333333333333</ele><time>2026-04-18T12:01:51.779Z</time></trkpt><trkpt lat="43.7344113" lon="11.2974117"><ele>85.5</ele><time>2026-04-18T12:01:53.77Z</time></trkpt><trkpt lat="43.7343092" lon="11.2975074"><ele>85.66666666666667</ele><time>2026-04-18T12:01:55.774Z</time></trkpt><trkpt lat="43.7342456" lon="11.2975678"><ele>85.83333333333334</ele><time>2026-04-18T12:01:56.77Z</time></trkpt><trkpt lat="43.7341819" lon="11.2976411"><ele>86.0</ele><time>2026-04-18T12:01:57.782Z</time></trkpt><trkpt lat="43.7341094" lon="11.2977061"><ele>86.0</ele><time>2026-04-18T12:01:58.778Z</time></trkpt><trkpt lat="43.7340398" lon="11.2977527"><ele>86.0</ele><time>2026-04-18T12:01:59.776Z</time></trkpt><trkpt lat="43.733927" lon="11.2977674"><ele>86.0</ele><time>2026-04-18T12:02:01.767Z</time></trkpt><trkpt lat="43.7338079" lon="11.2977578"><ele>86.0</ele><time>2026-04-18T12:02:03.767Z</time></trkpt><trkpt lat="43.7337434" lon="11.2977961"><ele>86.0</ele><time>2026-04-18T12:02:04.776Z</time></trkpt><trkpt lat="43.7336977" lon="11.2978779"><ele>86.0</ele><time>2026-04-18T12:02:05.761Z</time></trkpt><trkpt lat="43.7337015" lon="11.2980333"><ele>86.0</ele><time>2026-04-18T12:02:07.778Z</time></trkpt><trkpt lat="43.733743" lon="11.2981038"><ele>86.0</ele><time>2026-04-18T12:02:08.782Z</time></trkpt><trkpt lat="43.7338005" lon="11.2981554"><ele>86.0</ele><time>2026-04-18T12:02:09.782Z</time></trkpt><trkpt lat="43.7338778" lon="11.298174"><ele>86.0</ele><time>2026-04-18T12:02:10.77Z</time></trkpt><trkpt lat="43.7339638" lon="11.2981363"><ele>86.0</ele><time>2026-04-18T12:02:11.771Z</time></trkpt><trkpt lat="43.7340272" lon="11.2980649"><ele>86.0</ele><time>2026-04-18T12:02:12.772Z</time></trkpt><trkpt lat="43.7340735" lon="11.2979593"><ele>86.0</ele><time>2026-04-18T12:02:13.768Z</time></trkpt><trkpt lat="43.7341187" lon="11.2978674"><ele>86.0</ele><time>2026-04-18T12:02:14.771Z</time></trkpt><trkpt lat="43.7341827" lon="11.2977822"><ele>86.0</ele><time>2026-04-18T12:02:15.764Z</time></trkpt><trkpt lat="43.7342585" lon="11.2976955"><ele>86.0</ele><time>2026-04-18T12:02:16.773Z</time></trkpt><trkpt lat="43.7343376" lon="11.2976275"><ele>87.0</ele><time>2026-04-18T12:02:17.776Z</time></trkpt><trkpt lat="43.7344081" lon="11.2975598"><ele>88.0</ele><time>2026-04-18T12:02:18.767Z</time></trkpt><trkpt lat="43.7344712" lon="11.2975051"><ele>89.0</ele><time>2026-04-18T12:02:19.771Z</time></trkpt><trkpt lat="43.7345401" lon="11.2974566"><ele>90.0</ele><time>2026-04-18T12:02:20.766Z</time></trkpt><trkpt lat="43.734619" lon="11.2974426"><ele>91.0</ele><time>2026-04-18T12:02:21.776Z</time></trkpt><trkpt lat="43.7346937" lon="11.297439"><ele>92.0</ele><time>2026-04-18T12:02:22.777Z</time></trkpt><trkpt lat="43.7347665" lon="11.2974157"><ele>92.0</ele><time>2026-04-18T12:02:23.77Z</time></trkpt><trkpt lat="43.7348324" lon="11.2973565"><ele>92.0</ele><time>2026-04-18T12:02:24.765Z</time></trkpt><trkpt lat="43.7348865" lon="11.2972862"><ele>92.0</ele><time>2026-04-18T12:02:25.761Z</time></trkpt><trkpt lat="43.734944" lon="11.2971371"><ele>92.0</ele><time>2026-04-18T12:02:27.778Z</time></trkpt><trkpt lat="43.7349887" lon="11.2970658"><ele>92.0</ele><time>2026-04-18T12:02:28.772Z</time></trkpt><trkpt lat="43.7350464" lon="11.2969912"><ele>92.0</ele><time>2026-04-18T12:02:29.773Z</time></trkpt><trkpt lat="43.7351229" lon="11.2969297"><ele>91.16666666666667</ele><time>2026-04-18T12:02:30.78Z</time></trkpt><trkpt lat="43.735204" lon="11.2968848"><ele>90.33333333333334</ele><time>2026-04-18T12:02:31.776Z</time></trkpt><trkpt lat="43.7352802" lon="11.2968414"><ele>89.5</ele><time>2026-04-18T12:02:32.774Z</time></trkpt><trkpt lat="43.7353501" lon="11.2967875"><ele>88.66666666666667</ele><time>2026-04-18T12:02:33.783Z</time></trkpt><trkpt lat="43.735417" lon="11.2967362"><ele>87.83333333333333</ele><time>2026-04-18T12:02:34.774Z</time></trkpt><trkpt lat="43.7354697" lon="11.2966856"><ele>87.0</ele><time>2026-04-18T12:02:35.775Z</time></trkpt><trkpt lat="43.7355836" lon="11.2965909"><ele>87.0</ele><time>2026-04-18T12:02:37.77Z</time></trkpt><trkpt lat="43.7356664" lon="11.2965426"><ele>87.0</ele><time>2026-04-18T12:02:38.766Z</time></trkpt><trkpt lat="43.7357772" lon="11.2965255"><ele>87.0</ele><time>2026-04-18T12:02:39.777Z</time></trkpt><trkpt lat="43.7359208" lon="11.2965329"><ele>87.0</ele><time>2026-04-18T12:02:40.768Z</time></trkpt><trkpt lat="43.7360552" lon="11.2965625"><ele>86.8</ele><time>2026-04-18T12:02:41.773Z</time></trkpt><trkpt lat="43.7361712" lon="11.296593"><ele>86.6</ele><time>2026-04-18T12:02:42.763Z</time></trkpt><trkpt lat="43.7362754" lon="11.2966401"><ele>86.39999999999999</ele><time>2026-04-18T12:02:43.753Z</time></trkpt><trkpt lat="43.7363723" lon="11.2966807"><ele>86.19999999999999</ele><time>2026-04-18T12:02:44.744Z</time></trkpt><trkpt lat="43.7364662" lon="11.2967517"><ele>86.0</ele><time>2026-04-18T12:02:45.746Z</time></trkpt><trkpt lat="43.7365613" lon="11.2968061"><ele>86.0</ele><time>2026-04-18T12:02:46.744Z</time></trkpt><trkpt lat="43.7366433" lon="11.2967971"><ele>86.0</ele><time>2026-04-18T12:02:47.755Z</time></trkpt><trkpt lat="43.7367115" lon="11.2967249"><ele>86.0</ele><time>2026-04-18T12:02:48.768Z</time></trkpt><trkpt lat="43.7367533" lon="11.2966052"><ele>86.0</ele><time>2026-04-18T12:02:49.754Z</time></trkpt><trkpt lat="43.7367944" lon="11.2964612"><ele>86.0</ele><time>2026-04-18T12:02:50.75Z</time></trkpt><trkpt lat="43.7368405" lon="11.2962962"><ele>84.75</ele><time>2026-04-18T12:02:51.751Z</time></trkpt><trkpt lat="43.7368863" lon="11.2961237"><ele>83.5</ele><time>2026-04-18T12:02:52.755Z</time></trkpt><trkpt lat="43.7369251" lon="11.2959492"><ele>82.25</ele><time>2026-04-18T12:02:53.748Z</time></trkpt><trkpt lat="43.736947" lon="11.2957881"><ele>81.0</ele><time>2026-04-18T12:02:54.755Z</time></trkpt><trkpt lat="43.7369867" lon="11.2956613"><ele>80.6</ele><time>2026-04-18T12:02:55.759Z</time></trkpt><trkpt lat="43.7370371" lon="11.2955563"><ele>80.19999999999999</ele><time>2026-04-18T12:02:56.755Z</time></trkpt><trkpt lat="43.7370833" lon="11.2954464"><ele>79.80000000000001</ele><time>2026-04-18T12:02:57.769Z</time></trkpt><trkpt lat="43.7371732" lon="11.2953345"><ele>79.4</ele><time>2026-04-18T12:02:58.767Z</time></trkpt><trkpt lat="43.7372866" lon="11.2952295"><ele>79.0</ele><time>2026-04-18T12:02:59.77Z</time></trkpt><trkpt lat="43.7374036" lon="11.2951233"><ele>79.0</ele><time>2026-04-18T12:03:00.758Z</time></trkpt><trkpt lat="43.7375163" lon="11.2949831"><ele>79.0</ele><time>2026-04-18T12:03:01.771Z</time></trkpt><trkpt lat="43.7376171" lon="11.2948167"><ele>79.0</ele><time>2026-04-18T12:03:02.761Z</time></trkpt><trkpt lat="43.7377037" lon="11.2946398"><ele>79.0</ele><time>2026-04-18T12:03:03.77Z</time></trkpt><trkpt lat="43.7377635" lon="11.2944683"><ele>79.0</ele><time>2026-04-18T12:03:04.774Z</time></trkpt><trkpt lat="43.7378126" lon="11.2943099"><ele>79.0</ele><time>2026-04-18T12:03:05.77Z</time></trkpt><trkpt lat="43.7378584" lon="11.2941621"><ele>79.0</ele><time>2026-04-18T12:03:06.772Z</time></trkpt><trkpt lat="43.7378972" lon="11.2940249"><ele>79.2</ele><time>2026-04-18T12:03:07.766Z</time></trkpt><trkpt lat="43.7379308" lon="11.2938989"><ele>79.4</ele><time>2026-04-18T12:03:08.781Z</time></trkpt><trkpt lat="43.7379551" lon="11.2937933"><ele>79.6</ele><time>2026-04-18T12:03:09.774Z</time></trkpt><trkpt lat="43.7379794" lon="11.2936828"><ele>79.8</ele><time>2026-04-18T12:03:10.767Z</time></trkpt><trkpt lat="43.7380164" lon="11.2935412"><ele>80.0</ele><time>2026-04-18T12:03:12.766Z</time></trkpt><trkpt lat="43.7380563" lon="11.2934309"><ele>80.0</ele><time>2026-04-18T12:03:14.779Z</time></trkpt><trkpt lat="43.7380952" lon="11.2932342"><ele>80.0</ele><time>2026-04-18T12:03:16.767Z</time></trkpt><trkpt lat="43.7381128" lon="11.2930926"><ele>80.0</ele><time>2026-04-18T12:03:17.772Z</time></trkpt><trkpt lat="43.7381337" lon="11.2929254"><ele>80.0</ele><time>2026-04-18T12:03:18.768Z</time></trkpt><trkpt lat="43.7381503" lon="11.2927351"><ele>80.0</ele><time>2026-04-18T12:03:19.774Z</time></trkpt><trkpt lat="43.7381826" lon="11.2925491"><ele>80.0</ele><time>2026-04-18T12:03:20.78Z</time></trkpt><trkpt lat="43.7382206" lon="11.2923756"><ele>80.0</ele><time>2026-04-18T12:03:21.772Z</time></trkpt><trkpt lat="43.7382622" lon="11.29221"><ele>80.0</ele><time>2026-04-18T12:03:22.766Z</time></trkpt><trkpt lat="43.7382898" lon="11.2920399"><ele>80.5</ele><time>2026-04-18T12:03:23.777Z</time></trkpt><trkpt lat="43.7383179" lon="11.291859"><ele>81.0</ele><time>2026-04-18T12:03:24.776Z</time></trkpt><trkpt lat="43.7383671" lon="11.2916764"><ele>81.5</ele><time>2026-04-18T12:03:25.767Z</time></trkpt><trkpt lat="43.7384083" lon="11.2914773"><ele>82.0</ele><time>2026-04-18T12:03:26.774Z</time></trkpt><trkpt lat="43.7384603" lon="11.2912808"><ele>81.5</ele><time>2026-04-18T12:03:27.789Z</time></trkpt><trkpt lat="43.7385105" lon="11.2910909"><ele>81.0</ele><time>2026-04-18T12:03:28.853Z</time></trkpt><trkpt lat="43.7385622" lon="11.2909159"><ele>80.5</ele><time>2026-04-18T12:03:29.869Z</time></trkpt><trkpt lat="43.7386108" lon="11.2907567"><ele>80.0</ele><time>2026-04-18T12:03:30.869Z</time></trkpt><trkpt lat="43.7386644" lon="11.2905919"><ele>80.5</ele><time>2026-04-18T12:03:31.868Z</time></trkpt><trkpt lat="43.7387262" lon="11.2904202"><ele>81.0</ele><time>2026-04-18T12:03:32.861Z</time></trkpt><trkpt lat="43.7387985" lon="11.2902469"><ele>81.5</ele><time>2026-04-18T12:03:33.865Z</time></trkpt><trkpt lat="43.7388742" lon="11.2900817"><ele>82.0</ele><time>2026-04-18T12:03:34.857Z</time></trkpt><trkpt lat="43.7389504" lon="11.2899268"><ele>82.0</ele><time>2026-04-18T12:03:35.862Z</time></trkpt><trkpt lat="43.7390235" lon="11.289783"><ele>82.0</ele><time>2026-04-18T12:03:36.866Z</time></trkpt><trkpt lat="43.7390931" lon="11.2896479"><ele>82.0</ele><time>2026-04-18T12:03:37.856Z</time></trkpt><trkpt lat="43.7391631" lon="11.2895167"><ele>82.0</ele><time>2026-04-18T12:03:38.858Z</time></trkpt><trkpt lat="43.7392344" lon="11.289394"><ele>81.25</ele><time>2026-04-18T12:03:39.868Z</time></trkpt><trkpt lat="43.739313" lon="11.2892483"><ele>80.5</ele><time>2026-04-18T12:03:40.86Z</time></trkpt><trkpt lat="43.7393916" lon="11.2890941"><ele>79.75</ele><time>2026-04-18T12:03:41.869Z</time></trkpt><trkpt lat="43.7394709" lon="11.2889358"><ele>79.0</ele><time>2026-04-18T12:03:42.864Z</time></trkpt><trkpt lat="43.7395504" lon="11.2887718"><ele>79.0</ele><time>2026-04-18T12:03:43.868Z</time></trkpt><trkpt lat="43.7396308" lon="11.2886018"><ele>79.0</ele><time>2026-04-18T12:03:44.866Z</time></trkpt><trkpt lat="43.73971" lon="11.2884416"><ele>79.0</ele><time>2026-04-18T12:03:45.866Z</time></trkpt><trkpt lat="43.7397891" lon="11.2882867"><ele>79.0</ele><time>2026-04-18T12:03:46.87Z</time></trkpt><trkpt lat="43.7398688" lon="11.2881453"><ele>80.25</ele><time>2026-04-18T12:03:47.86Z</time></trkpt><trkpt lat="43.7399505" lon="11.2880162"><ele>81.5</ele><time>2026-04-18T12:03:48.864Z</time></trkpt><trkpt lat="43.7400315" lon="11.2878975"><ele>82.75</ele><time>2026-04-18T12:03:49.863Z</time></trkpt><trkpt lat="43.7401084" lon="11.2877885"><ele>84.0</ele><time>2026-04-18T12:03:50.858Z</time></trkpt><trkpt lat="43.7401834" lon="11.2876839"><ele>83.0</ele><time>2026-04-18T12:03:51.86Z</time></trkpt><trkpt lat="43.7402561" lon="11.2875928"><ele>82.0</ele><time>2026-04-18T12:03:52.855Z</time></trkpt><trkpt lat="43.7403266" lon="11.2875138"><ele>81.0</ele><time>2026-04-18T12:03:53.858Z</time></trkpt><trkpt lat="43.7403874" lon="11.2874472"><ele>80.0</ele><time>2026-04-18T12:03:54.856Z</time></trkpt><trkpt lat="43.7404431" lon="11.287399"><ele>79.0</ele><time>2026-04-18T12:03:55.848Z</time></trkpt><trkpt lat="43.7405288" lon="11.2873237"><ele>78.0</ele><time>2026-04-18T12:03:57.857Z</time></trkpt><trkpt lat="43.740591" lon="11.2872579"><ele>78.0</ele><time>2026-04-18T12:03:59.858Z</time></trkpt><trkpt lat="43.7406822" lon="11.2872278"><ele>78.0</ele><time>2026-04-18T12:04:04.784Z</time></trkpt><trkpt lat="43.740757" lon="11.2871528"><ele>78.0</ele><time>2026-04-18T12:04:06.786Z</time></trkpt><trkpt lat="43.7407633" lon="11.2870496"><ele>78.0</ele><time>2026-04-18T12:04:07.769Z</time></trkpt><trkpt lat="43.7407342" lon="11.2869534"><ele>78.0</ele><time>2026-04-18T12:04:08.767Z</time></trkpt><trkpt lat="43.7407117" lon="11.2868697"><ele>78.0</ele><time>2026-04-18T12:04:09.782Z</time></trkpt><trkpt lat="43.740727" lon="11.2867782"><ele>78.0</ele><time>2026-04-18T12:04:10.76Z</time></trkpt><trkpt lat="43.7407531" lon="11.2866953"><ele>78.0</ele><time>2026-04-18T12:04:11.772Z</time></trkpt><trkpt lat="43.7408103" lon="11.2866369"><ele>78.0</ele><time>2026-04-18T12:04:12.772Z</time></trkpt><trkpt lat="43.7408913" lon="11.2866202"><ele>78.0</ele><time>2026-04-18T12:04:13.778Z</time></trkpt><trkpt lat="43.7409818" lon="11.2866427"><ele>78.0</ele><time>2026-04-18T12:04:14.769Z</time></trkpt><trkpt lat="43.7410504" lon="11.2867077"><ele>78.0</ele><time>2026-04-18T12:04:15.757Z</time></trkpt><trkpt lat="43.7411172" lon="11.2867814"><ele>77.8</ele><time>2026-04-18T12:04:16.77Z</time></trkpt><trkpt lat="43.741175" lon="11.2868428"><ele>77.6</ele><time>2026-04-18T12:04:17.759Z</time></trkpt><trkpt lat="43.7412927" lon="11.2868486"><ele>77.4</ele><time>2026-04-18T12:04:19.766Z</time></trkpt><trkpt lat="43.7413629" lon="11.2867848"><ele>77.2</ele><time>2026-04-18T12:04:20.766Z</time></trkpt><trkpt lat="43.7414325" lon="11.2866873"><ele>77.0</ele><time>2026-04-18T12:04:21.763Z</time></trkpt><trkpt lat="43.7414858" lon="11.2865398"><ele>76.75</ele><time>2026-04-18T12:04:22.76Z</time></trkpt><trkpt lat="43.7415298" lon="11.2863765"><ele>76.5</ele><time>2026-04-18T12:04:23.762Z</time></trkpt><trkpt lat="43.7415682" lon="11.2861993"><ele>76.25</ele><time>2026-04-18T12:04:24.765Z</time></trkpt><trkpt lat="43.741612" lon="11.2860205"><ele>76.0</ele><time>2026-04-18T12:04:25.761Z</time></trkpt><trkpt lat="43.7416577" lon="11.2858369"><ele>76.0</ele><time>2026-04-18T12:04:26.763Z</time></trkpt><trkpt lat="43.7417075" lon="11.2856532"><ele>76.0</ele><time>2026-04-18T12:04:27.78Z</time></trkpt><trkpt lat="43.7417438" lon="11.2854599"><ele>76.0</ele><time>2026-04-18T12:04:28.77Z</time></trkpt><trkpt lat="43.7418043" lon="11.2852796"><ele>76.0</ele><time>2026-04-18T12:04:29.779Z</time></trkpt><trkpt lat="43.7418554" lon="11.2850927"><ele>76.0</ele><time>2026-04-18T12:04:30.771Z</time></trkpt><trkpt lat="43.741907" lon="11.2849148"><ele>76.0</ele><time>2026-04-18T12:04:31.767Z</time></trkpt><trkpt lat="43.7420019" lon="11.2845879"><ele>76.0</ele><time>2026-04-18T12:04:33.762Z</time></trkpt><trkpt lat="43.7420273" lon="11.284437"><ele>76.0</ele><time>2026-04-18T12:04:34.768Z</time></trkpt><trkpt lat="43.7420055" lon="11.2842814"><ele>76.0</ele><time>2026-04-18T12:04:35.76Z</time></trkpt><trkpt lat="43.7419737" lon="11.2841467"><ele>76.0</ele><time>2026-04-18T12:04:36.769Z</time></trkpt><trkpt lat="43.7419423" lon="11.284065"><ele>76.0</ele><time>2026-04-18T12:04:37.758Z</time></trkpt><trkpt lat="43.7419568" lon="11.2839373"><ele>76.0</ele><time>2026-04-18T12:04:39.753Z</time></trkpt><trkpt lat="43.7420437" lon="11.2838307"><ele>76.0</ele><time>2026-04-18T12:04:41.764Z</time></trkpt><trkpt lat="43.7421053" lon="11.2837391"><ele>76.0</ele><time>2026-04-18T12:04:42.76Z</time></trkpt><trkpt lat="43.7421766" lon="11.2836289"><ele>76.0</ele><time>2026-04-18T12:04:43.766Z</time></trkpt><trkpt lat="43.742231" lon="11.2834806"><ele>76.0</ele><time>2026-04-18T12:04:44.755Z</time></trkpt><trkpt lat="43.7422688" lon="11.2833102"><ele>76.0</ele><time>2026-04-18T12:04:45.759Z</time></trkpt><trkpt lat="43.742294" lon="11.2831343"><ele>76.0</ele><time>2026-04-18T12:04:46.76Z</time></trkpt><trkpt lat="43.7422966" lon="11.2829402"><ele>76.0</ele><time>2026-04-18T12:04:47.763Z</time></trkpt><trkpt lat="43.7422975" lon="11.2827365"><ele>76.0</ele><time>2026-04-18T12:04:48.765Z</time></trkpt><trkpt lat="43.7423014" lon="11.2825326"><ele>76.0</ele><time>2026-04-18T12:04:49.757Z</time></trkpt><trkpt lat="43.7423184" lon="11.2823404"><ele>76.0</ele><time>2026-04-18T12:04:50.763Z</time></trkpt><trkpt lat="43.7423353" lon="11.282178"><ele>76.0</ele><time>2026-04-18T12:04:51.772Z</time></trkpt><trkpt lat="43.7423388" lon="11.2820153"><ele>76.0</ele><time>2026-04-18T12:04:52.764Z</time></trkpt><trkpt lat="43.7423426" lon="11.2818695"><ele>76.0</ele><time>2026-04-18T12:04:53.762Z</time></trkpt><trkpt lat="43.7423596" lon="11.2817668"><ele>76.0</ele><time>2026-04-18T12:04:54.756Z</time></trkpt><trkpt lat="43.7424026" lon="11.2816924"><ele>76.0</ele><time>2026-04-18T12:04:55.761Z</time></trkpt><trkpt lat="43.7425074" lon="11.2816222"><ele>76.0</ele><time>2026-04-18T12:04:57.759Z</time></trkpt><trkpt lat="43.7425666" lon="11.2815923"><ele>76.0</ele><time>2026-04-18T12:04:58.752Z</time></trkpt><trkpt lat="43.7426501" lon="11.2815765"><ele>76.0</ele><time>2026-04-18T12:04:59.762Z</time></trkpt><trkpt lat="43.7427517" lon="11.2815711"><ele>76.0</ele><time>2026-04-18T12:05:00.752Z</time></trkpt><trkpt lat="43.7428621" lon="11.2815666"><ele>75.83333333333333</ele><time>2026-04-18T12:05:01.75Z</time></trkpt><trkpt lat="43.7429621" lon="11.2815532"><ele>75.66666666666666</ele><time>2026-04-18T12:05:02.752Z</time></trkpt><trkpt lat="43.7430562" lon="11.2815426"><ele>75.5</ele><time>2026-04-18T12:05:03.762Z</time></trkpt><trkpt lat="43.7431392" lon="11.2815292"><ele>75.33333333333333</ele><time>2026-04-18T12:05:04.754Z</time></trkpt><trkpt lat="43.743208" lon="11.2814835"><ele>75.16666666666667</ele><time>2026-04-18T12:05:05.761Z</time></trkpt><trkpt lat="43.7432471" lon="11.2814068"><ele>75.0</ele><time>2026-04-18T12:05:06.763Z</time></trkpt><trkpt lat="43.7432797" lon="11.2813138"><ele>75.4</ele><time>2026-04-18T12:05:07.746Z</time></trkpt><trkpt lat="43.7433057" lon="11.2812097"><ele>75.8</ele><time>2026-04-18T12:05:08.737Z</time></trkpt><trkpt lat="43.743311" lon="11.2810515"><ele>76.2</ele><time>2026-04-18T12:05:09.735Z</time></trkpt><trkpt lat="43.7433173" lon="11.2809135"><ele>76.6</ele><time>2026-04-18T12:05:10.741Z</time></trkpt><trkpt lat="43.7433263" lon="11.2807906"><ele>77.0</ele><time>2026-04-18T12:05:11.743Z</time></trkpt><trkpt lat="43.7433397" lon="11.2806877"><ele>76.83333333333334</ele><time>2026-04-18T12:05:12.748Z</time></trkpt><trkpt lat="43.7433475" lon="11.2805921"><ele>76.66666666666667</ele><time>2026-04-18T12:05:13.756Z</time></trkpt><trkpt lat="43.7433512" lon="11.280424"><ele>76.5</ele><time>2026-04-18T12:05:15.749Z</time></trkpt><trkpt lat="43.7433455" lon="11.2803325"><ele>76.33333333333333</ele><time>2026-04-18T12:05:16.756Z</time></trkpt><trkpt lat="43.7433348" lon="11.280225"><ele>76.16666666666666</ele><time>2026-04-18T12:05:17.75Z</time></trkpt><trkpt lat="43.7433315" lon="11.2801038"><ele>76.0</ele><time>2026-04-18T12:05:18.749Z</time></trkpt><trkpt lat="43.7433119" lon="11.279976"><ele>76.0</ele><time>2026-04-18T12:05:19.75Z</time></trkpt><trkpt lat="43.743278" lon="11.2798543"><ele>76.0</ele><time>2026-04-18T12:05:20.757Z</time></trkpt><trkpt lat="43.7432386" lon="11.2797476"><ele>76.0</ele><time>2026-04-18T12:05:21.769Z</time></trkpt><trkpt lat="43.7431944" lon="11.2796582"><ele>76.0</ele><time>2026-04-18T12:05:22.768Z</time></trkpt><trkpt lat="43.7431429" lon="11.2795919"><ele>76.0</ele><time>2026-04-18T12:05:23.756Z</time></trkpt><trkpt lat="43.7430742" lon="11.2795335"><ele>76.0</ele><time>2026-04-18T12:05:24.767Z</time></trkpt><trkpt lat="43.7429928" lon="11.2794762"><ele>75.75</ele><time>2026-04-18T12:05:25.756Z</time></trkpt><trkpt lat="43.7428882" lon="11.279397"><ele>75.5</ele><time>2026-04-18T12:05:26.756Z</time></trkpt><trkpt lat="43.7427891" lon="11.2793061"><ele>75.25</ele><time>2026-04-18T12:05:27.76Z</time></trkpt><trkpt lat="43.742687" lon="11.2792186"><ele>75.0</ele><time>2026-04-18T12:05:28.762Z</time></trkpt><trkpt lat="43.7425996" lon="11.2791327"><ele>75.0</ele><time>2026-04-18T12:05:29.762Z</time></trkpt><trkpt lat="43.7425185" lon="11.2790313"><ele>75.0</ele><time>2026-04-18T12:05:30.767Z</time></trkpt><trkpt lat="43.7424377" lon="11.2789246"><ele>75.0</ele><time>2026-04-18T12:05:31.758Z</time></trkpt><trkpt lat="43.7423691" lon="11.2788129"><ele>75.0</ele><time>2026-04-18T12:05:32.759Z</time></trkpt><trkpt lat="43.742317" lon="11.2787119"><ele>75.0</ele><time>2026-04-18T12:05:33.765Z</time></trkpt><trkpt lat="43.7422505" lon="11.2786245"><ele>75.0</ele><time>2026-04-18T12:05:34.752Z</time></trkpt><trkpt lat="43.7421765" lon="11.2785465"><ele>75.0</ele><time>2026-04-18T12:05:35.765Z</time></trkpt><trkpt lat="43.7420951" lon="11.2784611"><ele>75.0</ele><time>2026-04-18T12:05:36.758Z</time></trkpt><trkpt lat="43.7420159" lon="11.2783831"><ele>75.0</ele><time>2026-04-18T12:05:37.759Z</time></trkpt><trkpt lat="43.7419272" lon="11.2782993"><ele>75.0</ele><time>2026-04-18T12:05:38.761Z</time></trkpt><trkpt lat="43.7418273" lon="11.2781994"><ele>74.8</ele><time>2026-04-18T12:05:39.758Z</time></trkpt><trkpt lat="43.7417436" lon="11.2780936"><ele>74.6</ele><time>2026-04-18T12:05:40.764Z</time></trkpt><trkpt lat="43.7416739" lon="11.2779957"><ele>74.4</ele><time>2026-04-18T12:05:41.758Z</time></trkpt><trkpt lat="43.7416172" lon="11.2779018"><ele>74.2</ele><time>2026-04-18T12:05:42.758Z</time></trkpt><trkpt lat="43.7415669" lon="11.2778184"><ele>74.0</ele><time>2026-04-18T12:05:43.766Z</time></trkpt><trkpt lat="43.7415185" lon="11.277743"><ele>74.0</ele><time>2026-04-18T12:05:44.751Z</time></trkpt><trkpt lat="43.7414459" lon="11.2776703"><ele>74.0</ele><time>2026-04-18T12:05:46.768Z</time></trkpt><trkpt lat="43.7413881" lon="11.2777333"><ele>74.0</ele><time>2026-04-18T12:08:08.779Z</time></trkpt><trkpt lat="43.7413484" lon="11.2778221"><ele>74.0</ele><time>2026-04-18T12:08:11.784Z</time></trkpt><trkpt lat="43.7412989" lon="11.2778917"><ele>74.0</ele><time>2026-04-18T12:08:14.771Z</time></trkpt><trkpt lat="43.741259" lon="11.277969"><ele>74.0</ele><time>2026-04-18T12:08:16.776Z</time></trkpt><trkpt lat="43.7412334" lon="11.2780755"><ele>74.0</ele><time>2026-04-18T12:08:19.779Z</time></trkpt><trkpt lat="43.7412359" lon="11.2781757"><ele>75.0</ele><time>2026-04-18T12:08:22.782Z</time></trkpt><trkpt lat="43.7412671" lon="11.2782742"><ele>75.0</ele><time>2026-04-18T12:08:35.775Z</time></trkpt></trkseg></trk></gpx>